# Wetter Temperatur Luftdruck Luftfeuchtigkeit Sichtweite Windgeschwindigkeit Windrichtung Zeit
1 Rain 21 1014 94 6000 4.1 200 11:19 08.04.2020
2 Clouds 22 1014 88 7000 2.1 170 10:55 08.04.2020
3 Clouds 22 1014 88 7000 2.1 170 10:37 08.04.2020
4 Clouds 22 1014 88 7000 2.1 170 10:18 08.04.2020
5 Clouds 22 1014 88 6000 2.6 180 09:42 08.04.2020
6 Clouds 22 1014 88 6000 2.6 180 09:21 08.04.2020
7 Rain 22 1014 94 4000 1.5 200 08:59 08.04.2020
8 Rain 22 1014 94 4000 1.5 200 08:41 08.04.2020
9 Rain 22 1014 94 4000 1.5 200 08:21 08.04.2020
10 Rain 23 1014 88 6000 3.6 270 07:43 08.04.2020
11 Rain 23 1014 88 6000 3.6 270 07:23 08.04.2020
12 Rain 22 1015 94 4000 2.1 210 06:48 08.04.2020
13 Clouds 23 1015 94 10000 1 10 05:56 08.04.2020
14 Rain 23 1015 94 4500 1 20 03:34 08.04.2020
15 Rain 24 1014 100 4500 3.1 350 02:49 08.04.2020
16 Rain 23 1014 100 4500 3.1 350 02:19 08.04.2020
17 Rain 24 1014 88 10000 1.5 140 01:30 08.04.2020
18 Rain 25 1014 83 10000 3.1 220 00:59 08.04.2020
19 Rain 25 1014 83 10000 3.1 220 00:59 08.04.2020
20 Rain 25 1014 83 10000 3.1 220 00:40 08.04.2020
21 Rain 25 1014 83 10000 3.1 220 00:20 08.04.2020
22 Clouds 25 1013 74 10000 3.1 280 23:39 07.04.2020
23 Clouds 25 1013 74 10000 3.1 280 23:20 07.04.2020
24 Clouds 25 1012 69 10000 2.6 230 22:57 07.04.2020
25 Clouds 25 1012 69 10000 2.6 230 22:57 07.04.2020
26 Clouds 25 1012 69 10000 2.6 230 22:39 07.04.2020
27 Clouds 26 1012 69 10000 4.6 210 22:19 07.04.2020
28 Clouds 26 1012 69 10000 4.6 210 21:56 07.04.2020
29 Clouds 26 1012 69 10000 4.6 210 21:38 07.04.2020
30 Clouds 26 1012 69 10000 4.6 210 21:19 07.04.2020
31 Clouds 26 1011 78 10000 6.7 200 20:55 07.04.2020
32 Clouds 26 1011 78 10000 6.7 200 20:37 07.04.2020
33 Clouds 25 1011 78 10000 6.7 200 20:18 07.04.2020
34 Clouds 26 1011 74 10000 6.2 200 19:56 07.04.2020
35 Clouds 26 1011 74 10000 6.2 200 19:36 07.04.2020
36 Clouds 27 1011 74 10000 6.2 200 19:18 07.04.2020
37 Clouds 27 1012 69 10000 5.1 180 18:54 07.04.2020
38 Clouds 28 1012 69 10000 5.1 180 18:36 07.04.2020
39 Clouds 28 1012 69 10000 5.1 180 18:18 07.04.2020
40 Clouds 28 1013 69 10000 7.7 190 17:41 07.04.2020
41 Clouds 28 1013 69 10000 7.7 190 17:20 07.04.2020
42 Clouds 28 1013 74 10000 3.6 180 16:45 07.04.2020
43 Clouds 28 1013 74 10000 3.6 180 16:27 07.04.2020
44 Clouds 28 1013 66 10000 3.1 270 15:55 07.04.2020
45 Clouds 28 1013 66 10000 3.1 270 15:36 07.04.2020
46 Clouds 26 1012 88 7000 4.6 150 15:36 07.04.2020
47 Clouds 26 1012 88 7000 4.6 150 15:18 07.04.2020
48 Clouds 26 1012 88 7000 4.6 150 14:39 07.04.2020
49 Clouds 26 1012 88 7000 4.6 150 14:21 07.04.2020
50 Clouds 24 1011 88 7000 2.1 360 13:56 07.04.2020
51 Clouds 24 1011 88 7000 2.1 360 13:37 07.04.2020
52 Clouds 24 1011 88 7000 2.1 360 13:18 07.04.2020
53 Clouds 23 1011 94 7000 1 360 12:54 07.04.2020
54 Clouds 23 1011 94 7000 1 360 12:36 07.04.2020
55 Clouds 22 1011 94 6000 1.5 100 12:18 07.04.2020
56 Clouds 22 1011 94 6000 1.5 100 11:42 07.04.2020
57 Clouds 22 1011 94 6000 1.5 100 11:22 07.04.2020
58 Clouds 23 1010 94 10000 1.5 120 10:57 07.04.2020
59 Clouds 23 1010 94 10000 1.5 120 10:37 07.04.2020
60 Clouds 23 1010 94 10000 1 100 10:18 07.04.2020
61 Clouds 23 1010 94 10000 1 100 09:44 07.04.2020
62 Clouds 23 1010 94 10000 1 100 09:18 07.04.2020
63 Clouds 23 1010 94 10000 1.48 357 08:43 07.04.2020
64 Clouds 23 1010 94 10000 1.48 357 08:25 07.04.2020
65 Clouds 23 1010 94 10000 1 100 07:59 07.04.2020
66 Clouds 23 1010 94 10000 1 100 07:40 07.04.2020
67 Clouds 24 1011 83 10000 1 70 07:21 07.04.2020
68 Clouds 24 1011 83 10000 1 70 06:51 07.04.2020
69 Clouds 24 1011 83 10000 1 70 06:21 07.04.2020
70 Clouds 24 1011 88 10000 1.52 21 05:38 07.04.2020
71 Clouds 24 1011 88 10000 1.52 21 04:46 07.04.2020
72 Clouds 24 1011 88 10000 1 130 03:26 07.04.2020
73 Clouds 25 1011 83 10000 1.5 130 02:54 07.04.2020
74 Clear 25 1011 78 10000 1.5 180 01:50 07.04.2020
75 Clear 25 1011 78 10000 1.5 180 01:26 07.04.2020
76 Clear 25 1011 83 10000 4.1 180 00:29 07.04.2020
77 Clear 25 1011 83 10000 4.1 180 00:29 07.04.2020
78 Clear 26 1011 78 10000 5.7 190 23:56 06.04.2020
79 Clear 27 1011 78 10000 5.7 190 23:36 06.04.2020
80 Clear 27 1011 78 10000 5.7 190 23:18 06.04.2020
81 Clear 28 1011 74 10000 4.6 170 22:40 06.04.2020
82 Clear 28 1011 74 10000 4.6 170 22:21 06.04.2020
83 Clouds 28 1011 69 10000 4.6 160 21:57 06.04.2020
84 Clouds 28 1011 69 10000 4.6 160 21:39 06.04.2020
85 Clouds 29 1011 69 10000 4.6 160 21:19 06.04.2020
86 Clouds 29 1012 69 10000 4.6 170 20:55 06.04.2020
87 Clouds 27 1012 69 10000 4.6 170 20:37 06.04.2020
88 Clouds 27 1012 78 10000 6.2 160 20:18 06.04.2020
89 Clouds 27 1012 78 10000 6.2 160 19:41 06.04.2020
90 Clouds 27 1013 78 10000 5.7 160 19:23 06.04.2020
91 Clouds 28 1013 78 10000 5.7 160 18:58 06.04.2020
92 Clouds 29 1013 78 10000 5.7 160 18:39 06.04.2020
93 Clouds 29 1014 74 10000 5.1 160 18:21 06.04.2020
94 Clouds 28 1014 74 10000 5.1 160 17:42 06.04.2020
95 Clouds 26 1014 73 10000 4.1 150 17:20 06.04.2020
96 Clouds 26 1014 73 10000 4.1 150 16:50 06.04.2020
97 Clouds 27 1014 73 10000 4.1 150 16:32 06.04.2020
98 Clouds 27 1015 78 10000 2.1 130 16:00 06.04.2020
99 Clouds 27 1015 78 10000 2.1 130 16:00 06.04.2020
100 Clouds 25 1015 69 10000 0.5 60 14:38 06.04.2020
101 Clouds 25 1015 69 10000 0.5 60 14:38 06.04.2020
102 Clouds 25 1015 69 10000 0.5 60 14:38 06.04.2020
103 Clouds 25 1015 69 10000 0.5 60 14:38 06.04.2020
104 Clouds 25 1015 69 10000 0.5 60 14:38 06.04.2020
105 Clouds 23 1016 78 10000 1.5 120 13:43 06.04.2020
106 Clouds 23 1016 78 10000 1.5 120 13:43 06.04.2020
107 Clouds 23 1016 78 10000 1.5 120 13:20 06.04.2020
108 Clouds 23 1016 78 10000 1.5 120 13:20 06.04.2020
109 Clouds 23 1016 78 10000 1.5 120 13:20 06.04.2020
110 Clouds 23 1016 78 10000 2.05 52 12:25 06.04.2020
111 Clouds 23 1016 78 10000 2.05 52 12:25 06.04.2020
112 Clouds 23 1016 78 10000 2.05 52 12:25 06.04.2020
113 Clouds 22 1015 83 10000 1.5 30 11:55 06.04.2020
114 Clouds 22 1015 83 10000 1.5 30 11:55 06.04.2020
115 Clouds 22 1015 83 10000 1.5 30 11:33 06.04.2020
116 Clouds 22 1015 83 10000 1.5 30 11:33 06.04.2020
117 Clouds 22 1015 83 10000 1.5 30 11:33 06.04.2020
118 Clouds 22 1015 83 10000 1.5 30 11:33 06.04.2020
119 Clouds 22 1015 83 10000 1.5 30 11:33 06.04.2020
120 Clouds 22 1015 88 10000 1.5 90 10:52 06.04.2020
121 Clouds 22 1015 88 10000 1.5 90 10:52 06.04.2020
122 Clouds 22 1015 88 10000 1.5 90 10:52 06.04.2020
123 Clouds 22 1015 88 10000 1.5 90 10:52 06.04.2020
124 Clouds 22 1015 88 10000 1.5 90 10:52 06.04.2020
125 Clouds 22 1015 88 10000 1.5 90 10:22 06.04.2020
126 Clouds 22 1015 88 10000 2.1 80 09:50 06.04.2020
127 Clouds 22 1015 88 10000 2.1 80 09:23 06.04.2020
128 Clouds 23 1015 83 10000 2.1 120 08:55 06.04.2020
129 Clouds 23 1015 83 10000 2.1 120 08:33 06.04.2020
130 Clouds 23 1016 83 10000 2.6 80 07:53 06.04.2020
131 Clouds 24 1016 78 10000 3.1 110 06:57 06.04.2020
132 Clouds 24 1016 78 10000 3.1 110 06:25 06.04.2020
133 Clouds 23 1017 83 10000 1 160 04:50 06.04.2020
134 Clouds 23 1017 83 10000 1 160 04:50 06.04.2020
135 Clouds 24 1017 78 10000 2.1 170 03:27 06.04.2020
136 Clouds 24 1017 78 10000 3.1 160 02:48 06.04.2020
137 Clouds 24 1016 73 10000 2.6 170 01:52 06.04.2020
138 Clouds 24 1016 73 10000 2.6 170 01:51 06.04.2020
139 Clouds 24 1016 73 10000 3.6 170 00:49 06.04.2020
140 Clouds 24 1016 73 10000 3.6 170 00:25 06.04.2020
141 Clouds 23 1015 73 10000 4.1 170 23:47 05.04.2020
142 Clouds 24 1015 73 10000 4.1 170 23:29 05.04.2020
143 Clouds 24 1015 73 10000 4.1 170 23:29 05.04.2020
144 Clouds 24 1015 73 10000 4.1 170 23:29 05.04.2020
145 Clouds 25 1015 69 10000 5.1 170 22:56 05.04.2020
146 Clouds 25 1015 69 10000 5.1 170 22:38 05.04.2020
147 Clouds 25 1015 69 10000 5.1 170 22:19 05.04.2020
148 Clouds 26 1014 69 10000 5.1 170 21:57 05.04.2020
149 Clouds 26 1014 69 10000 5.1 170 21:39 05.04.2020
150 Clouds 25 1014 69 10000 5.1 170 21:21 05.04.2020
151 Clouds 25 1014 69 10000 5.1 170 21:21 05.04.2020
152 Clouds 25 1014 69 10000 5.1 170 21:21 05.04.2020
153 Clouds 25 1014 69 10000 5.1 170 21:21 05.04.2020
154 Clouds 25 1014 69 10000 5.1 170 21:21 05.04.2020
155 Clouds 26 1014 69 10000 5.1 160 20:20 05.04.2020
156 Clouds 26 1014 69 10000 5.1 160 20:20 05.04.2020
157 Clouds 27 1014 65 10000 5.1 160 19:41 05.04.2020
158 Clouds 27 1014 65 10000 5.1 160 19:22 05.04.2020
159 Clouds 27 1015 65 10000 4.1 150 18:46 05.04.2020
160 Clouds 27 1015 65 10000 4.1 150 18:46 05.04.2020
161 Clouds 27 1015 65 10000 4.1 150 18:46 05.04.2020
162 Clouds 25 1016 78 10000 4.1 140 17:58 05.04.2020
163 Clouds 25 1016 78 10000 4.1 140 17:58 05.04.2020
164 Clouds 25 1016 78 10000 4.1 140 17:39 05.04.2020
165 Clouds 27 1016 78 10000 4.1 140 17:20 05.04.2020
166 Clouds 26 1017 73 10000 3.6 140 16:45 05.04.2020
167 Clouds 26 1017 73 10000 3.6 140 16:45 05.04.2020
168 Clouds 26 1017 73 10000 3.6 140 16:45 05.04.2020
169 Clouds 26 1017 73 10000 3.6 140 16:45 05.04.2020
170 Clouds 26 1017 73 10000 3.6 140 16:45 05.04.2020
171 Clouds 26 1017 73 10000 3.6 140 16:18 05.04.2020
172 Clouds 26 1017 73 10000 2.6 130 15:44 05.04.2020
173 Clouds 25 1017 73 10000 1.5 30 15:25 05.04.2020
174 Clouds 25 1017 73 10000 1.5 30 15:25 05.04.2020
175 Clouds 24 1016 78 10000 1.5 10 14:47 05.04.2020
176 Clouds 24 1016 78 10000 1.5 10 14:47 05.04.2020
177 Clouds 24 1016 78 10000 1.5 10 14:47 05.04.2020
178 Clouds 24 1016 78 10000 1.5 10 14:47 05.04.2020
179 Clouds 24 1016 78 10000 1.5 10 14:47 05.04.2020
180 Clouds 22 1016 83 10000 1.5 340 13:45 05.04.2020
181 Clouds 21 1015 83 10000 3.1 350 12:57 05.04.2020
182 Clouds 21 1015 83 10000 2.6 360 11:58 05.04.2020
183 Clouds 21 1015 83 10000 2.6 360 11:58 05.04.2020
184 Clouds 21 1015 83 10000 2.6 360 11:58 05.04.2020
185 Clouds 23 1015 83 10000 2.6 360 11:38 05.04.2020
186 Clouds 23 1015 83 10000 2.6 360 11:19 05.04.2020
187 Clouds 23 1015 78 10000 1.5 320 10:44 05.04.2020
188 Clouds 23 1015 78 10000 1.5 320 10:44 05.04.2020
189 Clouds 23 1015 78 10000 1.5 320 10:44 05.04.2020
190 Clouds 23 1015 78 10000 1.5 320 10:44 05.04.2020
191 Clouds 23 1015 78 10000 1.5 320 10:19 05.04.2020
192 Clouds 23 1015 73 10000 1.5 330 09:52 05.04.2020
193 Clouds 23 1015 73 10000 1.5 330 09:52 05.04.2020
194 Clouds 23 1015 73 10000 1.5 330 09:52 05.04.2020
195 Clouds 23 1015 73 10000 1.5 330 09:52 05.04.2020
196 Clouds 23 1015 73 10000 1.5 330 09:52 05.04.2020
197 Clouds 23 1015 73 10000 1.5 330 09:25 05.04.2020
198 Clouds 23 1015 73 10000 1.5 330 09:25 05.04.2020
199 Clouds 23 1015 73 10000 1.5 330 09:25 05.04.2020
200 Clouds 23 1015 73 10000 1.5 330 09:25 05.04.2020
201 Clouds 23 1015 73 10000 1.5 310 07:58 05.04.2020
202 Clouds 23 1015 73 10000 2.6 320 04:56 05.04.2020
203 Clouds 24 1015 69 10000 1.5 240 03:35 05.04.2020
204 Clouds 23 1015 64 10000 2.1 200 02:53 05.04.2020
205 Clouds 24 1014 69 10000 3.6 230 01:52 05.04.2020
206 Clouds 24 1014 69 10000 3.6 230 01:33 05.04.2020
207 Clouds 24 1013 69 10000 3.6 210 00:48 05.04.2020
208 Clouds 24 1013 69 10000 3.6 210 00:22 05.04.2020
209 Clouds 24 1012 65 10000 3.6 210 23:58 04.04.2020
210 Clouds 24 1012 65 10000 3.6 210 23:58 04.04.2020
211 Clouds 24 1012 65 10000 3.6 210 23:38 04.04.2020
212 Clouds 25 1012 65 10000 3.6 210 23:20 04.04.2020
213 Clouds 25 1012 65 10000 5.1 200 22:56 04.04.2020
214 Clouds 25 1012 65 10000 5.1 200 22:38 04.04.2020
215 Clouds 24 1012 65 10000 5.1 200 22:19 04.04.2020
216 Clouds 25 1011 54 10000 6.2 200 21:56 04.04.2020
217 Clouds 25 1011 54 10000 6.2 200 21:38 04.04.2020
218 Clouds 25 1011 54 10000 6.2 200 21:18 04.04.2020
219 Clouds 26 1011 51 10000 6.7 190 20:43 04.04.2020
220 Clouds 27 1011 51 10000 6.7 190 20:23 04.04.2020
221 Clouds 28 1011 51 10000 7.2 190 19:59 04.04.2020
222 Clouds 28 1011 51 10000 7.2 190 19:59 04.04.2020
223 Clouds 28 1011 51 10000 7.2 190 19:40 04.04.2020
224 Clouds 28 1011 51 10000 7.2 190 19:20 04.04.2020
225 Clouds 28 1011 51 10000 6.7 190 18:59 04.04.2020
226 Clouds 28 1011 51 10000 6.7 190 18:59 04.04.2020
227 Clouds 28 1011 51 10000 6.7 190 18:39 04.04.2020
228 Clouds 28 1011 51 10000 6.7 190 18:39 04.04.2020
229 Clouds 28 1011 51 10000 6.7 190 18:21 04.04.2020
230 Clouds 28 1012 48 10000 4.6 220 17:58 04.04.2020
231 Clouds 28 1012 48 10000 4.6 220 17:39 04.04.2020
232 Clouds 28 1012 48 10000 4.6 220 17:19 04.04.2020
233 Clouds 27 1012 51 10000 5.7 260 16:45 04.04.2020
234 Clouds 27 1012 51 10000 5.7 260 16:27 04.04.2020
235 Clouds 27 1012 61 10000 2.6 130 15:59 04.04.2020
236 Clouds 26 1012 61 10000 2.6 130 15:39 04.04.2020
237 Clouds 26 1012 61 10000 2.6 130 15:19 04.04.2020
238 Clouds 25 1012 65 10000 4.6 340 14:55 04.04.2020
239 Clouds 24 1012 65 10000 4.6 340 14:37 04.04.2020
240 Clouds 24 1012 65 10000 4.6 340 14:18 04.04.2020
241 Rain 24 1011 64 10000 4.1 330 13:42 04.04.2020
242 Rain 24 1011 64 10000 4.1 330 13:22 04.04.2020
243 Clouds 22 1011 69 10000 2.6 300 12:58 04.04.2020
244 Clouds 21 1011 69 10000 2.6 300 12:40 04.04.2020
245 Clouds 21 1011 69 10000 2.6 300 12:21 04.04.2020
246 Clouds 21 1010 69 10000 3.1 290 11:42 04.04.2020
247 Clouds 22 1010 69 10000 3.1 290 11:23 04.04.2020
248 Clouds 21 1009 77 10000 2.6 260 10:59 04.04.2020
249 Clouds 21 1009 77 10000 2.6 260 10:41 04.04.2020
250 Clouds 21 1009 77 10000 2.6 260 10:23 04.04.2020
251 Clouds 22 1009 73 10000 3.1 270 09:57 04.04.2020
252 Clouds 22 1009 73 10000 3.1 270 09:39 04.04.2020
253 Clouds 22 1009 73 10000 3.1 270 09:21 04.04.2020
254 Clouds 23 1009 69 10000 3.6 270 08:45 04.04.2020
255 Clouds 23 1009 69 10000 3.6 270 08:25 04.04.2020
256 Clouds 23 1010 69 10000 3.6 290 07:59 04.04.2020
257 Clouds 23 1010 69 10000 3.6 290 07:40 04.04.2020
258 Clouds 23 1010 69 10000 3.6 290 07:21 04.04.2020
259 Clouds 23 1010 69 10000 4.1 280 06:40 04.04.2020
260 Clouds 23 1010 73 10000 2.6 290 05:54 04.04.2020
261 Clouds 23 1010 73 10000 2.6 290 05:33 04.04.2020
262 Clouds 25 1010 65 10000 2.1 240 04:40 04.04.2020
263 Clouds 25 1010 65 10000 2.1 240 04:20 04.04.2020
264 Clouds 25 1009 61 10000 3.1 220 03:45 04.04.2020
265 Clouds 25 1009 61 10000 3.1 200 02:49 04.04.2020
266 Clouds 25 1009 61 10000 3.1 200 02:30 04.04.2020
267 Clouds 25 1008 54 10000 5.7 230 01:50 04.04.2020
268 Clouds 25 1008 54 10000 5.7 230 01:22 04.04.2020
269 Clouds 25 1007 65 10000 5.7 230 00:47 04.04.2020
270 Clouds 26 1007 65 10000 5.7 230 00:26 04.04.2020
271 Clouds 25 1006 74 10000 4.6 220 23:39 03.04.2020
272 Clouds 25 1006 74 10000 4.6 220 23:20 03.04.2020
273 Clouds 25 1005 74 10000 5.1 200 22:56 03.04.2020
274 Clouds 25 1005 74 10000 5.1 200 22:37 03.04.2020
275 Clouds 26 1005 74 10000 5.1 200 22:18 03.04.2020
276 Rain 26 1004 74 8000 7.2 220 21:43 03.04.2020
277 Rain 28 1003 61 10000 7.2 210 21:22 03.04.2020
278 Clouds 28 1003 58 10000 7.7 210 20:56 03.04.2020
279 Clouds 28 1003 58 10000 7.7 210 20:36 03.04.2020
280 Clouds 27 1003 58 10000 7.7 210 20:36 03.04.2020
281 Clouds 28 1003 58 10000 7.7 210 20:18 03.04.2020
282 Clouds 29 1003 58 10000 6.2 170 19:56 03.04.2020
283 Clouds 29 1003 58 10000 6.2 170 19:37 03.04.2020
284 Clouds 29 1003 58 10000 6.2 170 19:19 03.04.2020
285 Clouds 30 1003 58 10000 8.2 210 18:58 03.04.2020
286 Clouds 30 1003 58 10000 8.2 210 18:40 03.04.2020
287 Clouds 30 1003 58 10000 8.2 210 18:22 03.04.2020
288 Clouds 31 1004 49 10000 8.7 190 17:43 03.04.2020
289 Clouds 32 1004 49 10000 8.7 190 17:21 03.04.2020
290 Clouds 32 1004 52 10000 3.6 240 16:58 03.04.2020
291 Clouds 32 1004 52 10000 3.6 240 16:40 03.04.2020
292 Clouds 32 1004 52 10000 3.6 240 16:21 03.04.2020
293 Clouds 33 1005 46 10000 4.6 290 15:58 03.04.2020
294 Clouds 33 1005 46 10000 4.6 290 15:38 03.04.2020
295 Clear 33 1005 46 10000 4.6 290 15:19 03.04.2020
296 Clear 26 1001 77 0 3.29 321 14:41 03.04.2020
297 Clear 29 1004 55 10000 2.6 300 14:22 03.04.2020
298 Clear 29 1004 55 10000 2.6 300 13:59 03.04.2020
299 Clear 29 1004 55 10000 2.6 300 13:40 03.04.2020
300 Clear 29 1004 55 10000 2.6 300 13:22 03.04.2020
301 Clear 28 1004 58 10000 3.1 280 12:43 03.04.2020
302 Clear 27 1004 58 10000 3.1 280 12:20 03.04.2020
303 Clear 26 1003 62 10000 3.1 280 11:57 03.04.2020
304 Clear 26 1003 62 10000 3.1 280 11:39 03.04.2020
305 Clear 28 1003 62 10000 3.1 280 11:20 03.04.2020
306 Clear 28 1004 65 10000 4.1 310 10:59 03.04.2020
307 Clear 28 1004 65 10000 4.1 310 10:38 03.04.2020
308 Clear 27 1004 65 10000 4.1 310 10:20 03.04.2020
309 Clear 26 1003 78 10000 2.6 210 09:59 03.04.2020
310 Clear 26 1003 78 10000 2.6 210 09:40 03.04.2020
311 Clear 26 1003 78 10000 2.6 210 09:40 03.04.2020
312 Clear 26 1003 78 10000 2.6 210 09:21 03.04.2020
313 Clear 26 1003 78 10000 2.6 210 09:21 03.04.2020
314 Clear 26 1003 78 10000 2.6 210 09:21 03.04.2020
315 Clear 26 1004 88 10000 1.5 220 08:56 03.04.2020
316 Clear 26 1004 88 10000 1.5 220 08:37 03.04.2020
317 Clear 26 1004 88 10000 1.5 220 08:19 03.04.2020
318 Clear 26 1005 88 10000 1 0 07:46 03.04.2020
319 Clear 26 1005 88 10000 1 0 07:28 03.04.2020
320 Clear 25 1006 88 10000 1 80 06:40 03.04.2020
321 Clear 26 1006 88 10000 1 80 06:22 03.04.2020
322 Clear 26 1007 88 10000 1 0 05:39 03.04.2020
323 Clear 27 1007 83 10000 2.1 310 03:42 03.04.2020
324 Clouds 27 1008 78 10000 2.6 320 02:55 03.04.2020
325 Clear 28 1008 78 10000 2.6 320 02:18 03.04.2020
326 Clear 28 1008 74 10000 0.5 310 01:20 03.04.2020
327 Clear 28 1008 74 10000 0.5 310 01:20 03.04.2020
328 Clear 27 1007 83 10000 1.5 140 00:34 03.04.2020
329 Clear 28 1007 78 10000 2.6 170 23:58 02.04.2020
330 Clear 27 1007 78 10000 2.6 170 23:39 02.04.2020
331 Clear 29 1007 78 10000 2.6 170 23:21 02.04.2020
332 Clear 29 1007 70 10000 3.6 170 22:57 02.04.2020
333 Clear 29 1007 70 10000 3.6 170 22:37 02.04.2020
334 Clear 28 1007 70 10000 3.6 170 22:18 02.04.2020
335 Clear 28 1008 74 10000 4.6 180 21:38 02.04.2020
336 Clouds 31 1008 74 10000 4.6 180 21:19 02.04.2020
337 Clear 31 1008 70 10000 5.1 180 20:58 02.04.2020
338 Clear 31 1008 70 10000 5.1 180 20:40 02.04.2020
339 Clear 31 1008 70 10000 5.1 180 20:21 02.04.2020
340 Clear 30 1009 74 10000 4.1 160 19:44 02.04.2020
341 Clear 30 1009 74 10000 4.1 160 19:21 02.04.2020
342 Clear 30 1009 74 10000 4.1 160 19:21 02.04.2020
343 Clouds 31 1010 74 10000 2.6 130 18:58 02.04.2020
344 Clouds 28 1010 74 10000 2.6 130 18:39 02.04.2020
345 Clouds 30 1010 74 10000 2.6 130 18:20 02.04.2020
346 Clouds 29 1011 78 10000 2.6 340 17:56 02.04.2020
347 Clouds 29 1011 78 10000 2.6 340 17:38 02.04.2020
348 Clouds 29 1011 78 10000 2.6 340 17:18 02.04.2020
349 Clouds 29 1011 78 10000 2.6 340 17:18 02.04.2020
350 Clouds 27 1013 74 10000 3.6 340 16:55 02.04.2020
351 Clouds 27 1013 74 10000 3.6 340 16:36 02.04.2020
352 Clouds 28 1013 74 10000 3.6 340 16:18 02.04.2020
353 Clouds 28 1014 78 10000 3.1 340 15:44 02.04.2020
354 Clouds 28 1014 78 10000 3.1 340 15:44 02.04.2020
355 Clouds 28 1014 78 10000 3.1 340 15:44 02.04.2020
356 Clouds 26 1014 78 10000 3.1 340 15:21 02.04.2020
357 Clouds 26 1014 83 10000 1.5 350 14:58 02.04.2020
358 Clouds 26 1014 83 10000 1.5 350 14:40 02.04.2020
359 Clouds 26 1014 83 10000 1.5 350 14:19 02.04.2020
360 Clouds 25 1014 78 10000 1.5 130 13:57 02.04.2020
361 Clouds 24 1014 78 10000 1.5 130 13:38 02.04.2020
362 Clouds 24 1014 78 10000 1.5 130 13:20 02.04.2020
363 Clouds 23 1014 88 10000 1 60 12:55 02.04.2020
364 Clouds 22 1014 88 10000 1 60 12:37 02.04.2020
365 Clouds 23 1014 88 10000 1 60 12:19 02.04.2020
366 Clouds 22 1014 88 10000 2.1 50 11:56 02.04.2020
367 Clouds 23 1014 88 10000 2.1 50 11:37 02.04.2020
368 Clouds 23 1014 88 10000 2.1 50 11:37 02.04.2020
369 Clouds 23 1014 88 10000 2.1 50 11:18 02.04.2020
370 Clouds 22 1014 88 10000 1.5 100 10:54 02.04.2020
371 Clouds 22 1014 88 10000 1.5 100 10:36 02.04.2020
372 Clouds 22 1014 88 10000 1.5 100 10:18 02.04.2020
373 Clouds 22 1014 88 10000 1 110 09:43 02.04.2020
374 Clouds 22 1014 88 10000 1 110 09:24 02.04.2020
375 Clouds 22 1014 88 10000 1.5 90 08:58 02.04.2020
376 Clouds 22 1014 88 10000 1.5 90 08:40 02.04.2020
377 Clouds 22 1014 88 10000 1.5 90 08:22 02.04.2020
378 Clouds 23 1015 88 10000 2.1 110 07:44 02.04.2020
379 Clouds 23 1015 88 10000 2.1 110 07:20 02.04.2020
380 Clouds 23 1015 88 10000 1.5 120 06:58 02.04.2020
381 Clouds 23 1015 88 10000 1.5 120 06:21 02.04.2020
382 Clouds 23 1016 88 10000 1 90 05:45 02.04.2020
383 Clouds 24 1016 83 10000 3.1 80 04:33 02.04.2020
384 Clouds 25 1015 83 10000 2.6 20 01:35 02.04.2020
385 Clouds 25 1015 78 10000 2.1 60 00:48 02.04.2020
386 Clouds 24 1015 78 10000 2.1 60 00:27 02.04.2020
387 Clouds 25 1014 78 10000 4.6 110 23:55 01.04.2020
388 Clouds 25 1014 78 10000 4.6 110 23:37 01.04.2020
389 Clouds 27 1014 78 10000 4.6 110 23:18 01.04.2020
390 Clouds 27 1014 78 10000 4.6 110 23:18 01.04.2020
391 Clouds 27 1014 74 10000 3.6 170 22:40 01.04.2020
392 Clouds 27 1014 74 10000 3.6 170 22:22 01.04.2020
393 Clouds 26 1014 78 10000 5.7 180 21:57 01.04.2020
394 Clouds 25 1014 78 10000 5.7 180 21:38 01.04.2020
395 Clouds 26 1014 78 10000 5.7 180 21:18 01.04.2020
396 Clouds 28 1014 69 10000 5.1 160 20:55 01.04.2020
397 Clouds 27 1014 69 10000 5.1 160 20:37 01.04.2020
398 Clouds 27 1014 69 10000 5.1 160 20:18 01.04.2020
399 Clouds 26 1014 78 10000 6.2 170 19:43 01.04.2020
400 Clouds 28 1014 78 10000 6.2 170 19:22 01.04.2020
401 Clouds 28 1014 74 10000 5.1 160 18:59 01.04.2020
402 Clouds 28 1014 74 10000 5.1 160 18:40 01.04.2020
403 Clouds 28 1014 74 10000 5.1 160 18:21 01.04.2020
404 Clouds 28 1015 78 10000 5.7 160 17:55 01.04.2020
405 Clouds 26 1015 78 10000 5.7 160 17:36 01.04.2020
406 Clouds 26 1015 78 10000 5.7 160 17:18 01.04.2020
407 Clouds 26 1015 78 10000 5.7 160 17:18 01.04.2020
408 Clouds 25 1015 74 10000 3.6 160 16:42 01.04.2020
409 Clouds 25 1015 74 10000 3.6 160 16:24 01.04.2020
410 Clouds 25 1016 78 10000 2.6 170 15:59 01.04.2020
411 Clouds 25 1016 78 10000 2.6 170 15:41 01.04.2020
412 Clouds 27 1016 78 10000 2.6 170 15:22 01.04.2020
413 Clouds 26 1016 83 10000 1 0 14:58 01.04.2020
414 Clouds 26 1016 83 10000 1 0 14:39 01.04.2020
415 Clouds 26 1016 83 10000 1 0 14:20 01.04.2020
416 Clouds 26 1015 83 10000 1.5 90 13:58 01.04.2020
417 Clouds 26 1015 83 10000 1.5 90 13:38 01.04.2020
418 Clouds 26 1015 83 10000 1.5 90 13:38 01.04.2020
419 Clouds 26 1015 83 10000 1.5 90 13:19 01.04.2020
420 Clouds 23 1015 88 10000 1 160 12:56 01.04.2020
421 Clouds 23 1015 88 10000 1 160 12:37 01.04.2020
422 Clouds 23 1015 88 10000 1 160 12:18 01.04.2020
423 Clouds 23 1014 88 10000 0.5 0 11:54 01.04.2020
424 Clouds 24 1014 88 10000 0.5 0 11:36 01.04.2020
425 Clouds 24 1014 88 10000 0.5 0 11:18 01.04.2020
426 Clouds 24 1014 88 10000 1.5 100 10:38 01.04.2020
427 Clouds 24 1014 88 10000 1.5 100 10:20 01.04.2020
428 Clouds 24 1013 88 10000 2.1 130 09:57 01.04.2020
429 Clouds 24 1013 88 10000 2.1 130 09:39 01.04.2020
430 Clouds 24 1013 88 10000 2.1 130 09:19 01.04.2020
431 Clouds 23 1013 94 10000 2.1 100 08:43 01.04.2020
432 Clouds 23 1013 94 10000 2.1 100 08:18 01.04.2020
433 Clouds 24 1014 88 10000 3.6 110 07:48 01.04.2020
434 Clouds 24 1014 88 10000 3.6 110 07:23 01.04.2020
435 Clouds 24 1014 88 10000 3.6 120 06:59 01.04.2020
436 Clouds 24 1014 88 10000 3.6 120 06:38 01.04.2020
437 Clouds 24 1014 88 10000 1 200 06:20 01.04.2020
438 Clouds 25 1014 83 10000 1 170 04:55 01.04.2020
439 Clouds 25 1014 83 10000 2.1 150 03:36 01.04.2020
440 Clouds 25 1014 83 10000 3.6 180 02:59 01.04.2020
441 Clouds 25 1014 83 10000 3.6 180 02:31 01.04.2020
442 Clouds 25 1014 83 10000 2.1 150 01:46 01.04.2020
443 Clouds 25 1014 83 10000 2.1 150 01:24 01.04.2020
444 Clouds 25 1013 83 10000 4.6 170 00:47 01.04.2020
445 Clouds 25 1013 83 10000 4.6 170 00:21 01.04.2020
446 Clouds 25 1013 83 10000 5.1 170 23:54 31.03.2020
447 Clouds 25 1013 83 10000 5.1 170 23:36 31.03.2020
448 Clouds 25 1012 83 10000 6.2 170 23:18 31.03.2020
449 Clouds 25 1012 83 10000 6.2 170 22:40 31.03.2020
450 Clouds 25 1012 83 10000 6.2 170 22:40 31.03.2020
451 Clouds 26 1012 83 10000 6.2 170 22:20 31.03.2020
452 Clouds 26 1012 83 10000 6.2 170 21:58 31.03.2020
453 Clouds 26 1012 83 10000 5.7 160 21:39 31.03.2020
454 Clouds 27 1012 83 10000 5.7 160 21:21 31.03.2020
455 Clouds 28 1012 83 10000 6.2 170 20:57 31.03.2020
456 Clouds 28 1012 83 10000 6.2 170 20:37 31.03.2020
457 Clouds 28 1012 83 10000 6.2 170 20:18 31.03.2020
458 Clouds 28 1012 83 10000 5.1 170 19:55 31.03.2020
459 Clouds 28 1012 83 10000 5.1 170 19:37 31.03.2020
460 Clouds 26 1013 78 10000 5.7 160 19:18 31.03.2020
461 Clouds 26 1013 78 10000 5.7 160 18:43 31.03.2020
462 Clouds 26 1013 83 10000 5.1 160 18:20 31.03.2020
463 Clouds 27 1013 83 10000 5.1 160 17:57 31.03.2020
464 Clouds 26 1013 83 10000 5.1 160 17:39 31.03.2020
465 Clouds 27 1013 83 10000 5.1 160 17:21 31.03.2020
466 Clouds 28 1014 78 10000 4.6 160 16:56 31.03.2020
467 Clouds 27 1014 78 10000 4.6 160 16:36 31.03.2020
468 Clouds 28 1014 78 10000 4.6 160 16:18 31.03.2020
469 Clouds 27 1014 83 10000 3.1 150 15:54 31.03.2020
470 Clouds 26 1014 83 10000 3.1 150 15:36 31.03.2020
471 Clouds 26 1014 83 10000 3.1 150 15:18 31.03.2020
472 Clouds 25 1015 83 10000 1.5 130 14:42 31.03.2020
473 Clouds 26 1015 83 10000 1.5 130 14:22 31.03.2020
474 Clouds 25 1014 88 10000 1.5 40 13:58 31.03.2020
475 Clouds 25 1014 88 10000 1.5 40 13:40 31.03.2020
476 Clouds 24 1014 88 10000 1.5 40 13:19 31.03.2020
477 Clouds 23 1014 94 10000 0.5 50 12:46 31.03.2020
478 Clouds 23 1014 94 10000 0.5 50 12:20 31.03.2020
479 Clouds 24 1013 94 10000 1.49 1 11:58 31.03.2020
480 Clouds 24 1013 94 10000 1.49 1 11:38 31.03.2020
481 Clouds 24 1013 94 10000 1.49 1 11:19 31.03.2020
482 Clouds 23 1013 94 10000 0.5 170 10:55 31.03.2020
483 Clouds 23 1013 94 10000 0.5 170 10:37 31.03.2020
484 Clouds 23 1013 94 10000 0.5 170 10:19 31.03.2020
485 Clouds 24 1013 94 10000 2.1 130 09:44 31.03.2020
486 Clouds 24 1013 94 10000 2.1 130 09:25 31.03.2020
487 Clouds 24 1013 94 10000 1 160 08:59 31.03.2020
488 Clouds 24 1013 94 10000 1 160 08:41 31.03.2020
489 Clouds 24 1013 94 10000 1 160 08:21 31.03.2020
490 Clouds 24 1014 94 10000 1 170 07:59 31.03.2020
491 Clouds 24 1014 94 10000 1 170 07:41 31.03.2020
492 Clouds 24 1014 94 10000 1 170 07:22 31.03.2020
493 Clouds 25 1014 88 10000 1.5 210 06:55 31.03.2020
494 Clouds 25 1014 88 10000 1.5 210 06:36 31.03.2020
495 Clouds 24 1015 94 10000 2.1 180 05:42 31.03.2020
496 Clouds 24 1015 94 10000 2.1 180 05:20 31.03.2020
497 Clouds 25 1016 88 10000 2.1 160 02:53 31.03.2020
498 Clouds 25 1015 88 10000 2.1 160 01:47 31.03.2020
499 Clouds 25 1015 88 10000 2.1 160 01:19 31.03.2020
500 Clouds 25 1014 88 10000 4.1 170 00:43 31.03.2020
501 Clouds 25 1014 88 10000 4.1 170 00:20 31.03.2020
502 Clouds 25 1014 83 10000 4.6 180 23:40 30.03.2020
503 Clouds 25 1014 83 10000 4.6 180 23:20 30.03.2020
504 Clouds 26 1013 78 10000 5.7 170 22:57 30.03.2020
505 Clouds 26 1013 78 10000 5.7 170 22:38 30.03.2020
506 Clouds 26 1013 78 10000 5.7 170 22:38 30.03.2020
507 Clouds 26 1013 78 10000 5.7 170 22:19 30.03.2020
508 Clouds 26 1014 83 10000 5.7 170 21:57 30.03.2020
509 Clouds 26 1014 83 10000 5.7 170 21:38 30.03.2020
510 Clouds 25 1014 83 10000 5.7 170 21:20 30.03.2020
511 Clouds 26 1013 78 10000 5.7 160 20:58 30.03.2020
512 Clouds 26 1013 78 10000 5.7 160 20:38 30.03.2020
513 Clouds 27 1013 78 10000 5.7 160 20:19 30.03.2020
514 Clouds 27 1014 83 10000 4.6 140 19:56 30.03.2020
515 Clouds 27 1014 83 10000 4.6 140 19:37 30.03.2020
516 Clouds 27 1014 83 10000 4.6 140 19:19 30.03.2020
517 Clouds 27 1014 83 8000 3.1 150 18:42 30.03.2020
518 Clouds 27 1014 83 8000 3.1 150 18:24 30.03.2020
519 Clouds 27 1015 83 7000 2.1 130 17:58 30.03.2020
520 Clouds 26 1015 83 7000 2.1 130 17:39 30.03.2020
521 Clouds 26 1015 83 7000 2.1 130 17:19 30.03.2020
522 Clouds 26 1016 88 6000 1 40 16:57 30.03.2020
523 Clouds 26 1016 88 6000 1 40 16:39 30.03.2020
524 Clouds 26 1016 88 6000 1 40 16:20 30.03.2020
525 Clouds 26 1016 88 6000 1 40 16:20 30.03.2020
526 Clouds 26 1016 88 6000 1.5 30 15:55 30.03.2020
527 Clouds 26 1016 88 6000 1.5 30 15:37 30.03.2020
528 Clouds 26 1016 88 6000 1.5 30 15:19 30.03.2020
529 Clouds 26 1016 88 6000 1.5 30 15:19 30.03.2020
530 Mist 26 1016 88 5000 2.1 10 14:55 30.03.2020
531 Mist 25 1016 88 5000 2.1 10 14:37 30.03.2020
532 Mist 24 1016 88 5000 2.1 10 14:18 30.03.2020
533 Mist 23 1015 94 5000 1 60 13:55 30.03.2020
534 Mist 23 1015 94 5000 1 60 13:37 30.03.2020
535 Mist 23 1015 94 5000 1 60 13:18 30.03.2020
536 Clouds 23 1015 94 6000 2.6 300 12:43 30.03.2020
537 Clouds 23 1015 94 6000 2.6 300 12:20 30.03.2020
538 Clouds 22 1014 94 10000 1.5 360 11:57 30.03.2020
539 Clouds 23 1014 94 10000 1.5 360 11:39 30.03.2020
540 Clouds 24 1014 94 10000 1.5 360 11:21 30.03.2020
541 Clouds 23 1014 94 10000 2.1 70 10:41 30.03.2020
542 Clouds 23 1014 94 10000 2.1 70 10:23 30.03.2020
543 Clouds 24 1015 94 10000 2.1 40 09:59 30.03.2020
544 Clouds 24 1015 94 10000 2.1 40 09:40 30.03.2020
545 Clouds 23 1015 94 10000 2.1 40 09:19 30.03.2020
546 Rain 23 1015 88 10000 2.6 360 08:44 30.03.2020
547 Rain 23 1015 88 10000 2.6 360 08:23 30.03.2020
548 Rain 24 1016 88 10000 2.1 350 07:55 30.03.2020
549 Rain 24 1016 88 10000 2.1 350 07:37 30.03.2020
550 Rain 25 1017 83 10000 1.5 320 06:59 30.03.2020
551 Rain 25 1017 83 10000 1.5 320 06:37 30.03.2020
552 Rain 24 1017 83 10000 1.5 320 06:18 30.03.2020
553 Rain 25 1017 83 10000 0.5 110 05:38 30.03.2020
554 Rain 25 1017 83 10000 1 140 04:27 30.03.2020
555 Rain 25 1017 83 10000 1.5 190 03:50 30.03.2020
556 Rain 25 1017 83 9000 3.1 190 02:44 30.03.2020
557 Rain 25 1016 83 9000 4.1 200 01:54 30.03.2020
558 Clouds 26 1016 78 10000 5.7 190 00:56 30.03.2020
559 Clouds 26 1016 78 10000 5.7 190 00:25 30.03.2020
560 Clouds 26 1016 78 10000 5.7 190 00:25 30.03.2020
561 Clouds 26 1015 74 10000 4.1 180 23:55 29.03.2020
562 Clouds 25 1015 74 10000 4.1 180 23:36 29.03.2020
563 Clouds 27 1015 74 10000 4.1 180 23:18 29.03.2020
564 Clouds 28 1014 69 10000 6.2 180 22:40 29.03.2020
565 Clouds 28 1014 69 10000 6.2 180 22:20 29.03.2020
566 Clouds 28 1014 78 10000 6.7 170 21:59 29.03.2020
567 Clouds 28 1014 78 10000 6.7 170 21:37 29.03.2020
568 Clouds 28 1014 78 10000 6.7 170 21:19 29.03.2020
569 Clouds 27 1015 78 10000 6.7 170 20:55 29.03.2020
570 Clouds 27 1015 78 10000 6.7 170 20:37 29.03.2020
571 Clouds 27 1015 78 10000 6.7 170 20:18 29.03.2020
572 Clouds 27 1015 78 10000 6.7 170 20:18 29.03.2020
573 Clouds 27 1015 78 10000 6.7 160 19:55 29.03.2020
574 Clouds 28 1015 78 10000 6.7 160 19:37 29.03.2020
575 Clouds 29 1016 78 10000 5.1 160 19:19 29.03.2020
576 Clouds 29 1016 78 10000 5.1 160 18:55 29.03.2020
577 Clouds 29 1016 78 10000 5.1 160 18:37 29.03.2020
578 Clouds 28 1017 78 10000 6.2 160 18:18 29.03.2020
579 Clouds 29 1017 78 10000 6.2 160 17:54 29.03.2020
580 Clouds 27 1017 78 10000 6.2 160 17:36 29.03.2020
581 Clouds 28 1017 78 10000 6.2 160 17:18 29.03.2020
582 Clouds 28 1017 78 10000 5.1 150 16:55 29.03.2020
583 Clouds 28 1017 78 10000 5.1 150 16:36 29.03.2020
584 Clouds 28 1017 78 10000 5.1 150 16:36 29.03.2020
585 Clouds 28 1017 78 10000 5.1 150 16:36 29.03.2020
586 Clouds 28 1017 78 10000 5.1 150 16:18 29.03.2020
587 Clouds 27 1017 78 10000 1.5 30 15:41 29.03.2020
588 Clouds 27 1017 78 10000 1.5 30 15:22 29.03.2020
589 Clouds 26 1018 78 10000 1 20 14:57 29.03.2020
590 Clouds 26 1018 78 10000 1 20 14:39 29.03.2020
591 Clouds 26 1018 78 10000 1 20 14:19 29.03.2020
592 Clouds 25 1017 83 10000 1 350 13:56 29.03.2020
593 Clouds 25 1017 83 10000 1 350 13:38 29.03.2020
594 Clouds 24 1017 83 10000 1 350 13:19 29.03.2020
595 Clouds 24 1017 83 10000 1 350 12:55 29.03.2020
596 Clouds 22 1017 83 10000 1 10 12:37 29.03.2020
597 Clouds 22 1017 83 10000 1 10 12:18 29.03.2020
598 Clouds 23 1016 83 10000 1 200 11:40 29.03.2020
599 Clouds 23 1016 83 10000 1 200 11:21 29.03.2020
600 Clouds 23 1016 83 10000 1 50 10:59 29.03.2020
601 Clouds 23 1016 83 10000 1 50 10:38 29.03.2020
602 Clouds 23 1016 83 10000 1 50 10:18 29.03.2020
603 Clouds 23 1016 83 10000 1 50 10:18 29.03.2020
604 Clouds 23 1016 83 10000 1 190 09:41 29.03.2020
605 Clouds 24 1016 83 10000 1 190 09:20 29.03.2020
606 Clouds 24 1016 83 10000 1.5 160 08:54 29.03.2020
607 Clouds 24 1016 83 10000 1.5 160 08:30 29.03.2020
608 Clouds 24 1016 83 10000 2.6 180 07:59 29.03.2020
609 Clouds 24 1016 83 10000 2.6 180 07:40 29.03.2020
610 Clouds 24 1016 83 10000 2.6 180 07:20 29.03.2020
611 Clouds 24 1016 83 10000 2.6 180 05:41 29.03.2020
612 Clouds 25 1016 83 10000 2.6 170 03:58 29.03.2020
613 Clouds 24 1016 83 10000 2.6 170 03:28 29.03.2020
614 Clear 24 1016 83 10000 3.1 170 01:51 29.03.2020
615 Clear 25 1016 83 10000 3.1 170 01:23 29.03.2020
616 Clear 25 1016 78 10000 3.6 170 00:56 29.03.2020
617 Clear 26 1016 78 10000 3.6 170 00:33 29.03.2020
618 Clear 26 1015 78 10000 3.6 170 23:56 28.03.2020
619 Clear 25 1015 78 10000 3.6 170 23:38 28.03.2020
620 Clear 25 1015 78 10000 3.6 170 23:18 28.03.2020
621 Clear 25 1015 74 10000 4.6 130 22:39 28.03.2020
622 Clear 25 1015 74 10000 4.6 130 22:21 28.03.2020
623 Clouds 26 1015 69 10000 3.6 150 21:55 28.03.2020
624 Clouds 26 1015 69 10000 3.6 150 21:37 28.03.2020
625 Clouds 28 1015 69 10000 3.6 150 21:18 28.03.2020
626 Clouds 29 1015 74 10000 5.7 170 20:42 28.03.2020
627 Clouds 28 1015 74 10000 5.7 170 20:23 28.03.2020
628 Clouds 28 1015 74 10000 6.7 160 19:58 28.03.2020
629 Clouds 28 1015 74 10000 6.7 160 19:39 28.03.2020
630 Clouds 29 1015 74 10000 6.7 160 19:21 28.03.2020
631 Clouds 29 1016 78 10000 6.7 180 18:59 28.03.2020
632 Clouds 29 1016 78 10000 6.7 180 18:39 28.03.2020
633 Clouds 29 1016 74 10000 5.7 160 18:20 28.03.2020
634 Clouds 29 1016 74 10000 5.7 160 17:39 28.03.2020
635 Clouds 29 1016 74 10000 5.7 160 17:21 28.03.2020
636 Clouds 29 1017 74 10000 3.6 150 16:55 28.03.2020
637 Clouds 27 1017 74 10000 3.6 150 16:37 28.03.2020
638 Clouds 29 1017 74 10000 3.6 150 16:18 28.03.2020
639 Clouds 28 1017 69 10000 3.6 140 15:39 28.03.2020
640 Clouds 28 1017 69 10000 3.1 330 15:19 28.03.2020
641 Clouds 27 1018 74 10000 1.5 320 14:56 28.03.2020
642 Clouds 27 1018 74 10000 1.5 320 14:38 28.03.2020
643 Clouds 27 1018 74 10000 1.5 320 14:20 28.03.2020
644 Clouds 26 1018 78 10000 2.1 330 13:41 28.03.2020
645 Clouds 26 1018 78 10000 2.1 330 13:22 28.03.2020
646 Clear 23 1017 83 10000 1.5 30 12:40 28.03.2020
647 Clear 23 1017 83 10000 1.5 30 12:22 28.03.2020
648 Clear 23 1017 83 10000 1.5 30 12:22 28.03.2020
649 Clear 22 1017 83 10000 1 30 11:43 28.03.2020
650 Clouds 21 1016 83 10000 1.5 40 11:23 28.03.2020
651 Clouds 21 1016 83 10000 1.5 40 10:58 28.03.2020
652 Clouds 21 1016 83 10000 1.5 40 10:38 28.03.2020
653 Clouds 23 1016 83 10000 1.5 40 10:18 28.03.2020
654 Clear 23 1016 88 10000 2.6 330 09:43 28.03.2020
655 Clear 22 1016 88 10000 2.6 330 09:23 28.03.2020
656 Clear 22 1016 83 10000 1 20 08:55 28.03.2020
657 Clear 23 1016 83 10000 1 20 08:37 28.03.2020
658 Clouds 22 1016 83 10000 1 20 08:18 28.03.2020
659 Clouds 22 1016 83 10000 1 200 07:42 28.03.2020
660 Clouds 23 1016 78 10000 1 200 06:59 28.03.2020
661 Clouds 23 1016 78 10000 1 200 06:35 28.03.2020
662 Clouds 24 1016 73 10000 0.5 150 05:43 28.03.2020
663 Clouds 24 1016 73 10000 0.5 150 05:21 28.03.2020
664 Clouds 24 1016 73 10000 1.5 200 04:41 28.03.2020
665 Clouds 24 1016 78 10000 1.5 180 03:42 28.03.2020
666 Clouds 24 1016 78 10000 2.1 180 02:21 28.03.2020
667 Clouds 24 1016 78 10000 2.1 160 01:30 28.03.2020
668 Clouds 25 1015 83 10000 3.6 130 00:59 28.03.2020
669 Clouds 24 1015 83 10000 3.6 130 00:36 28.03.2020
670 Clouds 24 1014 73 10000 6.2 120 23:57 27.03.2020
671 Clouds 24 1014 73 10000 6.2 120 23:39 27.03.2020
672 Clouds 24 1014 73 10000 6.2 120 23:21 27.03.2020
673 Clouds 24 1014 73 10000 5.1 130 22:56 27.03.2020
674 Clouds 24 1014 73 10000 5.1 130 22:37 27.03.2020
675 Clouds 24 1014 73 10000 5.1 130 22:37 27.03.2020
676 Clouds 26 1014 73 10000 5.1 130 22:19 27.03.2020
677 Clouds 27 1014 74 10000 6.2 170 21:44 27.03.2020
678 Clouds 27 1014 74 10000 6.2 170 21:25 27.03.2020
679 Clouds 27 1014 74 10000 7.2 170 20:59 27.03.2020
680 Clouds 26 1014 74 10000 7.2 170 20:41 27.03.2020
681 Clouds 27 1014 74 10000 7.2 170 20:20 27.03.2020
682 Clouds 27 1014 78 10000 6.7 160 19:58 27.03.2020
683 Clouds 28 1014 78 10000 6.7 160 19:40 27.03.2020
684 Clouds 27 1014 78 10000 6.7 160 19:20 27.03.2020
685 Clouds 28 1014 69 10000 6.2 160 18:44 27.03.2020
686 Clouds 28 1014 69 10000 6.2 160 18:25 27.03.2020
687 Clouds 28 1015 74 10000 5.1 160 17:59 27.03.2020
688 Clouds 28 1015 74 10000 5.1 160 17:39 27.03.2020
689 Clouds 26 1016 69 10000 3.6 150 17:20 27.03.2020
690 Clouds 26 1016 69 10000 3.6 150 16:44 27.03.2020
691 Clouds 28 1016 69 10000 3.6 150 16:25 27.03.2020
692 Clouds 27 1016 69 10000 2.1 350 15:56 27.03.2020
693 Clouds 26 1016 69 10000 2.1 350 15:38 27.03.2020
694 Clouds 27 1016 69 10000 2.1 350 15:20 27.03.2020
695 Clouds 25 1017 73 10000 2.1 340 14:45 27.03.2020
696 Clouds 25 1017 73 10000 2.1 340 14:24 27.03.2020
697 Clouds 25 1017 83 10000 2.1 350 13:56 27.03.2020
698 Clouds 25 1017 83 10000 2.1 350 13:37 27.03.2020
699 Clouds 25 1017 83 10000 2.1 350 13:18 27.03.2020
700 Clouds 24 1017 83 10000 2.6 10 12:45 27.03.2020
701 Clouds 23 1017 83 10000 2.6 10 12:20 27.03.2020
702 Clouds 23 1016 88 10000 2.6 350 11:59 27.03.2020
703 Clouds 23 1016 88 10000 2.6 350 11:59 27.03.2020
704 Clouds 22 1016 88 10000 2.6 350 11:40 27.03.2020
705 Clouds 21 1015 88 10000 1 40 11:22 27.03.2020
706 Clouds 21 1015 88 10000 1 40 10:54 27.03.2020
707 Clouds 21 1015 88 10000 1 40 10:36 27.03.2020
708 Clouds 21 1015 88 10000 1 40 10:18 27.03.2020
709 Clear 22 1015 83 10000 2.1 40 09:54 27.03.2020
710 Clear 22 1015 83 10000 2.1 40 09:36 27.03.2020
711 Clear 22 1015 83 10000 2.1 40 09:18 27.03.2020
712 Clear 23 1015 83 10000 2.6 20 08:54 27.03.2020
713 Clear 23 1015 83 10000 2.6 20 08:36 27.03.2020
714 Rain 23 1015 83 10000 2.6 20 08:18 27.03.2020
715 Rain 23 1015 83 10000 1 70 07:41 27.03.2020
716 Rain 23 1015 83 10000 1 70 07:21 27.03.2020
717 Rain 23 1016 83 10000 2.1 120 06:41 27.03.2020
718 Rain 23 1016 83 10000 1 0 05:57 27.03.2020
719 Rain 23 1016 78 10000 2.1 90 03:42 27.03.2020
720 Clouds 24 1016 78 10000 3.1 110 02:19 27.03.2020
721 Clouds 24 1016 78 10000 3.1 130 01:19 27.03.2020
722 Clouds 24 1015 78 10000 2.6 140 00:43 27.03.2020
723 Clouds 24 1015 78 10000 2.6 140 00:20 27.03.2020
724 Clouds 24 1015 78 10000 4.6 140 23:42 26.03.2020
725 Clouds 24 1015 78 10000 5.7 150 23:19 26.03.2020
726 Clouds 24 1015 78 10000 5.7 150 22:57 26.03.2020
727 Clouds 24 1015 78 10000 5.7 150 22:36 26.03.2020
728 Clouds 24 1015 78 10000 5.7 150 22:18 26.03.2020
729 Clouds 25 1014 73 10000 5.7 160 21:40 26.03.2020
730 Clouds 25 1014 73 10000 5.7 160 21:22 26.03.2020
731 Clouds 26 1014 69 10000 5.7 160 20:59 26.03.2020
732 Clouds 26 1014 69 10000 5.7 160 20:39 26.03.2020
733 Clouds 26 1014 69 10000 5.7 160 20:21 26.03.2020
734 Clouds 27 1014 69 10000 5.7 170 19:58 26.03.2020
735 Clouds 26 1014 69 10000 5.7 170 19:40 26.03.2020
736 Clouds 27 1014 69 10000 5.7 170 19:21 26.03.2020
737 Clouds 27 1015 73 10000 6.2 160 18:58 26.03.2020
738 Clouds 27 1015 73 10000 6.2 160 18:40 26.03.2020
739 Clouds 27 1015 73 10000 6.2 160 18:22 26.03.2020
740 Clouds 27 1015 65 10000 5.7 160 17:45 26.03.2020
741 Clouds 27 1016 65 10000 4.1 140 17:20 26.03.2020
742 Clouds 27 1016 65 10000 4.1 140 16:57 26.03.2020
743 Clouds 27 1016 65 10000 4.1 140 16:57 26.03.2020
744 Clouds 26 1016 65 10000 4.1 140 16:38 26.03.2020
745 Clouds 26 1016 65 10000 4.1 140 16:19 26.03.2020
746 Clouds 26 1017 69 10000 1.5 130 15:56 26.03.2020
747 Clouds 26 1017 69 10000 1.5 130 15:38 26.03.2020
748 Clouds 26 1017 69 10000 1.5 130 15:18 26.03.2020
749 Clouds 25 1017 83 10000 1.5 30 14:43 26.03.2020
750 Clouds 25 1017 83 10000 1.5 30 14:24 26.03.2020
751 Clouds 24 1017 83 7000 3.1 360 13:56 26.03.2020
752 Clouds 24 1017 83 7000 3.1 360 13:56 26.03.2020
753 Clouds 24 1017 83 7000 3.1 360 13:38 26.03.2020
754 Clouds 23 1017 83 7000 3.1 360 13:19 26.03.2020
755 Mist 22 1016 88 5000 3.1 30 12:39 26.03.2020
756 Mist 22 1016 88 5000 2.6 10 12:20 26.03.2020
757 Mist 22 1016 88 5000 2.6 10 11:55 26.03.2020
758 Mist 22 1016 88 5000 2.6 10 11:36 26.03.2020
759 Clouds 21 1016 94 10000 2.6 50 11:18 26.03.2020
760 Clouds 21 1016 94 10000 2.6 50 10:42 26.03.2020
761 Clouds 21 1015 94 10000 2.6 340 10:20 26.03.2020
762 Clear 21 1015 88 10000 2.1 350 09:45 26.03.2020
763 Clear 21 1015 88 10000 2.1 350 09:24 26.03.2020
764 Clear 21 1015 88 10000 2.1 30 08:58 26.03.2020
765 Clear 21 1015 88 10000 2.1 30 08:40 26.03.2020
766 Rain 21 1015 88 10000 2.1 30 08:22 26.03.2020
767 Rain 22 1015 88 10000 1.5 40 07:56 26.03.2020
768 Rain 22 1015 88 10000 1.5 40 07:38 26.03.2020
769 Rain 22 1015 88 10000 1.5 40 07:19 26.03.2020
770 Clouds 22 1016 83 10000 2.05 332 06:33 26.03.2020
771 Clouds 23 1016 78 10000 1 70 05:48 26.03.2020
772 Rain 21 1017 83 0 1.4 10 03:46 26.03.2020
773 Clouds 26 1017 49 10000 1.5 130 02:58 26.03.2020
774 Clouds 23 1016 83 10000 2.6 170 01:51 26.03.2020
775 Clouds 23 1016 83 10000 2.6 170 01:19 26.03.2020
776 Clouds 23 1016 78 10000 3.6 170 00:32 26.03.2020
777 Clouds 24 1015 73 10000 5.1 170 23:44 25.03.2020
778 Clouds 24 1015 73 10000 5.1 170 23:26 25.03.2020
779 Clouds 24 1015 73 10000 5.7 180 22:55 25.03.2020
780 Clouds 24 1015 73 10000 5.7 180 22:37 25.03.2020
781 Clouds 24 1015 73 10000 5.7 180 22:18 25.03.2020
782 Clouds 25 1015 65 10000 5.7 160 21:43 25.03.2020
783 Clouds 25 1015 65 10000 5.7 160 21:24 25.03.2020
784 Clouds 26 1015 65 10000 5.7 160 20:59 25.03.2020
785 Clouds 26 1015 65 10000 5.7 160 20:39 25.03.2020
786 Clouds 26 1015 65 10000 5.7 160 20:19 25.03.2020
787 Clouds 27 1015 61 10000 5.1 160 19:56 25.03.2020
788 Clouds 26 1015 61 10000 5.1 160 19:38 25.03.2020
789 Clouds 27 1015 61 10000 5.1 160 19:19 25.03.2020
790 Clouds 27 1015 65 10000 6.2 160 18:43 25.03.2020
791 Clouds 27 1015 65 10000 6.2 160 18:25 25.03.2020
792 Clouds 27 1016 65 10000 4.1 150 17:59 25.03.2020
793 Clouds 27 1016 65 10000 4.1 150 17:41 25.03.2020
794 Clouds 27 1016 65 10000 4.1 150 17:22 25.03.2020
795 Clouds 27 1016 65 10000 4.1 140 16:58 25.03.2020
796 Clouds 27 1016 61 10000 2.1 10 16:39 25.03.2020
797 Clouds 27 1016 61 10000 2.1 10 16:20 25.03.2020
798 Clouds 25 1017 69 10000 2.6 360 15:43 25.03.2020
799 Clouds 26 1017 69 10000 2.6 360 15:21 25.03.2020
800 Clouds 25 1017 73 10000 2.6 10 14:59 25.03.2020
801 Clouds 24 1017 73 10000 2.6 10 14:40 25.03.2020
802 Clouds 25 1017 73 10000 2.6 10 14:20 25.03.2020
803 Clouds 23 1017 88 10000 3.1 20 13:45 25.03.2020
804 Clouds 23 1017 88 10000 3.1 20 13:24 25.03.2020
805 Clouds 22 1017 83 10000 3.1 20 12:40 25.03.2020
806 Clouds 22 1017 83 10000 3.1 20 12:21 25.03.2020
807 Clouds 20 1016 83 10000 2.6 20 11:59 25.03.2020
808 Clouds 20 1016 83 10000 2.6 20 11:41 25.03.2020
809 Clouds 20 1016 83 10000 2.6 20 11:21 25.03.2020
810 Clouds 20 1016 88 10000 2.1 10 10:59 25.03.2020
811 Clouds 20 1016 88 10000 2.1 10 10:59 25.03.2020
812 Clouds 20 1016 88 10000 2.1 10 10:40 25.03.2020
813 Clouds 20 1016 88 10000 2.1 10 10:40 25.03.2020
814 Clouds 20 1016 88 10000 2.1 10 10:19 25.03.2020
815 Clouds 21 1016 88 10000 1.5 10 09:58 25.03.2020
816 Clouds 21 1016 88 10000 1.5 10 09:39 25.03.2020
817 Clouds 21 1016 88 10000 1.5 10 09:21 25.03.2020
818 Clouds 21 1016 83 10000 1.5 40 08:43 25.03.2020
819 Clouds 21 1016 83 10000 1.5 40 08:25 25.03.2020
820 Clouds 22 1016 78 10000 2.1 10 07:58 25.03.2020
821 Clouds 22 1016 78 10000 2.1 10 07:38 25.03.2020
822 Clouds 22 1016 78 10000 2.1 10 07:18 25.03.2020
823 Clouds 22 1017 83 10000 3.1 20 06:43 25.03.2020
824 Clouds 22 1017 83 10000 3.1 20 06:25 25.03.2020
825 Clouds 23 1017 73 10000 1.89 345 05:47 25.03.2020
826 Clouds 22 1018 73 10000 1 0 04:46 25.03.2020
827 Clouds 22 1018 78 10000 2.1 30 03:58 25.03.2020
828 Clouds 23 1018 78 10000 2.1 30 03:34 25.03.2020
829 Clouds 23 1018 73 10000 2.1 130 01:41 25.03.2020
830 Clouds 23 1018 73 10000 2.1 130 01:41 25.03.2020
831 Clouds 23 1018 73 10000 2.1 130 01:41 25.03.2020
832 Clouds 23 1018 73 10000 2.1 160 00:58 25.03.2020
833 Clouds 23 1018 73 10000 2.1 160 00:40 25.03.2020
834 Clouds 23 1018 73 10000 2.1 160 00:18 25.03.2020
835 Clouds 23 1017 73 10000 2.6 170 23:40 24.03.2020
836 Clouds 23 1017 73 10000 2.6 170 23:21 24.03.2020
837 Clouds 24 1016 69 10000 2.6 160 22:55 24.03.2020
838 Clouds 24 1016 69 10000 2.6 160 22:37 24.03.2020
839 Clouds 24 1016 69 10000 2.6 160 22:18 24.03.2020
840 Clouds 25 1017 69 10000 4.1 140 21:54 24.03.2020
841 Clouds 25 1017 69 10000 4.1 140 21:36 24.03.2020
842 Clouds 25 1017 69 10000 4.1 140 21:18 24.03.2020
843 Clouds 25 1017 65 10000 5.1 160 20:41 24.03.2020
844 Clouds 26 1017 65 10000 5.1 160 20:23 24.03.2020
845 Clouds 26 1017 69 10000 5.7 160 19:56 24.03.2020
846 Clouds 25 1017 69 10000 5.7 160 19:38 24.03.2020
847 Clouds 26 1017 69 10000 5.7 160 19:18 24.03.2020
848 Clouds 26 1017 73 10000 5.7 150 18:55 24.03.2020
849 Clouds 25 1017 73 10000 5.7 150 18:36 24.03.2020
850 Clouds 26 1018 69 10000 4.6 160 18:18 24.03.2020
851 Clouds 26 1018 69 10000 4.6 160 17:41 24.03.2020
852 Clouds 26 1018 69 10000 4.6 160 17:22 24.03.2020
853 Clouds 26 1018 69 10000 5.1 160 16:58 24.03.2020
854 Clouds 24 1018 69 10000 5.1 160 16:39 24.03.2020
855 Clouds 26 1018 69 10000 5.1 160 16:21 24.03.2020
856 Clouds 26 1018 69 10000 5.1 160 16:20 24.03.2020
857 Clouds 25 1019 73 10000 2.1 140 15:55 24.03.2020
858 Clouds 25 1019 73 10000 2.1 140 15:37 24.03.2020
859 Clouds 25 1019 73 10000 2.1 140 15:19 24.03.2020
860 Clouds 25 1019 83 10000 1.5 90 14:42 24.03.2020
861 Clouds 25 1019 83 10000 1.5 90 14:18 24.03.2020
862 Clouds 23 1019 88 10000 2.6 10 13:42 24.03.2020
863 Clouds 23 1019 88 10000 2.6 10 13:24 24.03.2020
864 Clouds 23 1018 88 10000 2.6 360 12:55 24.03.2020
865 Clouds 22 1018 88 10000 2.6 360 12:37 24.03.2020
866 Clouds 21 1018 94 10000 1.5 10 12:18 24.03.2020
867 Clouds 21 1018 94 10000 1.5 10 11:39 24.03.2020
868 Clouds 21 1018 94 10000 1.5 10 11:19 24.03.2020
869 Clouds 20 1018 88 10000 2.6 350 10:43 24.03.2020
870 Clouds 20 1018 88 10000 2.6 350 10:20 24.03.2020
871 Rain 20 1017 83 10000 2.1 360 09:59 24.03.2020
872 Rain 20 1017 83 10000 2.1 360 09:40 24.03.2020
873 Rain 20 1017 83 10000 2.1 360 09:22 24.03.2020
874 Rain 21 1017 78 10000 1.5 30 08:39 24.03.2020
875 Clear 21 1017 78 10000 1.5 30 08:20 24.03.2020
876 Clear 21 1018 83 10000 1.5 20 07:48 24.03.2020
877 Clear 21 1018 83 10000 1.5 20 07:24 24.03.2020
878 Clouds 22 1018 78 10000 3 345 06:58 24.03.2020
879 Clouds 22 1018 78 10000 3 345 06:31 24.03.2020
880 Clouds 22 1019 78 10000 0.5 180 05:22 24.03.2020
881 Clouds 23 1019 78 10000 1 150 04:27 24.03.2020
882 Clouds 22 1020 88 10000 2.6 56 03:18 24.03.2020
883 Clouds 22 1019 78 10000 3.6 170 01:49 24.03.2020
884 Clouds 24 1019 73 10000 4.1 170 00:49 24.03.2020
885 Clouds 23 1019 73 10000 4.1 170 00:26 24.03.2020
886 Clouds 23 1019 73 10000 4.1 170 23:46 23.03.2020
887 Clouds 23 1019 73 10000 4.1 170 23:26 23.03.2020
888 Clouds 23 1018 73 10000 4.6 160 22:58 23.03.2020
889 Clouds 22 1018 73 10000 4.6 160 22:39 23.03.2020
890 Clouds 23 1018 73 10000 4.6 160 22:21 23.03.2020
891 Clouds 24 1018 69 10000 5.7 160 21:44 23.03.2020
892 Clouds 26 1018 69 10000 5.7 160 21:21 23.03.2020
893 Clouds 27 1017 61 10000 5.7 160 20:59 23.03.2020
894 Clouds 27 1017 61 10000 5.7 160 20:41 23.03.2020
895 Clouds 27 1017 61 10000 5.7 160 20:23 23.03.2020
896 Clouds 27 1018 65 10000 5.7 160 19:55 23.03.2020
897 Clouds 27 1018 65 10000 5.7 160 19:37 23.03.2020
898 Clouds 27 1018 65 10000 5.7 160 19:18 23.03.2020
899 Clouds 28 1018 61 10000 4.6 170 18:43 23.03.2020
900 Clouds 28 1018 61 10000 4.6 170 18:24 23.03.2020
901 Clouds 27 1018 61 10000 5.1 170 17:58 23.03.2020
902 Clouds 27 1018 61 10000 5.1 170 17:39 23.03.2020
903 Clouds 25 1019 65 10000 3.6 140 17:19 23.03.2020
904 Clouds 26 1019 65 10000 3.6 140 16:43 23.03.2020
905 Clouds 26 1019 65 10000 3.6 140 16:25 23.03.2020
906 Clouds 26 1019 65 10000 2.1 10 15:44 23.03.2020
907 Clouds 26 1019 65 10000 2.1 10 15:21 23.03.2020
908 Clouds 26 1020 78 10000 2.1 340 14:58 23.03.2020
909 Clouds 26 1020 78 10000 2.1 340 14:37 23.03.2020
910 Clouds 26 1020 78 10000 2.1 340 14:19 23.03.2020
911 Clouds 25 1020 83 10000 2.6 360 13:55 23.03.2020
912 Clouds 25 1020 83 10000 2.6 360 13:37 23.03.2020
913 Clouds 25 1020 83 10000 2.6 360 13:19 23.03.2020
914 Clouds 22 1019 83 10000 2.6 360 12:42 23.03.2020
915 Clouds 22 1018 88 10000 2.1 20 12:22 23.03.2020
916 Clouds 22 1019 83 10000 2.6 360 12:22 23.03.2020
917 Clouds 22 1018 88 10000 2.1 20 11:55 23.03.2020
918 Clouds 22 1018 88 10000 2.1 20 11:37 23.03.2020
919 Clouds 19 1018 88 10000 1 40 11:18 23.03.2020
920 Clouds 19 1018 88 10000 1 40 10:41 23.03.2020
921 Clouds 20 1018 88 10000 1 40 10:23 23.03.2020
922 Clouds 22 1017 88 10000 2.82 92 09:59 23.03.2020
923 Clouds 22 1017 88 10000 2.82 92 09:41 23.03.2020
924 Clouds 21 1017 88 10000 2.82 92 09:19 23.03.2020
925 Clouds 22 1017 83 10000 0.5 0 08:38 23.03.2020
926 Rain 22 1017 83 10000 0.5 0 08:20 23.03.2020
927 Rain 22 1017 83 10000 1 20 07:52 23.03.2020
928 Rain 22 1017 83 10000 1 20 07:33 23.03.2020
929 Clouds 22 1018 88 10000 2.6 40 06:56 23.03.2020
930 Clouds 22 1018 88 10000 2.6 40 06:34 23.03.2020
931 Clouds 22 1018 88 10000 3.6 20 05:44 23.03.2020
932 Clouds 22 1018 83 10000 1.5 180 03:54 23.03.2020
933 Rain 22 1019 88 4500 2.1 20 02:59 23.03.2020
934 Clouds 23 1018 78 10000 2.1 170 01:50 23.03.2020
935 Clouds 23 1017 83 10000 5.1 130 00:50 23.03.2020
936 Clouds 23 1017 83 10000 5.1 130 00:29 23.03.2020
937 Clouds 24 1017 83 10000 7.7 130 23:44 22.03.2020
938 Clouds 24 1017 83 10000 7.7 130 23:24 22.03.2020
939 Clouds 24 1016 83 10000 5.1 160 22:42 22.03.2020
940 Clouds 25 1016 83 10000 5.1 160 22:22 22.03.2020
941 Clouds 25 1016 69 10000 5.1 170 21:55 22.03.2020
942 Clouds 24 1016 69 10000 5.1 170 21:36 22.03.2020
943 Clouds 26 1016 69 10000 5.1 170 21:18 22.03.2020
944 Clouds 26 1015 78 10000 8.2 180 20:45 22.03.2020
945 Clouds 26 1015 78 10000 8.2 180 20:24 22.03.2020
946 Clouds 27 1015 65 10000 3.6 150 19:57 22.03.2020
947 Clouds 26 1015 65 10000 3.6 150 19:39 22.03.2020
948 Clouds 27 1015 65 10000 3.6 150 19:20 22.03.2020
949 Clouds 27 1016 65 10000 4.1 160 18:58 22.03.2020
950 Clouds 27 1016 65 10000 4.1 160 18:40 22.03.2020
951 Clouds 27 1016 65 10000 4.1 160 18:21 22.03.2020
952 Clouds 26 1016 74 10000 3.6 150 17:57 22.03.2020
953 Clouds 26 1016 74 10000 3.6 150 17:38 22.03.2020
954 Clouds 27 1016 74 10000 3.6 150 17:20 22.03.2020
955 Clouds 27 1016 78 10000 3.6 150 16:57 22.03.2020
956 Clouds 26 1016 78 10000 3.6 150 16:39 22.03.2020
957 Clouds 26 1016 78 10000 3.6 150 16:21 22.03.2020
958 Clouds 25 1017 83 10000 1 0 15:44 22.03.2020
959 Clouds 25 1017 83 10000 1 0 15:26 22.03.2020
960 Rain 25 1017 88 10000 1 0 14:46 22.03.2020
961 Rain 25 1017 88 10000 1 0 14:19 22.03.2020
962 Clouds 25 1016 83 10000 2.1 20 13:55 22.03.2020
963 Clouds 25 1016 83 10000 2.1 20 13:36 22.03.2020
964 Clouds 25 1016 83 10000 2.1 20 13:18 22.03.2020
965 Clouds 23 1016 88 10000 2.6 360 12:43 22.03.2020
966 Clouds 23 1016 88 10000 2.6 360 12:20 22.03.2020
967 Clouds 22 1015 88 10000 3.1 20 11:55 22.03.2020
968 Clouds 23 1015 88 10000 3.1 20 11:36 22.03.2020
969 Clouds 22 1015 88 10000 3.1 20 11:18 22.03.2020
970 Clouds 22 1014 94 10000 2.1 360 10:42 22.03.2020
971 Clouds 22 1014 94 10000 2.1 360 10:23 22.03.2020
972 Clouds 22 1014 94 8000 2.6 200 09:48 22.03.2020
973 Clouds 22 1014 94 8000 2.6 200 09:29 22.03.2020
974 Clouds 23 1013 88 10000 2.1 360 08:54 22.03.2020
975 Clouds 22 1013 88 10000 2.1 360 08:36 22.03.2020
976 Clouds 22 1013 88 10000 1.5 330 08:18 22.03.2020
977 Clouds 22 1013 88 10000 1.5 330 07:41 22.03.2020
978 Clouds 22 1013 88 10000 1.5 330 07:18 22.03.2020
979 Clouds 22 1014 88 10000 2.1 290 05:54 22.03.2020
980 Rain 22 1015 94 8000 2.6 360 04:39 22.03.2020
981 Rain 22 1015 94 7000 3.6 320 02:43 22.03.2020
982 Rain 22 1014 94 6000 4.1 330 01:19 22.03.2020
983 Rain 23 1014 88 7000 4.1 340 00:34 22.03.2020
984 Rain 23 1013 94 8000 2.6 330 23:57 21.03.2020
985 Rain 23 1013 94 8000 2.6 330 23:38 21.03.2020
986 Rain 22 1013 94 8000 2.6 330 23:18 21.03.2020
987 Clouds 22 1012 88 10000 2.6 340 22:38 21.03.2020
988 Clouds 23 1012 88 10000 2.6 340 22:20 21.03.2020
989 Clouds 23 1012 88 10000 3.1 350 21:59 21.03.2020
990 Rain 23 1011 83 10000 3.1 210 21:39 21.03.2020
991 Rain 23 1011 83 10000 3.1 210 21:21 21.03.2020
992 Rain 22 1011 88 7000 6.7 210 20:45 21.03.2020
993 Rain 23 1011 88 7000 6.7 210 20:23 21.03.2020
994 Rain 23 1011 88 3500 7.7 190 19:57 21.03.2020
995 Rain 23 1011 88 3500 5.1 300 19:38 21.03.2020
996 Rain 23 1011 88 7000 4.6 320 19:19 21.03.2020
997 Clouds 25 1011 83 10000 1 0 18:54 21.03.2020
998 Clouds 25 1011 83 10000 1 0 18:36 21.03.2020
999 Rain 23 1011 83 9000 4.1 340 18:18 21.03.2020
1000 Clouds 24 1011 88 10000 2.1 360 17:42 21.03.2020
1001 Clouds 25 1011 88 10000 2.1 360 17:23 21.03.2020
1002 Mist 25 1011 88 5000 2.6 340 16:56 21.03.2020
1003 Mist 24 1011 88 5000 2.6 340 16:38 21.03.2020
1004 Mist 25 1011 88 5000 2.6 340 16:18 21.03.2020
1005 Mist 25 1011 88 5000 2.6 340 16:18 21.03.2020
1006 Mist 24 1012 94 5000 3.1 320 15:41 21.03.2020
1007 Mist 23 1012 94 5000 3.1 320 15:23 21.03.2020
1008 Rain 23 1012 88 5000 2.6 310 14:58 21.03.2020
1009 Rain 24 1012 88 5000 2.6 310 14:40 21.03.2020
1010 Rain 23 1012 88 5000 2.6 310 14:20 21.03.2020
1011 Rain 23 1012 88 2500 2.6 290 13:59 21.03.2020
1012 Rain 23 1012 88 2500 2.6 290 13:40 21.03.2020
1013 Rain 23 1011 88 5000 3.1 340 13:22 21.03.2020
1014 Clouds 24 1011 94 7000 2.1 320 12:59 21.03.2020
1015 Clouds 24 1011 94 7000 2.1 320 12:38 21.03.2020
1016 Clouds 24 1011 94 7000 2.1 320 12:19 21.03.2020
1017 Rain 23 1010 94 4000 3.1 320 11:56 21.03.2020
1018 Rain 23 1010 94 4000 3.1 320 11:38 21.03.2020
1019 Rain 22 1009 100 4000 2.1 350 11:19 21.03.2020
1020 Rain 22 1009 100 4000 2.1 350 10:57 21.03.2020
1021 Rain 22 1009 100 4000 2.1 350 10:38 21.03.2020
1022 Rain 22 1009 100 4000 2.1 350 10:19 21.03.2020
1023 Rain 22 1008 94 4000 2.1 160 09:56 21.03.2020
1024 Rain 22 1008 94 4000 2.1 160 09:37 21.03.2020
1025 Rain 22 1008 94 4000 2.1 160 09:19 21.03.2020
1026 Mist 23 1007 94 5000 2.1 100 08:44 21.03.2020
1027 Mist 23 1007 94 5000 2.1 100 08:24 21.03.2020
1028 Rain 24 1007 94 6000 1 310 07:47 21.03.2020
1029 Rain 23 1007 94 6000 1 310 07:28 21.03.2020
1030 Rain 23 1008 88 6000 2.6 280 06:48 21.03.2020
1031 Rain 23 1008 88 6000 2.6 280 06:28 21.03.2020
1032 Rain 25 1008 94 8000 3.1 320 05:48 21.03.2020
1033 Rain 23 1008 94 5000 2.6 320 04:47 21.03.2020
1034 Rain 23 1009 94 5000 2.6 330 03:26 21.03.2020
1035 Rain 24 1009 94 4500 2.6 330 02:34 21.03.2020
1036 Rain 24 1008 88 4500 3.6 300 01:38 21.03.2020
1037 Rain 24 1008 88 4500 3.6 300 01:18 21.03.2020
1038 Rain 26 1007 78 7000 2.6 160 00:38 21.03.2020
1039 Clouds 27 1007 78 10000 2.6 160 23:59 20.03.2020
1040 Clouds 27 1007 78 10000 2.6 160 23:40 20.03.2020
1041 Clouds 27 1007 78 10000 2.6 160 23:18 20.03.2020
1042 Clouds 27 1006 78 10000 4.6 180 22:42 20.03.2020
1043 Clouds 27 1006 78 10000 4.6 180 22:24 20.03.2020
1044 Clouds 27 1005 65 10000 5.1 180 21:57 20.03.2020
1045 Clouds 27 1005 65 10000 5.1 180 21:39 20.03.2020
1046 Clouds 28 1005 65 10000 5.1 180 21:18 20.03.2020
1047 Clouds 29 1005 62 10000 8.2 200 20:57 20.03.2020
1048 Clouds 29 1005 62 10000 8.2 200 20:39 20.03.2020
1049 Clouds 28 1005 62 10000 8.2 200 20:18 20.03.2020
1050 Clouds 28 1005 62 10000 8.7 200 19:46 20.03.2020
1051 Clouds 29 1005 62 10000 8.7 200 19:19 20.03.2020
1052 Clouds 29 1005 66 10000 6.7 200 18:56 20.03.2020
1053 Clouds 29 1005 66 10000 6.7 200 18:37 20.03.2020
1054 Clouds 30 1005 58 10000 6.7 200 18:19 20.03.2020
1055 Clouds 30 1006 70 10000 6.2 180 17:40 20.03.2020
1056 Clouds 29 1006 83 10000 3.6 130 17:22 20.03.2020
1057 Clouds 29 1006 83 10000 3.6 130 16:59 20.03.2020
1058 Clouds 29 1006 83 10000 3.6 130 16:41 20.03.2020
1059 Clouds 30 1006 83 10000 3.6 130 16:20 20.03.2020
1060 Clouds 30 1006 83 10000 3.6 130 16:20 20.03.2020
1061 Clouds 30 1006 78 10000 4.1 150 15:43 20.03.2020
1062 Clouds 30 1006 78 10000 4.1 150 15:22 20.03.2020
1063 Clouds 30 1006 70 10000 3.6 120 14:58 20.03.2020
1064 Clouds 29 1006 70 10000 3.6 120 14:40 20.03.2020
1065 Clouds 29 1006 70 10000 3.6 120 14:20 20.03.2020
1066 Clouds 29 1006 70 10000 4.1 350 13:48 20.03.2020
1067 Clouds 29 1006 70 10000 4.1 350 13:21 20.03.2020
1068 Clouds 27 1006 83 10000 3.1 20 12:57 20.03.2020
1069 Clouds 27 1006 83 10000 3.1 20 12:37 20.03.2020
1070 Clouds 26 1006 88 10000 3.6 360 12:18 20.03.2020
1071 Clouds 26 1006 88 10000 3.6 360 11:39 20.03.2020
1072 Clouds 25 1005 83 10000 3.6 330 11:20 20.03.2020
1073 Clouds 25 1005 83 10000 3.6 330 10:54 20.03.2020
1074 Clouds 27 1005 83 10000 3.6 330 10:36 20.03.2020
1075 Clouds 27 1005 83 10000 3.6 330 10:36 20.03.2020
1076 Clouds 27 1005 83 10000 3.6 330 10:18 20.03.2020
1077 Clouds 27 1005 83 10000 3.1 10 09:44 20.03.2020
1078 Clouds 26 1005 83 10000 3.1 10 09:20 20.03.2020
1079 Clouds 26 1005 88 10000 3.6 20 08:43 20.03.2020
1080 Clouds 27 1005 88 10000 3.6 20 08:23 20.03.2020
1081 Clouds 27 1005 88 10000 2.1 20 07:59 20.03.2020
1082 Clouds 27 1005 88 10000 2.1 20 07:38 20.03.2020
1083 Clouds 27 1005 88 10000 2.1 20 07:19 20.03.2020
1084 Clouds 27 1005 88 10000 3.1 20 06:42 20.03.2020
1085 Clouds 27 1005 88 10000 3.1 20 06:18 20.03.2020
1086 Clouds 27 1006 83 10000 1 130 04:36 20.03.2020
1087 Clouds 28 1007 74 10000 1 90 02:50 20.03.2020
1088 Clouds 27 1007 70 10000 1 270 01:50 20.03.2020
1089 Clouds 27 1006 74 10000 1.5 160 00:41 20.03.2020
1090 Clouds 28 1006 74 10000 1.5 160 23:59 19.03.2020
1091 Clouds 28 1006 66 10000 4.1 200 23:40 19.03.2020
1092 Clouds 28 1006 69 10000 5.1 180 23:22 19.03.2020
1093 Clouds 28 1006 69 10000 5.1 180 22:41 19.03.2020
1094 Clouds 28 1006 69 10000 5.1 180 22:22 19.03.2020
1095 Clouds 29 1005 69 10000 5.1 160 21:58 19.03.2020
1096 Clouds 29 1005 69 10000 5.1 160 21:38 19.03.2020
1097 Clouds 29 1005 69 10000 5.1 160 21:19 19.03.2020
1098 Clouds 29 1005 69 10000 5.1 160 21:19 19.03.2020
1099 Clouds 28 1005 69 10000 7.2 170 20:44 19.03.2020
1100 Clouds 28 1005 69 10000 7.2 170 20:25 19.03.2020
1101 Clouds 30 1006 70 10000 6.2 160 19:59 19.03.2020
1102 Clouds 30 1006 70 10000 6.2 160 19:39 19.03.2020
1103 Clouds 31 1006 70 10000 6.2 160 19:21 19.03.2020
1104 Clouds 31 1006 66 10000 3.1 30 18:58 19.03.2020
1105 Clouds 32 1006 66 10000 3.1 30 18:40 19.03.2020
1106 Clouds 33 1006 52 10000 3.1 20 18:22 19.03.2020
1107 Clouds 33 1007 66 10000 4.1 30 17:55 19.03.2020
1108 Clouds 33 1007 66 10000 4.1 30 17:37 19.03.2020
1109 Clear 30 1008 70 10000 3.1 10 17:18 19.03.2020
1110 Clear 31 1008 70 10000 3.1 10 16:42 19.03.2020
1111 Clear 32 1008 70 10000 3.1 10 16:21 19.03.2020
1112 Clear 32 1009 70 10000 3.1 10 15:44 19.03.2020
1113 Clear 32 1009 70 10000 3.1 10 15:25 19.03.2020
1114 Clear 30 1010 78 10000 2.6 360 14:54 19.03.2020
1115 Clear 30 1010 78 10000 2.6 360 14:36 19.03.2020
1116 Clouds 29 1010 78 10000 2.6 360 14:18 19.03.2020
1117 Clouds 28 1010 88 9000 3.1 10 13:39 19.03.2020
1118 Clouds 28 1010 88 9000 3.1 10 13:18 19.03.2020
1119 Clouds 25 1010 83 10000 3.1 10 12:42 19.03.2020
1120 Clouds 26 1010 83 10000 3.1 10 12:24 19.03.2020
1121 Clouds 26 1010 78 7000 1.5 90 11:59 19.03.2020
1122 Clouds 24 1010 88 10000 2.1 30 11:41 19.03.2020
1123 Clouds 22 1010 94 10000 2.6 360 11:22 19.03.2020
1124 Clouds 23 1010 94 10000 2.6 360 10:44 19.03.2020
1125 Clouds 23 1010 94 10000 2.6 360 10:22 19.03.2020
1126 Clouds 24 1009 83 10000 1 20 09:58 19.03.2020
1127 Clouds 24 1009 83 10000 1 20 09:40 19.03.2020
1128 Clouds 24 1009 83 10000 1 20 09:20 19.03.2020
1129 Clouds 24 1009 94 10000 1.5 80 08:47 19.03.2020
1130 Clouds 24 1009 94 10000 1.5 80 08:23 19.03.2020
1131 Clouds 24 1010 83 10000 1.59 1 07:48 19.03.2020
1132 Clouds 24 1010 83 10000 1.59 1 07:30 19.03.2020
1133 Clouds 24 1010 88 10000 1 90 06:55 19.03.2020
1134 Clouds 25 1011 88 10000 1.59 1 06:18 19.03.2020
1135 Clear 25 1012 88 10000 2.1 90 05:23 19.03.2020
1136 Clear 25 1012 88 10000 2.1 90 04:46 19.03.2020
1137 Clouds 25 1012 83 10000 0.5 110 03:44 19.03.2020
1138 Clouds 26 1013 88 10000 2.1 160 01:45 19.03.2020
1139 Clouds 26 1012 88 10000 2.6 160 00:39 19.03.2020
1140 Clouds 27 1013 83 9000 4.1 140 00:19 19.03.2020
1141 Clouds 26 1012 88 10000 4.6 170 23:42 18.03.2020
1142 Clouds 26 1012 88 10000 4.6 170 23:22 18.03.2020
1143 Clouds 27 1012 88 10000 5.1 170 22:43 18.03.2020
1144 Clouds 27 1012 88 10000 5.1 170 22:23 18.03.2020
1145 Clouds 28 1011 83 10000 5.1 170 21:55 18.03.2020
1146 Clouds 28 1011 83 10000 5.1 170 21:37 18.03.2020
1147 Clouds 28 1011 83 10000 5.1 170 21:19 18.03.2020
1148 Clouds 28 1011 83 10000 5.7 170 20:55 18.03.2020
1149 Clouds 28 1011 83 10000 5.7 170 20:37 18.03.2020
1150 Clouds 28 1011 83 10000 5.7 170 20:18 18.03.2020
1151 Clouds 29 1012 78 10000 5.7 160 19:40 18.03.2020
1152 Clouds 29 1012 78 10000 5.7 160 19:21 18.03.2020
1153 Clouds 29 1012 78 10000 5.7 160 19:21 18.03.2020
1154 Clouds 29 1012 78 10000 6.7 160 18:57 18.03.2020
1155 Clouds 29 1012 78 10000 6.7 160 18:38 18.03.2020
1156 Clouds 29 1012 66 10000 6.7 140 18:19 18.03.2020
1157 Clouds 29 1012 66 10000 6.7 140 18:19 18.03.2020
1158 Clouds 29 1012 66 10000 6.7 140 17:55 18.03.2020
1159 Clouds 28 1013 83 10000 5.7 160 17:37 18.03.2020
1160 Clouds 29 1014 78 10000 5.1 160 17:19 18.03.2020
1161 Clouds 28 1014 78 10000 5.1 160 16:42 18.03.2020
1162 Clouds 29 1014 78 10000 5.1 160 16:21 18.03.2020
1163 Clouds 29 1014 78 6000 1.5 110 15:58 18.03.2020
1164 Clouds 29 1014 78 6000 1.5 110 15:38 18.03.2020
1165 Clouds 29 1014 78 6000 1.5 110 15:20 18.03.2020
1166 Clouds 28 1015 83 6000 2.1 10 14:43 18.03.2020
1167 Clouds 27 1015 83 6000 2.1 10 14:21 18.03.2020
1168 Mist 27 1015 83 5000 2.1 10 13:42 18.03.2020
1169 Mist 27 1015 83 5000 2.1 10 13:19 18.03.2020
1170 Mist 26 1015 83 5000 2.1 10 12:55 18.03.2020
1171 Mist 24 1015 88 5000 2.1 40 12:37 18.03.2020
1172 Mist 23 1015 88 3000 1.5 30 12:19 18.03.2020
1173 Mist 23 1014 94 5000 2.1 70 11:39 18.03.2020
1174 Mist 22 1013 94 5000 2.6 30 11:19 18.03.2020
1175 Mist 22 1013 94 5000 2.6 30 10:58 18.03.2020
1176 Mist 23 1013 94 5000 2.6 30 10:38 18.03.2020
1177 Mist 23 1013 94 5000 2.6 30 10:19 18.03.2020
1178 Clouds 23 1013 88 10000 2.1 40 09:43 18.03.2020
1179 Clouds 23 1013 88 10000 2.1 40 09:25 18.03.2020
1180 Clear 23 1013 88 10000 2.1 20 08:56 18.03.2020
1181 Clear 23 1013 88 10000 2.1 20 08:38 18.03.2020
1182 Clear 23 1013 88 10000 2.1 20 08:20 18.03.2020
1183 Clear 24 1013 88 10000 2.1 360 07:44 18.03.2020
1184 Clear 24 1013 88 10000 2.1 360 07:26 18.03.2020
1185 Clear 24 1013 83 10000 1.5 360 06:44 18.03.2020
1186 Clear 24 1014 88 10000 1.57 305 06:22 18.03.2020
1187 Clear 24 1014 88 10000 2.6 30 05:35 18.03.2020
1188 Clear 24 1014 83 10000 2.1 360 04:25 18.03.2020
1189 Clouds 24 1015 78 10000 3.1 320 02:44 18.03.2020
1190 Clouds 25 1015 83 10000 2.1 320 01:48 18.03.2020
1191 Clouds 25 1015 83 10000 2.1 320 01:27 18.03.2020
1192 Rain 24 1014 88 10000 5.1 60 00:25 18.03.2020
1193 Rain 25 1014 88 5000 7.7 90 23:50 17.03.2020
1194 Clouds 26 1014 83 10000 4.1 90 23:28 17.03.2020
1195 Clouds 26 1013 78 10000 4.6 170 22:59 17.03.2020
1196 Clouds 26 1013 78 10000 4.6 170 22:40 17.03.2020
1197 Clouds 27 1013 78 10000 4.6 170 22:22 17.03.2020
1198 Clouds 27 1012 74 10000 5.7 180 21:40 17.03.2020
1199 Clouds 27 1012 74 10000 5.7 180 21:21 17.03.2020
1200 Clouds 27 1012 65 10000 6.7 190 20:41 17.03.2020
1201 Clouds 28 1012 65 10000 6.7 190 20:23 17.03.2020
1202 Clouds 28 1012 65 10000 5.7 170 19:59 17.03.2020
1203 Clouds 28 1012 65 10000 5.7 170 19:40 17.03.2020
1204 Clouds 27 1013 74 10000 6.7 180 19:18 17.03.2020
1205 Clouds 27 1013 74 10000 6.7 180 18:56 17.03.2020
1206 Clouds 27 1013 74 10000 6.7 180 18:37 17.03.2020
1207 Clouds 29 1013 74 10000 3.6 150 18:19 17.03.2020
1208 Clouds 29 1013 74 10000 3.6 150 17:41 17.03.2020
1209 Clouds 29 1013 74 10000 3.6 150 17:41 17.03.2020
1210 Clouds 29 1013 74 10000 3.6 150 17:22 17.03.2020
1211 Clouds 28 1013 78 10000 2.1 140 16:56 17.03.2020
1212 Clouds 27 1013 78 10000 2.1 140 16:38 17.03.2020
1213 Clouds 28 1013 78 10000 2.1 140 16:18 17.03.2020
1214 Clouds 28 1013 78 10000 2.1 120 15:43 17.03.2020
1215 Clouds 28 1014 74 10000 3.1 30 15:21 17.03.2020
1216 Clouds 27 1014 74 10000 2.1 340 14:44 17.03.2020
1217 Clouds 27 1014 74 10000 2.1 340 14:23 17.03.2020
1218 Clouds 26 1014 78 10000 2.1 30 13:56 17.03.2020
1219 Clouds 26 1014 78 10000 2.6 190 13:38 17.03.2020
1220 Clouds 26 1014 78 10000 2.6 190 13:20 17.03.2020
1221 Clouds 25 1014 83 10000 4.1 200 12:42 17.03.2020
1222 Clouds 25 1014 83 10000 4.1 200 12:22 17.03.2020
1223 Clouds 24 1013 83 10000 5.7 200 11:47 17.03.2020
1224 Clouds 25 1013 83 10000 5.7 200 11:29 17.03.2020
1225 Clouds 24 1012 74 10000 1 300 10:58 17.03.2020
1226 Clouds 24 1012 74 10000 1 300 10:39 17.03.2020
1227 Clouds 26 1012 74 10000 1 300 10:21 17.03.2020
1228 Clouds 26 1011 74 10000 2.1 320 09:59 17.03.2020
1229 Clouds 26 1011 74 10000 2.1 320 09:40 17.03.2020
1230 Clouds 26 1011 74 10000 2.1 320 09:19 17.03.2020
1231 Clouds 26 1011 78 10000 2.6 350 08:48 17.03.2020
1232 Clouds 26 1011 78 10000 2.6 350 08:23 17.03.2020
1233 Clouds 26 1011 83 10000 4.1 320 07:56 17.03.2020
1234 Clouds 26 1011 83 10000 4.1 320 07:38 17.03.2020
1235 Clouds 26 1011 83 10000 4.1 320 07:19 17.03.2020
1236 Rain 27 1011 88 9000 4.6 10 06:38 17.03.2020
1237 Clouds 26 1012 83 10000 2.1 310 05:58 17.03.2020
1238 Clouds 28 1012 83 10000 1 60 03:58 17.03.2020
1239 Clouds 28 1012 78 10000 0.5 250 02:54 17.03.2020
1240 Clouds 27 1012 69 10000 1 160 01:49 17.03.2020
1241 Clouds 27 1012 69 10000 1 160 01:25 17.03.2020
1242 Clouds 27 1012 78 10000 2.1 140 00:47 17.03.2020
1243 Clouds 28 1011 69 10000 4.6 140 23:50 16.03.2020
1244 Clouds 28 1011 69 10000 4.6 140 23:32 16.03.2020
1245 Clouds 28 1011 62 10000 4.1 180 22:43 16.03.2020
1246 Clouds 29 1011 62 10000 4.1 180 22:25 16.03.2020
1247 Clouds 29 1010 52 10000 7.2 190 21:59 16.03.2020
1248 Clouds 29 1010 52 10000 7.2 190 21:40 16.03.2020
1249 Clouds 29 1010 52 10000 7.2 190 21:22 16.03.2020
1250 Clouds 30 1010 52 10000 6.7 190 20:57 16.03.2020
1251 Clouds 30 1010 52 10000 6.7 190 20:38 16.03.2020
1252 Clouds 30 1010 52 10000 6.7 190 20:19 16.03.2020
1253 Clouds 32 1010 55 10000 7.7 190 19:42 16.03.2020
1254 Clouds 32 1010 55 10000 7.7 190 19:22 16.03.2020
1255 Clouds 31 1010 70 10000 8.2 180 18:57 16.03.2020
1256 Clouds 32 1010 70 10000 8.2 180 18:37 16.03.2020
1257 Clouds 32 1011 66 10000 5.1 160 18:18 16.03.2020
1258 Clouds 31 1011 66 10000 5.1 160 17:43 16.03.2020
1259 Clouds 32 1011 66 10000 5.1 160 17:24 16.03.2020
1260 Clouds 32 1011 59 10000 2.6 160 16:47 16.03.2020
1261 Clouds 33 1011 62 10000 4.1 30 16:29 16.03.2020
1262 Clouds 32 1012 58 10000 2.6 330 15:58 16.03.2020
1263 Clouds 30 1012 58 10000 2.6 330 15:40 16.03.2020
1264 Clouds 32 1012 58 10000 2.6 330 15:20 16.03.2020
1265 Clouds 31 1012 62 10000 2.6 320 14:44 16.03.2020
1266 Clear 30 1012 62 10000 2.6 320 14:20 16.03.2020
1267 Clear 30 1012 66 10000 2.1 330 13:44 16.03.2020
1268 Clear 30 1012 66 10000 2.1 330 13:25 16.03.2020
1269 Clear 28 1012 74 10000 3.1 330 12:56 16.03.2020
1270 Clear 27 1012 74 10000 3.1 330 12:37 16.03.2020
1271 Clear 27 1012 74 10000 3.1 330 12:19 16.03.2020
1272 Clear 25 1012 83 10000 2.1 350 11:42 16.03.2020
1273 Clear 24 1012 83 10000 2.1 350 11:20 16.03.2020
1274 Clear 23 1011 88 10000 2.6 350 10:43 16.03.2020
1275 Clear 24 1011 88 10000 2.6 350 10:24 16.03.2020
1276 Clear 25 1011 83 10000 2.6 350 09:47 16.03.2020
1277 Clear 25 1011 83 10000 2.6 350 09:28 16.03.2020
1278 Clear 25 1011 88 10000 3.1 20 08:59 16.03.2020
1279 Clear 25 1011 88 10000 3.1 20 08:36 16.03.2020
1280 Clear 25 1011 88 10000 3.1 20 08:18 16.03.2020
1281 Clear 26 1011 83 10000 3.1 350 07:40 16.03.2020
1282 Clear 25 1011 83 10000 3.1 350 07:18 16.03.2020
1283 Clear 26 1011 83 10000 2.1 340 06:28 16.03.2020
1284 Clear 26 1012 83 10000 2.6 90 05:54 16.03.2020
1285 Clear 26 1012 78 10000 2.1 10 03:54 16.03.2020
1286 Rain 26 1012 83 10000 0.5 10 01:44 16.03.2020
1287 Clear 26 1012 83 10000 0.5 50 00:44 16.03.2020
1288 Clear 28 1011 66 10000 4.1 180 23:56 15.03.2020
1289 Clear 28 1011 66 10000 4.1 180 23:37 15.03.2020
1290 Clear 28 1011 66 10000 4.1 180 23:18 15.03.2020
1291 Clouds 29 1011 66 10000 5.1 180 22:41 15.03.2020
1292 Clouds 30 1011 66 10000 5.1 180 22:20 15.03.2020
1293 Clouds 30 1011 62 10000 5.7 180 21:39 15.03.2020
1294 Clouds 31 1011 62 10000 5.7 180 21:21 15.03.2020
1295 Clouds 31 1011 70 10000 5.7 170 20:55 15.03.2020
1296 Clouds 30 1011 70 10000 5.7 170 20:36 15.03.2020
1297 Clouds 30 1011 70 10000 5.7 170 20:18 15.03.2020
1298 Clouds 30 1011 70 10000 5.7 160 19:55 15.03.2020
1299 Clouds 30 1011 70 10000 5.7 160 19:37 15.03.2020
1300 Clouds 31 1011 70 10000 5.7 160 19:18 15.03.2020
1301 Clouds 32 1012 70 10000 5.7 160 18:41 15.03.2020
1302 Clouds 32 1012 70 10000 5.7 160 18:23 15.03.2020
1303 Clouds 31 1013 74 10000 3.6 150 17:58 15.03.2020
1304 Clouds 30 1013 74 10000 3.6 150 17:38 15.03.2020
1305 Clouds 31 1013 74 10000 3.6 150 17:19 15.03.2020
1306 Clouds 32 1013 58 10000 2.6 70 16:55 15.03.2020
1307 Clouds 32 1013 58 10000 2.6 70 16:36 15.03.2020
1308 Clouds 31 1013 58 10000 2.6 70 16:18 15.03.2020
1309 Clear 29 1014 74 10000 2.6 360 15:41 15.03.2020
1310 Clear 29 1014 74 10000 2.6 360 15:20 15.03.2020
1311 Clouds 29 1015 74 10000 2.1 20 14:46 15.03.2020
1312 Clouds 29 1015 74 10000 2.1 20 14:26 15.03.2020
1313 Clouds 28 1015 88 10000 2.6 350 13:59 15.03.2020
1314 Clouds 28 1015 88 10000 2.6 350 13:59 15.03.2020
1315 Clouds 26 1015 88 10000 2.6 350 13:39 15.03.2020
1316 Clouds 27 1015 88 10000 2.6 350 13:20 15.03.2020
1317 Clouds 27 1015 83 10000 2.1 330 12:44 15.03.2020
1318 Clouds 27 1015 83 10000 2.1 330 12:26 15.03.2020
1319 Clouds 25 1014 88 10000 1 330 11:59 15.03.2020
1320 Clouds 24 1014 88 10000 1 330 11:40 15.03.2020
1321 Clouds 24 1014 88 10000 1 330 11:22 15.03.2020
1322 Clouds 24 1014 88 10000 3.1 40 10:56 15.03.2020
1323 Clouds 23 1014 88 10000 3.1 40 10:37 15.03.2020
1324 Clouds 24 1014 88 10000 3.1 40 10:18 15.03.2020
1325 Clouds 24 1014 88 10000 2.6 30 09:40 15.03.2020
1326 Clouds 24 1014 88 10000 2.6 30 09:22 15.03.2020
1327 Clouds 24 1014 88 10000 0.5 310 08:44 15.03.2020
1328 Clear 25 1014 88 10000 0.5 310 08:21 15.03.2020
1329 Clear 25 1014 88 10000 1 80 07:51 15.03.2020
1330 Clear 25 1014 88 10000 1 80 07:32 15.03.2020
1331 Clear 25 1015 88 10000 1.5 170 06:53 15.03.2020
1332 Clear 25 1015 88 10000 1.5 170 06:24 15.03.2020
1333 Clear 25 1015 88 10000 1.5 170 05:21 15.03.2020
1334 Clear 25 1015 88 10000 1.5 150 04:43 15.03.2020
1335 Clear 26 1015 88 10000 1.5 150 04:25 15.03.2020
1336 Clear 26 1016 88 10000 2.1 150 03:54 15.03.2020
1337 Clouds 26 1016 83 10000 1.5 120 02:44 15.03.2020
1338 Clouds 26 1016 88 10000 2.1 150 01:40 15.03.2020
1339 Clouds 26 1015 83 10000 2.6 150 00:47 15.03.2020
1340 Clouds 26 1015 83 10000 2.6 150 00:27 15.03.2020
1341 Clouds 27 1015 83 10000 3.1 170 23:56 14.03.2020
1342 Clouds 27 1015 83 10000 3.1 170 23:37 14.03.2020
1343 Clouds 27 1016 74 10000 3.1 160 23:18 14.03.2020
1344 Clouds 27 1015 88 10000 3.1 150 22:44 14.03.2020
1345 Clouds 27 1015 88 10000 3.1 150 22:26 14.03.2020
1346 Clouds 29 1014 83 10000 6.2 120 21:57 14.03.2020
1347 Clouds 28 1014 83 10000 6.2 120 21:37 14.03.2020
1348 Clouds 28 1014 83 10000 6.2 120 21:18 14.03.2020
1349 Clouds 29 1014 83 10000 6.7 160 20:59 14.03.2020
1350 Clouds 29 1014 83 10000 6.7 160 20:41 14.03.2020
1351 Clouds 29 1014 83 10000 6.7 160 20:20 14.03.2020
1352 Clouds 29 1014 78 10000 5.1 160 19:58 14.03.2020
1353 Clouds 28 1014 78 10000 5.1 160 19:39 14.03.2020
1354 Clouds 29 1015 78 10000 6.2 160 19:19 14.03.2020
1355 Clouds 28 1015 78 10000 6.2 160 18:37 14.03.2020
1356 Clouds 30 1015 70 10000 3.1 150 18:19 14.03.2020
1357 Clouds 30 1015 78 10000 5.7 170 17:40 14.03.2020
1358 Clouds 29 1016 58 10000 1 100 17:21 14.03.2020
1359 Clouds 29 1016 83 10000 5.7 160 16:57 14.03.2020
1360 Clouds 28 1016 83 10000 5.7 160 16:38 14.03.2020
1361 Clouds 29 1016 83 10000 5.7 160 16:18 14.03.2020
1362 Clouds 29 1017 83 10000 5.1 150 15:28 14.03.2020
1363 Clouds 28 1017 78 10000 2.6 130 14:59 14.03.2020
1364 Clouds 28 1017 78 10000 2.6 130 14:39 14.03.2020
1365 Clouds 29 1017 78 10000 2.6 130 14:20 14.03.2020
1366 Clouds 27 1017 78 10000 1 120 13:56 14.03.2020
1367 Clouds 27 1017 78 10000 1 120 13:38 14.03.2020
1368 Clouds 27 1017 78 10000 1 120 13:19 14.03.2020
1369 Clouds 26 1017 88 10000 1 150 12:43 14.03.2020
1370 Clouds 26 1017 88 10000 1 150 12:25 14.03.2020
1371 Clouds 25 1016 88 10000 0.5 170 11:44 14.03.2020
1372 Clouds 23 1016 88 10000 0.5 170 11:25 14.03.2020
1373 Clouds 23 1016 88 10000 0.5 170 10:54 14.03.2020
1374 Clouds 24 1015 94 10000 2.1 130 10:36 14.03.2020
1375 Clouds 24 1015 94 10000 2.1 130 10:18 14.03.2020
1376 Clouds 24 1015 94 10000 2.1 130 09:41 14.03.2020
1377 Clouds 24 1015 94 10000 2.1 130 09:21 14.03.2020
1378 Clouds 24 1015 94 10000 1.5 160 08:47 14.03.2020
1379 Clouds 24 1015 94 10000 1.5 160 08:27 14.03.2020
1380 Clouds 24 1015 88 10000 1 130 07:45 14.03.2020
1381 Clouds 24 1015 88 10000 1 130 07:22 14.03.2020
1382 Clouds 24 1015 88 10000 2.1 200 06:59 14.03.2020
1383 Clouds 24 1015 88 10000 2.1 200 06:39 14.03.2020
1384 Clouds 25 1016 88 10000 3.6 180 04:57 14.03.2020
1385 Clouds 25 1016 88 10000 4.1 170 03:40 14.03.2020
1386 Clouds 26 1016 83 10000 1 150 02:53 14.03.2020
1387 Clouds 26 1016 78 10000 2.1 70 01:50 14.03.2020
1388 Clouds 26 1015 83 10000 1.5 160 00:42 14.03.2020
1389 Clouds 26 1014 78 10000 2.1 150 23:44 13.03.2020
1390 Clouds 27 1014 78 10000 2.1 150 23:25 13.03.2020
1391 Clouds 27 1014 83 10000 3.6 140 22:46 13.03.2020
1392 Clouds 27 1014 83 10000 3.6 140 22:25 13.03.2020
1393 Clouds 27 1014 83 10000 6.2 170 21:42 13.03.2020
1394 Clouds 28 1014 83 10000 6.2 170 21:21 13.03.2020
1395 Clouds 29 1014 78 10000 6.2 160 20:57 13.03.2020
1396 Clouds 27 1014 78 10000 6.2 160 20:38 13.03.2020
1397 Clouds 28 1014 78 10000 6.2 160 20:19 13.03.2020
1398 Clouds 28 1014 69 10000 4.6 150 19:42 13.03.2020
1399 Clouds 28 1014 69 10000 4.6 150 19:42 13.03.2020
1400 Clouds 30 1014 69 10000 4.6 150 19:23 13.03.2020
1401 Clouds 29 1014 69 10000 4.6 150 19:23 13.03.2020
1402 Clouds 30 1015 78 10000 5.7 150 18:47 13.03.2020
1403 Clouds 29 1015 78 10000 5.7 150 18:28 13.03.2020
1404 Clouds 30 1015 78 10000 5.7 150 17:57 13.03.2020
1405 Clouds 30 1015 78 10000 5.7 160 17:37 13.03.2020
1406 Clouds 29 1016 78 10000 5.7 160 17:18 13.03.2020
1407 Clouds 28 1016 78 10000 5.7 160 16:41 13.03.2020
1408 Clouds 28 1016 78 10000 5.7 160 16:23 13.03.2020
1409 Clouds 28 1016 83 10000 5.7 150 15:55 13.03.2020
1410 Clouds 28 1016 83 10000 5.7 150 15:37 13.03.2020
1411 Clouds 28 1016 83 10000 5.7 150 15:18 13.03.2020
1412 Clouds 28 1016 74 10000 4.1 160 14:41 13.03.2020
1413 Clouds 28 1016 74 10000 4.1 160 14:22 13.03.2020
1414 Clouds 27 1016 78 10000 3.1 160 13:56 13.03.2020
1415 Clouds 26 1016 78 10000 3.1 160 13:38 13.03.2020
1416 Clouds 26 1016 78 10000 3.1 160 13:19 13.03.2020
1417 Clouds 26 1016 88 10000 2.1 150 12:40 13.03.2020
1418 Clouds 26 1016 88 10000 2.1 150 12:22 13.03.2020
1419 Clouds 25 1016 78 10000 2.1 150 11:59 13.03.2020
1420 Clouds 25 1015 83 10000 1 80 11:41 13.03.2020
1421 Clouds 22 1015 88 10000 1.5 50 11:22 13.03.2020
1422 Clouds 22 1015 88 10000 1.5 50 10:48 13.03.2020
1423 Clouds 23 1015 88 10000 1.5 50 10:28 13.03.2020
1424 Clouds 23 1014 88 10000 1 50 09:57 13.03.2020
1425 Clouds 23 1014 88 10000 1 50 09:57 13.03.2020
1426 Clouds 23 1014 88 10000 1 50 09:39 13.03.2020
1427 Clouds 23 1014 88 10000 1 50 09:20 13.03.2020
1428 Clouds 23 1014 88 10000 2.6 70 08:45 13.03.2020
1429 Clouds 23 1014 88 10000 2.6 70 08:23 13.03.2020
1430 Clouds 23 1014 88 10000 1.5 90 07:50 13.03.2020
1431 Clouds 23 1014 88 10000 1.5 90 07:28 13.03.2020
1432 Clouds 24 1015 83 10000 3.6 70 06:50 13.03.2020
1433 Clouds 24 1015 83 10000 3.6 70 06:32 13.03.2020
1434 Clouds 25 1016 83 10000 2.6 80 05:54 13.03.2020
1435 Clouds 25 1016 78 10000 3.1 80 05:22 13.03.2020
1436 Clouds 25 1016 78 10000 3.1 80 04:38 13.03.2020
1437 Clouds 25 1016 100 10000 3.1 80 03:42 13.03.2020
1438 Clouds 25 1016 83 10000 2.6 170 01:47 13.03.2020
1439 Clouds 25 1016 83 10000 2.6 170 01:19 13.03.2020
1440 Clouds 26 1015 83 10000 3.1 140 00:53 13.03.2020
1441 Clouds 26 1015 83 10000 3.1 140 00:24 13.03.2020
1442 Clouds 26 1015 83 10000 4.6 140 23:55 12.03.2020
1443 Clouds 25 1015 83 10000 4.6 140 23:28 12.03.2020
1444 Clouds 26 1014 78 10000 5.7 130 22:57 12.03.2020
1445 Clouds 26 1014 78 10000 5.7 130 22:39 12.03.2020
1446 Clouds 26 1014 78 10000 5.7 130 22:21 12.03.2020
1447 Clouds 27 1014 78 10000 5.1 140 21:45 12.03.2020
1448 Clouds 27 1014 78 10000 5.1 140 21:27 12.03.2020
1449 Clouds 27 1014 74 10000 5.7 130 20:57 12.03.2020
1450 Clouds 26 1014 74 10000 5.7 130 20:38 12.03.2020
1451 Clouds 27 1014 74 10000 5.7 130 20:19 12.03.2020
1452 Clouds 27 1015 74 10000 7.2 160 19:41 12.03.2020
1453 Clouds 27 1015 74 10000 7.2 160 19:20 12.03.2020
1454 Clouds 27 1015 74 10000 6.7 150 18:44 12.03.2020
1455 Clouds 27 1015 74 10000 6.7 150 18:24 12.03.2020
1456 Clouds 27 1016 74 10000 7.2 170 17:57 12.03.2020
1457 Clouds 27 1016 74 10000 7.2 170 17:39 12.03.2020
1458 Clouds 27 1016 74 10000 7.2 170 17:20 12.03.2020
1459 Clouds 26 1016 74 10000 5.7 160 16:56 12.03.2020
1460 Clouds 26 1016 74 10000 5.7 160 16:38 12.03.2020
1461 Clouds 28 1016 74 10000 5.7 160 16:19 12.03.2020
1462 Clouds 28 1016 74 10000 4.1 160 15:45 12.03.2020
1463 Clouds 27 1016 74 10000 4.1 160 15:27 12.03.2020
1464 Clouds 27 1017 69 10000 2.1 340 14:41 12.03.2020
1465 Clouds 27 1017 69 10000 2.1 340 14:23 12.03.2020
1466 Clouds 26 1016 69 10000 1 360 13:57 12.03.2020
1467 Clouds 26 1016 69 10000 1 360 13:36 12.03.2020
1468 Clouds 26 1016 69 10000 1 360 13:18 12.03.2020
1469 Clouds 25 1016 73 10000 1.5 40 12:41 12.03.2020
1470 Clouds 25 1016 73 10000 1.5 40 12:41 12.03.2020
1471 Clouds 25 1016 73 10000 1.5 40 12:22 12.03.2020
1472 Clouds 22 1016 78 10000 1.05 53 11:57 12.03.2020
1473 Clouds 22 1016 78 10000 1.05 53 11:39 12.03.2020
1474 Clear 21 1015 83 10000 1 160 11:20 12.03.2020
1475 Clear 21 1015 83 10000 1 160 10:59 12.03.2020
1476 Clear 21 1015 83 10000 1 160 10:40 12.03.2020
1477 Clear 21 1015 83 10000 1 160 10:40 12.03.2020
1478 Clear 21 1015 83 10000 1 160 10:22 12.03.2020
1479 Clear 22 1015 78 10000 1.5 150 09:47 12.03.2020
1480 Clear 22 1015 78 10000 1.5 150 09:28 12.03.2020
1481 Clear 22 1015 83 10000 2.6 110 08:54 12.03.2020
1482 Clear 22 1015 83 10000 2.6 110 08:36 12.03.2020
1483 Clear 22 1015 83 10000 2.6 110 08:18 12.03.2020
1484 Clear 23 1015 78 10000 0.5 80 07:45 12.03.2020
1485 Clear 23 1016 78 10000 3.6 160 07:21 12.03.2020
1486 Clear 23 1015 73 10000 0.5 200 05:57 12.03.2020
1487 Clear 24 1016 73 10000 3.1 130 05:27 12.03.2020
1488 Clouds 24 1016 73 10000 1.5 130 02:47 12.03.2020
1489 Clouds 25 1016 73 10000 3.6 130 01:39 12.03.2020
1490 Clouds 25 1016 73 10000 3.6 130 01:20 12.03.2020
1491 Clouds 25 1015 73 10000 3.6 140 00:41 12.03.2020
1492 Clouds 25 1015 65 10000 4.6 120 23:56 11.03.2020
1493 Clouds 26 1014 73 10000 6.2 120 23:27 11.03.2020
1494 Clouds 26 1014 65 10000 6.7 120 22:58 11.03.2020
1495 Clouds 26 1014 65 10000 6.7 120 22:39 11.03.2020
1496 Clouds 26 1014 65 10000 6.7 120 22:21 11.03.2020
1497 Clouds 28 1013 69 10000 6.7 120 21:56 11.03.2020
1498 Clouds 28 1013 69 10000 6.7 120 21:37 11.03.2020
1499 Clouds 29 1013 65 10000 5.1 150 21:19 11.03.2020
1500 Clouds 29 1013 65 10000 5.1 150 20:55 11.03.2020
1501 Clouds 29 1013 65 10000 5.1 150 20:55 11.03.2020
1502 Clouds 27 1013 65 10000 5.1 150 20:36 11.03.2020
1503 Clouds 28 1013 65 10000 5.1 150 20:18 11.03.2020
1504 Clouds 27 1013 69 10000 6.7 160 19:42 11.03.2020
1505 Clouds 28 1013 69 10000 6.7 160 19:23 11.03.2020
1506 Clouds 28 1014 69 10000 6.7 150 18:56 11.03.2020
1507 Clouds 29 1014 69 10000 6.7 150 18:37 11.03.2020
1508 Clouds 29 1014 69 10000 6.7 150 18:18 11.03.2020
1509 Clouds 29 1015 74 10000 6.2 160 17:54 11.03.2020
1510 Clouds 27 1015 74 10000 6.2 160 17:36 11.03.2020
1511 Clouds 29 1015 74 10000 5.7 160 17:18 11.03.2020
1512 Clouds 29 1015 74 10000 5.7 160 16:41 11.03.2020
1513 Clouds 28 1015 74 10000 5.7 160 16:19 11.03.2020
1514 Clouds 28 1016 78 10000 4.6 160 15:43 11.03.2020
1515 Clouds 28 1016 78 10000 4.6 160 15:23 11.03.2020
1516 Clouds 28 1016 78 10000 4.6 160 15:23 11.03.2020
1517 Clouds 28 1016 69 10000 3.1 140 14:46 11.03.2020
1518 Clouds 27 1016 69 10000 3.1 140 14:25 11.03.2020
1519 Clouds 26 1016 69 10000 1.5 50 13:59 11.03.2020
1520 Clouds 26 1016 69 10000 1.5 50 13:40 11.03.2020
1521 Clouds 26 1016 69 10000 1.5 50 13:22 11.03.2020
1522 Clouds 25 1016 78 10000 2.1 110 12:56 11.03.2020
1523 Clouds 25 1016 78 10000 2.1 110 12:38 11.03.2020
1524 Clouds 25 1016 78 10000 2.1 110 12:19 11.03.2020
1525 Clouds 23 1015 83 10000 2.6 80 11:41 11.03.2020
1526 Clouds 23 1015 83 10000 2.6 80 11:20 11.03.2020
1527 Clouds 23 1014 83 10000 3.6 80 10:47 11.03.2020
1528 Clouds 23 1014 83 10000 3.6 80 10:21 11.03.2020
1529 Clear 23 1014 83 10000 2.1 80 09:59 11.03.2020
1530 Clear 23 1014 83 10000 2.1 80 09:40 11.03.2020
1531 Clear 23 1014 83 10000 2.1 80 09:21 11.03.2020
1532 Clear 22 1014 83 10000 2.4 51 08:43 11.03.2020
1533 Clear 23 1014 83 10000 2.4 51 08:25 11.03.2020
1534 Clear 23 1014 78 10000 1 100 07:47 11.03.2020
1535 Clear 23 1014 78 10000 1 100 07:21 11.03.2020
1536 Clear 23 1015 78 10000 2.99 50 06:50 11.03.2020
1537 Clear 23 1015 78 10000 2.99 50 06:31 11.03.2020
1538 Clear 25 1015 73 10000 3.1 100 05:32 11.03.2020
1539 Clear 25 1016 83 10000 2.1 170 03:26 11.03.2020
1540 Clouds 25 1016 83 10000 3.1 130 01:54 11.03.2020
1541 Clouds 25 1016 83 10000 3.1 130 01:24 11.03.2020
1542 Clouds 26 1015 83 10000 3.1 130 00:44 11.03.2020
1543 Clouds 26 1014 74 10000 6.7 110 23:50 10.03.2020
1544 Clouds 26 1014 74 10000 6.7 110 23:28 10.03.2020
1545 Clouds 27 1014 74 10000 5.1 140 22:58 10.03.2020
1546 Clouds 27 1014 74 10000 5.1 140 22:58 10.03.2020
1547 Clouds 27 1014 74 10000 5.1 140 22:37 10.03.2020
1548 Clouds 27 1014 74 10000 5.1 140 22:19 10.03.2020
1549 Clouds 28 1014 69 10000 5.1 160 21:56 10.03.2020
1550 Clouds 28 1014 69 10000 5.1 160 21:38 10.03.2020
1551 Clouds 28 1014 69 10000 5.1 160 21:19 10.03.2020
1552 Clouds 28 1014 74 10000 6.7 160 20:54 10.03.2020
1553 Clouds 28 1014 74 10000 6.7 160 20:36 10.03.2020
1554 Clouds 28 1014 74 10000 6.7 160 20:18 10.03.2020
1555 Clouds 27 1014 74 10000 6.7 160 19:42 10.03.2020
1556 Clouds 27 1014 74 10000 6.7 160 19:42 10.03.2020
1557 Clouds 28 1014 74 10000 6.7 160 19:23 10.03.2020
1558 Clouds 29 1015 78 10000 5.7 160 18:58 10.03.2020
1559 Clouds 29 1015 78 10000 5.7 160 18:40 10.03.2020
1560 Clouds 29 1015 78 10000 5.7 160 18:21 10.03.2020
1561 Clouds 29 1015 78 10000 6.2 160 17:56 10.03.2020
1562 Clouds 29 1015 78 10000 6.2 160 17:37 10.03.2020
1563 Clouds 28 1016 74 10000 4.6 140 17:19 10.03.2020
1564 Clouds 27 1016 74 10000 4.6 140 16:38 10.03.2020
1565 Clouds 28 1016 74 10000 4.6 140 16:18 10.03.2020
1566 Clouds 28 1016 74 10000 4.1 130 15:44 10.03.2020
1567 Clouds 28 1016 74 10000 2.1 360 15:20 10.03.2020
1568 Clouds 28 1016 74 10000 2.1 360 15:20 10.03.2020
1569 Clouds 27 1017 78 10000 2.6 340 14:59 10.03.2020
1570 Clouds 25 1017 78 10000 2.6 340 14:40 10.03.2020
1571 Clouds 27 1017 78 10000 2.6 340 14:19 10.03.2020
1572 Clouds 26 1017 83 10000 2.6 360 13:45 10.03.2020
1573 Clouds 26 1017 83 10000 2.6 360 13:27 10.03.2020
1574 Clouds 26 1017 83 10000 2.1 30 12:59 10.03.2020
1575 Clouds 26 1017 83 10000 2.1 30 12:39 10.03.2020
1576 Clouds 24 1017 83 10000 2.1 30 12:18 10.03.2020
1577 Clouds 23 1016 83 10000 1 30 11:43 10.03.2020
1578 Clouds 23 1016 83 10000 1 30 11:24 10.03.2020
1579 Clouds 21 1015 83 10000 1.5 80 10:59 10.03.2020
1580 Clouds 21 1015 83 10000 1.5 80 10:41 10.03.2020
1581 Clouds 23 1015 83 10000 1.5 80 10:22 10.03.2020
1582 Clouds 23 1015 88 10000 2.1 300 09:56 10.03.2020
1583 Clouds 23 1015 88 10000 2.1 300 09:37 10.03.2020
1584 Clouds 23 1015 88 10000 2.1 300 09:18 10.03.2020
1585 Clouds 23 1015 88 10000 2.1 300 09:18 10.03.2020
1586 Clouds 23 1015 88 10000 1 30 08:45 10.03.2020
1587 Clouds 23 1015 88 10000 1 30 08:26 10.03.2020
1588 Clouds 23 1015 88 10000 1.5 80 07:46 10.03.2020
1589 Clouds 23 1015 88 10000 1.5 80 07:28 10.03.2020
1590 Clouds 23 1015 88 10000 2.6 60 06:42 10.03.2020
1591 Clear 23 1016 88 10000 2.6 140 06:23 10.03.2020
1592 Clouds 24 1016 88 10000 1 80 05:39 10.03.2020
1593 Clouds 24 1016 83 10000 2.6 70 04:37 10.03.2020
1594 Clouds 25 1017 78 10000 3.6 70 03:35 10.03.2020
1595 Clouds 25 1017 83 10000 1.5 170 02:26 10.03.2020
1596 Clouds 25 1017 83 10000 3.1 140 01:20 10.03.2020
1597 Clouds 25 1016 88 10000 4.1 120 00:41 10.03.2020
1598 Clouds 25 1016 88 10000 4.1 120 00:22 10.03.2020
1599 Clouds 25 1015 83 10000 4.6 140 23:40 09.03.2020
1600 Clouds 25 1015 83 10000 4.6 140 23:21 09.03.2020
1601 Clouds 25 1015 78 10000 4.6 170 22:41 09.03.2020
1602 Clouds 27 1015 78 10000 4.6 170 22:22 09.03.2020
1603 Clouds 27 1015 78 10000 6.2 170 21:57 09.03.2020
1604 Clouds 27 1015 78 10000 6.2 170 21:38 09.03.2020
1605 Clouds 27 1015 78 10000 6.2 170 21:20 09.03.2020
1606 Clouds 28 1014 74 10000 6.7 180 20:56 09.03.2020
1607 Clouds 28 1014 74 10000 6.7 180 20:37 09.03.2020
1608 Clouds 28 1014 74 10000 6.7 180 20:18 09.03.2020
1609 Clouds 28 1014 74 10000 6.2 160 19:44 09.03.2020
1610 Clouds 28 1014 74 10000 6.2 160 19:21 09.03.2020
1611 Clouds 29 1014 78 10000 6.7 160 18:57 09.03.2020
1612 Clouds 29 1014 78 10000 6.7 160 18:38 09.03.2020
1613 Clouds 29 1014 78 10000 6.7 160 18:19 09.03.2020
1614 Clouds 29 1015 74 10000 5.7 160 17:57 09.03.2020
1615 Clouds 28 1015 74 10000 5.7 160 17:38 09.03.2020
1616 Clouds 28 1016 62 10000 5.1 240 17:20 09.03.2020
1617 Clouds 28 1016 74 10000 5.7 160 16:57 09.03.2020
1618 Clear 26 1009 71 0 4.33 125 16:39 09.03.2020
1619 Clouds 27 1016 69 10000 2.1 130 16:20 09.03.2020
1620 Clouds 27 1016 69 10000 2.1 130 15:57 09.03.2020
1621 Clouds 27 1016 69 10000 2.1 130 15:57 09.03.2020
1622 Clouds 27 1016 69 10000 2.1 130 15:38 09.03.2020
1623 Clouds 27 1016 69 10000 2.1 130 15:19 09.03.2020
1624 Clouds 25 1017 74 10000 2.1 360 14:41 09.03.2020
1625 Clouds 26 1017 74 10000 2.1 360 14:23 09.03.2020
1626 Clouds 27 1016 78 10000 1 80 13:59 09.03.2020
1627 Clouds 27 1016 78 10000 1 80 13:40 09.03.2020
1628 Clouds 27 1016 78 10000 1 80 13:22 09.03.2020
1629 Clouds 27 1016 78 10000 1 80 13:22 09.03.2020
1630 Clouds 23 1016 88 10000 2.1 10 12:59 09.03.2020
1631 Clouds 23 1016 88 10000 2.1 10 12:40 09.03.2020
1632 Clouds 23 1016 88 10000 2.1 10 12:20 09.03.2020
1633 Clouds 23 1016 83 10000 2.1 360 11:41 09.03.2020
1634 Clouds 23 1016 83 10000 2.1 360 11:21 09.03.2020
1635 Clouds 22 1015 83 10000 1.5 20 10:58 09.03.2020
1636 Clouds 22 1015 83 10000 1.5 20 10:40 09.03.2020
1637 Clouds 23 1015 83 10000 1.5 20 10:20 09.03.2020
1638 Clouds 23 1015 78 10000 1 120 09:44 09.03.2020
1639 Clouds 23 1015 78 10000 1 120 09:24 09.03.2020
1640 Clouds 23 1015 83 10000 2.6 80 08:59 09.03.2020
1641 Clouds 23 1015 83 10000 2.6 80 08:41 09.03.2020
1642 Clouds 23 1015 83 10000 2.6 80 08:23 09.03.2020
1643 Clouds 24 1014 78 10000 2.6 90 07:41 09.03.2020
1644 Clouds 23 1014 78 10000 2.6 90 07:21 09.03.2020
1645 Clouds 24 1015 78 10000 2.1 170 06:43 09.03.2020
1646 Clouds 24 1015 78 10000 2.1 170 06:24 09.03.2020
1647 Clouds 24 1016 78 10000 1.5 160 05:47 09.03.2020
1648 Clouds 24 1016 78 10000 1.5 160 05:20 09.03.2020
1649 Clouds 24 1016 78 10000 2.1 180 04:43 09.03.2020
1650 Clouds 24 1016 78 10000 2.1 180 04:21 09.03.2020
1651 Thunderstorm 25 1016 69 10000 4.6 110 02:59 09.03.2020
1652 Clouds 25 1015 78 10000 2.1 150 01:26 09.03.2020
1653 Clouds 25 1014 78 10000 3.6 130 00:38 09.03.2020
1654 Clouds 25 1014 78 10000 3.6 130 00:20 09.03.2020
1655 Clouds 26 1013 78 10000 4.6 130 23:48 08.03.2020
1656 Clouds 26 1013 78 10000 4.6 130 23:22 08.03.2020
1657 Clouds 26 1013 83 10000 5.1 130 22:57 08.03.2020
1658 Clouds 24 1013 83 10000 5.1 130 22:38 08.03.2020
1659 Clouds 25 1013 83 10000 5.1 130 22:20 08.03.2020
1660 Clouds 27 1012 74 10000 5.7 130 21:54 08.03.2020
1661 Clouds 27 1012 74 10000 5.7 130 21:54 08.03.2020
1662 Clouds 27 1012 74 10000 5.7 130 21:36 08.03.2020
1663 Clouds 27 1012 74 10000 5.7 130 21:18 08.03.2020
1664 Clouds 27 1012 74 10000 5.7 130 21:18 08.03.2020
1665 Clouds 26 1012 74 10000 6.2 160 20:39 08.03.2020
1666 Clouds 27 1013 74 10000 7.2 160 20:21 08.03.2020
1667 Clouds 28 1013 74 10000 7.2 160 19:56 08.03.2020
1668 Clouds 28 1013 74 10000 7.2 160 19:37 08.03.2020
1669 Clouds 28 1013 74 10000 7.2 160 19:18 08.03.2020
1670 Clouds 28 1013 74 10000 6.7 170 18:41 08.03.2020
1671 Clouds 28 1013 74 10000 6.7 170 18:23 08.03.2020
1672 Clear 24 1007 71 0 1.34 35 17:56 08.03.2020
1673 Clear 24 1007 75 0 6.3 112 17:38 08.03.2020
1674 Clouds 28 1014 74 10000 5.1 160 17:18 08.03.2020
1675 Clouds 28 1014 74 10000 5.1 160 16:45 08.03.2020
1676 Clouds 27 1014 74 10000 5.1 160 16:27 08.03.2020
1677 Clouds 27 1015 74 10000 3.6 150 15:56 08.03.2020
1678 Clouds 27 1015 74 10000 3.6 150 15:56 08.03.2020
1679 Clouds 27 1015 74 10000 3.6 150 15:38 08.03.2020
1680 Clouds 27 1015 74 10000 3.6 150 15:19 08.03.2020
1681 Clouds 25 1015 74 10000 2.1 150 14:40 08.03.2020
1682 Clouds 26 1015 73 10000 1 0 14:21 08.03.2020
1683 Clouds 26 1015 83 10000 1.5 10 13:57 08.03.2020
1684 Clouds 25 1015 83 10000 1.5 10 13:38 08.03.2020
1685 Clouds 25 1015 83 10000 1.5 10 13:19 08.03.2020
1686 Clouds 24 1015 88 10000 2.6 360 12:41 08.03.2020
1687 Clouds 24 1015 88 10000 2.6 360 12:21 08.03.2020
1688 Clouds 22 1014 88 10000 1.5 40 11:55 08.03.2020
1689 Clear 16 1009 95 0 1.31 13 11:37 08.03.2020
1690 Clouds 20 1014 88 10000 2.1 40 11:19 08.03.2020
1691 Clouds 22 1014 88 10000 2.1 40 10:41 08.03.2020
1692 Clouds 21 1014 88 10000 2.1 40 10:23 08.03.2020
1693 Clouds 22 1013 83 10000 2.1 40 09:43 08.03.2020
1694 Clouds 22 1013 83 10000 2.1 40 09:25 08.03.2020
1695 Clouds 22 1014 94 10000 1 30 08:54 08.03.2020
1696 Clouds 23 1013 83 10000 1.5 130 08:36 08.03.2020
1697 Clouds 23 1013 83 10000 1.5 130 08:18 08.03.2020
1698 Clouds 23 1013 83 10000 2.4 5 07:41 08.03.2020
1699 Clouds 23 1013 83 10000 2.4 5 07:22 08.03.2020
1700 Clouds 23 1014 83 10000 2.6 60 06:42 08.03.2020
1701 Clouds 23 1014 83 10000 2.6 60 06:22 08.03.2020
1702 Clouds 24 1014 78 10000 1 40 05:28 08.03.2020
1703 Clouds 23 1015 83 10000 3.1 80 03:51 08.03.2020
1704 Clouds 24 1015 78 10000 2.6 140 02:29 08.03.2020
1705 Clouds 24 1015 78 10000 4.1 140 01:23 08.03.2020
1706 Clouds 24 1014 78 10000 4.1 160 00:49 08.03.2020
1707 Clouds 24 1013 78 10000 5.1 170 00:26 08.03.2020
1708 Clouds 24 1013 78 10000 5.1 170 23:44 07.03.2020
1709 Clouds 24 1013 78 10000 5.1 170 23:23 07.03.2020
1710 Clouds 25 1013 78 10000 5.1 170 22:41 07.03.2020
1711 Clouds 25 1013 78 10000 5.1 170 22:22 07.03.2020
1712 Clouds 26 1012 73 10000 6.2 180 21:50 07.03.2020
1713 Clouds 26 1012 73 10000 6.2 180 21:29 07.03.2020
1714 Clouds 27 1012 69 10000 5.7 160 20:57 07.03.2020
1715 Clouds 27 1012 69 10000 5.7 160 20:39 07.03.2020
1716 Clouds 27 1012 69 10000 5.7 160 20:19 07.03.2020
1717 Clouds 27 1012 69 10000 5.7 160 20:19 07.03.2020
1718 Clouds 27 1012 65 10000 5.1 170 19:41 07.03.2020
1719 Clouds 27 1012 65 10000 5.1 170 19:22 07.03.2020
1720 Clouds 28 1013 61 10000 5.1 180 18:47 07.03.2020
1721 Clouds 28 1013 61 10000 5.1 180 18:28 07.03.2020
1722 Clouds 26 1013 65 10000 5.1 170 17:59 07.03.2020
1723 Clouds 27 1013 65 10000 5.1 170 17:40 07.03.2020
1724 Clouds 27 1013 65 10000 5.1 170 17:40 07.03.2020
1725 Clouds 28 1013 65 10000 5.1 170 17:19 07.03.2020
1726 Clouds 27 1014 69 10000 3.1 140 16:55 07.03.2020
1727 Clouds 26 1014 69 10000 3.1 140 16:36 07.03.2020
1728 Clouds 27 1014 69 10000 3.1 140 16:18 07.03.2020
1729 Clouds 27 1015 69 10000 3.1 130 15:41 07.03.2020
1730 Clouds 27 1015 69 10000 3.1 130 15:21 07.03.2020
1731 Clouds 26 1015 69 10000 2.6 140 14:58 07.03.2020
1732 Clouds 26 1015 73 10000 1 50 14:40 07.03.2020
1733 Clouds 26 1015 73 10000 1 50 14:22 07.03.2020
1734 Clouds 25 1015 78 8000 2.6 10 13:42 07.03.2020
1735 Clouds 26 1015 78 8000 2.6 10 13:21 07.03.2020
1736 Clouds 24 1015 83 7000 3.1 340 12:55 07.03.2020
1737 Clouds 22 1015 83 7000 3.1 340 12:37 07.03.2020
1738 Clouds 22 1015 83 7000 3.1 340 12:18 07.03.2020
1739 Clouds 20 1014 88 7000 3.1 350 11:41 07.03.2020
1740 Clouds 20 1014 88 7000 3.1 350 11:23 07.03.2020
1741 Clouds 19 1013 88 10000 2.6 320 10:57 07.03.2020
1742 Clouds 20 1013 88 10000 2.6 320 10:37 07.03.2020
1743 Clouds 20 1013 88 10000 2.6 320 10:18 07.03.2020
1744 Clouds 21 1013 83 10000 2.1 310 09:40 07.03.2020
1745 Clouds 21 1013 83 10000 2.1 310 09:19 07.03.2020
1746 Clouds 22 1013 83 10000 0.5 80 08:57 07.03.2020
1747 Clouds 22 1013 83 10000 0.5 80 08:39 07.03.2020
1748 Clouds 22 1013 83 10000 0.5 80 08:20 07.03.2020
1749 Clouds 23 1013 83 10000 1.5 300 07:44 07.03.2020
1750 Clouds 23 1014 76 0 2.92 273 07:21 07.03.2020
1751 Clouds 23 1014 76 0 2.92 273 06:42 07.03.2020
1752 Clouds 23 1014 76 0 2.92 273 06:23 07.03.2020
1753 Clouds 23 1014 76 0 2.92 273 05:40 07.03.2020
1754 Clouds 23 1015 76 0 3.35 242 03:36 07.03.2020
1755 Clouds 23 1015 76 0 3.35 242 02:43 07.03.2020
1756 Clouds 22 1015 69 10000 2.1 220 01:56 07.03.2020
1757 Clouds 23 1015 73 10000 2.6 200 00:58 07.03.2020
1758 Clouds 23 1015 73 10000 2.6 200 00:24 07.03.2020
1759 Clouds 24 1014 69 10000 3.1 230 23:59 06.03.2020
1760 Clouds 24 1014 69 10000 3.1 230 23:40 06.03.2020
1761 Clouds 24 1014 69 10000 3.1 230 23:22 06.03.2020
1762 Clouds 24 1014 69 10000 5.1 210 22:44 06.03.2020
1763 Clouds 24 1014 69 10000 5.1 210 22:20 06.03.2020
1764 Clouds 26 1013 61 10000 8.2 200 21:47 06.03.2020
1765 Clouds 26 1013 61 10000 8.2 200 21:21 06.03.2020
1766 Clouds 27 1014 57 10000 6.7 180 20:45 06.03.2020
1767 Clouds 26 1014 57 10000 6.7 180 20:23 06.03.2020
1768 Clouds 27 1014 65 10000 7.7 190 19:58 06.03.2020
1769 Clouds 27 1014 65 10000 7.7 190 19:40 06.03.2020
1770 Clouds 27 1014 65 10000 7.7 190 19:21 06.03.2020
1771 Clouds 27 1014 65 10000 7.7 200 18:42 06.03.2020
1772 Clouds 27 1014 65 10000 7.7 200 18:20 06.03.2020
1773 Clouds 28 1015 54 10000 3.6 230 17:56 06.03.2020
1774 Clouds 28 1015 61 10000 6.2 190 17:38 06.03.2020
1775 Clouds 27 1015 65 10000 6.2 190 17:20 06.03.2020
1776 Clouds 27 1015 65 10000 6.2 190 16:54 06.03.2020
1777 Clouds 27 1015 65 10000 6.2 190 16:36 06.03.2020
1778 Clouds 27 1015 65 10000 6.2 190 16:36 06.03.2020
1779 Clouds 27 1015 65 10000 6.2 190 16:18 06.03.2020
1780 Clouds 27 1016 69 10000 2.1 80 15:41 06.03.2020
1781 Clouds 27 1016 69 10000 2.1 80 15:22 06.03.2020
1782 Clouds 26 1016 69 10000 3.1 320 14:40 06.03.2020
1783 Clouds 26 1016 69 10000 3.1 320 14:22 06.03.2020
1784 Clouds 24 1016 78 10000 3.6 340 13:55 06.03.2020
1785 Clouds 24 1016 78 10000 3.6 340 13:37 06.03.2020
1786 Clouds 24 1016 78 10000 3.6 340 13:18 06.03.2020
1787 Clouds 24 1016 83 10000 2.6 330 12:40 06.03.2020
1788 Clouds 24 1016 83 10000 2.6 330 12:21 06.03.2020
1789 Clouds 21 1015 83 10000 2.6 310 11:59 06.03.2020
1790 Clouds 21 1015 83 10000 2.6 310 11:41 06.03.2020
1791 Clouds 21 1015 83 10000 2.6 310 11:20 06.03.2020
1792 Clouds 20 1014 88 10000 3.1 300 10:56 06.03.2020
1793 Clouds 22 1014 88 10000 3.1 300 10:36 06.03.2020
1794 Clouds 22 1014 88 10000 3.1 300 10:18 06.03.2020
1795 Clouds 22 1014 88 10000 3.1 310 09:41 06.03.2020
1796 Clouds 22 1014 88 10000 3.1 310 09:23 06.03.2020
1797 Clouds 22 1014 88 10000 3.1 310 08:55 06.03.2020
1798 Clouds 22 1014 88 10000 3.1 310 08:36 06.03.2020
1799 Clouds 22 1014 88 10000 3.1 310 08:18 06.03.2020
1800 Rain 22 1014 83 10000 2.1 300 07:41 06.03.2020
1801 Rain 22 1014 83 10000 2.1 300 07:21 06.03.2020
1802 Clouds 23 1014 83 10000 2.1 310 06:42 06.03.2020
1803 Clouds 23 1014 83 10000 2.1 310 06:18 06.03.2020
1804 Clouds 23 1015 78 10000 2.6 310 05:37 06.03.2020
1805 Rain 23 1016 73 10000 2.1 260 05:18 06.03.2020
1806 Rain 23 1016 73 10000 2.1 260 04:25 06.03.2020
1807 Clouds 22 1017 73 10000 2.6 260 01:43 06.03.2020
1808 Clouds 22 1017 73 10000 2.6 260 01:25 06.03.2020
1809 Clouds 23 1016 69 10000 3.1 200 00:49 06.03.2020
1810 Clouds 23 1016 69 10000 3.1 200 00:30 06.03.2020
1811 Clouds 24 1015 73 10000 2.6 200 23:43 05.03.2020
1812 Clouds 24 1015 73 10000 2.6 200 23:24 05.03.2020
1813 Clouds 25 1015 69 10000 4.6 200 22:55 05.03.2020
1814 Clouds 25 1015 69 10000 4.6 200 22:37 05.03.2020
1815 Clouds 25 1015 69 10000 4.6 200 22:18 05.03.2020
1816 Clouds 26 1014 69 10000 5.7 210 21:55 05.03.2020
1817 Clouds 24 1014 69 10000 5.7 210 21:37 05.03.2020
1818 Clouds 26 1014 69 10000 5.7 210 21:19 05.03.2020
1819 Clouds 26 1014 69 10000 5.7 210 21:19 05.03.2020
1820 Clouds 27 1014 61 10000 7.2 200 20:42 05.03.2020
1821 Clouds 27 1014 61 10000 7.2 200 20:21 05.03.2020
1822 Clouds 27 1014 65 10000 6.7 190 19:59 05.03.2020
1823 Clouds 27 1014 65 10000 6.7 190 19:40 05.03.2020
1824 Clouds 27 1014 65 10000 6.7 190 19:21 05.03.2020
1825 Clouds 28 1015 61 10000 6.7 190 18:59 05.03.2020
1826 Clouds 28 1015 61 10000 6.7 190 18:38 05.03.2020
1827 Clouds 28 1015 61 10000 6.7 190 18:19 05.03.2020
1828 Clouds 26 1015 69 10000 7.2 190 17:57 05.03.2020
1829 Clouds 26 1015 69 10000 7.2 190 17:39 05.03.2020
1830 Clouds 27 1015 69 10000 7.2 190 17:21 05.03.2020
1831 Clouds 25 1015 65 10000 4.6 190 16:42 05.03.2020
1832 Clouds 26 1015 65 10000 4.6 190 16:24 05.03.2020
1833 Clouds 26 1016 74 10000 1.5 60 15:59 05.03.2020
1834 Clouds 25 1016 74 10000 1.5 60 15:39 05.03.2020
1835 Clouds 26 1016 74 10000 1.5 60 15:20 05.03.2020
1836 Clouds 25 1016 83 10000 2.6 30 14:54 05.03.2020
1837 Clouds 25 1016 83 10000 2.6 30 14:36 05.03.2020
1838 Clouds 26 1016 83 10000 2.6 30 14:18 05.03.2020
1839 Clouds 24 1016 83 10000 2.6 30 13:41 05.03.2020
1840 Clouds 24 1016 83 10000 2.6 30 13:21 05.03.2020
1841 Clouds 24 1015 88 10000 2.6 360 12:56 05.03.2020
1842 Clouds 22 1015 88 10000 2.6 360 12:38 05.03.2020
1843 Clouds 22 1015 88 10000 2.6 360 12:18 05.03.2020
1844 Clouds 22 1015 88 10000 1.5 340 11:56 05.03.2020
1845 Clouds 22 1015 88 10000 1.5 340 11:37 05.03.2020
1846 Clouds 22 1015 88 10000 1.5 340 11:18 05.03.2020
1847 Clouds 22 1015 88 10000 1.5 340 11:18 05.03.2020
1848 Clouds 19 1014 94 10000 3.81 259 10:56 05.03.2020
1849 Clouds 20 1014 94 10000 3.81 259 10:38 05.03.2020
1850 Clouds 19 1014 94 10000 3.81 259 10:38 05.03.2020
1851 Clouds 20 1014 94 10000 3.81 259 10:20 05.03.2020
1852 Clouds 21 1013 94 10000 2.1 330 09:44 05.03.2020
1853 Clouds 21 1013 94 10000 2.1 330 09:26 05.03.2020
1854 Clouds 21 1013 88 10000 3.1 320 08:44 05.03.2020
1855 Clouds 21 1013 88 10000 3.1 320 08:25 05.03.2020
1856 Clouds 22 1013 88 10000 2.1 300 07:48 05.03.2020
1857 Clouds 22 1013 88 10000 2.1 300 07:22 05.03.2020
1858 Clouds 22 1014 88 10000 2.6 290 06:49 05.03.2020
1859 Clouds 22 1014 88 10000 2.6 290 06:22 05.03.2020
1860 Clouds 22 1014 94 10000 3.1 320 05:57 05.03.2020
1861 Clouds 22 1014 94 10000 3.1 320 05:31 05.03.2020
1862 Clouds 22 1015 88 10000 3.1 310 04:23 05.03.2020
1863 Clouds 22 1015 88 10000 3.1 340 03:58 05.03.2020
1864 Clouds 22 1016 78 10000 2.1 360 02:21 05.03.2020
1865 Rain 22 1015 83 8000 1 330 01:24 05.03.2020
1866 Rain 24 1014 83 8000 2.6 180 00:29 05.03.2020
1867 Clouds 24 1014 78 10000 2.1 180 23:56 04.03.2020
1868 Clouds 24 1014 78 10000 2.1 180 23:38 04.03.2020
1869 Clouds 24 1014 78 10000 2.1 180 23:19 04.03.2020
1870 Clouds 24 1013 69 10000 3.1 210 22:40 04.03.2020
1871 Clouds 25 1013 69 10000 3.1 210 22:19 04.03.2020
1872 Clouds 24 1012 73 10000 3.6 210 21:59 04.03.2020
1873 Clouds 24 1012 73 10000 3.6 210 21:41 04.03.2020
1874 Clouds 24 1012 73 10000 3.6 210 21:20 04.03.2020
1875 Clouds 24 1012 69 10000 4.1 210 20:57 04.03.2020
1876 Clouds 24 1012 69 10000 4.1 210 20:39 04.03.2020
1877 Clouds 24 1012 69 10000 4.1 210 20:21 04.03.2020
1878 Clouds 24 1012 69 10000 4.1 210 19:42 04.03.2020
1879 Clouds 26 1012 69 10000 4.1 210 19:24 04.03.2020
1880 Clouds 26 1012 65 10000 5.7 210 18:58 04.03.2020
1881 Clouds 25 1012 65 10000 5.7 210 18:40 04.03.2020
1882 Clouds 25 1012 65 10000 5.7 210 18:22 04.03.2020
1883 Clouds 25 1013 65 10000 5.1 220 17:56 04.03.2020
1884 Clouds 25 1013 65 10000 5.1 220 17:38 04.03.2020
1885 Clouds 25 1013 65 10000 5.1 220 17:19 04.03.2020
1886 Clouds 25 1014 73 10000 4.1 210 16:44 04.03.2020
1887 Clouds 25 1014 78 10000 3.6 120 16:26 04.03.2020
1888 Clouds 25 1014 78 10000 2.6 180 15:59 04.03.2020
1889 Clouds 25 1014 78 10000 2.6 180 15:41 04.03.2020
1890 Clouds 26 1014 78 10000 2.6 180 15:23 04.03.2020
1891 Clouds 25 1014 83 10000 1 0 14:56 04.03.2020
1892 Clouds 25 1014 83 10000 1 0 14:37 04.03.2020
1893 Clouds 25 1014 83 10000 1 0 14:19 04.03.2020
1894 Clouds 23 1014 83 10000 2.1 120 13:57 04.03.2020
1895 Clouds 23 1014 88 10000 1.5 20 13:38 04.03.2020
1896 Clouds 24 1014 88 10000 1.5 20 13:20 04.03.2020
1897 Clouds 24 1014 88 9000 1.5 50 12:45 04.03.2020
1898 Clouds 23 1014 88 9000 1.5 50 12:27 04.03.2020
1899 Clouds 23 1013 94 8000 2.6 40 11:59 04.03.2020
1900 Clouds 23 1013 94 8000 2.6 40 11:41 04.03.2020
1901 Clouds 23 1013 94 8000 2.6 40 11:22 04.03.2020
1902 Clouds 22 1012 94 8000 2.1 40 10:57 04.03.2020
1903 Clouds 22 1012 94 8000 2.1 40 10:38 04.03.2020
1904 Clouds 23 1012 94 8000 2.1 40 10:18 04.03.2020
1905 Clouds 23 1012 94 10000 2.1 70 09:42 04.03.2020
1906 Clouds 23 1012 94 10000 2.1 70 09:21 04.03.2020
1907 Clouds 23 1012 94 10000 1 350 08:46 04.03.2020
1908 Clouds 23 1012 94 10000 1 350 08:26 04.03.2020
1909 Clouds 23 1012 88 10000 1.5 290 07:56 04.03.2020
1910 Clouds 23 1012 88 10000 1.5 290 07:37 04.03.2020
1911 Clouds 23 1012 88 10000 1.5 290 07:18 04.03.2020
1912 Clouds 23 1012 88 8000 2.6 280 06:41 04.03.2020
1913 Clouds 23 1012 88 8000 2.6 280 06:23 04.03.2020
1914 Clouds 23 1013 88 8000 2.6 300 05:47 04.03.2020
1915 Rain 23 1013 94 8000 3.1 310 04:21 04.03.2020
1916 Clouds 23 1013 88 10000 3.1 330 03:40 04.03.2020
1917 Clouds 23 1013 88 10000 3.1 330 03:21 04.03.2020
1918 Rain 23 1014 88 8000 3.1 360 02:53 04.03.2020
1919 Rain 23 1014 88 8000 3.1 360 02:19 04.03.2020
1920 Rain 23 1014 88 8000 2.6 10 01:52 04.03.2020
1921 Rain 23 1013 94 7000 2.1 360 00:49 04.03.2020
1922 Rain 23 1013 83 7000 1 150 00:25 04.03.2020
1923 Rain 23 1012 94 7000 2.1 120 23:46 03.03.2020
1924 Rain 24 1012 94 7000 2.1 120 23:27 03.03.2020
1925 Rain 24 1012 88 8000 2.1 140 22:58 03.03.2020
1926 Rain 24 1012 88 8000 2.1 140 22:58 03.03.2020
1927 Rain 23 1012 88 7000 2.1 160 22:40 03.03.2020
1928 Rain 24 1012 88 7000 2.1 160 22:19 03.03.2020
1929 Rain 24 1012 88 7000 3.1 200 21:57 03.03.2020
1930 Rain 25 1011 83 9000 4.6 200 21:38 03.03.2020
1931 Rain 25 1011 83 9000 4.6 200 21:19 03.03.2020
1932 Rain 25 1011 78 10000 5.1 180 20:55 03.03.2020
1933 Rain 25 1011 78 10000 5.1 180 20:36 03.03.2020
1934 Rain 25 1011 78 10000 5.1 180 20:18 03.03.2020
1935 Clouds 26 1011 69 10000 5.1 170 19:54 03.03.2020
1936 Clouds 26 1011 69 10000 5.1 170 19:36 03.03.2020
1937 Clouds 26 1011 69 10000 5.1 170 19:18 03.03.2020
1938 Clouds 27 1012 74 10000 5.7 180 18:42 03.03.2020
1939 Clouds 27 1012 74 10000 5.7 180 18:22 03.03.2020
1940 Clouds 27 1012 78 10000 5.1 170 17:59 03.03.2020
1941 Clouds 27 1012 78 10000 5.1 170 17:59 03.03.2020
1942 Clouds 27 1012 78 10000 5.1 170 17:40 03.03.2020
1943 Clouds 27 1012 78 10000 5.1 170 17:21 03.03.2020
1944 Clouds 26 1013 83 10000 4.1 140 16:58 03.03.2020
1945 Clouds 26 1013 83 10000 4.1 140 16:38 03.03.2020
1946 Clouds 26 1013 83 10000 4.1 140 16:38 03.03.2020
1947 Clouds 26 1013 83 10000 4.1 140 16:38 03.03.2020
1948 Clouds 26 1013 83 10000 4.1 140 16:20 03.03.2020
1949 Clouds 26 1013 83 10000 3.6 150 15:57 03.03.2020
1950 Clouds 26 1013 83 10000 3.6 150 15:57 03.03.2020
1951 Clouds 26 1013 83 10000 3.6 150 15:38 03.03.2020
1952 Clouds 26 1013 83 10000 3.6 150 15:18 03.03.2020
1953 Clouds 26 1014 83 10000 2.6 300 14:41 03.03.2020
1954 Clouds 26 1014 83 10000 2.6 300 14:41 03.03.2020
1955 Clouds 26 1014 83 10000 2.6 300 14:19 03.03.2020
1956 Clouds 24 1013 88 10000 3.6 100 13:57 03.03.2020
1957 Clouds 24 1013 88 10000 3.6 100 13:39 03.03.2020
1958 Clouds 24 1013 88 10000 3.6 100 13:20 03.03.2020
1959 Clouds 23 1013 83 10000 3.6 100 12:47 03.03.2020
1960 Clouds 23 1013 83 10000 3.6 100 12:26 03.03.2020
1961 Clouds 22 1012 88 10000 1.5 310 11:57 03.03.2020
1962 Clouds 22 1012 88 10000 1.5 310 11:37 03.03.2020
1963 Clouds 22 1012 88 10000 1.5 310 11:18 03.03.2020
1964 Clouds 22 1012 88 10000 1.5 310 11:18 03.03.2020
1965 Clouds 21 1012 94 10000 3.1 320 10:56 03.03.2020
1966 Clouds 21 1012 94 10000 3.1 320 10:37 03.03.2020
1967 Clouds 21 1012 94 10000 3.1 320 10:19 03.03.2020
1968 Clouds 22 1011 88 10000 2.6 300 09:44 03.03.2020
1969 Clouds 21 1011 88 10000 2.6 290 09:22 03.03.2020
1970 Clouds 21 1011 88 10000 2.6 290 08:58 03.03.2020
1971 Clouds 22 1011 88 10000 2.6 290 08:39 03.03.2020
1972 Clouds 22 1012 94 10000 3.6 290 08:20 03.03.2020
1973 Clouds 22 1012 94 10000 3.6 290 07:44 03.03.2020
1974 Clouds 22 1012 94 10000 3.6 290 07:20 03.03.2020
1975 Rain 22 1013 94 5000 1 0 06:49 03.03.2020
1976 Rain 22 1013 94 5000 1 0 06:49 03.03.2020
1977 Rain 22 1013 94 5000 1 0 06:23 03.03.2020
1978 Clouds 22 1013 94 10000 1.5 300 05:47 03.03.2020
1979 Clouds 22 1013 94 10000 1.5 300 05:19 03.03.2020
1980 Rain 22 1014 94 5000 1 210 04:25 03.03.2020
1981 Clouds 22 1014 88 8000 2.6 90 01:40 03.03.2020
1982 Rain 22 1015 94 6000 4.6 150 00:49 03.03.2020
1983 Rain 22 1015 94 6000 4.6 150 00:27 03.03.2020
1984 Rain 22 1015 94 3000 2.6 140 23:59 02.03.2020
1985 Rain 22 1015 94 4000 2.1 160 23:40 02.03.2020
1986 Rain 22 1015 94 4000 2.1 160 23:22 02.03.2020
1987 Rain 22 1015 94 4000 2.1 140 22:55 02.03.2020
1988 Rain 21 1015 94 4000 2.1 140 22:37 02.03.2020
1989 Rain 21 1015 94 4000 2.1 140 22:18 02.03.2020
1990 Rain 21 1015 94 4000 1.5 150 21:42 02.03.2020
1991 Rain 22 1015 94 4000 1.5 150 21:24 02.03.2020
1992 Rain 22 1015 94 4000 1.5 150 21:24 02.03.2020
1993 Rain 22 1015 94 4000 2.6 160 20:59 02.03.2020
1994 Rain 22 1015 94 4000 2.6 160 20:41 02.03.2020
1995 Rain 22 1015 94 4000 2.6 160 20:21 02.03.2020
1996 Rain 23 1015 88 4000 2.6 150 19:57 02.03.2020
1997 Rain 22 1015 88 4000 2.6 150 19:39 02.03.2020
1998 Rain 23 1015 88 4000 2.6 150 19:20 02.03.2020
1999 Rain 23 1015 88 5000 1.5 120 18:55 02.03.2020
2000 Rain 23 1015 88 5000 1.5 120 18:37 02.03.2020
2001 Rain 23 1015 88 5000 1.5 120 18:18 02.03.2020
2002 Rain 22 1016 94 4000 1 100 17:55 02.03.2020
2003 Rain 22 1016 94 4000 1 100 17:37 02.03.2020
2004 Rain 23 1016 94 4000 1 100 17:18 02.03.2020
2005 Rain 22 1016 88 4000 1.5 20 16:41 02.03.2020
2006 Rain 22 1016 88 4000 1.5 20 16:22 02.03.2020
2007 Rain 22 1017 100 4000 2.6 10 15:45 02.03.2020
2008 Rain 22 1017 100 4000 2.6 10 15:22 02.03.2020
2009 Rain 22 1017 94 6000 2.6 20 14:57 02.03.2020
2010 Rain 22 1017 94 6000 2.6 20 14:37 02.03.2020
2011 Rain 22 1017 94 6000 2.6 20 14:19 02.03.2020
2012 Rain 21 1017 94 9000 2.6 20 13:44 02.03.2020
2013 Rain 21 1017 94 9000 2.6 20 13:20 02.03.2020
2014 Rain 22 1017 94 6000 2.1 320 12:59 02.03.2020
2015 Rain 22 1017 94 5000 3.1 310 12:40 02.03.2020
2016 Rain 22 1017 94 5000 3.1 310 12:18 02.03.2020
2017 Rain 22 1016 83 9000 1 0 11:38 02.03.2020
2018 Rain 22 1016 83 9000 1 0 11:19 02.03.2020
2019 Clouds 22 1015 83 10000 2.1 90 10:55 02.03.2020
2020 Clouds 22 1015 83 10000 2.1 90 10:37 02.03.2020
2021 Clouds 22 1015 83 10000 2.1 90 10:18 02.03.2020
2022 Clouds 22 1015 83 10000 1.5 230 09:49 02.03.2020
2023 Clouds 22 1015 83 10000 1.5 230 09:49 02.03.2020
2024 Clouds 22 1015 83 10000 1.5 230 09:30 02.03.2020
2025 Clouds 22 1015 83 10000 1 200 08:49 02.03.2020
2026 Clouds 22 1015 83 10000 1 200 08:23 02.03.2020
2027 Clouds 22 1015 88 10000 2.6 180 07:51 02.03.2020
2028 Clouds 22 1015 88 10000 2.6 180 07:31 02.03.2020
2029 Clouds 22 1015 88 10000 4.1 130 06:50 02.03.2020
2030 Clouds 22 1015 88 10000 4.1 130 06:25 02.03.2020
2031 Clouds 22 1016 88 10000 0.5 260 05:24 02.03.2020
2032 Rain 22 1018 83 8000 2.1 350 03:28 02.03.2020
2033 Rain 22 1017 88 8000 0.5 40 02:55 02.03.2020
2034 Rain 22 1017 88 8000 0.5 40 02:30 02.03.2020
2035 Clouds 23 1017 83 8000 2.6 60 01:36 02.03.2020
2036 Clouds 23 1017 83 8000 2.6 60 01:18 02.03.2020
2037 Rain 23 1016 88 8000 2.6 100 00:22 02.03.2020
2038 Rain 23 1016 88 8000 3.6 80 23:42 01.03.2020
2039 Rain 23 1016 88 8000 3.6 80 23:23 01.03.2020
2040 Rain 23 1016 88 10000 4.1 50 22:55 01.03.2020
2041 Rain 23 1016 88 10000 4.1 50 22:36 01.03.2020
2042 Rain 23 1016 88 10000 4.1 50 22:18 01.03.2020
2043 Rain 23 1015 88 10000 2.1 180 21:41 01.03.2020
2044 Rain 23 1015 88 10000 2.1 180 21:23 01.03.2020
2045 Rain 22 1015 88 10000 3.1 90 20:56 01.03.2020
2046 Rain 23 1015 88 10000 3.1 90 20:37 01.03.2020
2047 Drizzle 23 1015 88 4500 6.2 120 20:19 01.03.2020
2048 Drizzle 23 1015 88 4500 6.2 120 19:42 01.03.2020
2049 Drizzle 23 1015 88 4500 6.2 120 19:22 01.03.2020
2050 Drizzle 22 1015 94 3500 5.7 140 18:58 01.03.2020
2051 Drizzle 23 1015 94 3500 5.7 140 18:39 01.03.2020
2052 Drizzle 23 1015 94 3500 5.7 140 18:19 01.03.2020
2053 Drizzle 23 1015 94 6000 3.6 190 17:55 01.03.2020
2054 Drizzle 23 1015 94 6000 3.6 190 17:37 01.03.2020
2055 Drizzle 23 1015 94 6000 3.6 190 17:19 01.03.2020
2056 Rain 24 1015 88 9000 4.1 160 16:54 01.03.2020
2057 Rain 24 1015 88 9000 4.1 160 16:36 01.03.2020
2058 Rain 24 1015 88 9000 4.1 160 16:18 01.03.2020
2059 Clouds 24 1015 94 10000 1.5 340 15:55 01.03.2020
2060 Clouds 24 1015 94 10000 1.5 340 15:36 01.03.2020
2061 Clouds 24 1015 94 10000 1.5 340 15:18 01.03.2020
2062 Clouds 24 1015 94 9000 1.5 340 14:54 01.03.2020
2063 Clouds 24 1016 88 7000 0.5 120 14:36 01.03.2020
2064 Clouds 24 1016 88 7000 0.5 120 14:36 01.03.2020
2065 Clouds 24 1016 88 7000 0.5 120 14:18 01.03.2020
2066 Clouds 23 1015 94 7000 4.1 320 13:43 01.03.2020
2067 Clouds 23 1015 94 7000 4.1 320 13:21 01.03.2020
2068 Mist 23 1016 94 4000 4.1 310 12:59 01.03.2020
2069 Rain 22 1015 88 6000 1.5 60 12:40 01.03.2020
2070 Rain 22 1015 88 6000 1.5 60 12:20 01.03.2020
2071 Rain 22 1014 94 6000 5.7 150 11:41 01.03.2020
2072 Rain 22 1014 94 6000 5.7 150 11:22 01.03.2020
2073 Rain 22 1014 94 3000 4.6 170 10:57 01.03.2020
2074 Rain 23 1014 94 3000 4.6 170 10:38 01.03.2020
2075 Rain 23 1014 94 3000 4.6 170 10:19 01.03.2020
2076 Rain 23 1014 88 4000 5.1 180 09:46 01.03.2020
2077 Rain 22 1014 88 4000 5.1 180 09:27 01.03.2020
2078 Rain 23 1013 94 4000 6.2 160 08:57 01.03.2020
2079 Rain 23 1013 94 4000 6.2 160 08:38 01.03.2020
2080 Rain 23 1013 94 4000 6.2 160 08:19 01.03.2020
2081 Rain 23 1013 94 4000 7.7 140 07:42 01.03.2020
2082 Rain 23 1013 94 4000 9.3 140 07:23 01.03.2020
2083 Rain 23 1014 94 3000 9.3 140 06:53 01.03.2020
2084 Rain 23 1014 94 3000 9.3 140 06:53 01.03.2020
2085 Rain 23 1014 94 3000 9.3 140 06:33 01.03.2020
2086 Rain 23 1014 100 3000 4.1 130 04:24 01.03.2020
2087 Mist 23 1015 88 4500 6.7 110 02:29 01.03.2020
2088 Mist 24 1015 88 4500 4.6 110 01:53 01.03.2020
2089 Mist 24 1015 88 4500 4.6 110 01:22 01.03.2020
2090 Mist 24 1014 88 5000 4.1 120 00:43 01.03.2020
2091 Mist 24 1014 88 5000 4.1 120 00:21 01.03.2020
2092 Mist 24 1014 94 5000 3.6 130 23:49 29.02.2020
2093 Mist 24 1014 94 5000 3.6 130 23:49 29.02.2020
2094 Mist 25 1014 94 5000 3.6 130 23:31 29.02.2020
2095 Rain 25 1014 88 9000 4.1 130 22:44 29.02.2020
2096 Clouds 25 1014 83 10000 5.1 130 22:24 29.02.2020
2097 Clouds 26 1014 83 10000 3.6 150 21:43 29.02.2020
2098 Clouds 26 1014 83 10000 3.6 150 21:25 29.02.2020
2099 Clouds 26 1014 83 10000 4.6 150 20:44 29.02.2020
2100 Clouds 26 1014 83 10000 4.6 150 20:22 29.02.2020
2101 Clouds 26 1014 78 10000 5.1 140 19:57 29.02.2020
2102 Clouds 26 1014 78 10000 5.1 140 19:38 29.02.2020
2103 Clouds 27 1014 78 10000 5.1 140 19:20 29.02.2020
2104 Clouds 27 1014 78 10000 5.1 140 19:20 29.02.2020
2105 Clouds 26 1015 78 10000 4.6 160 18:44 29.02.2020
2106 Clouds 27 1015 78 10000 4.6 160 18:25 29.02.2020
2107 Clouds 25 1015 78 10000 1.5 140 17:58 29.02.2020
2108 Clouds 25 1015 78 10000 1.5 140 17:40 29.02.2020
2109 Clouds 26 1015 78 10000 1.5 140 17:21 29.02.2020
2110 Clouds 26 1016 83 10000 2.1 350 16:57 29.02.2020
2111 Clouds 25 1016 83 10000 2.1 350 16:39 29.02.2020
2112 Clouds 25 1016 83 10000 2.1 350 16:18 29.02.2020
2113 Clouds 24 1016 83 10000 2.1 360 15:41 29.02.2020
2114 Clouds 25 1016 83 10000 2.1 360 15:23 29.02.2020
2115 Clouds 25 1016 78 10000 1.5 350 14:55 29.02.2020
2116 Clouds 24 1016 78 10000 1.5 350 14:37 29.02.2020
2117 Clouds 25 1016 78 10000 1.5 350 14:19 29.02.2020
2118 Clouds 25 1016 83 10000 2.1 330 13:42 29.02.2020
2119 Clouds 25 1016 83 10000 2.1 330 13:23 29.02.2020
2120 Clouds 24 1016 83 10000 0.5 70 12:43 29.02.2020
2121 Clouds 24 1016 83 10000 0.5 70 12:23 29.02.2020
2122 Clouds 23 1016 88 10000 2.29 61 11:59 29.02.2020
2123 Clouds 23 1016 88 10000 2.29 61 11:40 29.02.2020
2124 Clouds 23 1016 88 10000 2.29 61 11:22 29.02.2020
2125 Clouds 22 1016 88 10000 1.5 160 10:49 29.02.2020
2126 Clouds 22 1016 88 10000 1.5 160 10:29 29.02.2020
2127 Clouds 22 1016 88 10000 1.5 160 10:29 29.02.2020
2128 Clouds 22 1016 88 10000 2.6 180 09:51 29.02.2020
2129 Clouds 22 1016 88 10000 2.6 180 09:51 29.02.2020
2130 Clouds 22 1016 88 10000 2.6 180 09:27 29.02.2020
2131 Clouds 22 1016 83 10000 2.6 180 08:58 29.02.2020
2132 Clouds 22 1016 83 10000 2.6 180 08:38 29.02.2020
2133 Clouds 22 1016 83 10000 2.6 180 08:19 29.02.2020
2134 Clouds 22 1016 83 10000 3.49 83 07:45 29.02.2020
2135 Clouds 22 1016 83 10000 3.49 83 07:19 29.02.2020
2136 Clouds 23 1016 83 10000 1 90 06:53 29.02.2020
2137 Clouds 23 1016 83 10000 1 90 06:27 29.02.2020
2138 Clouds 23 1017 83 10000 0.5 50 05:49 29.02.2020
2139 Clouds 23 1017 83 10000 0.5 50 05:21 29.02.2020
2140 Clouds 23 1017 88 10000 1 10 03:46 29.02.2020
2141 Clouds 22 1017 88 10000 1 10 03:23 29.02.2020
2142 Clouds 22 1018 88 8000 2.6 70 02:47 29.02.2020
2143 Drizzle 22 1018 94 7000 2.6 170 01:32 29.02.2020
2144 Drizzle 22 1017 94 7000 2.1 160 00:46 29.02.2020
2145 Drizzle 22 1017 94 7000 2.1 160 00:26 29.02.2020
2146 Rain 22 1017 94 4500 2.6 170 23:39 28.02.2020
2147 Rain 22 1017 94 4500 2.6 170 23:20 28.02.2020
2148 Clouds 22 1016 88 9000 3.1 140 22:42 28.02.2020
2149 Clouds 22 1016 88 9000 3.1 140 22:22 28.02.2020
2150 Rain 23 1016 88 4000 3.6 120 21:42 28.02.2020
2151 Clouds 23 1016 88 10000 4.6 130 21:21 28.02.2020
2152 Clouds 24 1016 83 10000 4.6 160 20:57 28.02.2020
2153 Clouds 24 1016 83 10000 4.6 160 20:38 28.02.2020
2154 Clouds 24 1016 83 10000 4.6 160 20:20 28.02.2020
2155 Clouds 23 1016 83 10000 2.6 160 19:56 28.02.2020
2156 Clouds 23 1016 83 10000 2.6 160 19:38 28.02.2020
2157 Clouds 23 1016 83 10000 2.6 160 19:19 28.02.2020
2158 Clouds 23 1016 88 8000 3.6 200 18:46 28.02.2020
2159 Clouds 23 1016 88 8000 3.6 200 18:24 28.02.2020
2160 Clouds 23 1016 94 8000 4.1 200 17:56 28.02.2020
2161 Drizzle 23 1017 83 4000 3.1 160 17:36 28.02.2020
2162 Drizzle 23 1017 83 4000 3.1 160 17:36 28.02.2020
2163 Drizzle 23 1017 83 4000 3.1 160 17:18 28.02.2020
2164 Drizzle 24 1017 83 7000 3.1 160 16:38 28.02.2020
2165 Drizzle 24 1017 83 7000 3.1 160 16:19 28.02.2020
2166 Clouds 23 1017 73 10000 1.5 130 15:56 28.02.2020
2167 Clouds 23 1017 78 10000 2.1 340 15:38 28.02.2020
2168 Clouds 23 1017 78 10000 2.1 340 15:18 28.02.2020
2169 Clouds 23 1017 83 10000 1.5 20 14:45 28.02.2020
2170 Clouds 23 1017 83 10000 1.5 20 14:20 28.02.2020
2171 Clouds 23 1017 78 10000 1 320 13:59 28.02.2020
2172 Clouds 23 1017 78 10000 1 320 13:40 28.02.2020
2173 Clouds 23 1017 78 10000 1 320 13:20 28.02.2020
2174 Clouds 22 1017 83 10000 2.1 330 12:46 28.02.2020
2175 Clouds 22 1017 83 10000 2.1 330 12:28 28.02.2020
2176 Clouds 22 1016 88 10000 1.5 320 11:59 28.02.2020
2177 Clouds 21 1016 88 10000 1.5 320 11:40 28.02.2020
2178 Clouds 21 1016 88 10000 1.5 320 11:21 28.02.2020
2179 Clouds 21 1016 88 7000 2.1 320 10:43 28.02.2020
2180 Clouds 21 1016 88 7000 2.1 320 10:24 28.02.2020
2181 Clouds 21 1015 94 8000 2.6 320 09:59 28.02.2020
2182 Clouds 21 1015 94 8000 2.6 320 09:40 28.02.2020
2183 Clouds 21 1015 94 8000 2.6 320 09:18 28.02.2020
2184 Clouds 21 1015 88 6000 2.6 330 08:42 28.02.2020
2185 Clouds 21 1015 88 6000 2.6 330 08:42 28.02.2020
2186 Clouds 21 1015 88 6000 2.6 330 08:20 28.02.2020
2187 Rain 21 1015 88 6000 3.1 320 07:46 28.02.2020
2188 Rain 21 1015 88 6000 3.1 320 07:26 28.02.2020
2189 Rain 21 1015 94 6000 2.6 330 06:52 28.02.2020
2190 Rain 21 1015 94 6000 2.6 330 06:33 28.02.2020
2191 Rain 21 1016 88 6000 3.1 330 05:30 28.02.2020
2192 Rain 22 1016 88 6000 2.6 310 04:31 28.02.2020
2193 Rain 21 1016 94 8000 4.1 310 02:55 28.02.2020
2194 Rain 21 1016 94 8000 4.1 310 02:34 28.02.2020
2195 Rain 22 1016 94 6000 4.6 320 01:48 28.02.2020
2196 Rain 22 1015 83 9000 3.1 330 00:32 28.02.2020
2197 Clouds 23 1014 83 10000 3.1 340 23:47 27.02.2020
2198 Clouds 22 1014 78 9000 1 210 23:23 27.02.2020
2199 Clouds 22 1013 83 8000 4.1 220 22:59 27.02.2020
2200 Clouds 22 1013 83 8000 4.1 220 22:40 27.02.2020
2201 Clouds 22 1013 83 8000 4.1 220 22:22 27.02.2020
2202 Rain 22 1013 94 4500 2.6 170 21:54 27.02.2020
2203 Rain 21 1013 94 4500 2.6 170 21:36 27.02.2020
2204 Rain 22 1013 94 4500 2.6 170 21:18 27.02.2020
2205 Rain 21 1013 94 4500 4.6 210 20:41 27.02.2020
2206 Rain 21 1013 94 4500 4.6 210 20:23 27.02.2020
2207 Rain 21 1013 94 4500 4.6 210 20:23 27.02.2020
2208 Rain 22 1012 94 4500 2.1 150 19:57 27.02.2020
2209 Rain 23 1012 88 5000 2.6 170 19:39 27.02.2020
2210 Rain 23 1012 88 5000 2.6 170 19:21 27.02.2020
2211 Rain 23 1013 78 7000 1.5 170 18:57 27.02.2020
2212 Rain 23 1013 78 7000 1.5 170 18:39 27.02.2020
2213 Rain 23 1013 78 7000 1.5 170 18:20 27.02.2020
2214 Drizzle 24 1013 83 8000 3.1 320 17:56 27.02.2020
2215 Drizzle 24 1013 83 8000 6.2 210 17:37 27.02.2020
2216 Drizzle 25 1013 83 8000 6.2 210 17:18 27.02.2020
2217 Clouds 24 1013 78 10000 2.6 120 16:41 27.02.2020
2218 Clouds 25 1013 78 10000 2.6 120 16:20 27.02.2020
2219 Clouds 24 1013 88 8000 3.1 50 15:59 27.02.2020
2220 Clouds 24 1013 88 8000 3.1 50 15:39 27.02.2020
2221 Clouds 24 1013 88 8000 3.1 50 15:20 27.02.2020
2222 Rain 23 1013 88 8000 2.6 60 14:59 27.02.2020
2223 Rain 23 1013 88 8000 2.6 60 14:39 27.02.2020
2224 Rain 23 1013 88 8000 2.6 60 14:21 27.02.2020
2225 Clouds 24 1012 83 8000 3.6 220 13:43 27.02.2020
2226 Clouds 24 1012 83 8000 3.6 220 13:23 27.02.2020
2227 Rain 23 1011 88 8000 4.6 190 12:59 27.02.2020
2228 Rain 23 1011 88 8000 4.6 190 12:59 27.02.2020
2229 Rain 23 1011 88 8000 4.6 190 12:41 27.02.2020
2230 Rain 23 1011 88 8000 4.6 190 12:19 27.02.2020
2231 Rain 23 1010 88 6000 4.6 210 11:45 27.02.2020
2232 Rain 23 1010 88 6000 4.6 210 11:23 27.02.2020
2233 Clouds 24 1009 83 8000 8.2 200 10:56 27.02.2020
2234 Clouds 24 1009 83 8000 8.2 200 10:37 27.02.2020
2235 Clouds 24 1009 83 8000 8.2 200 10:18 27.02.2020
2236 Clouds 25 1008 74 10000 5.1 210 09:41 27.02.2020
2237 Clouds 25 1008 74 10000 5.1 210 09:22 27.02.2020
2238 Clouds 25 1008 78 10000 3.1 220 08:44 27.02.2020
2239 Clouds 25 1008 78 10000 3.1 220 08:25 27.02.2020
2240 Clouds 25 1007 78 10000 4.1 200 07:51 27.02.2020
2241 Clouds 25 1007 78 10000 4.1 200 07:30 27.02.2020
2242 Clouds 26 1007 69 10000 5.1 210 06:59 27.02.2020
2243 Clouds 26 1007 69 10000 5.1 210 06:20 27.02.2020
2244 Clouds 27 1007 74 10000 5.7 250 04:24 27.02.2020
2245 Rain 32 1006 59 10000 2.1 240 02:58 27.02.2020
2246 Clouds 29 1005 66 10000 2.6 210 00:59 27.02.2020
2247 Clouds 29 1005 66 10000 2.6 210 00:37 27.02.2020
2248 Clouds 29 1004 70 10000 1.5 160 23:41 26.02.2020
2249 Clouds 29 1004 70 10000 1.5 160 23:21 26.02.2020
2250 Clouds 29 1003 74 10000 2.6 180 22:59 26.02.2020
2251 Clouds 29 1003 74 10000 2.6 180 22:40 26.02.2020
2252 Clouds 30 1003 74 10000 2.6 180 22:22 26.02.2020
2253 Clouds 30 1003 66 10000 2.1 170 21:59 26.02.2020
2254 Clouds 30 1003 66 10000 2.1 170 21:39 26.02.2020
2255 Clouds 31 1003 66 10000 2.1 170 21:19 26.02.2020
2256 Clouds 29 1003 74 10000 3.1 140 20:56 26.02.2020
2257 Clouds 30 1003 74 10000 3.1 140 20:38 26.02.2020
2258 Clouds 30 1003 74 10000 3.1 140 20:19 26.02.2020
2259 Clouds 31 1003 66 10000 3.1 120 19:55 26.02.2020
2260 Clouds 32 1003 63 10000 3.6 340 19:36 26.02.2020
2261 Clouds 32 1003 63 10000 3.6 340 19:36 26.02.2020
2262 Clouds 34 1003 63 10000 3.6 340 19:18 26.02.2020
2263 Clouds 34 1004 52 10000 4.1 310 18:41 26.02.2020
2264 Clouds 34 1004 52 10000 4.1 310 18:23 26.02.2020
2265 Clouds 34 1005 59 10000 3.6 320 17:59 26.02.2020
2266 Clouds 34 1005 59 10000 3.6 320 17:39 26.02.2020
2267 Clouds 34 1005 59 10000 3.6 320 17:18 26.02.2020
2268 Clouds 33 1006 55 10000 3.1 300 16:56 26.02.2020
2269 Clouds 33 1006 55 10000 3.1 300 16:37 26.02.2020
2270 Clouds 33 1006 55 10000 3.1 300 16:18 26.02.2020
2271 Clouds 31 1006 83 10000 3.6 360 15:43 26.02.2020
2272 Clouds 31 1006 83 10000 3.6 360 15:25 26.02.2020
2273 Clouds 29 1006 88 10000 3.6 350 14:43 26.02.2020
2274 Clouds 29 1006 88 10000 3.6 350 14:43 26.02.2020
2275 Clouds 28 1006 88 10000 3.6 350 14:23 26.02.2020
2276 Clouds 28 1007 94 6000 3.1 350 13:56 26.02.2020
2277 Clouds 28 1007 94 6000 3.1 350 13:38 26.02.2020
2278 Clouds 28 1007 94 6000 3.1 350 13:18 26.02.2020
2279 Mist 26 1007 88 3000 3.6 360 12:38 26.02.2020
2280 Mist 26 1007 88 3000 3.6 360 12:19 26.02.2020
2281 Mist 25 1007 94 3000 4.6 100 11:55 26.02.2020
2282 Mist 25 1007 94 5000 3.1 350 11:36 26.02.2020
2283 Mist 25 1007 94 5000 3.1 350 11:36 26.02.2020
2284 Mist 25 1007 94 5000 3.1 350 11:18 26.02.2020
2285 Mist 25 1007 94 5000 4.1 320 10:41 26.02.2020
2286 Mist 25 1007 94 5000 4.1 320 10:22 26.02.2020
2287 Mist 24 1007 94 5000 2.6 20 09:46 26.02.2020
2288 Mist 24 1007 94 5000 2.6 20 09:25 26.02.2020
2289 Mist 25 1007 94 5000 3.1 340 08:59 26.02.2020
2290 Mist 25 1007 94 5000 3.1 340 08:38 26.02.2020
2291 Mist 25 1007 94 5000 3.1 340 08:19 26.02.2020
2292 Rain 25 1008 94 10000 3.6 340 07:48 26.02.2020
2293 Rain 25 1008 94 10000 3.6 340 07:29 26.02.2020
2294 Rain 26 1009 94 10000 2.6 30 06:53 26.02.2020
2295 Rain 26 1009 94 10000 2.6 30 06:35 26.02.2020
2296 Rain 25 1010 94 10000 2.1 150 05:54 26.02.2020
2297 Rain 25 1010 94 10000 2.1 150 05:28 26.02.2020
2298 Rain 27 1010 83 9000 2.1 190 04:36 26.02.2020
2299 Clouds 26 1010 78 10000 3.1 310 02:33 26.02.2020
2300 Clouds 27 1010 78 10000 3.6 310 01:49 26.02.2020
2301 Thunderstorm 29 1009 74 10000 4.1 310 00:51 26.02.2020
2302 Thunderstorm 29 1009 74 10000 4.1 310 00:27 26.02.2020
2303 Thunderstorm 27 1008 78 10000 4.1 190 23:57 25.02.2020
2304 Thunderstorm 27 1008 78 10000 4.1 190 23:38 25.02.2020
2305 Thunderstorm 27 1008 78 10000 4.1 190 23:20 25.02.2020
2306 Clouds 29 1008 74 10000 5.1 190 22:42 25.02.2020
2307 Clouds 29 1008 74 10000 5.1 190 22:20 25.02.2020
2308 Clouds 29 1008 78 10000 6.7 180 21:58 25.02.2020
2309 Clouds 28 1008 78 10000 6.7 180 21:37 25.02.2020
2310 Clouds 29 1008 78 10000 6.7 180 21:18 25.02.2020
2311 Clouds 29 1008 78 10000 6.7 160 20:55 25.02.2020
2312 Clouds 29 1008 78 10000 6.7 160 20:36 25.02.2020
2313 Clouds 31 1008 78 10000 6.7 160 20:18 25.02.2020
2314 Clouds 31 1008 74 10000 4.6 160 19:42 25.02.2020
2315 Clouds 31 1008 74 10000 4.6 160 19:21 25.02.2020
2316 Clouds 31 1009 74 10000 4.1 140 18:58 25.02.2020
2317 Clouds 31 1009 74 10000 4.1 140 18:38 25.02.2020
2318 Clouds 32 1009 74 10000 4.1 140 18:19 25.02.2020
2319 Clouds 32 1010 62 10000 2.1 310 17:54 25.02.2020
2320 Clouds 32 1010 62 10000 2.1 310 17:36 25.02.2020
2321 Clouds 32 1010 62 10000 2.1 310 17:18 25.02.2020
2322 Clear 28 1011 62 10000 2.6 310 16:42 25.02.2020
2323 -273 0 0 0 0 0 16:22 25.02.2020
2324 Clear 28 1012 78 10000 2.6 340 15:59 25.02.2020
2325 Clear 28 1012 78 10000 2.6 340 15:41 25.02.2020
2326 Clear 28 1012 78 10000 2.6 340 15:20 25.02.2020
2327 Clouds 28 1013 83 10000 2.6 340 14:58 25.02.2020
2328 Clouds 28 1013 83 10000 2.6 340 14:38 25.02.2020
2329 Clouds 27 1013 83 10000 2.6 340 14:18 25.02.2020
2330 Clouds 26 1013 83 10000 2.1 360 13:57 25.02.2020
2331 Clouds 26 1013 83 10000 2.1 360 13:38 25.02.2020
2332 Clouds 26 1013 83 10000 2.1 360 13:20 25.02.2020
2333 Clouds 23 1013 88 10000 1.5 330 12:42 25.02.2020
2334 Clouds 23 1013 88 10000 1.5 330 12:23 25.02.2020
2335 Clouds 22 1012 83 10000 2.6 340 11:59 25.02.2020
2336 Clouds 22 1012 83 10000 2.6 340 11:41 25.02.2020
2337 Clouds 23 1012 83 10000 2.6 340 11:20 25.02.2020
2338 Clouds 23 1012 88 10000 2.1 340 10:59 25.02.2020
2339 Clouds 23 1012 88 10000 2.1 340 10:41 25.02.2020
2340 Clouds 23 1012 88 10000 2.1 340 10:22 25.02.2020
2341 Clouds 23 1012 88 10000 0.5 90 09:42 25.02.2020
2342 Clouds 23 1012 88 10000 0.5 90 09:23 25.02.2020
2343 Clouds 23 1012 88 10000 0.5 90 09:23 25.02.2020
2344 Clouds 23 1012 88 10000 1 70 08:56 25.02.2020
2345 Clouds 23 1012 88 10000 1 70 08:38 25.02.2020
2346 Clouds 23 1012 88 10000 1 70 08:20 25.02.2020
2347 Clouds 23 1012 88 10000 1.5 150 07:48 25.02.2020
2348 Clouds 23 1012 88 10000 1.5 150 07:20 25.02.2020
2349 Clouds 23 1012 88 10000 2.16 33 06:41 25.02.2020
2350 Clouds 23 1013 88 10000 0.5 330 05:39 25.02.2020
2351 Clouds 24 1015 83 10000 0.5 110 03:54 25.02.2020
2352 Clouds 23 1015 88 10000 2.6 70 02:31 25.02.2020
2353 Rain 23 1014 88 8000 1 70 00:55 25.02.2020
2354 Rain 23 1014 88 8000 1 70 00:29 25.02.2020
2355 Rain 23 1014 94 7000 1 290 23:44 24.02.2020
2356 Rain 23 1014 94 7000 1 290 23:22 24.02.2020
2357 Rain 23 1014 88 4000 2.1 320 22:43 24.02.2020
2358 Rain 23 1014 88 4000 2.1 320 22:21 24.02.2020
2359 Rain 25 1014 83 4000 2.1 340 21:58 24.02.2020
2360 Clouds 25 1013 83 10000 1 80 21:39 24.02.2020
2361 Clouds 25 1013 83 10000 1 80 21:20 24.02.2020
2362 Clouds 25 1013 83 10000 1.5 130 20:59 24.02.2020
2363 Clouds 25 1013 83 10000 1.5 130 20:59 24.02.2020
2364 Clouds 25 1013 83 10000 1.5 130 20:41 24.02.2020
2365 Clouds 25 1013 83 10000 1.5 130 20:20 24.02.2020
2366 Clouds 24 1013 83 10000 1.5 130 19:58 24.02.2020
2367 Clouds 24 1014 78 10000 2.1 330 19:40 24.02.2020
2368 Clouds 24 1014 78 10000 2.1 330 19:22 24.02.2020
2369 Rain 25 1015 88 4500 2.6 190 18:56 24.02.2020
2370 Rain 23 1015 88 4500 2.6 190 18:38 24.02.2020
2371 Rain 25 1015 88 4500 2.6 190 18:19 24.02.2020
2372 Rain 24 1015 83 10000 4.1 180 17:42 24.02.2020
2373 Rain 27 1015 83 10000 4.1 180 17:21 24.02.2020
2374 Clouds 27 1016 74 10000 5.1 160 16:59 24.02.2020
2375 Clouds 27 1016 74 10000 5.1 160 16:40 24.02.2020
2376 Clouds 27 1016 74 10000 5.1 160 16:21 24.02.2020
2377 Clouds 27 1016 69 10000 3.1 130 15:59 24.02.2020
2378 Clouds 27 1016 69 10000 3.1 130 15:40 24.02.2020
2379 Clouds 27 1016 69 10000 3.1 130 15:21 24.02.2020
2380 Clouds 27 1016 69 10000 3.1 130 15:21 24.02.2020
2381 Clouds 27 1016 69 10000 2.1 320 14:58 24.02.2020
2382 Clouds 27 1016 69 10000 2.1 320 14:40 24.02.2020
2383 Clouds 27 1016 69 10000 2.1 320 14:19 24.02.2020
2384 Clouds 25 1016 73 10000 1.5 340 13:56 24.02.2020
2385 Clouds 26 1016 73 10000 1.5 340 13:37 24.02.2020
2386 Clouds 25 1016 78 10000 1.5 40 13:19 24.02.2020
2387 Clouds 25 1016 78 10000 1.5 40 12:56 24.02.2020
2388 Clouds 25 1016 78 10000 1.5 40 12:38 24.02.2020
2389 Clouds 25 1016 78 10000 1.5 40 12:19 24.02.2020
2390 Clouds 23 1016 83 10000 2.6 40 11:44 24.02.2020
2391 Clouds 23 1016 83 10000 2.6 40 11:26 24.02.2020
2392 Clouds 22 1015 78 10000 2.1 40 10:45 24.02.2020
2393 Clouds 22 1015 78 10000 2.1 40 10:26 24.02.2020
2394 Clouds 22 1015 78 10000 2.1 40 09:54 24.02.2020
2395 Clouds 22 1015 78 10000 2.1 40 09:54 24.02.2020
2396 Clouds 22 1015 78 10000 2.1 40 09:36 24.02.2020
2397 Clouds 22 1015 78 10000 2.1 40 09:18 24.02.2020
2398 Clouds 22 1015 83 10000 3.07 36 08:44 24.02.2020
2399 Clouds 22 1015 83 10000 3.07 36 08:24 24.02.2020
2400 Clouds 22 1015 78 10000 0.5 180 07:44 24.02.2020
2401 Clouds 22 1015 78 10000 0.5 180 07:24 24.02.2020
2402 Clouds 22 1015 78 10000 1.5 190 06:36 24.02.2020
2403 Clouds 23 1016 83 10000 2.1 140 06:18 24.02.2020
2404 Clouds 23 1016 83 10000 2.1 140 05:28 24.02.2020
2405 Clouds 23 1018 73 10000 1 70 03:45 24.02.2020
2406 Clouds 24 1018 78 10000 2.6 50 02:52 24.02.2020
2407 Clouds 24 1018 78 10000 1.5 150 01:42 24.02.2020
2408 Clouds 24 1017 78 10000 2.1 140 00:52 24.02.2020
2409 Clouds 24 1017 78 10000 2.1 140 00:23 24.02.2020
2410 Clouds 24 1017 73 10000 3.1 170 23:59 23.02.2020
2411 Clouds 24 1017 73 10000 3.1 170 23:40 23.02.2020
2412 Clouds 24 1017 73 10000 3.1 170 23:18 23.02.2020
2413 Clouds 24 1017 69 10000 2.6 150 22:54 23.02.2020
2414 Clouds 24 1017 69 10000 2.6 150 22:36 23.02.2020
2415 Clouds 24 1017 69 10000 2.6 150 22:18 23.02.2020
2416 Clouds 24 1016 69 10000 3.1 150 21:43 23.02.2020
2417 Clouds 24 1016 69 10000 3.1 150 21:43 23.02.2020
2418 Clouds 25 1016 69 10000 3.1 150 21:19 23.02.2020
2419 Clouds 25 1017 65 10000 3.1 170 20:56 23.02.2020
2420 Clouds 25 1017 65 10000 3.1 170 20:56 23.02.2020
2421 Clouds 25 1017 65 10000 3.1 170 20:38 23.02.2020
2422 Clouds 25 1017 65 10000 3.1 170 20:19 23.02.2020
2423 Clouds 25 1017 69 10000 3.6 170 19:56 23.02.2020
2424 Clouds 25 1017 69 10000 3.6 170 19:37 23.02.2020
2425 Clouds 25 1017 69 10000 3.6 170 19:18 23.02.2020
2426 Clouds 25 1018 69 10000 2.6 160 18:54 23.02.2020
2427 Clouds 25 1018 69 10000 2.6 160 18:36 23.02.2020
2428 Clouds 25 1018 69 10000 2.6 160 18:18 23.02.2020
2429 Clouds 25 1018 73 10000 2.1 120 17:56 23.02.2020
2430 Clouds 25 1018 73 10000 2.1 120 17:37 23.02.2020
2431 Clouds 25 1018 73 10000 2.1 120 17:18 23.02.2020
2432 Clouds 24 1019 78 10000 1.5 10 16:42 23.02.2020
2433 Clouds 23 1019 78 10000 1.5 10 16:42 23.02.2020
2434 Clouds 24 1019 78 10000 1.5 10 16:24 23.02.2020
2435 Clouds 23 1019 78 10000 2.1 350 15:58 23.02.2020
2436 Clouds 23 1019 78 10000 2.1 350 15:38 23.02.2020
2437 Clouds 24 1019 78 10000 2.1 350 15:20 23.02.2020
2438 Clouds 24 1019 78 10000 2.1 350 15:20 23.02.2020
2439 Clouds 24 1019 83 10000 1.5 10 14:56 23.02.2020
2440 Clouds 23 1019 83 10000 1.5 10 14:38 23.02.2020
2441 Clouds 23 1019 83 10000 1.5 10 14:20 23.02.2020
2442 Clouds 23 1018 88 10000 2.1 310 13:57 23.02.2020
2443 Clouds 23 1018 88 10000 2.1 310 13:38 23.02.2020
2444 Clouds 23 1018 88 10000 2.1 310 13:20 23.02.2020
2445 Clouds 21 1018 88 7000 2.1 350 12:42 23.02.2020
2446 Clouds 21 1018 88 7000 2.1 350 12:21 23.02.2020
2447 Rain 21 1018 94 5000 4.1 90 11:55 23.02.2020
2448 Rain 21 1018 94 5000 4.1 90 11:37 23.02.2020
2449 Rain 21 1018 94 5000 4.1 90 11:18 23.02.2020
2450 Rain 22 1017 88 6000 1 360 10:42 23.02.2020
2451 Rain 21 1017 88 6000 1 360 10:23 23.02.2020
2452 Clouds 21 1017 88 8000 2.1 20 09:59 23.02.2020
2453 Clouds 21 1017 88 8000 3.1 340 09:39 23.02.2020
2454 Clouds 21 1016 88 8000 3.1 320 09:21 23.02.2020
2455 Clouds 21 1016 88 8000 3.1 320 08:51 23.02.2020
2456 Clouds 21 1016 88 8000 3.1 320 08:30 23.02.2020
2457 Clouds 21 1016 94 8000 3.1 320 07:58 23.02.2020
2458 Clouds 21 1016 94 8000 3.1 320 07:39 23.02.2020
2459 Rain 21 1016 100 7000 2.6 310 06:39 23.02.2020
2460 Drizzle 22 1017 94 8000 3.6 320 05:47 23.02.2020
2461 Clouds 22 1017 83 10000 1.5 200 04:35 23.02.2020
2462 Clouds 23 1017 83 10000 1.5 200 04:35 23.02.2020
2463 Clouds 22 1018 83 10000 3.1 200 03:21 23.02.2020
2464 Clouds 22 1018 83 8000 3.6 200 02:26 23.02.2020
2465 Rain 22 1017 88 5000 5.1 200 01:24 23.02.2020
2466 Rain 22 1017 88 4500 7.7 190 00:46 23.02.2020
2467 Rain 22 1016 94 4000 10.8 180 00:25 23.02.2020
2468 Rain 22 1015 94 4500 9.3 190 23:45 22.02.2020
2469 Rain 22 1015 94 4500 9.3 190 23:27 22.02.2020
2470 Rain 22 1014 94 3000 8.7 200 22:57 22.02.2020
2471 Rain 22 1014 94 3000 8.7 200 22:38 22.02.2020
2472 Rain 22 1014 94 3000 8.7 200 22:18 22.02.2020
2473 Rain 22 1013 88 4000 8.2 180 21:40 22.02.2020
2474 Rain 23 1013 88 4000 8.2 180 21:22 22.02.2020
2475 Rain 23 1013 88 8000 9.3 200 20:46 22.02.2020
2476 Rain 23 1013 88 8000 9.3 200 20:24 22.02.2020
2477 Rain 24 1012 83 6000 8.7 190 19:56 22.02.2020
2478 Rain 24 1012 83 6000 8.7 190 19:37 22.02.2020
2479 Rain 24 1012 83 6000 8.7 190 19:18 22.02.2020
2480 Clouds 25 1012 83 10000 3.6 160 18:39 22.02.2020
2481 Clouds 25 1012 83 10000 3.6 160 18:39 22.02.2020
2482 Clouds 25 1012 83 10000 3.6 160 18:21 22.02.2020
2483 Clouds 27 1012 83 10000 4.1 150 17:57 22.02.2020
2484 Clouds 25 1012 83 10000 4.1 150 17:39 22.02.2020
2485 Clouds 26 1012 83 10000 4.1 150 17:21 22.02.2020
2486 Clouds 27 1013 83 10000 2.1 130 16:57 22.02.2020
2487 Clouds 27 1013 83 10000 2.1 130 16:39 22.02.2020
2488 Clouds 27 1013 83 10000 2.1 130 16:20 22.02.2020
2489 Clouds 26 1013 88 10000 2.1 130 15:44 22.02.2020
2490 Clouds 27 1013 88 10000 2.1 130 15:25 22.02.2020
2491 Rain 26 1013 88 8000 2.6 130 14:55 22.02.2020
2492 Rain 26 1013 88 8000 2.6 130 14:37 22.02.2020
2493 Rain 26 1013 88 8000 2.6 130 14:18 22.02.2020
2494 Clouds 26 1013 78 10000 2.1 330 13:41 22.02.2020
2495 Clouds 26 1013 78 10000 2.1 330 13:19 22.02.2020
2496 Clouds 24 1012 83 10000 2.6 320 12:46 22.02.2020
2497 Clouds 24 1012 83 10000 2.6 320 12:24 22.02.2020
2498 Clouds 24 1012 83 10000 1 20 11:56 22.02.2020
2499 Clouds 24 1012 83 10000 1 20 11:36 22.02.2020
2500 Clouds 24 1012 83 10000 1 20 11:18 22.02.2020
2501 Clouds 24 1011 83 10000 2.1 210 10:40 22.02.2020
2502 Clouds 24 1011 83 10000 2.1 210 10:20 22.02.2020
2503 Clouds 23 1010 88 10000 0.5 150 09:58 22.02.2020
2504 Clouds 23 1010 88 10000 0.5 150 09:39 22.02.2020
2505 Clouds 23 1010 88 10000 0.5 150 09:21 22.02.2020
2506 Clouds 23 1011 88 10000 1 140 08:48 22.02.2020
2507 Clouds 23 1011 88 10000 1 140 08:28 22.02.2020
2508 Clouds 24 1010 83 9000 2.36 217 07:50 22.02.2020
2509 Clouds 24 1010 83 9000 2.36 217 07:20 22.02.2020
2510 Rain 24 1011 94 7000 2.1 190 06:48 22.02.2020
2511 Rain 24 1011 94 7000 2.1 190 06:29 22.02.2020
2512 Clouds 25 1012 88 10000 2.1 320 04:33 22.02.2020
2513 Clouds 24 1012 88 10000 2.1 210 03:24 22.02.2020
2514 Rain 24 1013 88 8000 3.6 190 02:33 22.02.2020
2515 Rain 24 1012 94 4000 4.6 200 01:46 22.02.2020
2516 Rain 24 1013 94 6000 5.1 210 01:27 22.02.2020
2517 Clouds 25 1012 88 10000 2.1 230 00:45 22.02.2020
2518 Clouds 25 1012 88 10000 2.1 230 00:27 22.02.2020
2519 Clouds 25 1011 83 10000 2.1 190 23:47 21.02.2020
2520 Thunderstorm 25 1010 94 8000 3.6 170 23:23 21.02.2020
2521 Clouds 25 1010 88 10000 3.1 280 22:56 21.02.2020
2522 Thunderstorm 25 1010 94 6000 5.1 180 22:38 21.02.2020
2523 Thunderstorm 25 1010 94 6000 5.1 180 22:18 21.02.2020
2524 Rain 26 1010 94 1000 6.7 180 21:42 21.02.2020
2525 Rain 26 1010 94 1000 6.7 180 21:24 21.02.2020
2526 Rain 26 1010 94 1000 6.7 180 21:24 21.02.2020
2527 Rain 26 1009 88 10000 5.7 180 20:50 21.02.2020
2528 Rain 26 1009 83 10000 7.2 190 20:31 21.02.2020
2529 Clouds 27 1009 79 10000 6.7 200 19:59 21.02.2020
2530 Clouds 27 1009 79 10000 6.7 200 19:38 21.02.2020
2531 Clouds 27 1009 79 10000 6.7 200 19:18 21.02.2020
2532 Clouds 28 1009 79 10000 6.7 190 18:40 21.02.2020
2533 Clouds 29 1009 79 10000 6.7 190 18:22 21.02.2020
2534 Clouds 29 1009 74 10000 8.7 190 17:42 21.02.2020
2535 Clouds 30 1009 74 10000 8.7 190 17:24 21.02.2020
2536 Clouds 30 1010 70 10000 7.2 190 16:59 21.02.2020
2537 Clouds 30 1010 70 10000 7.2 190 16:41 21.02.2020
2538 Clouds 30 1010 70 10000 7.2 190 16:21 21.02.2020
2539 Clouds 30 1010 70 10000 5.7 160 15:57 21.02.2020
2540 Clouds 30 1010 70 10000 5.7 160 15:38 21.02.2020
2541 Clouds 30 1010 70 10000 5.7 160 15:18 21.02.2020
2542 Clouds 29 1010 88 10000 4.1 140 14:42 21.02.2020
2543 Clouds 30 1010 88 10000 4.1 140 14:20 21.02.2020
2544 Clouds 29 1010 94 10000 4.6 140 13:45 21.02.2020
2545 Clouds 29 1010 94 10000 4.6 140 13:24 21.02.2020
2546 Clouds 28 1010 88 10000 2.6 150 12:56 21.02.2020
2547 Clouds 29 1010 88 10000 2.6 150 12:37 21.02.2020
2548 Clouds 29 1010 88 10000 2.6 150 12:19 21.02.2020
2549 Clouds 27 1009 88 10000 1 140 11:43 21.02.2020
2550 Clouds 27 1009 88 10000 1 140 11:23 21.02.2020
2551 Clouds 25 1008 88 10000 1.5 180 10:59 21.02.2020
2552 Clouds 25 1008 88 10000 1.5 180 10:41 21.02.2020
2553 Clouds 26 1008 88 10000 1.5 180 10:19 21.02.2020
2554 Clouds 26 1008 88 10000 2.1 150 09:58 21.02.2020
2555 Clouds 26 1008 88 10000 2.1 150 09:38 21.02.2020
2556 Clouds 26 1008 88 10000 2.1 150 09:38 21.02.2020
2557 Clouds 26 1008 88 10000 2.1 150 09:20 21.02.2020
2558 Clouds 25 1007 94 10000 2.6 150 08:45 21.02.2020
2559 Clouds 25 1007 94 10000 2.6 150 08:22 21.02.2020
2560 Clear 26 1008 94 10000 2.1 160 07:59 21.02.2020
2561 Clear 26 1008 94 10000 2.1 160 07:41 21.02.2020
2562 Clear 26 1008 94 10000 2.1 160 07:19 21.02.2020
2563 Clear 25 1008 94 10000 2.6 130 06:53 21.02.2020
2564 Clear 25 1008 94 10000 2.6 130 06:31 21.02.2020
2565 Clear 26 1008 94 10000 3.1 130 05:50 21.02.2020
2566 Clear 26 1009 88 10000 2.1 150 04:39 21.02.2020
2567 Clear 26 1009 88 10000 2.1 150 04:20 21.02.2020
2568 Clear 27 1009 88 10000 3.6 130 03:42 21.02.2020
2569 Clear 27 1009 88 10000 3.1 140 02:58 21.02.2020
2570 Clouds 27 1008 74 10000 4.1 150 01:25 21.02.2020
2571 Thunderstorm 28 1008 70 10000 3.6 170 00:46 21.02.2020
2572 Thunderstorm 28 1008 70 10000 3.6 170 00:24 21.02.2020
2573 Thunderstorm 28 1008 70 10000 3.6 170 00:24 21.02.2020
2574 Clouds 28 1007 66 10000 5.1 190 23:46 20.02.2020
2575 Clouds 28 1007 66 10000 5.1 190 23:26 20.02.2020
2576 Clouds 30 1006 66 10000 6.2 180 22:59 20.02.2020
2577 Clouds 30 1006 66 10000 6.2 180 22:39 20.02.2020
2578 Clouds 30 1006 66 10000 6.2 180 22:20 20.02.2020
2579 Clouds 30 1006 66 10000 6.2 170 21:57 20.02.2020
2580 Clouds 31 1006 66 10000 6.2 170 21:37 20.02.2020
2581 Clouds 31 1006 66 10000 6.2 170 21:19 20.02.2020
2582 Clouds 31 1005 66 10000 7.2 170 20:55 20.02.2020
2583 Clouds 31 1005 66 10000 7.2 170 20:37 20.02.2020
2584 Clouds 31 1005 66 10000 7.2 170 20:19 20.02.2020
2585 Clouds 33 1006 62 10000 7.2 170 19:58 20.02.2020
2586 Clouds 33 1006 62 10000 7.2 170 19:40 20.02.2020
2587 Clouds 33 1006 62 10000 7.2 170 19:21 20.02.2020
2588 Clouds 34 1007 66 10000 5.1 160 18:40 20.02.2020
2589 Clouds 34 1007 66 10000 5.1 160 18:20 20.02.2020
2590 Clouds 33 1007 59 10000 3.1 140 17:56 20.02.2020
2591 Clouds 34 1007 59 10000 3.1 140 17:38 20.02.2020
2592 Clouds 34 1008 66 10000 3.1 120 17:18 20.02.2020
2593 Clouds 34 1008 66 10000 3.1 120 16:56 20.02.2020
2594 Clouds 34 1008 66 10000 3.1 120 16:37 20.02.2020
2595 Clouds 34 1008 66 10000 3.1 120 16:18 20.02.2020
2596 Clear 35 1009 55 10000 2.6 340 15:42 20.02.2020
2597 Clear 35 1009 55 10000 2.6 340 15:22 20.02.2020
2598 Clear 33 1009 66 10000 2.1 350 14:57 20.02.2020
2599 Clear 33 1009 66 10000 2.1 350 14:39 20.02.2020
2600 Clear 33 1009 66 10000 2.1 350 14:39 20.02.2020
2601 Clouds 32 1009 66 10000 2.1 350 14:20 20.02.2020
2602 Clouds 32 1009 62 10000 1 340 13:46 20.02.2020
2603 Clouds 32 1009 62 10000 1 340 13:21 20.02.2020
2604 Clouds 30 1009 74 10000 1.5 360 12:59 20.02.2020
2605 Clouds 30 1009 74 10000 1.5 360 12:40 20.02.2020
2606 Clouds 30 1009 74 10000 1.5 360 12:20 20.02.2020
2607 Clouds 28 1009 78 10000 2.1 360 11:57 20.02.2020
2608 Clouds 28 1009 78 10000 2.1 360 11:39 20.02.2020
2609 Clouds 28 1009 78 10000 2.1 360 11:19 20.02.2020
2610 Mist 25 1009 83 4000 1.5 60 10:55 20.02.2020
2611 Clouds 25 1008 83 10000 2.1 360 10:36 20.02.2020
2612 Clouds 25 1008 83 10000 2.1 360 10:18 20.02.2020
2613 Clouds 26 1008 83 10000 2.6 360 09:38 20.02.2020
2614 Clouds 26 1008 83 10000 2.6 360 09:19 20.02.2020
2615 Clouds 26 1008 83 10000 3.3 11 08:41 20.02.2020
2616 Clouds 26 1008 83 10000 3.43 6 08:23 20.02.2020
2617 Clouds 26 1008 88 10000 1.5 170 07:47 20.02.2020
2618 Clouds 26 1008 88 10000 1.5 170 07:27 20.02.2020
2619 Clouds 27 1008 83 10000 2.1 160 06:57 20.02.2020
2620 Clouds 27 1008 83 10000 2.1 160 06:37 20.02.2020
2621 Clouds 28 1008 74 10000 1.5 360 05:47 20.02.2020
2622 Clouds 28 1008 74 10000 1.5 360 05:24 20.02.2020
2623 Clouds 28 1009 83 10000 2.1 20 04:47 20.02.2020
2624 Clouds 28 1009 88 10000 2.6 360 03:46 20.02.2020
2625 Clouds 29 1009 74 10000 0.5 10 02:46 20.02.2020
2626 Clouds 28 1008 83 10000 1 100 01:24 20.02.2020
2627 Clouds 30 1007 66 10000 1.5 170 00:45 20.02.2020
2628 Clouds 30 1007 66 10000 1.5 170 00:24 20.02.2020
2629 Clouds 30 1006 66 10000 3.6 180 23:46 19.02.2020
2630 Clouds 30 1006 66 10000 3.6 180 23:18 19.02.2020
2631 Clouds 33 1006 59 10000 5.1 180 22:41 19.02.2020
2632 Clouds 33 1006 59 10000 5.1 180 22:23 19.02.2020
2633 Clouds 35 1006 63 10000 3.1 150 21:58 19.02.2020
2634 Clouds 35 1006 63 10000 3.1 150 21:39 19.02.2020
2635 Clouds 35 1006 63 10000 3.1 150 21:19 19.02.2020
2636 Clouds 36 1006 56 10000 2.1 170 20:57 19.02.2020
2637 Clouds 36 1006 56 10000 2.1 170 20:37 19.02.2020
2638 Clouds 36 1006 56 10000 2.1 170 20:19 19.02.2020
2639 Clouds 36 1007 63 10000 2.1 120 19:57 19.02.2020
2640 Clouds 36 1007 63 10000 2.1 120 19:37 19.02.2020
2641 Clouds 36 1007 63 10000 2.1 120 19:19 19.02.2020
2642 Clear 36 1007 56 10000 3.1 30 18:57 19.02.2020
2643 Clear 36 1007 56 10000 3.1 30 18:39 19.02.2020
2644 Clear 36 1007 56 10000 3.1 30 18:20 19.02.2020
2645 Clear 36 1008 56 10000 2.6 20 17:44 19.02.2020
2646 Clear 36 1008 56 10000 2.6 20 17:20 19.02.2020
2647 Clear 35 1009 55 10000 2.1 10 16:56 19.02.2020
2648 Clear 35 1009 55 10000 2.1 10 16:37 19.02.2020
2649 Clear 35 1009 55 10000 2.1 10 16:18 19.02.2020
2650 Clear 34 1009 52 10000 2.1 340 15:43 19.02.2020
2651 Clear 34 1009 52 10000 2.1 340 15:25 19.02.2020
2652 Clear 34 1009 52 10000 2.1 340 15:24 19.02.2020
2653 Clear 32 1010 62 10000 2.6 350 14:57 19.02.2020
2654 Clear 32 1010 62 10000 2.6 350 14:39 19.02.2020
2655 Clouds 32 1010 62 10000 2.6 350 14:21 19.02.2020
2656 Clouds 31 1010 66 10000 2.1 360 13:41 19.02.2020
2657 Clouds 32 1010 66 10000 2.1 360 13:22 19.02.2020
2658 Clouds 29 1010 78 10000 2.6 10 12:55 19.02.2020
2659 Clouds 29 1010 78 10000 2.6 10 12:37 19.02.2020
2660 Clouds 30 1010 78 10000 2.6 10 12:18 19.02.2020
2661 Clouds 27 1009 78 10000 1.5 350 11:38 19.02.2020
2662 Clouds 27 1009 78 10000 1.5 350 11:20 19.02.2020
2663 Clouds 25 1008 88 10000 3.1 30 10:58 19.02.2020
2664 Clouds 25 1008 88 10000 3.1 30 10:38 19.02.2020
2665 Clouds 25 1008 88 10000 3.1 30 10:20 19.02.2020
2666 Clouds 26 1008 74 10000 2.1 320 09:58 19.02.2020
2667 Clouds 26 1008 74 10000 2.1 320 09:38 19.02.2020
2668 Clouds 26 1008 74 10000 2.1 320 09:19 19.02.2020
2669 Clouds 27 1008 78 10000 2.6 340 08:46 19.02.2020
2670 Clouds 27 1008 78 10000 2.6 340 08:24 19.02.2020
2671 Clouds 27 1008 78 10000 2.1 300 07:46 19.02.2020
2672 Clouds 27 1008 78 10000 2.1 300 07:26 19.02.2020
2673 Clouds 27 1009 78 10000 2.6 310 06:57 19.02.2020
2674 Clouds 27 1009 78 10000 2.6 310 06:34 19.02.2020
2675 Clouds 27 1010 83 10000 2.6 350 04:49 19.02.2020
2676 Clouds 28 1010 83 10000 1 350 03:22 19.02.2020
2677 Clouds 29 1010 74 10000 1 60 02:35 19.02.2020
2678 Clouds 29 1010 66 10000 2.1 10 01:33 19.02.2020
2679 Clouds 30 1009 70 10000 1.5 60 00:59 19.02.2020
2680 Clouds 30 1009 70 10000 1.5 60 00:36 19.02.2020
2681 Clouds 31 1009 66 10000 5.1 80 23:57 18.02.2020
2682 Clouds 31 1009 66 10000 5.1 80 23:39 18.02.2020
2683 Clouds 31 1009 66 10000 5.1 80 23:19 18.02.2020
2684 Clouds 31 1009 66 10000 5.1 80 23:19 18.02.2020
2685 Clouds 31 1009 66 10000 5.1 80 23:19 18.02.2020
2686 Clouds 34 1008 66 10000 3.6 100 22:54 18.02.2020
2687 Clouds 34 1008 66 10000 3.6 100 22:36 18.02.2020
2688 Clouds 34 1008 66 10000 3.6 100 22:18 18.02.2020
2689 Clouds 35 1009 59 10000 2.6 160 21:38 18.02.2020
2690 Clouds 35 1009 59 10000 2.6 160 21:38 18.02.2020
2691 Clouds 35 1009 59 10000 2.6 160 21:38 18.02.2020
2692 Clouds 35 1009 59 10000 2.6 160 21:20 18.02.2020
2693 Clouds 36 1010 63 10000 2.6 160 20:59 18.02.2020
2694 Clouds 36 1010 63 10000 2.6 160 20:39 18.02.2020
2695 Clouds 36 1010 63 10000 2.6 160 20:21 18.02.2020
2696 Clouds 36 1010 59 10000 2.1 150 19:57 18.02.2020
2697 Clouds 36 1010 59 10000 2.1 150 19:57 18.02.2020
2698 Clouds 36 1010 44 10000 2.6 340 19:39 18.02.2020
2699 Clouds 36 1010 44 10000 2.6 340 19:19 18.02.2020
2700 Clouds 35 1011 52 10000 2.6 20 18:42 18.02.2020
2701 Clouds 35 1011 52 10000 2.6 20 18:21 18.02.2020
2702 Clouds 35 1011 52 10000 2.6 20 18:21 18.02.2020
2703 Clouds 34 1011 66 10000 2.6 100 17:57 18.02.2020
2704 Clouds 33 1011 66 10000 2.6 100 17:39 18.02.2020
2705 Clouds 33 1011 66 10000 2.6 100 17:39 18.02.2020
2706 Clouds 34 1011 66 10000 2.6 100 17:19 18.02.2020
2707 Clouds 34 1012 62 10000 1.5 120 16:40 18.02.2020
2708 Clouds 34 1012 62 10000 1.5 120 16:21 18.02.2020
2709 Clouds 32 1012 74 10000 3.6 130 15:55 18.02.2020
2710 Clouds 33 1012 74 10000 3.6 130 15:36 18.02.2020
2711 Clouds 33 1012 74 10000 3.6 130 15:18 18.02.2020
2712 Clouds 32 1012 74 10000 1.5 30 14:54 18.02.2020
2713 Clouds 32 1012 74 10000 1.5 30 14:36 18.02.2020
2714 Clouds 30 1012 70 10000 2.1 310 14:18 18.02.2020
2715 Clouds 30 1012 70 10000 2.1 310 13:41 18.02.2020
2716 Clouds 30 1012 70 10000 2.1 310 13:21 18.02.2020
2717 Clouds 27 1012 78 10000 2.6 330 12:47 18.02.2020
2718 Clouds 27 1012 78 10000 2.6 330 12:29 18.02.2020
2719 Clouds 26 1012 83 10000 2.6 320 11:59 18.02.2020
2720 Clouds 26 1012 83 10000 2.6 320 11:59 18.02.2020
2721 Clouds 26 1012 83 10000 2.6 320 11:41 18.02.2020
2722 Clouds 26 1012 83 10000 2.6 320 11:22 18.02.2020
2723 Clouds 24 1012 88 10000 1.5 350 10:45 18.02.2020
2724 Clouds 24 1012 88 10000 1.5 350 10:24 18.02.2020
2725 Clouds 24 1012 88 10000 2.6 340 09:57 18.02.2020
2726 Clouds 24 1012 88 10000 2.6 340 09:39 18.02.2020
2727 Clouds 24 1012 88 10000 2.6 340 09:39 18.02.2020
2728 Clouds 24 1012 88 10000 2.6 340 09:39 18.02.2020
2729 Clouds 24 1012 88 10000 2.6 340 09:20 18.02.2020
2730 Clouds 24 1012 88 10000 2.6 330 08:58 18.02.2020
2731 Clouds 24 1011 88 10000 3.1 110 08:40 18.02.2020
2732 Clouds 25 1011 88 10000 3.1 110 08:20 18.02.2020
2733 Clouds 25 1011 83 10000 2.1 10 07:52 18.02.2020
2734 Clouds 25 1011 83 10000 2.1 10 07:29 18.02.2020
2735 Clouds 25 1011 83 10000 2.34 54 06:55 18.02.2020
2736 Clouds 25 1011 83 10000 2.34 54 06:55 18.02.2020
2737 Clouds 25 1011 83 10000 2.34 54 06:32 18.02.2020
2738 Clouds 26 1012 88 10000 1 70 05:56 18.02.2020
2739 Clouds 26 1012 88 10000 1 70 05:23 18.02.2020
2740 Clouds 27 1013 83 10000 3.1 10 03:57 18.02.2020
2741 Clouds 27 1012 78 10000 1.5 340 02:58 18.02.2020
2742 Thunderstorm 27 1012 78 10000 1.5 360 01:58 18.02.2020
2743 Clouds 28 1011 78 10000 2.6 100 00:46 18.02.2020
2744 Clouds 28 1011 78 10000 2.6 100 00:20 18.02.2020
2745 Clouds 28 1010 78 10000 1.5 150 23:44 17.02.2020
2746 Clouds 28 1010 78 10000 1.5 150 23:25 17.02.2020
2747 Clouds 29 1009 74 10000 3.1 10 22:59 17.02.2020
2748 Clouds 28 1009 74 10000 3.1 10 22:41 17.02.2020
2749 Clouds 28 1009 74 10000 3.1 10 22:20 17.02.2020
2750 Clouds 30 1010 62 10000 2.6 60 21:41 17.02.2020
2751 Clouds 31 1010 62 10000 2.6 60 21:20 17.02.2020
2752 Clouds 30 1009 79 10000 5.1 170 20:59 17.02.2020
2753 Clouds 31 1009 79 10000 5.1 170 20:39 17.02.2020
2754 Clouds 31 1009 79 10000 5.1 170 20:20 17.02.2020
2755 Clouds 30 1010 74 10000 6.7 160 19:56 17.02.2020
2756 Clouds 31 1010 74 10000 6.7 160 19:38 17.02.2020
2757 Clouds 31 1010 74 10000 6.7 160 19:19 17.02.2020
2758 Clouds 30 1010 83 10000 5.1 160 18:37 17.02.2020
2759 Clouds 31 1010 83 10000 5.1 160 18:19 17.02.2020
2760 Clouds 30 1011 83 10000 4.6 150 17:57 17.02.2020
2761 Clouds 31 1011 83 10000 4.6 150 17:37 17.02.2020
2762 Clouds 31 1011 83 10000 4.6 150 17:18 17.02.2020
2763 Clouds 31 1011 83 10000 4.6 150 17:18 17.02.2020
2764 Clouds 28 1012 88 10000 4.6 150 16:54 17.02.2020
2765 Clouds 28 1012 88 10000 4.6 150 16:36 17.02.2020
2766 Clouds 29 1012 88 10000 4.6 150 16:18 17.02.2020
2767 Clouds 30 1012 74 10000 3.96 132 15:41 17.02.2020
2768 Clouds 31 1012 74 10000 3.96 132 15:23 17.02.2020
2769 Clouds 28 1012 78 10000 2.1 340 14:46 17.02.2020
2770 Clouds 28 1012 78 10000 2.1 340 14:46 17.02.2020
2771 Clouds 28 1012 78 10000 2.1 340 14:28 17.02.2020
2772 Clouds 27 1012 83 10000 1.5 350 13:59 17.02.2020
2773 Clouds 27 1012 83 10000 1.5 350 13:40 17.02.2020
2774 Clouds 27 1012 83 10000 1.5 350 13:20 17.02.2020
2775 Clouds 26 1012 83 10000 1 50 12:56 17.02.2020
2776 Clouds 27 1012 83 10000 1 50 12:37 17.02.2020
2777 Clouds 27 1012 83 10000 1 50 12:19 17.02.2020
2778 Clouds 25 1012 88 10000 1 350 11:43 17.02.2020
2779 Clouds 25 1012 88 10000 1 350 11:25 17.02.2020
2780 Clouds 23 1011 88 10000 0.5 60 10:56 17.02.2020
2781 Clouds 23 1011 88 10000 0.5 60 10:38 17.02.2020
2782 Clouds 23 1011 88 10000 0.5 60 10:19 17.02.2020
2783 Clouds 23 1011 88 10000 1 30 09:56 17.02.2020
2784 Clouds 24 1011 88 10000 1 30 09:37 17.02.2020
2785 Clouds 24 1011 88 10000 1 30 09:18 17.02.2020
2786 Clouds 24 1011 94 10000 2.1 340 08:41 17.02.2020
2787 Clouds 24 1011 94 10000 2.1 340 08:23 17.02.2020
2788 Clouds 24 1011 88 10000 1.5 340 07:57 17.02.2020
2789 Clouds 24 1011 88 10000 1.5 340 07:27 17.02.2020
2790 Clouds 24 1011 88 10000 0.64 336 06:56 17.02.2020
2791 Clouds 24 1011 88 10000 0.64 336 06:36 17.02.2020
2792 Clouds 24 1011 88 10000 0.64 336 06:18 17.02.2020
2793 Clouds 24 1012 88 10000 1.5 90 05:39 17.02.2020
2794 Clouds 24 1012 94 10000 2.1 40 03:55 17.02.2020
2795 Clouds 24 1013 94 10000 3.1 330 02:37 17.02.2020
2796 Rain 25 1013 94 5000 4.1 360 00:59 17.02.2020
2797 Thunderstorm 26 1013 94 4500 5.7 330 00:25 17.02.2020
2798 Thunderstorm 25 1012 94 4500 8.2 320 23:56 16.02.2020
2799 Thunderstorm 25 1012 94 6000 6.7 320 23:36 16.02.2020
2800 Thunderstorm 25 1012 94 6000 6.7 320 23:18 16.02.2020
2801 Clouds 28 1009 83 10000 6.2 180 22:54 16.02.2020
2802 Clouds 29 1009 83 10000 6.2 180 22:36 16.02.2020
2803 Clouds 29 1009 83 10000 6.2 180 22:18 16.02.2020
2804 Clouds 30 1009 79 10000 5.1 160 21:42 16.02.2020
2805 Clouds 30 1009 79 10000 5.1 160 21:24 16.02.2020
2806 Clouds 30 1009 79 10000 6.2 180 20:58 16.02.2020
2807 Clouds 30 1009 79 10000 6.2 180 20:40 16.02.2020
2808 Clouds 31 1009 79 10000 6.2 180 20:22 16.02.2020
2809 Clouds 31 1009 79 10000 6.2 160 19:59 16.02.2020
2810 Clouds 32 1009 79 10000 6.2 160 19:40 16.02.2020
2811 Clouds 32 1009 79 10000 6.2 160 19:19 16.02.2020
2812 Clouds 32 1009 79 10000 4.6 170 18:59 16.02.2020
2813 Clouds 32 1009 79 10000 4.6 170 18:40 16.02.2020
2814 Clouds 32 1009 79 10000 4.6 170 18:22 16.02.2020
2815 Clouds 31 1010 79 10000 4.1 160 17:44 16.02.2020
2816 Clouds 31 1010 79 10000 4.1 160 17:20 16.02.2020
2817 Clouds 30 1011 83 10000 5.1 170 16:56 16.02.2020
2818 Clouds 28 1011 83 10000 5.1 170 16:38 16.02.2020
2819 Clouds 30 1011 83 10000 5.1 170 16:20 16.02.2020
2820 Clouds 30 1011 83 8000 3.6 160 15:56 16.02.2020
2821 Clouds 30 1011 83 8000 3.6 160 15:37 16.02.2020
2822 Clouds 31 1011 83 8000 3.6 160 15:18 16.02.2020
2823 Clouds 31 1012 79 6000 2.1 170 14:38 16.02.2020
2824 Clouds 30 1012 79 6000 2.1 170 14:19 16.02.2020
2825 Clouds 28 1012 88 6000 1 360 13:45 16.02.2020
2826 Clouds 28 1012 88 6000 1 360 13:24 16.02.2020
2827 Clouds 27 1012 88 6000 1 340 12:55 16.02.2020
2828 Clouds 27 1012 88 6000 1 340 12:36 16.02.2020
2829 Clouds 27 1012 88 6000 1 340 12:18 16.02.2020
2830 Clouds 25 1012 88 6000 2.1 350 11:38 16.02.2020
2831 Clouds 25 1012 88 6000 2.1 350 11:18 16.02.2020
2832 Clouds 24 1011 94 7000 2.6 40 10:56 16.02.2020
2833 Clouds 24 1011 94 7000 2.1 140 10:38 16.02.2020
2834 Clouds 24 1011 94 7000 2.1 140 10:19 16.02.2020
2835 Clouds 24 1011 94 10000 1.5 130 09:55 16.02.2020
2836 Clouds 24 1011 94 10000 1.5 130 09:36 16.02.2020
2837 Clouds 24 1011 94 10000 1.5 130 09:18 16.02.2020
2838 Clouds 24 1010 94 10000 2.6 140 08:45 16.02.2020
2839 Clouds 24 1010 94 10000 2.6 140 08:21 16.02.2020
2840 Clouds 24 1010 94 10000 2.6 140 08:21 16.02.2020
2841 Clouds 24 1010 94 10000 1.5 70 07:52 16.02.2020
2842 Clouds 24 1010 94 10000 1.5 70 07:34 16.02.2020
2843 Clouds 24 1010 94 10000 2.1 110 06:33 16.02.2020
2844 Clear 25 1011 94 10000 0.5 170 04:44 16.02.2020
2845 Clear 26 1012 94 10000 3.1 140 03:33 16.02.2020
2846 Clear 26 1012 94 10000 1.5 120 02:32 16.02.2020
2847 Clouds 26 1011 83 10000 2.1 180 01:44 16.02.2020
2848 Clouds 26 1011 83 10000 2.1 180 01:26 16.02.2020
2849 Clouds 27 1011 88 10000 4.6 190 00:58 16.02.2020
2850 Clouds 27 1011 88 10000 4.6 190 00:39 16.02.2020
2851 Clouds 27 1011 88 10000 4.6 190 00:19 16.02.2020
2852 Clouds 27 1011 88 10000 5.7 190 23:42 15.02.2020
2853 Clouds 26 1011 88 10000 5.7 190 23:23 15.02.2020
2854 Clouds 27 1011 88 10000 5.7 180 22:56 15.02.2020
2855 Clouds 27 1011 88 10000 5.7 180 22:37 15.02.2020
2856 Clouds 27 1011 88 10000 5.7 180 22:18 15.02.2020
2857 Clouds 28 1010 83 10000 7.2 180 21:42 15.02.2020
2858 Clouds 29 1010 83 10000 7.2 180 21:23 15.02.2020
2859 Clouds 30 1010 78 10000 6.7 190 20:55 15.02.2020
2860 Clouds 30 1010 78 10000 6.7 190 20:36 15.02.2020
2861 Clouds 30 1010 78 10000 6.7 190 20:18 15.02.2020
2862 Clouds 30 1010 78 10000 6.7 180 19:40 15.02.2020
2863 Clouds 30 1010 78 10000 6.7 180 19:21 15.02.2020
2864 Clouds 30 1011 78 10000 5.1 170 18:40 15.02.2020
2865 Clouds 30 1011 78 10000 5.1 170 18:20 15.02.2020
2866 Clouds 30 1011 78 10000 4.1 160 17:55 15.02.2020
2867 Clouds 30 1011 78 10000 4.1 160 17:37 15.02.2020
2868 Clouds 30 1011 78 10000 4.1 160 17:18 15.02.2020
2869 Clouds 28 1012 83 10000 4.6 160 16:41 15.02.2020
2870 Clouds 29 1012 83 10000 4.6 160 16:21 15.02.2020
2871 Clouds 30 1012 83 10000 3.6 160 15:50 15.02.2020
2872 Clouds 30 1012 83 10000 3.6 160 15:31 15.02.2020
2873 Clouds 29 1013 83 10000 2.1 130 14:57 15.02.2020
2874 Clouds 29 1013 83 10000 2.1 130 14:39 15.02.2020
2875 Clouds 28 1013 83 10000 2.1 130 14:18 15.02.2020
2876 Clouds 28 1013 83 10000 2.1 130 14:18 15.02.2020
2877 Clouds 27 1013 83 10000 1.5 360 13:42 15.02.2020
2878 Clouds 27 1013 83 10000 1.5 360 13:22 15.02.2020
2879 Clouds 25 1013 88 10000 2.1 350 12:57 15.02.2020
2880 Clouds 26 1013 88 10000 2.1 350 12:38 15.02.2020
2881 Clouds 26 1013 88 10000 2.1 350 12:19 15.02.2020
2882 Clouds 23 1013 88 10000 1 40 11:46 15.02.2020
2883 Clouds 23 1013 88 10000 1 40 11:27 15.02.2020
2884 Clear 22 1012 94 10000 1 130 10:49 15.02.2020
2885 Clear 22 1012 94 10000 1 130 10:29 15.02.2020
2886 Clouds 23 1013 94 10000 1.5 130 09:57 15.02.2020
2887 Clouds 23 1013 94 10000 1.5 130 09:38 15.02.2020
2888 Clouds 23 1013 94 10000 1.5 130 09:20 15.02.2020
2889 Clear 23 1012 94 10000 1 150 08:43 15.02.2020
2890 Clouds 23 1012 94 10000 1 150 08:23 15.02.2020
2891 Clear 23 1012 94 10000 1 160 07:50 15.02.2020
2892 Clear 23 1012 94 10000 1 160 07:30 15.02.2020
2893 Clouds 23 1013 94 10000 1 110 06:51 15.02.2020
2894 Clouds 23 1013 94 10000 1 110 06:31 15.02.2020
2895 Clouds 24 1013 88 10000 1 310 05:41 15.02.2020
2896 Clouds 24 1014 88 10000 0.87 332 04:45 15.02.2020
2897 Clouds 24 1015 88 10000 1 120 03:39 15.02.2020
2898 Clouds 25 1015 88 10000 1.5 90 02:50 15.02.2020
2899 Clouds 25 1015 88 10000 1.5 90 02:22 15.02.2020
2900 Clouds 24 1015 88 10000 2.1 110 01:40 15.02.2020
2901 Clouds 25 1014 78 10000 3.1 170 00:42 15.02.2020
2902 Clouds 25 1014 78 10000 3.1 170 00:21 15.02.2020
2903 Clouds 25 1014 73 10000 5.7 180 23:42 14.02.2020
2904 Clouds 25 1014 73 10000 5.7 180 23:20 14.02.2020
2905 Clouds 24 1013 78 10000 4.1 160 22:44 14.02.2020
2906 Clouds 26 1013 78 10000 4.1 160 22:24 14.02.2020
2907 Clouds 26 1013 78 10000 6.2 170 21:54 14.02.2020
2908 Clouds 25 1013 78 10000 6.2 170 21:36 14.02.2020
2909 Clouds 25 1013 78 10000 6.2 170 21:36 14.02.2020
2910 Clouds 26 1013 78 10000 6.2 170 21:18 14.02.2020
2911 Clouds 27 1013 69 10000 6.7 170 20:42 14.02.2020
2912 Clouds 27 1013 69 10000 6.7 170 20:19 14.02.2020
2913 Clouds 27 1013 69 10000 6.7 170 19:56 14.02.2020
2914 Clouds 27 1013 69 10000 6.7 170 19:38 14.02.2020
2915 Clouds 27 1013 69 10000 6.7 170 19:18 14.02.2020
2916 Clouds 27 1013 74 10000 6.7 170 18:55 14.02.2020
2917 Clouds 27 1013 74 10000 6.7 170 18:37 14.02.2020
2918 Clouds 27 1013 74 10000 6.7 170 18:18 14.02.2020
2919 Clouds 28 1013 69 10000 7.2 180 17:41 14.02.2020
2920 Clouds 28 1013 69 10000 7.2 180 17:19 14.02.2020
2921 Clouds 27 1014 74 10000 4.6 170 16:57 14.02.2020
2922 Clouds 27 1014 74 10000 4.6 170 16:38 14.02.2020
2923 Clouds 27 1014 74 10000 4.6 170 16:19 14.02.2020
2924 Clouds 27 1014 83 10000 3.6 140 15:54 14.02.2020
2925 Clouds 27 1014 83 10000 3.6 140 15:36 14.02.2020
2926 Clouds 27 1015 78 10000 2.6 50 15:18 14.02.2020
2927 Clouds 27 1015 78 10000 2.6 50 14:42 14.02.2020
2928 Clouds 27 1015 78 10000 2.6 50 14:22 14.02.2020
2929 Clouds 26 1015 83 10000 2.6 20 13:59 14.02.2020
2930 Clouds 26 1015 83 10000 2.6 20 13:39 14.02.2020
2931 Clouds 26 1015 83 10000 2.6 20 13:20 14.02.2020
2932 Clouds 26 1015 83 10000 2.6 20 13:20 14.02.2020
2933 Clouds 25 1014 83 10000 2.6 100 12:57 14.02.2020
2934 Clouds 25 1014 83 10000 2.6 100 12:38 14.02.2020
2935 Clouds 25 1014 83 10000 2.6 100 12:20 14.02.2020
2936 Clouds 23 1014 78 10000 0.5 100 11:57 14.02.2020
2937 Clouds 23 1014 78 10000 0.5 100 11:39 14.02.2020
2938 Clouds 23 1014 78 10000 0.5 100 11:20 14.02.2020
2939 Clouds 22 1013 88 10000 2.6 330 10:44 14.02.2020
2940 Clouds 22 1013 88 10000 2.6 330 10:25 14.02.2020
2941 Clouds 22 1013 88 10000 1.5 10 09:57 14.02.2020
2942 Clouds 22 1013 88 10000 1.5 10 09:57 14.02.2020
2943 Clouds 22 1013 88 10000 1.5 10 09:38 14.02.2020
2944 Clouds 22 1013 88 10000 1.5 10 09:19 14.02.2020
2945 Clouds 22 1013 94 10000 1.5 150 08:40 14.02.2020
2946 Clouds 22 1013 94 10000 1.5 150 08:22 14.02.2020
2947 Clouds 22 1013 94 10000 1.82 296 07:51 14.02.2020
2948 Clouds 22 1013 94 10000 1.82 296 07:33 14.02.2020
2949 Clouds 23 1013 88 10000 2.1 320 06:55 14.02.2020
2950 Clouds 22 1013 88 10000 2.1 320 06:23 14.02.2020
2951 Clouds 23 1014 88 10000 1.5 310 05:44 14.02.2020
2952 Clouds 22 1014 94 10000 1.5 300 04:22 14.02.2020
2953 Clouds 23 1015 94 10000 3.6 310 03:28 14.02.2020
2954 Drizzle 23 1015 94 6000 2.1 200 02:20 14.02.2020
2955 Drizzle 23 1014 94 5000 5.7 190 01:25 14.02.2020
2956 Clouds 24 1013 94 10000 1 10 00:42 14.02.2020
2957 Clouds 24 1013 94 10000 1 10 00:42 14.02.2020
2958 Clouds 24 1013 94 10000 1 10 00:21 14.02.2020
2959 Clouds 23 1013 94 10000 3.6 110 23:43 13.02.2020
2960 Clouds 23 1013 94 10000 3.6 110 23:20 13.02.2020
2961 Clouds 24 1012 83 10000 2.1 110 22:43 13.02.2020
2962 Clouds 24 1012 83 10000 2.1 110 22:20 13.02.2020
2963 Clouds 25 1012 83 10000 1.5 90 21:59 13.02.2020
2964 Clouds 25 1012 83 10000 1.5 90 21:40 13.02.2020
2965 Clouds 25 1012 83 10000 1.5 90 21:22 13.02.2020
2966 Clouds 25 1012 78 10000 2.1 190 20:56 13.02.2020
2967 Clouds 25 1012 78 10000 2.1 190 20:38 13.02.2020
2968 Clouds 25 1012 78 10000 2.1 190 20:19 13.02.2020
2969 Clouds 25 1012 78 10000 5.7 190 19:55 13.02.2020
2970 Clouds 25 1012 78 10000 5.7 190 19:36 13.02.2020
2971 Clouds 25 1012 78 10000 5.7 190 19:18 13.02.2020
2972 Clouds 25 1012 78 10000 5.7 190 19:18 13.02.2020
2973 Clouds 26 1012 83 10000 3.6 170 18:42 13.02.2020
2974 Clouds 26 1012 83 10000 3.6 170 18:42 13.02.2020
2975 Clouds 26 1012 83 10000 3.6 170 18:23 13.02.2020
2976 Clouds 26 1012 83 10000 3.6 140 17:59 13.02.2020
2977 Clouds 26 1012 83 10000 3.6 140 17:40 13.02.2020
2978 Clouds 26 1012 83 10000 3.6 140 17:40 13.02.2020
2979 Clouds 26 1012 83 10000 3.6 140 17:20 13.02.2020
2980 Clouds 25 1013 88 10000 3.6 140 16:58 13.02.2020
2981 Clouds 25 1013 88 10000 3.6 140 16:37 13.02.2020
2982 Clouds 25 1013 88 10000 3.6 140 16:19 13.02.2020
2983 Clouds 25 1013 88 10000 3.6 140 16:19 13.02.2020
2984 Clouds 25 1014 88 10000 1.5 130 15:56 13.02.2020
2985 Clouds 25 1014 88 10000 1.5 130 15:37 13.02.2020
2986 Clouds 25 1014 88 10000 1.5 130 15:19 13.02.2020
2987 Clouds 24 1014 94 8000 2.6 140 14:55 13.02.2020
2988 Clouds 24 1014 94 8000 2.6 140 14:37 13.02.2020
2989 Clouds 24 1014 94 8000 2.6 140 14:19 13.02.2020
2990 Clouds 23 1014 88 7000 2.6 340 13:44 13.02.2020
2991 Clouds 23 1014 88 7000 2.6 340 13:44 13.02.2020
2992 Clouds 23 1014 88 7000 2.6 340 13:18 13.02.2020
2993 Clouds 23 1014 88 7000 2.6 340 13:18 13.02.2020
2994 Mist 22 1014 94 5000 3.1 330 12:56 13.02.2020
2995 Mist 22 1014 94 5000 3.1 330 12:56 13.02.2020
2996 Mist 22 1014 94 5000 3.1 330 12:37 13.02.2020
2997 Mist 22 1014 94 5000 3.1 330 12:18 13.02.2020
2998 Rain 22 1013 100 5000 0.5 20 11:43 13.02.2020
2999 Rain 22 1013 100 5000 0.5 20 11:43 13.02.2020
3000 Clouds 22 1014 88 6000 2.6 260 11:20 13.02.2020
3001 Drizzle 21 1013 100 3500 1.5 40 10:48 13.02.2020
3002 Drizzle 21 1013 100 3500 1.5 40 10:28 13.02.2020
3003 Drizzle 22 1013 94 4000 1 30 09:55 13.02.2020
3004 Drizzle 22 1013 94 4000 1 30 09:55 13.02.2020
3005 Drizzle 22 1012 100 5000 0.5 220 09:36 13.02.2020
3006 Drizzle 22 1012 100 5000 0.5 220 09:18 13.02.2020
3007 Drizzle 21 1013 100 6000 2.1 150 08:41 13.02.2020
3008 Drizzle 21 1013 100 6000 2.1 150 08:19 13.02.2020
3009 Drizzle 21 1013 94 5000 1.5 210 07:40 13.02.2020
3010 Drizzle 21 1013 94 5000 1.5 210 07:22 13.02.2020
3011 Drizzle 21 1013 94 6000 1 320 06:49 13.02.2020
3012 Drizzle 21 1013 94 6000 1 320 06:30 13.02.2020
3013 Rain 22 1014 94 8000 2.6 280 05:38 13.02.2020
3014 Drizzle 22 1014 94 6000 2.6 330 04:28 13.02.2020
3015 Clouds 22 1015 94 6000 2.6 330 03:57 13.02.2020
3016 Clouds 22 1015 94 6000 2.6 330 03:29 13.02.2020
3017 Rain 22 1015 88 6000 2.6 200 02:55 13.02.2020
3018 Rain 22 1015 88 6000 2.6 200 02:20 13.02.2020
3019 -273 0 0 0 0 0 01:39 13.02.2020
3020 -273 0 0 0 0 0 01:39 13.02.2020
3021 Rain 22 1015 88 6000 3.1 170 01:38 13.02.2020
3022 Rain 22 1015 88 6000 3.1 170 01:38 13.02.2020
3023 Rain 22 1014 94 6000 1.5 100 00:44 13.02.2020
3024 Rain 22 1014 94 6000 1.5 100 00:26 13.02.2020
3025 Rain 22 1014 94 6000 2.1 340 23:42 12.02.2020
3026 Rain 22 1014 94 6000 2.1 340 23:23 12.02.2020
3027 Rain 22 1013 94 6000 0.5 0 22:56 12.02.2020
3028 Rain 22 1013 94 6000 0.5 0 22:38 12.02.2020
3029 Rain 22 1013 94 6000 0.5 0 22:20 12.02.2020
3030 Rain 22 1013 88 5000 2.6 220 21:55 12.02.2020
3031 Rain 22 1013 88 5000 2.6 220 21:36 12.02.2020
3032 Rain 22 1013 88 5000 2.6 220 21:18 12.02.2020
3033 Rain 22 1013 94 5000 5.7 190 20:42 12.02.2020
3034 Rain 22 1013 94 5000 5.7 190 20:24 12.02.2020
3035 Rain 22 1014 88 10000 3.1 200 19:57 12.02.2020
3036 Rain 22 1014 88 10000 3.1 200 19:38 12.02.2020
3037 Rain 23 1014 88 10000 3.1 200 19:20 12.02.2020
3038 Rain 23 1014 83 6000 3.6 170 18:49 12.02.2020
3039 Rain 23 1014 83 6000 3.6 170 18:20 12.02.2020
3040 Rain 24 1014 73 10000 3.6 170 17:58 12.02.2020
3041 Rain 24 1014 73 10000 3.6 170 17:39 12.02.2020
3042 Rain 24 1014 73 10000 3.6 170 17:19 12.02.2020
3043 Clouds 23 1014 83 10000 3.1 150 16:56 12.02.2020
3044 Clouds 24 1014 83 10000 3.1 150 16:36 12.02.2020
3045 Clouds 24 1014 83 10000 3.1 150 16:18 12.02.2020
3046 Clouds 24 1014 83 10000 3.1 150 16:18 12.02.2020
3047 Clouds 23 1015 88 10000 1 30 15:38 12.02.2020
3048 Clouds 23 1015 88 10000 1 30 15:19 12.02.2020
3049 Clouds 23 1016 88 6000 2.1 340 14:43 12.02.2020
3050 Clouds 23 1016 88 6000 2.1 340 14:43 12.02.2020
3051 Clouds 23 1016 88 6000 2.1 340 14:21 12.02.2020
3052 Drizzle 22 1016 94 4500 1.5 350 13:59 12.02.2020
3053 Drizzle 22 1016 94 4500 1.5 350 13:40 12.02.2020
3054 Drizzle 22 1016 94 4500 1.5 350 13:22 12.02.2020
3055 Drizzle 22 1015 94 4500 1.5 10 12:58 12.02.2020
3056 Drizzle 22 1015 94 4500 1.5 10 12:39 12.02.2020
3057 Drizzle 22 1015 94 4500 1.5 10 12:19 12.02.2020
3058 Rain 21 1016 94 4000 1 230 11:59 12.02.2020
3059 Drizzle 21 1015 100 4500 1 50 11:40 12.02.2020
3060 Drizzle 21 1015 100 4500 1 50 11:21 12.02.2020
3061 Drizzle 21 1015 100 3500 1.5 20 10:58 12.02.2020
3062 Drizzle 21 1015 100 3500 1.5 20 10:58 12.02.2020
3063 Rain 21 1014 94 5000 1.5 360 10:40 12.02.2020
3064 Rain 21 1014 94 5000 1.5 360 10:20 12.02.2020
3065 Rain 21 1014 94 5000 1.5 360 10:20 12.02.2020
3066 Clouds 21 1014 94 9000 1 70 09:54 12.02.2020
3067 Clouds 21 1014 94 9000 1 70 09:36 12.02.2020
3068 Clouds 21 1014 94 9000 1 70 09:18 12.02.2020
3069 Rain 21 1014 94 6000 2.1 140 08:55 12.02.2020
3070 Rain 21 1014 94 6000 2.1 140 08:36 12.02.2020
3071 Rain 21 1014 94 6000 2.1 140 08:18 12.02.2020
3072 Rain 21 1014 94 5000 2.6 190 07:42 12.02.2020
3073 Rain 21 1014 94 5000 2.6 190 07:22 12.02.2020
3074 Rain 21 1015 100 4000 2.1 190 06:52 12.02.2020
3075 Rain 21 1015 100 4000 2.1 190 06:20 12.02.2020
3076 Rain 21 1015 100 4000 2.1 190 06:20 12.02.2020
3077 Rain 21 1016 100 3000 1.5 190 05:35 12.02.2020
3078 Clouds 22 1016 88 10000 0.5 0 04:56 12.02.2020
3079 Clouds 22 1016 88 10000 0.5 0 04:38 12.02.2020
3080 Drizzle 21 1016 88 6000 1.5 150 03:31 12.02.2020
3081 Drizzle 21 1016 88 4000 4.1 150 02:58 12.02.2020
3082 Drizzle 21 1016 88 4000 4.1 150 02:28 12.02.2020
3083 Drizzle 21 1016 94 9000 3.1 180 01:40 12.02.2020
3084 Drizzle 21 1016 94 4500 4.6 170 00:44 12.02.2020
3085 Drizzle 22 1016 94 4500 4.6 170 00:25 12.02.2020
3086 Drizzle 22 1015 94 4000 3.6 180 23:55 11.02.2020
3087 Drizzle 22 1015 94 4000 3.6 180 23:37 11.02.2020
3088 Drizzle 22 1015 94 4000 3.6 180 23:18 11.02.2020
3089 Rain 22 1015 94 4000 3.1 160 22:42 11.02.2020
3090 Rain 22 1015 94 4000 3.1 160 22:21 11.02.2020
3091 Rain 22 1014 94 4000 3.6 180 21:57 11.02.2020
3092 Drizzle 22 1014 88 6000 4.6 190 21:39 11.02.2020
3093 Drizzle 23 1014 88 6000 4.6 190 21:19 11.02.2020
3094 Drizzle 23 1014 88 7000 5.7 200 20:59 11.02.2020
3095 Drizzle 23 1014 88 7000 5.7 200 20:39 11.02.2020
3096 Drizzle 23 1014 88 7000 5.7 200 20:39 11.02.2020
3097 Drizzle 23 1014 88 7000 5.7 200 20:20 11.02.2020
3098 Rain 23 1015 88 3500 2.6 110 19:59 11.02.2020
3099 Rain 23 1015 88 3500 2.6 110 19:41 11.02.2020
3100 Rain 23 1015 88 3500 2.6 110 19:23 11.02.2020
3101 Drizzle 23 1015 94 4500 1 90 18:55 11.02.2020
3102 Drizzle 22 1015 94 4500 1 90 18:37 11.02.2020
3103 Drizzle 22 1015 94 4500 1 90 18:18 11.02.2020
3104 Drizzle 22 1015 94 4500 1.5 80 17:54 11.02.2020
3105 Drizzle 22 1015 94 4500 1.5 80 17:36 11.02.2020
3106 Drizzle 23 1015 94 4500 1.5 80 17:18 11.02.2020
3107 Drizzle 23 1015 94 4500 1.5 80 17:18 11.02.2020
3108 Rain 23 1015 88 6000 1 30 16:55 11.02.2020
3109 Rain 23 1016 94 5000 1.5 90 16:36 11.02.2020
3110 Rain 23 1016 94 5000 1.5 90 16:18 11.02.2020
3111 Rain 23 1016 88 6000 1.5 120 15:42 11.02.2020
3112 Rain 23 1016 88 6000 1.5 120 15:23 11.02.2020
3113 Rain 22 1016 94 5000 2.6 120 14:44 11.02.2020
3114 Rain 22 1016 94 5000 2.6 120 14:20 11.02.2020
3115 Rain 22 1016 94 5000 2.1 120 13:59 11.02.2020
3116 Rain 22 1016 94 4000 2.1 330 13:41 11.02.2020
3117 Rain 22 1016 94 4000 2.1 330 13:21 11.02.2020
3118 Rain 22 1016 94 5000 3.1 320 12:58 11.02.2020
3119 Rain 22 1015 94 3000 2.6 320 12:39 11.02.2020
3120 Rain 22 1015 94 3000 2.6 320 12:20 11.02.2020
3121 Clouds 22 1015 83 7000 3.6 220 11:41 11.02.2020
3122 Clouds 22 1015 83 7000 3.6 220 11:20 11.02.2020
3123 Rain 21 1014 88 6000 5.7 220 10:57 11.02.2020
3124 Rain 21 1014 88 6000 5.7 220 10:38 11.02.2020
3125 Rain 21 1014 88 6000 5.7 220 10:20 11.02.2020
3126 Rain 22 1013 94 4000 4.6 220 09:55 11.02.2020
3127 Rain 22 1013 94 4000 4.6 220 09:37 11.02.2020
3128 Rain 22 1013 94 4000 4.6 220 09:19 11.02.2020
3129 Rain 22 1013 94 4000 5.7 200 08:44 11.02.2020
3130 Rain 22 1013 94 4000 5.7 200 08:23 11.02.2020
3131 Rain 23 1013 94 4000 6.2 200 07:48 11.02.2020
3132 Rain 22 1013 100 4000 8.7 190 07:26 11.02.2020
3133 Rain 22 1013 94 4000 9.8 190 06:44 11.02.2020
3134 Rain 22 1013 94 4000 9.8 190 06:22 11.02.2020
3135 Rain 23 1013 94 4000 8.2 180 05:58 11.02.2020
3136 Rain 23 1013 94 4000 8.2 180 05:25 11.02.2020
3137 Rain 23 1013 94 4000 7.7 190 04:42 11.02.2020
3138 Clouds 24 1014 94 9000 1.5 340 03:26 11.02.2020
3139 Clouds 24 1014 94 8000 1 130 02:33 11.02.2020
3140 Rain 24 1014 94 4000 1.5 100 01:38 11.02.2020
3141 Thunderstorm 24 1013 94 4500 3.1 140 00:42 11.02.2020
3142 Thunderstorm 24 1013 94 4500 3.1 140 00:20 11.02.2020
3143 Rain 24 1013 100 4000 3.6 210 23:39 10.02.2020
3144 Rain 24 1013 100 4000 3.6 210 23:20 10.02.2020
3145 Rain 24 1012 94 6000 3.6 150 22:42 10.02.2020
3146 Rain 24 1012 94 6000 3.6 150 22:21 10.02.2020
3147 Rain 24 1012 94 5000 4.1 170 21:57 10.02.2020
3148 Rain 24 1012 94 5000 4.1 170 21:57 10.02.2020
3149 Thunderstorm 23 1012 94 2000 4.6 150 21:39 10.02.2020
3150 Thunderstorm 23 1012 94 2000 4.6 150 21:21 10.02.2020
3151 Thunderstorm 24 1013 94 2000 3.1 230 20:54 10.02.2020
3152 Thunderstorm 24 1011 94 800 8.2 170 20:36 10.02.2020
3153 Thunderstorm 24 1011 94 800 8.2 170 20:18 10.02.2020
3154 Thunderstorm 25 1011 83 7000 6.2 170 19:56 10.02.2020
3155 Thunderstorm 25 1011 88 10000 6.2 170 19:36 10.02.2020
3156 Thunderstorm 26 1011 88 10000 6.2 170 19:18 10.02.2020
3157 Clouds 27 1011 88 10000 6.7 170 18:55 10.02.2020
3158 Clouds 27 1011 83 10000 6.7 170 18:37 10.02.2020
3159 Clouds 27 1011 83 10000 6.7 170 18:18 10.02.2020
3160 Clouds 28 1012 88 10000 6.2 170 17:39 10.02.2020
3161 Clouds 28 1012 88 10000 6.2 170 17:21 10.02.2020
3162 Clouds 28 1012 88 10000 4.6 170 16:59 10.02.2020
3163 Clouds 28 1012 88 10000 4.6 170 16:40 10.02.2020
3164 Clouds 28 1012 88 10000 4.6 170 16:20 10.02.2020
3165 Clouds 27 1013 88 10000 4.1 160 15:58 10.02.2020
3166 Clouds 28 1013 88 10000 4.1 160 15:39 10.02.2020
3167 Clouds 28 1013 88 10000 4.1 160 15:21 10.02.2020
3168 Clouds 27 1013 78 10000 4.6 160 14:57 10.02.2020
3169 Clouds 28 1013 78 10000 4.6 160 14:39 10.02.2020
3170 Clouds 28 1013 78 10000 4.6 160 14:19 10.02.2020
3171 Clouds 28 1013 78 10000 5.1 170 13:44 10.02.2020
3172 Clouds 28 1013 78 10000 5.1 170 13:25 10.02.2020
3173 Clouds 27 1013 83 10000 4.1 160 12:57 10.02.2020
3174 Clouds 27 1013 83 10000 4.1 160 12:39 10.02.2020
3175 Clouds 27 1013 83 10000 4.1 160 12:20 10.02.2020
3176 Clouds 26 1012 83 10000 4.6 180 11:45 10.02.2020
3177 Clouds 26 1012 83 10000 4.6 180 11:21 10.02.2020
3178 Rain 25 1011 88 10000 4.6 160 10:58 10.02.2020
3179 Rain 26 1011 88 10000 4.6 160 10:39 10.02.2020
3180 Rain 26 1011 88 10000 4.6 160 10:21 10.02.2020
3181 Clouds 25 1010 88 10000 4.1 180 09:42 10.02.2020
3182 Clouds 24 1010 88 10000 4.1 180 09:23 10.02.2020
3183 Clouds 24 1010 88 10000 4.1 170 08:41 10.02.2020
3184 Rain 24 1010 88 10000 4.1 170 08:22 10.02.2020
3185 Rain 25 1010 83 10000 4.6 170 07:55 10.02.2020
3186 Rain 25 1010 83 10000 4.6 170 07:35 10.02.2020
3187 Rain 25 1010 78 10000 4.1 170 06:53 10.02.2020
3188 Rain 26 1010 74 10000 3.1 170 05:40 10.02.2020
3189 Rain 27 1010 69 10000 2.1 70 04:23 10.02.2020
3190 Rain 28 1010 49 10000 2.6 290 03:28 10.02.2020
3191 Clouds 27 1010 70 10000 3.1 330 02:53 10.02.2020
3192 Clouds 31 1010 62 10000 3.6 330 01:34 10.02.2020
3193 Clouds 30 1009 66 10000 4.6 340 00:46 10.02.2020
3194 Clouds 30 1009 66 10000 4.6 340 00:27 10.02.2020
3195 Clouds 30 1009 74 10000 4.6 350 23:44 09.02.2020
3196 Clouds 30 1009 74 10000 4.6 350 23:26 09.02.2020
3197 Rain 33 1008 70 10000 4.1 350 22:57 09.02.2020
3198 Rain 33 1008 70 10000 4.1 350 22:37 09.02.2020
3199 Rain 33 1008 70 10000 4.1 350 22:19 09.02.2020
3200 Clouds 34 1008 59 10000 5.1 340 21:41 09.02.2020
3201 Clouds 34 1008 59 10000 5.1 340 21:22 09.02.2020
3202 Clouds 34 1008 46 10000 6.2 330 20:47 09.02.2020
3203 Clouds 34 1008 46 10000 6.2 330 20:23 09.02.2020
3204 Clouds 36 1008 41 10000 6.2 320 19:57 09.02.2020
3205 Clouds 36 1008 41 10000 6.2 320 19:39 09.02.2020
3206 Clouds 36 1008 41 10000 6.2 320 19:20 09.02.2020
3207 Clouds 36 1008 41 10000 6.2 320 19:20 09.02.2020
3208 Clouds 36 1008 44 10000 7.2 330 18:54 09.02.2020
3209 Clouds 36 1008 44 10000 7.2 330 18:36 09.02.2020
3210 Clouds 36 1008 44 10000 7.2 330 18:18 09.02.2020
3211 Clouds 35 1009 44 10000 8.2 330 17:39 09.02.2020
3212 Clouds 35 1009 44 10000 8.2 330 17:21 09.02.2020
3213 Clear 34 1009 52 10000 7.7 320 16:44 09.02.2020
3214 Clear 34 1009 52 10000 7.7 320 16:24 09.02.2020
3215 Clear 33 1010 49 10000 8.7 320 15:59 09.02.2020
3216 Clear 33 1010 49 10000 8.7 320 15:41 09.02.2020
3217 Clear 33 1010 49 10000 8.7 320 15:22 09.02.2020
3218 Clear 32 1010 52 10000 8.7 330 14:57 09.02.2020
3219 Clear 32 1010 52 10000 8.7 330 14:39 09.02.2020
3220 Clouds 32 1010 52 10000 8.7 330 14:21 09.02.2020
3221 Clouds 30 1011 70 10000 4.1 10 13:44 09.02.2020
3222 Clouds 30 1011 70 10000 4.1 10 13:26 09.02.2020
3223 Clouds 29 1011 83 10000 3.1 360 12:56 09.02.2020
3224 Clouds 29 1011 83 10000 3.1 360 12:38 09.02.2020
3225 Clouds 29 1011 83 10000 3.1 360 12:19 09.02.2020
3226 Clouds 26 1011 88 10000 3.1 340 11:41 09.02.2020
3227 Clouds 27 1011 88 10000 3.1 340 11:22 09.02.2020
3228 Clouds 25 1010 88 10000 2.1 350 10:59 09.02.2020
3229 Clouds 25 1010 88 10000 2.1 350 10:41 09.02.2020
3230 Clouds 25 1010 88 10000 2.1 350 10:21 09.02.2020
3231 Clouds 24 1009 88 10000 2.1 360 09:46 09.02.2020
3232 Clouds 24 1009 88 10000 2.1 360 09:27 09.02.2020
3233 Clouds 24 1009 88 10000 2.1 10 08:46 09.02.2020
3234 Clouds 24 1009 88 10000 2.1 10 08:28 09.02.2020
3235 Clouds 24 1009 88 10000 2.1 360 07:59 09.02.2020
3236 Clouds 24 1009 88 10000 2.1 360 07:41 09.02.2020
3237 Clouds 24 1010 83 10000 2.1 330 06:49 09.02.2020
3238 Clouds 25 1010 83 10000 2.1 330 06:29 09.02.2020
3239 Clouds 25 1010 83 10000 2.1 320 05:43 09.02.2020
3240 Clouds 25 1010 83 10000 2.1 320 05:19 09.02.2020
3241 Clouds 25 1011 83 10000 2.1 50 03:53 09.02.2020
3242 Clouds 26 1011 78 10000 3.1 100 02:47 09.02.2020
3243 Clouds 26 1011 78 10000 3.1 100 02:26 09.02.2020
3244 Clear 26 1010 78 10000 3.1 110 01:35 09.02.2020
3245 Clear 28 1010 74 10000 1.5 150 00:48 09.02.2020
3246 Clear 28 1010 74 10000 1.5 150 00:27 09.02.2020
3247 Clouds 28 1009 78 10000 3.1 190 23:44 08.02.2020
3248 Clouds 28 1009 78 10000 3.1 190 23:22 08.02.2020
3249 Clouds 29 1008 74 10000 4.6 190 22:55 08.02.2020
3250 Clouds 30 1008 74 10000 4.6 190 22:37 08.02.2020
3251 Clouds 30 1008 74 10000 4.6 190 22:19 08.02.2020
3252 Clouds 29 1008 70 10000 3.6 150 21:42 08.02.2020
3253 Clouds 31 1008 70 10000 3.6 150 21:24 08.02.2020
3254 Clouds 32 1009 66 10000 4.1 160 20:58 08.02.2020
3255 Clouds 32 1009 66 10000 4.1 160 20:39 08.02.2020
3256 Clouds 32 1009 66 10000 4.1 160 20:19 08.02.2020
3257 Clouds 31 1010 70 10000 5.7 160 19:56 08.02.2020
3258 Clouds 32 1010 70 10000 5.7 160 19:38 08.02.2020
3259 Clouds 32 1010 70 10000 5.7 160 19:19 08.02.2020
3260 Clouds 31 1011 70 10000 5.1 160 18:43 08.02.2020
3261 Clouds 31 1011 70 10000 5.1 160 18:25 08.02.2020
3262 Clouds 31 1011 74 10000 5.1 160 17:59 08.02.2020
3263 Clouds 31 1011 74 10000 5.1 160 17:40 08.02.2020
3264 Clouds 31 1011 74 10000 5.1 160 17:18 08.02.2020
3265 Clouds 28 1012 78 10000 4.6 160 16:40 08.02.2020
3266 Clouds 29 1012 78 10000 4.6 160 16:22 08.02.2020
3267 Clouds 29 1013 83 10000 2.6 130 15:57 08.02.2020
3268 Clouds 29 1013 83 10000 2.6 130 15:39 08.02.2020
3269 Clouds 29 1013 83 10000 2.6 130 15:18 08.02.2020
3270 Clouds 28 1013 78 10000 2.1 360 14:44 08.02.2020
3271 Clouds 29 1013 78 10000 2.1 360 14:21 08.02.2020
3272 Clear 28 1013 78 10000 1.5 40 13:57 08.02.2020
3273 Clear 27 1013 78 10000 1.5 40 13:38 08.02.2020
3274 Clear 27 1013 78 10000 1.5 40 13:38 08.02.2020
3275 Clear 27 1013 78 10000 1.5 40 13:20 08.02.2020
3276 Clear 26 1013 83 10000 1.5 30 12:40 08.02.2020
3277 Clear 26 1013 83 10000 1.5 30 12:22 08.02.2020
3278 Clouds 25 1013 83 10000 1 10 11:56 08.02.2020
3279 Clouds 25 1013 83 10000 1 10 11:38 08.02.2020
3280 Clouds 24 1012 94 10000 2.1 150 11:19 08.02.2020
3281 Clouds 23 1012 94 10000 2.1 150 10:42 08.02.2020
3282 Clouds 23 1012 94 10000 2.1 150 10:22 08.02.2020
3283 Clouds 23 1012 94 10000 1 210 09:51 08.02.2020
3284 Clouds 22 1012 94 10000 1 210 09:27 08.02.2020
3285 Clear 22 1012 94 10000 2.1 150 08:54 08.02.2020
3286 Clear 23 1012 94 10000 2.1 150 08:36 08.02.2020
3287 Clear 23 1012 94 10000 2.1 150 08:18 08.02.2020
3288 Clear 22 1012 88 10000 1.5 120 07:44 08.02.2020
3289 Clear 23 1012 88 10000 1.5 120 07:20 08.02.2020
3290 Clear 23 1012 88 10000 2.6 70 06:29 08.02.2020
3291 Clear 23 1013 83 10000 2.1 80 05:48 08.02.2020
3292 Clear 23 1013 83 10000 2.1 80 05:30 08.02.2020
3293 Clouds 24 1013 83 10000 2.1 60 04:49 08.02.2020
3294 Clouds 25 1013 83 10000 2.6 30 03:51 08.02.2020
3295 Clouds 25 1013 78 10000 4.6 70 02:51 08.02.2020
3296 Clouds 25 1013 78 10000 2.1 120 01:53 08.02.2020
3297 Clouds 25 1013 78 10000 2.1 120 01:24 08.02.2020
3298 Clouds 27 1013 74 10000 3.1 150 00:43 08.02.2020
3299 Clouds 27 1013 74 10000 3.1 150 00:22 08.02.2020
3300 Clouds 26 1012 78 10000 3.1 80 23:55 07.02.2020
3301 Clouds 26 1012 78 10000 3.1 80 23:37 07.02.2020
3302 Clouds 26 1012 78 10000 3.1 80 23:18 07.02.2020
3303 Clouds 27 1011 78 10000 2.1 20 22:39 07.02.2020
3304 Clouds 27 1011 78 10000 2.1 20 22:19 07.02.2020
3305 Clouds 25 1011 83 10000 2.6 60 21:43 07.02.2020
3306 Clouds 27 1011 83 10000 2.6 60 21:22 07.02.2020
3307 Clouds 27 1011 83 10000 6.2 60 20:57 07.02.2020
3308 Thunderstorm 27 1011 78 9000 5.7 30 20:38 07.02.2020
3309 Thunderstorm 28 1011 78 9000 5.7 30 20:18 07.02.2020
3310 Clouds 30 1011 74 10000 8.7 120 19:40 07.02.2020
3311 Clouds 30 1011 74 10000 8.7 120 19:22 07.02.2020
3312 Clouds 31 1012 78 10000 7.7 130 18:58 07.02.2020
3313 Clouds 30 1012 78 10000 7.7 130 18:40 07.02.2020
3314 Clouds 30 1012 78 10000 7.7 130 18:21 07.02.2020
3315 Clouds 30 1012 78 10000 5.1 170 17:43 07.02.2020
3316 Clouds 30 1012 78 10000 5.1 170 17:22 07.02.2020
3317 Clouds 29 1013 78 10000 4.1 170 16:57 07.02.2020
3318 Clouds 29 1013 78 10000 4.1 170 16:39 07.02.2020
3319 Clouds 29 1013 78 10000 4.1 170 16:20 07.02.2020
3320 Clouds 29 1014 74 10000 3.1 150 15:48 07.02.2020
3321 Clouds 29 1014 74 10000 3.1 150 15:27 07.02.2020
3322 Clouds 28 1014 78 10000 3.1 320 14:46 07.02.2020
3323 Clouds 28 1014 78 10000 3.1 320 14:26 07.02.2020
3324 Clouds 27 1014 78 10000 4.1 50 13:59 07.02.2020
3325 Clouds 27 1014 78 10000 4.1 50 13:39 07.02.2020
3326 Clouds 27 1014 78 10000 4.1 50 13:21 07.02.2020
3327 Clouds 26 1014 83 10000 3.6 70 12:56 07.02.2020
3328 Clouds 26 1014 83 10000 3.6 70 12:38 07.02.2020
3329 Clouds 26 1014 83 10000 3.6 70 12:20 07.02.2020
3330 Clouds 26 1013 78 10000 2.1 70 11:42 07.02.2020
3331 Clouds 26 1013 78 10000 2.1 70 11:21 07.02.2020
3332 Clouds 25 1013 83 10000 2.1 80 10:42 07.02.2020
3333 Clouds 25 1013 83 10000 2.1 80 10:24 07.02.2020
3334 Clouds 25 1013 83 10000 2.1 80 10:24 07.02.2020
3335 Clouds 24 1012 83 10000 2.1 70 09:58 07.02.2020
3336 Clouds 25 1012 83 10000 2.1 70 09:39 07.02.2020
3337 Clouds 25 1012 83 10000 2.1 70 09:21 07.02.2020
3338 Clouds 24 1012 83 10000 2.1 40 08:43 07.02.2020
3339 Clouds 26 1012 83 10000 2.1 40 08:21 07.02.2020
3340 Clouds 25 1012 83 10000 1 80 07:49 07.02.2020
3341 Clouds 25 1012 83 10000 1 80 07:30 07.02.2020
3342 Clouds 24 1012 83 10000 0.5 10 06:47 07.02.2020
3343 Clouds 24 1012 83 10000 0.5 10 06:26 07.02.2020
3344 Clouds 25 1013 83 10000 0.5 60 05:57 07.02.2020
3345 Clouds 25 1013 83 10000 0.5 60 05:35 07.02.2020
3346 Clouds 25 1014 83 10000 2.6 60 03:33 07.02.2020
3347 Clouds 26 1013 78 10000 2.1 120 01:51 07.02.2020
3348 Clouds 27 1013 78 10000 4.6 80 00:51 07.02.2020
3349 Clouds 27 1013 78 10000 4.6 80 00:25 07.02.2020
3350 Clouds 27 1012 83 10000 1.5 170 23:38 06.02.2020
3351 Clouds 27 1012 83 10000 1.5 170 23:19 06.02.2020
3352 Clouds 28 1011 78 10000 2.1 170 22:46 06.02.2020
3353 Clouds 28 1011 78 10000 2.1 170 22:26 06.02.2020
3354 Clouds 29 1011 74 10000 0.5 140 21:57 06.02.2020
3355 Clouds 29 1011 74 10000 0.5 140 21:36 06.02.2020
3356 Clouds 29 1011 74 10000 0.5 140 21:18 06.02.2020
3357 Clouds 30 1011 78 10000 2.6 10 20:55 06.02.2020
3358 Clouds 30 1011 78 10000 2.6 10 20:36 06.02.2020
3359 Clouds 30 1011 78 10000 2.6 10 20:18 06.02.2020
3360 Clouds 29 1012 83 10000 3.6 170 19:55 06.02.2020
3361 Clouds 29 1012 83 10000 3.6 170 19:37 06.02.2020
3362 Clouds 29 1012 83 10000 3.6 170 19:18 06.02.2020
3363 Clouds 28 1013 78 10000 1 60 18:40 06.02.2020
3364 Clouds 28 1013 78 10000 1 60 18:22 06.02.2020
3365 Clouds 28 1014 78 10000 2.1 330 17:57 06.02.2020
3366 Clouds 27 1014 78 10000 2.1 330 17:39 06.02.2020
3367 Clouds 27 1014 78 10000 2.1 330 17:20 06.02.2020
3368 Clouds 27 1014 88 10000 2.1 350 16:42 06.02.2020
3369 Clouds 27 1014 88 10000 2.1 350 16:24 06.02.2020
3370 Clouds 27 1015 83 10000 2.6 360 15:44 06.02.2020
3371 Clouds 27 1015 83 10000 2.6 360 15:24 06.02.2020
3372 Clouds 26 1015 83 10000 2.1 360 14:58 06.02.2020
3373 Clouds 26 1015 83 10000 2.1 360 14:58 06.02.2020
3374 Clouds 26 1015 83 10000 2.1 360 14:40 06.02.2020
3375 Clouds 26 1015 83 10000 2.1 360 14:22 06.02.2020
3376 Clouds 26 1015 88 10000 3.1 360 13:43 06.02.2020
3377 Clouds 26 1015 88 10000 3.1 360 13:25 06.02.2020
3378 Clouds 25 1015 88 10000 1.5 360 12:45 06.02.2020
3379 Clouds 25 1015 88 10000 1.5 360 12:20 06.02.2020
3380 Clouds 24 1014 88 10000 1.5 170 11:58 06.02.2020
3381 Clouds 24 1014 88 10000 1.5 170 11:40 06.02.2020
3382 Clouds 24 1014 88 10000 1.5 170 11:21 06.02.2020
3383 Clouds 23 1013 88 10000 1.5 100 10:58 06.02.2020
3384 Clouds 23 1013 88 10000 1.5 100 10:39 06.02.2020
3385 Clouds 23 1013 88 10000 1.5 100 10:21 06.02.2020
3386 Clouds 23 1012 88 10000 2.68 32 09:57 06.02.2020
3387 Clouds 23 1012 88 10000 2.68 32 09:38 06.02.2020
3388 Clouds 23 1012 88 10000 2.68 32 09:19 06.02.2020
3389 Clouds 23 1012 88 10000 2.1 50 08:42 06.02.2020
3390 Clouds 23 1012 88 10000 2.1 50 08:22 06.02.2020
3391 Clouds 23 1012 88 10000 2.1 50 08:22 06.02.2020
3392 Clouds 23 1012 88 10000 1.5 340 07:52 06.02.2020
3393 Clouds 23 1012 88 10000 1.5 340 07:52 06.02.2020
3394 Clouds 23 1012 88 10000 1.5 340 07:29 06.02.2020
3395 Clouds 24 1012 88 10000 2.6 40 06:47 06.02.2020
3396 Clouds 24 1012 88 10000 2.6 40 06:18 06.02.2020
3397 Clouds 24 1013 88 10000 3.6 360 05:22 06.02.2020
3398 Clouds 24 1014 78 10000 1.5 10 03:47 06.02.2020
3399 Rain 24 1014 78 10000 1 360 02:58 06.02.2020
3400 Rain 24 1014 88 10000 1.5 170 01:45 06.02.2020
3401 Rain 24 1014 88 10000 1.5 170 01:24 06.02.2020
3402 Rain 24 1013 88 6000 1.5 50 00:28 06.02.2020
3403 Rain 23 1014 94 6000 2.6 30 23:56 05.02.2020
3404 Rain 23 1014 94 6000 2.6 30 23:38 05.02.2020
3405 Rain 23 1014 94 6000 2.6 30 23:19 05.02.2020
3406 Thunderstorm 23 1013 94 4500 4.6 300 22:41 05.02.2020
3407 Thunderstorm 23 1013 94 4500 4.6 300 22:41 05.02.2020
3408 Thunderstorm 23 1013 94 4500 4.6 300 22:23 05.02.2020
3409 Thunderstorm 24 1014 94 1500 9.8 320 21:57 05.02.2020
3410 Thunderstorm 25 1014 94 1500 9.8 300 21:39 05.02.2020
3411 Thunderstorm 25 1014 94 1500 9.8 300 21:39 05.02.2020
3412 Thunderstorm 25 1014 94 1500 9.8 300 21:20 05.02.2020
3413 Clouds 28 1011 83 10000 5.7 170 20:39 05.02.2020
3414 Clouds 28 1011 83 10000 5.7 170 20:21 05.02.2020
3415 Clouds 29 1011 88 10000 6.7 160 19:59 05.02.2020
3416 Clouds 29 1011 88 10000 6.7 160 19:40 05.02.2020
3417 Clouds 29 1011 88 10000 6.7 160 19:19 05.02.2020
3418 Clouds 29 1012 83 10000 5.7 160 18:57 05.02.2020
3419 Clouds 29 1012 83 10000 5.7 160 18:39 05.02.2020
3420 Clouds 29 1012 83 10000 5.7 160 18:19 05.02.2020
3421 Clouds 29 1012 83 10000 4.6 170 17:39 05.02.2020
3422 Clouds 29 1012 83 10000 4.6 170 17:20 05.02.2020
3423 Clouds 28 1013 74 10000 2.6 0 16:58 05.02.2020
3424 Clouds 28 1013 88 8000 1 160 16:40 05.02.2020
3425 Clouds 28 1013 88 8000 1 160 16:22 05.02.2020
3426 Rain 27 1013 88 5000 1.5 40 15:47 05.02.2020
3427 Rain 27 1013 88 5000 1.5 40 15:20 05.02.2020
3428 Rain 27 1014 88 5000 2.1 360 14:59 05.02.2020
3429 Clouds 27 1013 88 10000 2.6 360 14:41 05.02.2020
3430 Clouds 27 1013 88 10000 2.6 360 14:22 05.02.2020
3431 Clouds 27 1013 83 10000 2.6 40 13:44 05.02.2020
3432 Clouds 27 1013 83 10000 2.6 40 13:24 05.02.2020
3433 Clouds 26 1013 83 10000 2.6 90 12:59 05.02.2020
3434 Clouds 26 1013 83 10000 2.6 90 12:39 05.02.2020
3435 Clouds 26 1013 83 10000 2.6 90 12:21 05.02.2020
3436 Clouds 26 1012 83 10000 2.1 80 11:41 05.02.2020
3437 Clouds 26 1012 83 10000 2.1 80 11:23 05.02.2020
3438 Clouds 25 1012 83 10000 2.1 50 10:59 05.02.2020
3439 Clouds 25 1011 83 10000 2.6 20 10:39 05.02.2020
3440 Clouds 25 1011 83 10000 2.6 20 10:19 05.02.2020
3441 Rain 25 1011 83 10000 0.5 340 09:43 05.02.2020
3442 Rain 25 1011 83 10000 0.5 340 09:22 05.02.2020
3443 Clouds 25 1011 88 10000 1.5 340 08:58 05.02.2020
3444 Clouds 25 1011 88 10000 1.5 340 08:39 05.02.2020
3445 Clouds 25 1011 88 10000 1.5 340 08:21 05.02.2020
3446 Clouds 25 1011 88 10000 2.6 20 07:43 05.02.2020
3447 Clouds 25 1011 88 10000 2.6 20 07:20 05.02.2020
3448 Clouds 25 1011 88 10000 3.6 130 06:42 05.02.2020
3449 Clouds 25 1011 88 10000 3.6 130 06:21 05.02.2020
3450 Clouds 25 1012 94 10000 3.1 40 05:48 05.02.2020
3451 Clouds 25 1012 94 10000 3.1 40 05:18 05.02.2020
3452 Clouds 25 1012 88 9000 2.6 40 04:41 05.02.2020
3453 Rain 26 1013 88 9000 2.1 350 03:18 05.02.2020
3454 Clouds 26 1013 88 10000 2.6 140 02:23 05.02.2020
3455 Clouds 26 1013 88 10000 3.1 150 01:35 05.02.2020
3456 Clouds 26 1013 88 10000 4.1 160 00:33 05.02.2020
3457 Clouds 27 1012 88 10000 4.6 160 23:42 04.02.2020
3458 Clouds 26 1012 88 10000 4.6 160 23:23 04.02.2020
3459 Clouds 26 1012 88 10000 4.6 160 23:23 04.02.2020
3460 Clouds 27 1011 83 10000 5.7 160 22:58 04.02.2020
3461 Clouds 27 1011 83 10000 5.7 160 22:40 04.02.2020
3462 Clouds 27 1011 83 10000 5.7 160 22:21 04.02.2020
3463 Clouds 28 1011 83 10000 6.2 160 21:59 04.02.2020
3464 Clouds 28 1011 83 10000 6.2 160 21:40 04.02.2020
3465 Clouds 28 1011 88 10000 5.1 160 21:19 04.02.2020
3466 Clouds 28 1011 88 10000 5.1 160 21:19 04.02.2020
3467 Clouds 28 1011 88 10000 5.1 160 20:58 04.02.2020
3468 Clouds 28 1011 88 10000 5.1 160 20:38 04.02.2020
3469 Clouds 28 1011 88 10000 5.1 160 20:20 04.02.2020
3470 Clouds 29 1012 74 10000 2.6 90 19:56 04.02.2020
3471 Clouds 29 1012 74 10000 2.6 90 19:38 04.02.2020
3472 Clouds 29 1012 74 10000 2.6 90 19:19 04.02.2020
3473 Clouds 29 1012 79 10000 4.1 160 18:54 04.02.2020
3474 Clouds 29 1012 79 10000 4.1 160 18:36 04.02.2020
3475 Clouds 29 1012 83 10000 3.6 140 18:18 04.02.2020
3476 Clouds 29 1012 83 10000 3.6 140 17:41 04.02.2020
3477 Clouds 29 1012 78 10000 2.6 140 17:20 04.02.2020
3478 Clouds 29 1012 78 10000 2.6 140 16:54 04.02.2020
3479 Clouds 29 1012 78 10000 2.6 140 16:36 04.02.2020
3480 Clouds 29 1012 78 10000 2.6 140 16:18 04.02.2020
3481 Clouds 29 1012 78 10000 1.5 130 15:55 04.02.2020
3482 Clouds 28 1013 83 10000 2.1 20 15:37 04.02.2020
3483 Clouds 28 1013 83 10000 2.1 20 15:18 04.02.2020
3484 Clouds 28 1013 83 10000 1 310 14:41 04.02.2020
3485 Clouds 28 1013 83 10000 1 310 14:20 04.02.2020
3486 Clouds 27 1013 78 10000 0.5 100 13:56 04.02.2020
3487 Clouds 27 1013 78 10000 0.5 100 13:38 04.02.2020
3488 Clouds 27 1013 78 10000 0.5 100 13:18 04.02.2020
3489 Clouds 26 1013 83 10000 2.1 130 12:43 04.02.2020
3490 Clouds 26 1013 83 10000 2.1 130 12:24 04.02.2020
3491 Clouds 25 1012 88 10000 2.6 110 11:57 04.02.2020
3492 Clouds 25 1012 88 10000 2.6 110 11:39 04.02.2020
3493 Clouds 25 1012 88 10000 2.6 110 11:19 04.02.2020
3494 Clouds 25 1012 88 10000 2.6 220 10:50 04.02.2020
3495 Clouds 25 1012 88 10000 2.6 220 10:28 04.02.2020
3496 Clouds 25 1012 88 10000 2.1 300 09:58 04.02.2020
3497 Clouds 25 1012 88 10000 2.1 300 09:40 04.02.2020
3498 Clouds 25 1012 88 10000 2.1 300 09:21 04.02.2020
3499 Clouds 24 1011 83 10000 0.5 160 08:49 04.02.2020
3500 Clouds 24 1011 83 10000 0.5 160 08:28 04.02.2020
3501 Clouds 24 1011 83 10000 5.1 30 07:57 04.02.2020
3502 Clouds 25 1011 83 10000 5.1 30 07:37 04.02.2020
3503 Clouds 25 1011 83 10000 5.1 30 07:18 04.02.2020
3504 Rain 25 1011 88 10000 3.1 320 06:42 04.02.2020
3505 Rain 26 1011 88 8000 3.6 330 05:37 04.02.2020
3506 Rain 25 1013 94 5000 2.6 180 04:51 04.02.2020
3507 Rain 25 1013 88 5000 1.5 190 03:49 04.02.2020
3508 Rain 25 1013 88 5000 1.5 190 03:30 04.02.2020
3509 Rain 25 1013 88 7000 1.61 25 02:51 04.02.2020
3510 Rain 25 1013 88 7000 1.61 25 02:28 04.02.2020
3511 Rain 25 1012 88 6000 0.5 160 01:48 04.02.2020
3512 Rain 25 1012 94 4000 1.5 290 01:21 04.02.2020
3513 Thunderstorm 25 1012 83 4000 1 270 00:25 04.02.2020
3514 Thunderstorm 25 1010 88 6000 4.1 70 23:57 03.02.2020
3515 Thunderstorm 25 1010 88 6000 4.1 70 23:38 03.02.2020
3516 Thunderstorm 25 1010 88 6000 4.1 70 23:19 03.02.2020
3517 Thunderstorm 27 1010 94 1500 3.6 80 22:39 03.02.2020
3518 Thunderstorm 27 1010 94 1500 3.6 80 22:20 03.02.2020
3519 Clouds 29 1009 79 10000 3.6 170 21:43 03.02.2020
3520 Clouds 29 1009 79 10000 3.6 170 21:20 03.02.2020
3521 Clouds 30 1009 79 10000 6.7 160 20:59 03.02.2020
3522 Clouds 30 1009 79 10000 6.7 160 20:40 03.02.2020
3523 Clouds 30 1009 79 10000 6.7 160 20:18 03.02.2020
3524 Clouds 31 1010 79 10000 7.2 160 19:56 03.02.2020
3525 Clouds 31 1010 79 10000 7.2 160 19:37 03.02.2020
3526 Clouds 31 1010 79 10000 7.2 160 19:19 03.02.2020
3527 Clouds 31 1010 79 10000 7.2 160 19:19 03.02.2020
3528 Clouds 31 1011 79 10000 6.7 170 18:43 03.02.2020
3529 Clouds 31 1011 79 10000 6.7 170 18:24 03.02.2020
3530 Clouds 31 1012 83 10000 6.2 160 17:59 03.02.2020
3531 Clouds 31 1012 83 10000 6.2 160 17:39 03.02.2020
3532 Clouds 31 1012 83 10000 6.2 160 17:20 03.02.2020
3533 Clouds 31 1012 83 10000 6.2 160 17:20 03.02.2020
3534 Clouds 31 1012 83 10000 6.2 160 17:20 03.02.2020
3535 Clouds 30 1012 83 10000 4.1 160 16:55 03.02.2020
3536 Clouds 30 1012 83 10000 4.1 160 16:37 03.02.2020
3537 Clouds 30 1012 83 10000 4.1 160 16:18 03.02.2020
3538 Clouds 29 1013 83 10000 2.6 140 15:54 03.02.2020
3539 Clouds 29 1013 83 10000 2.6 140 15:36 03.02.2020
3540 Clouds 29 1013 83 10000 2.6 140 15:18 03.02.2020
3541 Clouds 29 1013 83 10000 2.6 140 15:18 03.02.2020
3542 Clouds 28 1013 83 10000 1 350 14:39 03.02.2020
3543 Clouds 28 1013 83 10000 1 350 14:21 03.02.2020
3544 Clouds 26 1014 88 10000 2.6 350 13:55 03.02.2020
3545 Clouds 26 1014 88 10000 2.6 350 13:37 03.02.2020
3546 Clouds 26 1014 88 10000 2.6 350 13:18 03.02.2020
3547 Clouds 25 1014 88 10000 2.6 20 12:41 03.02.2020
3548 Clouds 25 1014 88 10000 2.6 20 12:22 03.02.2020
3549 Clouds 24 1014 94 10000 1.5 330 11:59 03.02.2020
3550 Clouds 24 1013 88 10000 2.1 320 11:38 03.02.2020
3551 Clouds 24 1013 88 10000 2.1 320 11:19 03.02.2020
3552 Clouds 24 1013 88 10000 2.1 300 10:54 03.02.2020
3553 Clouds 24 1013 88 10000 2.1 300 10:36 03.02.2020
3554 Clouds 24 1013 88 10000 2.1 300 10:18 03.02.2020
3555 Clouds 24 1013 88 10000 2.1 300 10:18 03.02.2020
3556 Clouds 24 1012 88 10000 3.6 180 09:38 03.02.2020
3557 Clouds 24 1012 88 10000 3.6 180 09:19 03.02.2020
3558 Clouds 24 1012 88 10000 2.6 170 08:40 03.02.2020
3559 Clouds 24 1012 88 10000 2.6 170 08:22 03.02.2020
3560 Clouds 24 1012 88 8000 1.5 350 07:43 03.02.2020
3561 Clouds 24 1012 88 8000 1.5 350 07:23 03.02.2020
3562 Clouds 24 1012 94 10000 3.6 280 06:57 03.02.2020
3563 Clouds 24 1012 94 10000 3.6 280 06:31 03.02.2020
3564 Rain 23 1013 100 4000 1.5 30 05:55 03.02.2020
3565 Rain 23 1013 100 4000 1.5 30 05:33 03.02.2020
3566 Thunderstorm 23 1013 100 3000 2.6 50 04:45 03.02.2020
3567 Thunderstorm 25 1015 94 8000 1 260 02:48 03.02.2020
3568 Thunderstorm 25 1015 94 8000 1 260 02:48 03.02.2020
3569 Thunderstorm 25 1015 94 8000 1 260 02:28 03.02.2020
3570 Thunderstorm 26 1013 94 10000 2.1 360 00:50 03.02.2020
3571 Thunderstorm 26 1013 94 10000 2.1 360 00:28 03.02.2020
3572 Rain 26 1014 94 4000 2.6 50 23:56 02.02.2020
3573 Thunderstorm 26 1013 83 10000 3.6 100 23:36 02.02.2020
3574 Thunderstorm 26 1013 83 10000 3.6 100 23:18 02.02.2020
3575 Rain 27 1012 88 10000 4.6 150 22:40 02.02.2020
3576 Rain 27 1012 88 10000 4.6 150 22:22 02.02.2020
3577 Clouds 28 1012 83 10000 5.7 160 21:58 02.02.2020
3578 Clouds 28 1012 83 10000 5.7 160 21:39 02.02.2020
3579 Clouds 28 1012 83 10000 5.7 160 21:20 02.02.2020
3580 Clouds 29 1012 83 10000 6.7 160 20:57 02.02.2020
3581 Clouds 29 1012 83 10000 6.7 160 20:39 02.02.2020
3582 Clouds 29 1012 83 10000 6.7 160 20:20 02.02.2020
3583 Clouds 29 1013 78 10000 6.2 160 19:57 02.02.2020
3584 Clouds 29 1013 78 10000 6.2 160 19:39 02.02.2020
3585 Clouds 29 1013 78 10000 6.2 160 19:21 02.02.2020
3586 Clouds 29 1013 79 10000 6.7 160 18:56 02.02.2020
3587 Clouds 29 1013 79 10000 6.7 160 18:37 02.02.2020
3588 Clouds 29 1013 79 10000 6.7 160 18:19 02.02.2020
3589 Clouds 30 1013 79 10000 5.7 160 17:57 02.02.2020
3590 Clouds 30 1013 79 10000 5.7 160 17:37 02.02.2020
3591 Clouds 30 1013 79 10000 5.7 160 17:37 02.02.2020
3592 Clouds 30 1013 79 10000 5.7 160 17:18 02.02.2020
3593 Clouds 30 1014 74 10000 4.6 160 16:57 02.02.2020
3594 Clouds 30 1014 74 10000 4.6 160 16:38 02.02.2020
3595 Clouds 30 1014 74 10000 4.6 160 16:18 02.02.2020
3596 Clouds 29 1014 78 10000 5.1 180 15:56 02.02.2020
3597 Clouds 29 1014 78 10000 5.1 180 15:37 02.02.2020
3598 Clouds 29 1014 78 10000 5.1 180 15:19 02.02.2020
3599 Clouds 29 1014 83 10000 5.7 170 14:44 02.02.2020
3600 Clouds 28 1014 83 10000 5.1 170 14:19 02.02.2020
3601 Clouds 28 1014 83 10000 5.1 170 13:59 02.02.2020
3602 Clouds 28 1014 83 10000 5.1 170 13:41 02.02.2020
3603 Clouds 28 1014 83 10000 5.1 170 13:21 02.02.2020
3604 Clouds 28 1014 83 10000 5.1 170 13:21 02.02.2020
3605 Clouds 28 1013 88 10000 3.6 150 12:57 02.02.2020
3606 Clouds 28 1013 88 10000 3.6 150 12:38 02.02.2020
3607 Clouds 28 1013 88 10000 3.6 150 12:20 02.02.2020
3608 Clouds 27 1013 88 8000 2.6 150 11:42 02.02.2020
3609 Clouds 27 1013 88 8000 2.6 150 11:20 02.02.2020
3610 Clouds 26 1012 94 8000 0.82 243 10:58 02.02.2020
3611 Clouds 26 1012 94 8000 0.82 243 10:39 02.02.2020
3612 Clouds 26 1012 94 8000 1.95 338 10:21 02.02.2020
3613 Clouds 26 1011 94 6000 2.1 120 09:59 02.02.2020
3614 Clouds 26 1011 94 6000 2.1 120 09:39 02.02.2020
3615 Clouds 26 1011 94 6000 2.1 120 09:20 02.02.2020
3616 Clouds 26 1011 94 6000 2.1 120 09:20 02.02.2020
3617 Clouds 26 1012 94 6000 1.5 150 08:46 02.02.2020
3618 Clouds 26 1012 94 6000 1.5 150 08:26 02.02.2020
3619 Clouds 26 1012 94 6000 2.1 160 07:49 02.02.2020
3620 Clouds 26 1012 94 6000 2.1 160 07:30 02.02.2020
3621 Mist 26 1013 88 5000 2.1 310 06:56 02.02.2020
3622 Mist 26 1013 88 5000 2.1 310 06:37 02.02.2020
3623 Mist 26 1013 88 5000 2.1 310 06:18 02.02.2020
3624 Rain 26 1013 88 5000 2.6 310 05:19 02.02.2020
3625 Clouds 27 1014 83 10000 0.5 40 03:43 02.02.2020
3626 Clouds 27 1014 83 10000 0.5 40 03:22 02.02.2020
3627 Clouds 26 1013 83 10000 4.36 355 02:19 02.02.2020
3628 Clouds 26 1013 83 10000 1.5 240 01:50 02.02.2020
3629 Clouds 27 1013 88 10000 2.1 90 00:51 02.02.2020
3630 Clouds 27 1013 88 10000 2.1 90 00:25 02.02.2020
3631 Rain 26 1012 88 10000 3.1 110 23:57 01.02.2020
3632 Rain 26 1012 88 10000 3.1 110 23:57 01.02.2020
3633 Rain 26 1012 88 10000 3.1 110 23:38 01.02.2020
3634 Rain 26 1012 88 10000 3.1 110 23:19 01.02.2020
3635 Thunderstorm 27 1011 83 10000 3.6 150 22:43 01.02.2020
3636 Thunderstorm 27 1011 83 10000 3.6 150 22:18 01.02.2020
3637 Thunderstorm 27 1012 88 3000 6.7 0 21:41 01.02.2020
3638 Thunderstorm 28 1012 88 3000 6.7 0 21:19 01.02.2020
3639 Thunderstorm 29 1011 74 10000 4.6 140 20:56 01.02.2020
3640 Clouds 30 1011 79 10000 6.7 160 20:37 01.02.2020
3641 Clouds 30 1011 79 10000 6.7 160 20:18 01.02.2020
3642 Clouds 31 1010 74 10000 7.7 170 19:55 01.02.2020
3643 Clouds 31 1010 74 10000 7.7 170 19:37 01.02.2020
3644 Clouds 31 1010 74 10000 7.7 170 19:37 01.02.2020
3645 Clouds 31 1010 74 10000 7.7 170 19:18 01.02.2020
3646 Clouds 32 1010 66 10000 9.3 180 18:55 01.02.2020
3647 Clouds 32 1010 66 10000 9.3 180 18:37 01.02.2020
3648 Clouds 32 1010 66 10000 9.3 180 18:18 01.02.2020
3649 Clouds 32 1011 79 10000 6.2 140 17:54 01.02.2020
3650 Clouds 32 1011 79 10000 6.2 140 17:36 01.02.2020
3651 Clouds 32 1011 79 10000 6.2 140 17:18 01.02.2020
3652 Clouds 32 1011 70 10000 6.2 160 16:39 01.02.2020
3653 Clouds 32 1011 70 10000 6.2 160 16:21 01.02.2020
3654 Clear 33 1012 83 10000 5.1 140 15:47 01.02.2020
3655 Clear 33 1012 83 10000 5.1 140 15:29 01.02.2020
3656 Clear 32 1012 74 10000 1.5 60 14:59 01.02.2020
3657 Clear 32 1012 74 10000 1.5 60 14:59 01.02.2020
3658 Clear 32 1012 74 10000 1.5 60 14:39 01.02.2020
3659 Rain 32 1012 74 10000 1.5 60 14:20 01.02.2020
3660 Rain 30 1012 83 10000 2.1 360 13:45 01.02.2020
3661 Rain 30 1012 83 10000 2.1 360 13:45 01.02.2020
3662 Clouds 30 1012 83 10000 2.1 360 13:22 01.02.2020
3663 Clouds 29 1012 83 10000 2.1 340 12:48 01.02.2020
3664 Clouds 29 1012 83 10000 2.1 340 12:30 01.02.2020
3665 Clouds 28 1012 78 10000 0.5 0 11:59 01.02.2020
3666 Clouds 28 1012 78 10000 0.5 0 11:39 01.02.2020
3667 Clouds 28 1012 78 10000 0.5 0 11:20 01.02.2020
3668 Clouds 25 1011 88 10000 1.5 30 10:58 01.02.2020
3669 Clouds 25 1011 88 10000 1.5 30 10:39 01.02.2020
3670 Clouds 25 1011 88 10000 1.5 30 10:21 01.02.2020
3671 Clouds 25 1010 94 10000 3.1 30 09:58 01.02.2020
3672 Clouds 25 1010 94 10000 3.1 30 09:39 01.02.2020
3673 Clouds 25 1010 94 10000 3.1 30 09:20 01.02.2020
3674 Clouds 25 1010 94 10000 4.1 30 08:46 01.02.2020
3675 Rain 25 1010 88 10000 3.6 350 07:50 01.02.2020
3676 Rain 25 1010 88 10000 3.6 350 07:27 01.02.2020
3677 Rain 25 1010 83 10000 3.1 360 06:58 01.02.2020
3678 Rain 25 1010 83 10000 3.1 360 06:38 01.02.2020
3679 Rain 26 1010 83 10000 1 330 05:52 01.02.2020
3680 Rain 26 1010 83 10000 1 330 05:52 01.02.2020
3681 Rain 27 1011 83 10000 3.6 10 04:20 01.02.2020
3682 Clouds 27 1012 88 10000 4.1 360 03:23 01.02.2020
3683 Clouds 27 1012 83 10000 1.5 40 02:47 01.02.2020
3684 Clouds 27 1012 83 10000 1.5 40 02:28 01.02.2020
3685 Clouds 28 1012 70 10000 1 250 01:55 01.02.2020
3686 Clouds 28 1012 70 10000 1 250 01:37 01.02.2020
3687 Thunderstorm 28 1012 78 10000 3.6 320 00:31 01.02.2020
3688 Thunderstorm 29 1011 78 10000 1.5 80 23:59 31.01.2020
3689 Thunderstorm 27 1011 78 10000 1.5 80 23:38 31.01.2020
3690 Thunderstorm 29 1011 78 10000 1.5 80 23:18 31.01.2020
3691 Rain 30 1011 74 10000 5.7 100 22:54 31.01.2020
3692 Rain 29 1011 74 10000 5.7 100 22:36 31.01.2020
3693 Rain 31 1011 74 10000 5.7 100 22:18 31.01.2020
3694 Rain 29 1009 62 10000 6.7 160 21:39 31.01.2020
3695 Rain 31 1009 62 10000 6.7 160 21:20 31.01.2020
3696 Rain 31 1009 62 10000 6.7 160 21:20 31.01.2020
3697 Rain 31 1009 62 10000 6.7 160 21:20 31.01.2020
3698 Rain 31 1009 62 10000 6.7 160 21:20 31.01.2020
3699 Thunderstorm 33 1009 66 10000 7.7 160 20:57 31.01.2020
3700 Thunderstorm 33 1009 66 10000 7.7 160 20:39 31.01.2020
3701 Clouds 33 1009 74 10000 8.2 160 20:20 31.01.2020
3702 Clouds 33 1009 74 10000 8.2 160 19:56 31.01.2020
3703 Clouds 32 1009 74 10000 8.2 160 19:38 31.01.2020
3704 Clouds 33 1009 74 10000 8.2 160 19:19 31.01.2020
3705 Clouds 34 1009 63 10000 6.7 180 18:46 31.01.2020
3706 Clouds 34 1009 63 10000 6.7 180 18:27 31.01.2020
3707 Clouds 34 1010 63 10000 2.6 110 17:59 31.01.2020
3708 Clouds 35 1010 63 10000 2.6 110 17:40 31.01.2020
3709 Clouds 35 1010 63 10000 2.6 110 17:21 31.01.2020
3710 Clouds 34 1010 70 10000 2.1 40 16:56 31.01.2020
3711 Clouds 34 1010 70 10000 2.1 40 16:37 31.01.2020
3712 Clouds 34 1010 70 10000 2.1 40 16:18 31.01.2020
3713 Clouds 34 1011 74 10000 2.6 20 15:56 31.01.2020
3714 Clouds 34 1011 74 10000 2.6 20 15:37 31.01.2020
3715 Clouds 34 1011 74 10000 2.6 20 15:19 31.01.2020
3716 Clouds 32 1011 79 10000 2.6 20 14:42 31.01.2020
3717 Clouds 32 1011 79 10000 2.6 20 14:20 31.01.2020
3718 Clouds 29 1011 78 10000 3.1 340 13:50 31.01.2020
3719 Clouds 29 1011 78 10000 3.1 340 13:32 31.01.2020
3720 Clouds 27 1011 83 10000 2.6 340 12:56 31.01.2020
3721 Clouds 27 1011 83 10000 2.6 340 12:56 31.01.2020
3722 Clouds 28 1011 83 10000 2.6 340 12:38 31.01.2020
3723 Clouds 28 1011 83 10000 2.6 340 12:20 31.01.2020
3724 Clouds 26 1011 83 10000 2.1 340 11:41 31.01.2020
3725 Clouds 26 1011 83 10000 2.1 340 11:23 31.01.2020
3726 Clouds 24 1011 88 10000 2.6 350 10:58 31.01.2020
3727 Clouds 24 1011 88 10000 2.6 350 10:38 31.01.2020
3728 Clouds 24 1011 88 10000 2.6 350 10:20 31.01.2020
3729 Clouds 24 1011 88 10000 2.6 320 09:55 31.01.2020
3730 Clouds 24 1011 88 10000 2.6 320 09:55 31.01.2020
3731 Clouds 24 1011 88 10000 2.6 320 09:37 31.01.2020
3732 Clouds 24 1011 88 10000 2.6 320 09:37 31.01.2020
3733 Clouds 24 1011 88 10000 2.6 320 09:18 31.01.2020
3734 Clouds 24 1011 88 10000 2.6 340 08:42 31.01.2020
3735 Clouds 24 1011 88 10000 2.6 340 08:23 31.01.2020
3736 Clouds 24 1011 88 10000 1.5 320 07:52 31.01.2020
3737 Clouds 24 1011 88 10000 1.5 320 07:20 31.01.2020
3738 Clouds 24 1012 88 10000 4.1 20 06:42 31.01.2020
3739 Rain 24 1012 88 10000 2.76 295 05:58 31.01.2020
3740 Rain 24 1012 88 10000 2.76 295 05:37 31.01.2020
3741 Rain 24 1013 88 8000 1.5 150 04:47 31.01.2020
3742 Thunderstorm 26 1014 83 6000 4.6 150 02:58 31.01.2020
3743 Thunderstorm 26 1013 83 6000 5.7 200 01:32 31.01.2020
3744 Thunderstorm 27 1012 88 1000 8.2 260 00:42 31.01.2020
3745 Thunderstorm 26 1012 88 1000 8.2 260 00:24 31.01.2020
3746 Thunderstorm 27 1010 83 10000 4.6 180 23:48 30.01.2020
3747 Thunderstorm 28 1010 83 10000 4.6 180 23:24 30.01.2020
3748 Clouds 32 1009 70 10000 3.1 160 22:56 30.01.2020
3749 Clouds 31 1009 70 10000 3.1 160 22:36 30.01.2020
3750 Clouds 32 1009 70 10000 3.1 160 22:18 30.01.2020
3751 Rain 33 1008 83 10000 6.7 170 21:43 30.01.2020
3752 Clouds 33 1009 70 10000 6.2 180 21:20 30.01.2020
3753 Clouds 33 1009 70 10000 6.2 180 20:59 30.01.2020
3754 Clouds 34 1009 70 10000 6.2 180 20:39 30.01.2020
3755 Clouds 34 1009 70 10000 6.2 180 20:39 30.01.2020
3756 Clouds 34 1009 70 10000 6.2 180 20:21 30.01.2020
3757 Clouds 35 1009 79 10000 5.7 180 19:55 30.01.2020
3758 Clouds 35 1009 79 10000 5.7 180 19:36 30.01.2020
3759 Clouds 35 1009 79 10000 5.7 180 19:18 30.01.2020
3760 Clouds 35 1010 79 10000 5.7 170 18:40 30.01.2020
3761 Clouds 35 1010 79 10000 5.7 170 18:21 30.01.2020
3762 Clouds 34 1010 74 10000 4.1 150 17:55 30.01.2020
3763 Clouds 35 1010 74 10000 4.1 150 17:37 30.01.2020
3764 Clouds 35 1010 74 10000 4.1 150 17:18 30.01.2020
3765 Clouds 34 1011 70 10000 3.1 20 16:56 30.01.2020
3766 Clouds 34 1011 70 10000 3.1 20 16:37 30.01.2020
3767 Clouds 34 1011 70 10000 3.1 20 16:18 30.01.2020
3768 Clouds 33 1011 66 10000 1.5 30 15:42 30.01.2020
3769 Clouds 33 1011 66 10000 1.5 30 15:19 30.01.2020
3770 Clouds 32 1012 74 10000 3.1 360 14:50 30.01.2020
3771 Clouds 32 1012 74 10000 3.1 360 14:27 30.01.2020
3772 Clouds 30 1012 83 10000 3.1 10 13:56 30.01.2020
3773 Clouds 30 1012 83 10000 3.1 10 13:36 30.01.2020
3774 Clouds 30 1012 83 10000 3.1 10 13:18 30.01.2020
3775 Clouds 30 1012 78 10000 1 30 12:42 30.01.2020
3776 Clouds 30 1012 78 10000 1 30 12:24 30.01.2020
3777 Clouds 27 1012 88 10000 1.5 140 11:57 30.01.2020
3778 Clouds 27 1012 88 10000 1.5 140 11:39 30.01.2020
3779 Clouds 27 1012 88 10000 1.5 140 11:21 30.01.2020
3780 Clouds 25 1012 88 10000 1.5 60 10:42 30.01.2020
3781 Clouds 25 1012 88 10000 1.5 60 10:24 30.01.2020
3782 Clouds 24 1011 88 10000 1.5 90 09:49 30.01.2020
3783 Clouds 24 1011 88 10000 1.5 90 09:30 30.01.2020
3784 Clouds 24 1010 88 10000 1.5 320 08:59 30.01.2020
3785 Clouds 24 1010 88 10000 1.5 320 08:40 30.01.2020
3786 Clouds 24 1010 88 10000 1.5 320 08:20 30.01.2020
3787 Clouds 24 1010 83 10000 2.6 320 07:49 30.01.2020
3788 Clouds 24 1010 83 10000 2.6 320 07:29 30.01.2020
3789 Clouds 25 1010 74 10000 1.5 300 06:47 30.01.2020
3790 Clouds 25 1010 74 10000 1.5 300 06:29 30.01.2020
3791 Clouds 24 1011 83 10000 2.1 340 05:44 30.01.2020
3792 Clouds 25 1011 83 10000 2.1 340 05:22 30.01.2020
3793 Clouds 26 1011 78 10000 2.1 330 03:55 30.01.2020
3794 Clouds 26 1011 78 10000 2.1 330 03:37 30.01.2020
3795 Clouds 26 1011 83 10000 3.1 330 02:47 30.01.2020
3796 Thunderstorm 27 1011 78 9000 2.6 100 00:43 30.01.2020
3797 Thunderstorm 27 1011 78 9000 2.6 100 00:21 30.01.2020
3798 Thunderstorm 28 1011 83 10000 2.1 10 23:47 29.01.2020
3799 Thunderstorm 28 1011 83 10000 2.1 10 23:47 29.01.2020
3800 Thunderstorm 28 1011 83 10000 2.1 10 23:22 29.01.2020
3801 Thunderstorm 30 1010 78 10000 6.2 190 22:58 29.01.2020
3802 Thunderstorm 30 1010 78 10000 6.2 190 22:39 29.01.2020
3803 Thunderstorm 30 1010 78 10000 6.2 190 22:19 29.01.2020
3804 Clouds 30 1010 78 10000 6.7 180 21:58 29.01.2020
3805 Clouds 31 1010 78 10000 6.7 180 21:38 29.01.2020
3806 Clouds 31 1010 78 10000 6.7 180 21:38 29.01.2020
3807 Clouds 31 1010 78 10000 6.7 180 21:19 29.01.2020
3808 Clouds 31 1010 79 10000 7.2 170 20:58 29.01.2020
3809 Clouds 31 1010 79 10000 7.2 170 20:38 29.01.2020
3810 Clouds 31 1010 79 10000 7.2 170 20:20 29.01.2020
3811 Clouds 31 1011 70 10000 6.2 180 19:56 29.01.2020
3812 Clouds 31 1011 70 10000 6.2 180 19:37 29.01.2020
3813 Clouds 31 1011 70 10000 6.2 180 19:37 29.01.2020
3814 Clouds 31 1011 70 10000 6.2 180 19:18 29.01.2020
3815 Clouds 31 1011 74 10000 6.2 170 18:46 29.01.2020
3816 Clouds 31 1011 74 10000 6.2 170 18:19 29.01.2020
3817 Clouds 31 1012 74 10000 5.7 170 17:58 29.01.2020
3818 Clouds 31 1012 74 10000 5.7 170 17:58 29.01.2020
3819 Clouds 32 1012 74 10000 5.7 170 17:39 29.01.2020
3820 Clouds 32 1012 74 10000 5.7 170 17:21 29.01.2020
3821 Clouds 32 1012 74 10000 5.7 170 17:21 29.01.2020
3822 Clouds 31 1012 78 10000 4.6 150 16:41 29.01.2020
3823 Clouds 31 1012 78 10000 4.6 150 16:23 29.01.2020
3824 Clouds 31 1012 79 10000 2.6 150 15:56 29.01.2020
3825 Clouds 31 1012 79 10000 2.6 150 15:37 29.01.2020
3826 Clouds 31 1012 79 10000 2.6 150 15:19 29.01.2020
3827 Clouds 31 1012 74 10000 2.1 350 14:43 29.01.2020
3828 Clouds 31 1012 74 10000 2.1 350 14:21 29.01.2020
3829 Clouds 29 1013 83 10000 3.1 340 13:55 29.01.2020
3830 Clouds 29 1013 83 10000 3.1 340 13:37 29.01.2020
3831 Clouds 29 1013 83 10000 3.1 340 13:19 29.01.2020
3832 Clouds 28 1012 83 9000 3.6 360 12:55 29.01.2020
3833 Clouds 28 1012 83 9000 3.6 360 12:37 29.01.2020
3834 Clouds 28 1012 83 9000 3.6 360 12:18 29.01.2020
3835 Clouds 26 1012 88 10000 1 80 11:45 29.01.2020
3836 Clouds 27 1012 88 10000 1 80 11:21 29.01.2020
3837 Clouds 25 1011 94 10000 2.1 120 10:47 29.01.2020
3838 Clouds 23 1011 94 10000 3.1 140 10:26 29.01.2020
3839 Clouds 24 1011 94 10000 3.1 140 09:58 29.01.2020
3840 Clouds 24 1011 94 10000 3.1 140 09:40 29.01.2020
3841 Clouds 23 1010 94 10000 4.1 150 09:20 29.01.2020
3842 Clouds 24 1011 94 10000 3.1 140 09:20 29.01.2020
3843 Clouds 24 1010 94 10000 4.1 150 08:56 29.01.2020
3844 Clouds 24 1010 94 10000 4.1 150 08:37 29.01.2020
3845 Clouds 24 1010 94 10000 3.1 150 08:18 29.01.2020
3846 Clouds 24 1010 94 10000 3.1 150 07:43 29.01.2020
3847 Clouds 24 1010 94 10000 3.1 150 07:23 29.01.2020
3848 Clouds 24 1011 94 10000 2.1 140 06:38 29.01.2020
3849 Clouds 24 1011 94 10000 2.1 140 06:20 29.01.2020
3850 Clouds 24 1011 94 10000 2.6 170 05:54 29.01.2020
3851 Clouds 25 1011 94 10000 2.6 170 05:35 29.01.2020
3852 Clouds 25 1012 88 10000 2.6 160 04:39 29.01.2020
3853 Clouds 25 1012 88 10000 2.6 160 04:18 29.01.2020
3854 Clear 24 1006 91 0 0.16 122 02:40 29.01.2020
3855 Clouds 26 1011 88 10000 3.6 170 01:34 29.01.2020
3856 Clouds 26 1011 88 10000 4.6 180 00:41 29.01.2020
3857 Clouds 26 1011 88 10000 4.6 180 00:23 29.01.2020
3858 Clouds 27 1010 88 10000 5.7 160 23:41 28.01.2020
3859 Clouds 27 1010 88 10000 5.7 160 23:20 28.01.2020
3860 Clouds 27 1010 88 10000 3.6 170 22:57 28.01.2020
3861 Clouds 27 1010 88 10000 3.6 170 22:39 28.01.2020
3862 Clouds 27 1010 88 10000 3.6 170 22:20 28.01.2020
3863 Clouds 27 1010 88 10000 3.6 170 22:20 28.01.2020
3864 Clouds 28 1010 88 10000 5.1 180 21:41 28.01.2020
3865 Clouds 28 1010 88 10000 5.1 180 21:20 28.01.2020
3866 Clouds 28 1010 88 10000 5.1 180 21:20 28.01.2020
3867 Clouds 29 1010 83 10000 7.2 160 20:46 28.01.2020
3868 Clouds 29 1010 83 10000 7.2 160 20:28 28.01.2020
3869 Clouds 29 1010 78 10000 7.7 160 19:59 28.01.2020
3870 Clouds 29 1010 78 10000 7.7 160 19:38 28.01.2020
3871 Clouds 30 1010 78 10000 7.7 160 19:20 28.01.2020
3872 Clouds 30 1010 78 10000 8.7 170 18:58 28.01.2020
3873 Clouds 30 1010 78 10000 8.7 170 18:39 28.01.2020
3874 Clouds 30 1010 78 10000 8.7 170 18:21 28.01.2020
3875 Clouds 31 1010 78 10000 8.2 160 17:56 28.01.2020
3876 Clouds 31 1010 78 10000 8.2 160 17:37 28.01.2020
3877 Clouds 31 1010 78 10000 8.2 160 17:19 28.01.2020
3878 Clouds 32 1010 78 10000 7.7 160 16:46 28.01.2020
3879 Clouds 32 1010 78 10000 7.7 160 16:27 28.01.2020
3880 Clear 33 1010 74 10000 2.1 150 15:59 28.01.2020
3881 Clear 33 1010 74 10000 2.1 150 15:40 28.01.2020
3882 Clear 33 1010 74 10000 2.1 150 15:18 28.01.2020
3883 Clear 33 1010 74 10000 4.1 140 14:45 28.01.2020
3884 Clear 33 1010 74 10000 4.1 140 14:20 28.01.2020
3885 Clear 31 1010 83 10000 2.6 10 13:57 28.01.2020
3886 Clear 31 1010 83 10000 2.6 10 13:38 28.01.2020
3887 Clear 31 1010 83 10000 2.6 10 13:19 28.01.2020
3888 Clear 29 1010 88 10000 3.1 360 12:41 28.01.2020
3889 Clear 29 1010 88 10000 3.1 360 12:22 28.01.2020
3890 Clear 27 1010 88 10000 2.6 360 11:48 28.01.2020
3891 Clear 27 1010 88 10000 2.6 360 11:23 28.01.2020
3892 Clouds 25 1010 94 10000 2.1 360 10:56 28.01.2020
3893 Clouds 25 1010 94 10000 2.1 360 10:56 28.01.2020
3894 Clouds 25 1010 94 10000 2.1 360 10:38 28.01.2020
3895 Clear 24 1009 94 10000 1.5 350 10:18 28.01.2020
3896 Clear 24 1009 94 10000 1.5 350 09:42 28.01.2020
3897 Clear 24 1009 94 10000 1.5 350 09:21 28.01.2020
3898 Clear 24 1009 94 10000 1.5 40 08:56 28.01.2020
3899 Clear 24 1009 94 10000 1.5 40 08:38 28.01.2020
3900 Clear 24 1009 94 10000 1.5 40 08:18 28.01.2020
3901 Clear 25 1009 88 10000 1 50 07:36 28.01.2020
3902 Clear 25 1010 88 10000 2.6 20 06:49 28.01.2020
3903 Clear 25 1010 88 10000 2.6 20 06:25 28.01.2020
3904 Clear 26 1010 94 10000 2.1 360 05:54 28.01.2020
3905 Clear 26 1010 94 10000 2.1 360 05:25 28.01.2020
3906 Clear 26 1011 88 10000 2.1 10 03:59 28.01.2020
3907 Clouds 26 1011 88 10000 1 160 02:58 28.01.2020
3908 Clouds 26 1011 88 10000 1 160 02:25 28.01.2020
3909 Clouds 27 1010 83 10000 2.1 160 01:57 28.01.2020
3910 Clouds 27 1010 83 10000 2.1 160 01:24 28.01.2020
3911 Clouds 27 1010 78 10000 2.6 170 00:48 28.01.2020
3912 Clouds 27 1010 78 10000 2.6 170 00:28 28.01.2020
3913 Clouds 28 1009 78 10000 4.1 180 23:49 27.01.2020
3914 Clouds 28 1009 78 10000 4.1 180 23:30 27.01.2020
3915 Clouds 29 1008 74 10000 6.2 190 22:56 27.01.2020
3916 Clouds 29 1008 74 10000 6.2 190 22:38 27.01.2020
3917 Clouds 29 1008 74 10000 6.2 190 22:18 27.01.2020
3918 Clouds 29 1008 74 10000 6.2 190 22:18 27.01.2020
3919 Clouds 30 1008 70 10000 5.7 190 21:54 27.01.2020
3920 Clouds 30 1008 70 10000 5.7 190 21:36 27.01.2020
3921 Clouds 30 1008 70 10000 5.7 190 21:18 27.01.2020
3922 Clouds 31 1008 74 10000 5.7 190 20:43 27.01.2020
3923 Clouds 31 1008 74 10000 5.7 190 20:22 27.01.2020
3924 Clouds 33 1008 66 10000 4.6 160 19:59 27.01.2020
3925 Clouds 33 1008 66 10000 4.6 160 19:40 27.01.2020
3926 Clouds 33 1008 66 10000 4.6 160 19:22 27.01.2020
3927 Clouds 33 1009 66 10000 5.1 150 18:56 27.01.2020
3928 Clouds 33 1009 66 10000 5.1 150 18:37 27.01.2020
3929 Clouds 33 1009 66 10000 5.1 150 18:37 27.01.2020
3930 Clouds 33 1009 66 10000 5.1 150 18:19 27.01.2020
3931 Clouds 32 1010 74 10000 3.1 140 17:39 27.01.2020
3932 Clouds 32 1010 74 10000 3.1 140 17:21 27.01.2020
3933 Clouds 32 1010 74 10000 3.1 140 16:59 27.01.2020
3934 Clouds 32 1010 74 10000 3.1 140 16:40 27.01.2020
3935 Clouds 32 1010 74 10000 3.1 140 16:22 27.01.2020
3936 Clouds 31 1011 78 10000 2.6 140 15:55 27.01.2020
3937 Clouds 31 1011 78 10000 2.6 140 15:36 27.01.2020
3938 Clouds 31 1011 78 10000 2.6 140 15:18 27.01.2020
3939 Clouds 30 1011 74 10000 2.1 10 14:42 27.01.2020
3940 Clouds 30 1011 74 10000 2.1 10 14:22 27.01.2020
3941 Clouds 28 1011 78 10000 2.1 340 13:57 27.01.2020
3942 Clouds 28 1011 78 10000 2.1 340 13:37 27.01.2020
3943 Clouds 26 1011 83 10000 1.5 360 13:18 27.01.2020
3944 Clouds 26 1011 83 10000 1.5 360 12:44 27.01.2020
3945 Clouds 26 1011 83 10000 1.5 360 12:23 27.01.2020
3946 Clouds 26 1011 83 10000 1.5 360 12:23 27.01.2020
3947 Clouds 24 1011 88 10000 2.1 20 11:58 27.01.2020
3948 Clouds 24 1011 88 10000 2.1 20 11:40 27.01.2020
3949 Clouds 24 1011 88 10000 2.1 20 11:20 27.01.2020
3950 Clouds 22 1011 94 10000 1.5 10 10:42 27.01.2020
3951 Clouds 22 1011 94 10000 1.5 10 10:24 27.01.2020
3952 Clouds 23 1011 88 10000 0.5 70 09:54 27.01.2020
3953 Clouds 23 1010 94 10000 1.5 330 09:36 27.01.2020
3954 Clouds 23 1010 94 10000 1.5 330 09:18 27.01.2020
3955 Clouds 23 1010 88 10000 1.5 360 08:42 27.01.2020
3956 Clear 23 1010 88 10000 1.5 360 08:20 27.01.2020
3957 Clouds 23 1010 88 10000 1.5 60 07:53 27.01.2020
3958 Clouds 23 1010 88 10000 1.5 60 07:33 27.01.2020
3959 Clouds 23 1010 88 10000 2.1 70 06:51 27.01.2020
3960 Clouds 23 1010 88 10000 2.1 70 06:24 27.01.2020
3961 Clouds 23 1011 83 10000 1.5 80 05:22 27.01.2020
3962 Clouds 24 1012 83 10000 2.6 190 03:43 27.01.2020
3963 Clouds 25 1012 83 10000 3.6 190 02:32 27.01.2020
3964 Clouds 25 1011 83 10000 4.6 180 01:29 27.01.2020
3965 Clouds 25 1011 78 10000 5.7 180 00:43 27.01.2020
3966 Clouds 25 1011 78 10000 5.7 180 00:23 27.01.2020
3967 Clouds 26 1010 69 10000 5.1 150 23:59 26.01.2020
3968 Clouds 26 1010 69 10000 5.1 150 23:41 26.01.2020
3969 Clouds 26 1010 69 10000 5.1 150 23:18 26.01.2020
3970 Clouds 27 1010 74 10000 7.2 180 22:54 26.01.2020
3971 Clouds 27 1010 74 10000 7.2 180 22:36 26.01.2020
3972 Clouds 27 1010 74 10000 7.2 180 22:18 26.01.2020
3973 Clouds 28 1009 78 10000 7.7 180 21:54 26.01.2020
3974 Clouds 28 1009 78 10000 7.7 180 21:36 26.01.2020
3975 Clouds 28 1009 78 10000 7.7 180 21:18 26.01.2020
3976 Clouds 29 1010 69 10000 7.7 180 20:54 26.01.2020
3977 Clouds 29 1010 69 10000 7.7 180 20:36 26.01.2020
3978 Clouds 29 1010 69 10000 7.7 180 20:18 26.01.2020
3979 Clouds 29 1010 69 10000 6.7 170 19:40 26.01.2020
3980 Clouds 29 1010 69 10000 6.7 170 19:21 26.01.2020
3981 Clouds 29 1011 74 10000 6.7 170 18:59 26.01.2020
3982 Clouds 29 1011 74 10000 6.7 170 18:40 26.01.2020
3983 Clouds 29 1011 74 10000 6.7 170 18:22 26.01.2020
3984 Clouds 29 1011 74 10000 7.2 170 17:58 26.01.2020
3985 Clouds 29 1011 74 10000 7.2 170 17:38 26.01.2020
3986 Clouds 29 1011 74 10000 7.2 170 17:18 26.01.2020
3987 Clouds 29 1012 69 10000 6.7 160 16:57 26.01.2020
3988 Clouds 29 1012 69 10000 6.7 160 16:39 26.01.2020
3989 Clouds 29 1012 69 10000 6.7 160 16:20 26.01.2020
3990 Clear 25 1013 72 0 4.69 133 15:55 26.01.2020
3991 Clear 25 1013 72 0 4.69 133 15:37 26.01.2020
3992 Clear 25 1013 72 0 4.69 133 15:18 26.01.2020
3993 Clear 25 1013 72 0 4.69 133 14:40 26.01.2020
3994 Clear 24 1013 72 0 1.72 72 14:19 26.01.2020
3995 Clear 24 1013 72 0 1.72 72 13:43 26.01.2020
3996 Clear 24 1013 73 0 1.78 68 13:20 26.01.2020
3997 Clear 24 1013 73 0 1.78 68 12:58 26.01.2020
3998 Clear 24 1013 73 0 1.78 68 12:40 26.01.2020
3999 Clear 24 1013 73 0 1.78 68 12:21 26.01.2020
4000 Clear 24 1013 73 0 1.78 68 11:57 26.01.2020
4001 Clear 24 1013 73 0 1.78 68 11:39 26.01.2020
4002 Clear 21 1010 88 10000 2.1 320 11:18 26.01.2020
4003 Clear 21 1010 88 10000 2.1 320 10:58 26.01.2020
4004 Clear 21 1010 88 10000 2.1 320 10:38 26.01.2020
4005 Clear 21 1010 88 10000 2.1 320 10:20 26.01.2020
4006 Clear 21 1010 83 10000 2.6 320 09:57 26.01.2020
4007 Clear 21 1010 83 10000 2.6 320 09:39 26.01.2020
4008 Clear 21 1010 83 10000 2.6 320 09:39 26.01.2020
4009 Clear 21 1010 83 10000 2.6 320 09:20 26.01.2020
4010 Clear 21 1010 88 10000 2.6 30 08:43 26.01.2020
4011 Clear 21 1010 88 10000 2.6 30 08:22 26.01.2020
4012 Clear 21 1009 78 10000 1.5 350 07:57 26.01.2020
4013 Clear 21 1009 78 10000 1.5 350 07:39 26.01.2020
4014 Clear 21 1009 78 10000 1.5 350 07:21 26.01.2020
4015 Clear 22 1010 78 10000 1.5 320 06:31 26.01.2020
4016 Clear 22 1010 73 10000 1.5 310 05:32 26.01.2020
4017 Clear 22 1010 73 10000 1.5 310 05:32 26.01.2020
4018 Clear 24 1012 79 0 0.78 269 04:45 26.01.2020
4019 Clear 23 1011 69 10000 2.6 230 02:54 26.01.2020
4020 Clear 22 1011 73 10000 2.6 180 01:49 26.01.2020
4021 Clear 22 1011 73 10000 2.6 180 01:25 26.01.2020
4022 Clouds 23 1010 73 10000 2.6 190 00:58 26.01.2020
4023 Clouds 23 1010 73 10000 2.6 190 00:37 26.01.2020
4024 Clouds 23 1010 73 10000 2.6 190 00:19 26.01.2020
4025 Clear 24 1012 81 0 1.44 206 23:37 25.01.2020
4026 Clear 25 1009 80 0 3.6 206 23:18 25.01.2020
4027 Clear 25 1009 80 0 3.6 206 22:40 25.01.2020
4028 Clear 25 1009 80 0 3.6 206 22:19 25.01.2020
4029 Clear 25 1009 80 0 3.6 206 21:57 25.01.2020
4030 Clear 25 1009 80 0 3.6 206 21:38 25.01.2020
4031 Clear 25 1009 80 0 3.6 206 21:20 25.01.2020
4032 Clear 25 1009 80 0 3.6 206 20:44 25.01.2020
4033 Clear 25 1009 80 0 3.6 206 20:25 25.01.2020
4034 Clouds 25 1008 79 0 6.6 223 19:56 25.01.2020
4035 Clouds 25 1008 79 0 6.6 223 19:56 25.01.2020
4036 Clouds 25 1008 79 0 6.6 223 19:37 25.01.2020
4037 Clouds 25 1008 79 0 6.6 223 19:19 25.01.2020
4038 Clouds 25 1008 79 0 6.6 223 18:55 25.01.2020
4039 Clouds 25 1008 79 0 6.6 223 18:37 25.01.2020
4040 Clouds 25 1008 79 0 6.6 223 18:18 25.01.2020
4041 Clouds 25 1008 79 0 6.6 223 17:39 25.01.2020
4042 Rain 25 1009 78 0 7.26 237 17:19 25.01.2020
4043 Rain 25 1009 78 0 7.26 237 16:56 25.01.2020
4044 Rain 25 1009 78 0 7.26 237 16:38 25.01.2020
4045 Rain 25 1009 78 0 7.26 237 16:19 25.01.2020
4046 Rain 25 1009 78 0 7.26 237 15:42 25.01.2020
4047 Rain 25 1009 78 0 7.26 237 15:24 25.01.2020
4048 Rain 25 1009 78 0 7.26 237 14:57 25.01.2020
4049 Rain 25 1009 78 0 7.26 237 14:39 25.01.2020
4050 Rain 24 1010 80 0 5.86 254 14:18 25.01.2020
4051 Rain 24 1010 80 0 5.86 254 13:40 25.01.2020
4052 Rain 24 1010 81 0 6.13 251 13:22 25.01.2020
4053 Rain 24 1010 81 0 6.13 251 12:43 25.01.2020
4054 Rain 24 1010 81 0 6.13 251 12:43 25.01.2020
4055 Clouds 23 1008 83 10000 2.1 300 12:21 25.01.2020
4056 Clouds 23 1008 83 10000 2.1 300 11:45 25.01.2020
4057 Clouds 23 1008 83 10000 2.1 300 11:45 25.01.2020
4058 Clouds 23 1008 83 10000 2.1 300 11:21 25.01.2020
4059 Clouds 22 1007 83 10000 1.5 320 10:58 25.01.2020
4060 Clouds 22 1007 83 10000 1.5 320 10:40 25.01.2020
4061 Clouds 22 1007 83 10000 1.5 320 10:20 25.01.2020
4062 Rain 22 1006 88 10000 1.5 260 09:41 25.01.2020
4063 Rain 22 1006 88 10000 1.5 260 09:22 25.01.2020
4064 Clouds 22 1006 88 10000 1.5 290 08:44 25.01.2020
4065 Clouds 22 1006 88 10000 1.5 290 08:26 25.01.2020
4066 Clouds 22 1005 88 10000 2.6 300 07:49 25.01.2020
4067 -273 0 0 0 0 0 06:52 25.01.2020
4068 Clouds 23 1006 88 10000 2.6 320 06:51 25.01.2020
4069 Clouds 23 1006 88 10000 2.6 320 06:28 25.01.2020
4070 Rain 23 1006 88 5000 3.1 310 05:46 25.01.2020
4071 Clouds 23 1006 83 10000 3.1 310 04:50 25.01.2020
4072 Clouds 23 1006 83 10000 2.1 300 03:51 25.01.2020
4073 Clouds 23 1006 83 10000 0.5 10 02:57 25.01.2020
4074 Clouds 23 1006 83 10000 0.5 10 02:18 25.01.2020
4075 Clouds 23 1006 88 10000 2.1 110 01:43 25.01.2020
4076 Clouds 23 1005 83 10000 1 150 00:44 25.01.2020
4077 Clouds 23 1005 83 10000 1 150 00:25 25.01.2020
4078 Rain 23 1005 83 10000 1.5 330 23:57 24.01.2020
4079 Rain 23 1005 83 10000 1.5 330 23:39 24.01.2020
4080 Rain 23 1005 83 10000 1.5 330 23:21 24.01.2020
4081 Clouds 24 1004 83 10000 3.6 330 22:44 24.01.2020
4082 Clouds 24 1004 83 10000 3.6 330 22:25 24.01.2020
4083 Clouds 24 1003 83 10000 2.1 350 21:43 24.01.2020
4084 Rain 24 1003 83 10000 1 90 21:21 24.01.2020
4085 Rain 24 1003 83 7000 4.6 190 20:57 24.01.2020
4086 Rain 24 1003 83 7000 4.6 190 20:39 24.01.2020
4087 Rain 24 1003 83 7000 4.6 190 20:20 24.01.2020
4088 Clouds 26 1003 83 10000 6.7 170 19:57 24.01.2020
4089 Clouds 26 1003 83 10000 6.7 170 19:57 24.01.2020
4090 Clouds 26 1003 83 10000 6.7 170 19:38 24.01.2020
4091 Clouds 26 1003 83 10000 6.7 170 19:38 24.01.2020
4092 Clouds 26 1003 83 10000 6.7 170 19:20 24.01.2020
4093 Clouds 26 1003 78 10000 5.1 160 18:43 24.01.2020
4094 Clouds 26 1003 78 10000 5.1 160 18:24 24.01.2020
4095 Clouds 26 1003 83 10000 4.6 150 17:54 24.01.2020
4096 Clouds 26 1003 83 10000 4.6 150 17:36 24.01.2020
4097 Clouds 26 1003 83 10000 4.6 150 17:18 24.01.2020
4098 Clouds 26 1004 83 10000 3.6 140 16:39 24.01.2020
4099 Clouds 26 1004 83 10000 3.6 140 16:20 24.01.2020
4100 Clouds 26 1004 78 10000 1.5 80 15:43 24.01.2020
4101 Clouds 26 1004 78 10000 1.5 80 15:22 24.01.2020
4102 Clouds 25 1004 83 10000 1 50 14:57 24.01.2020
4103 Clouds 25 1004 83 10000 1 50 14:38 24.01.2020
4104 Clouds 25 1004 83 10000 1 50 14:38 24.01.2020
4105 Clouds 25 1004 83 10000 1 50 14:20 24.01.2020
4106 Clouds 24 1004 88 10000 1.5 100 13:42 24.01.2020
4107 Clouds 24 1004 88 10000 1.5 100 13:23 24.01.2020
4108 Rain 23 1004 88 8000 0.5 110 12:44 24.01.2020
4109 Rain 23 1004 88 8000 0.5 110 12:23 24.01.2020
4110 Rain 22 1004 94 9000 2.6 190 11:57 24.01.2020
4111 Rain 22 1004 94 9000 2.6 190 11:39 24.01.2020
4112 Rain 22 1004 94 9000 2.6 190 11:18 24.01.2020
4113 Rain 22 1003 94 7000 1.5 140 10:42 24.01.2020
4114 Rain 22 1003 94 7000 1.5 140 10:42 24.01.2020
4115 Rain 22 1003 94 7000 1.5 140 10:21 24.01.2020
4116 Rain 22 1003 94 8000 1 150 09:55 24.01.2020
4117 Rain 22 1003 94 8000 1 150 09:37 24.01.2020
4118 Rain 22 1003 94 8000 1 150 09:18 24.01.2020
4119 Rain 22 1003 94 9000 1.73 43 08:39 24.01.2020
4120 Rain 22 1003 94 9000 1.41 129 08:19 24.01.2020
4121 Rain 23 1004 88 8000 1 360 07:48 24.01.2020
4122 Rain 23 1004 88 8000 1 360 07:22 24.01.2020
4123 Clouds 23 1004 88 10000 0.5 100 06:45 24.01.2020
4124 Clouds 23 1004 88 10000 0.5 100 06:24 24.01.2020
4125 Clouds 23 1005 88 10000 2.1 140 05:37 24.01.2020
4126 Clouds 23 1006 83 10000 1 120 03:47 24.01.2020
4127 Clouds 23 1006 83 10000 1 170 02:41 24.01.2020
4128 Clouds 23 1006 83 10000 1 170 02:22 24.01.2020
4129 Clouds 23 1006 83 10000 2.1 40 01:39 24.01.2020
4130 Rain 23 1006 78 9000 3.6 140 00:52 24.01.2020
4131 Rain 23 1006 78 9000 3.6 140 00:19 24.01.2020
4132 Rain 23 1006 88 9000 4.1 180 23:45 23.01.2020
4133 Rain 23 1006 88 9000 4.1 180 23:26 23.01.2020
4134 Rain 23 1006 94 9000 4.1 170 22:59 23.01.2020
4135 Rain 23 1006 94 9000 4.1 170 22:37 23.01.2020
4136 Rain 23 1006 94 9000 4.1 170 22:18 23.01.2020
4137 Clouds 24 1006 88 10000 3.6 160 21:55 23.01.2020
4138 Clouds 24 1006 88 10000 3.6 160 21:37 23.01.2020
4139 Clouds 24 1006 88 10000 3.6 160 21:19 23.01.2020
4140 Rain 24 1006 94 5000 3.1 160 20:56 23.01.2020
4141 Rain 24 1006 94 5000 3.1 160 20:37 23.01.2020
4142 Rain 24 1006 94 5000 3.1 160 20:19 23.01.2020
4143 Rain 24 1007 88 5000 3.6 160 19:44 23.01.2020
4144 Rain 24 1007 88 5000 3.6 160 19:24 23.01.2020
4145 Rain 25 1007 88 6000 4.1 160 18:59 23.01.2020
4146 Rain 25 1007 88 6000 4.1 160 18:40 23.01.2020
4147 Rain 25 1007 88 6000 4.1 160 18:20 23.01.2020
4148 Rain 25 1007 88 9000 3.1 150 17:58 23.01.2020
4149 Rain 25 1007 88 9000 3.1 150 17:39 23.01.2020
4150 Rain 25 1007 88 9000 3.1 150 17:19 23.01.2020
4151 Clouds 26 1008 78 10000 1.5 350 16:55 23.01.2020
4152 Clouds 26 1008 78 10000 1.5 350 16:36 23.01.2020
4153 Rain 25 1008 83 8000 1 0 16:18 23.01.2020
4154 Rain 25 1008 83 8000 1 0 15:54 23.01.2020
4155 Rain 25 1008 83 8000 1 0 15:36 23.01.2020
4156 Rain 25 1008 83 8000 1 0 15:18 23.01.2020
4157 Rain 25 1008 83 4500 4.1 10 14:54 23.01.2020
4158 Rain 25 1008 83 10000 1.5 360 14:36 23.01.2020
4159 Clouds 25 1008 88 10000 3.1 20 14:18 23.01.2020
4160 Clouds 25 1008 88 10000 3.1 20 13:38 23.01.2020
4161 Clouds 25 1008 88 10000 3.1 20 13:19 23.01.2020
4162 Clouds 25 1008 88 10000 3.1 30 12:47 23.01.2020
4163 Clouds 25 1008 88 10000 3.1 30 12:25 23.01.2020
4164 Clouds 25 1008 88 10000 3.1 30 12:25 23.01.2020
4165 Clouds 24 1008 94 10000 2.1 20 11:58 23.01.2020
4166 Clouds 24 1008 94 10000 2.1 20 11:38 23.01.2020
4167 Clouds 24 1008 94 10000 2.1 20 11:19 23.01.2020
4168 Clouds 24 1008 88 10000 1.5 360 10:44 23.01.2020
4169 Clouds 24 1008 88 10000 1.5 360 10:22 23.01.2020
4170 Clouds 24 1007 88 10000 2.6 350 09:59 23.01.2020
4171 Clouds 24 1007 88 10000 2.6 350 09:37 23.01.2020
4172 Clouds 24 1007 88 10000 2.6 350 09:19 23.01.2020
4173 Clouds 24 1007 94 10000 1 50 08:41 23.01.2020
4174 Clouds 24 1007 94 10000 1 50 08:22 23.01.2020
4175 Clouds 24 1008 88 10000 1 180 07:45 23.01.2020
4176 Clouds 24 1008 88 10000 1 180 07:26 23.01.2020
4177 Clouds 24 1007 94 10000 1 130 06:53 23.01.2020
4178 Clouds 24 1007 94 10000 1 130 06:23 23.01.2020
4179 Clouds 24 1008 88 10000 1.5 160 05:57 23.01.2020
4180 Clouds 24 1009 83 10000 1.5 150 04:24 23.01.2020
4181 Clouds 25 1010 83 10000 1.5 130 02:34 23.01.2020
4182 Clouds 25 1010 83 10000 4.1 140 01:41 23.01.2020
4183 Clouds 25 1010 88 10000 5.1 150 00:28 23.01.2020
4184 Clouds 26 1008 83 10000 4.6 160 23:48 22.01.2020
4185 Clouds 26 1008 83 10000 4.6 160 23:30 22.01.2020
4186 Clouds 26 1008 78 10000 6.2 160 22:59 22.01.2020
4187 Clouds 26 1008 78 10000 6.2 160 22:41 22.01.2020
4188 Clouds 26 1008 78 10000 6.2 160 22:23 22.01.2020
4189 Clouds 27 1007 78 10000 6.7 160 21:42 22.01.2020
4190 Clouds 27 1007 78 10000 6.7 160 21:22 22.01.2020
4191 Clouds 28 1007 74 10000 6.7 160 20:59 22.01.2020
4192 Clouds 28 1007 74 10000 6.7 160 20:41 22.01.2020
4193 Clouds 28 1007 74 10000 6.7 160 20:23 22.01.2020
4194 Clouds 28 1008 74 10000 6.7 160 19:57 22.01.2020
4195 Clouds 28 1008 74 10000 6.7 160 19:39 22.01.2020
4196 Clouds 28 1008 74 10000 6.7 160 19:19 22.01.2020
4197 Clouds 29 1008 74 10000 5.7 160 18:57 22.01.2020
4198 Clouds 29 1008 74 10000 5.7 160 18:38 22.01.2020
4199 Clouds 29 1008 74 10000 5.7 160 18:20 22.01.2020
4200 Clouds 29 1009 74 10000 6.2 160 17:55 22.01.2020
4201 Clouds 29 1009 74 10000 6.2 160 17:37 22.01.2020
4202 Clouds 29 1009 74 10000 6.2 160 17:19 22.01.2020
4203 Clouds 28 1009 74 10000 6.2 160 16:43 22.01.2020
4204 Clouds 28 1009 74 10000 6.2 160 16:23 22.01.2020
4205 Clouds 28 1010 69 10000 5.1 150 15:59 22.01.2020
4206 Clouds 28 1010 69 10000 5.1 150 15:40 22.01.2020
4207 Clouds 28 1010 69 10000 5.1 150 15:22 22.01.2020
4208 Clouds 28 1010 69 10000 3.1 140 14:57 22.01.2020
4209 Clouds 28 1010 69 10000 3.1 140 14:37 22.01.2020
4210 Clouds 28 1010 69 10000 3.1 140 14:18 22.01.2020
4211 Clouds 27 1010 69 10000 1.5 120 13:55 22.01.2020
4212 Clouds 26 1010 78 10000 2.1 20 13:36 22.01.2020
4213 Clouds 26 1010 78 10000 2.1 20 13:36 22.01.2020
4214 Clouds 26 1010 78 10000 2.1 20 13:18 22.01.2020
4215 Clouds 25 1010 83 10000 2.6 10 12:55 22.01.2020
4216 Clouds 25 1010 83 10000 2.6 10 12:37 22.01.2020
4217 Clouds 25 1010 83 10000 2.6 10 12:18 22.01.2020
4218 Clouds 23 1009 88 10000 2.6 40 11:56 22.01.2020
4219 Clouds 23 1009 88 10000 2.6 40 11:37 22.01.2020
4220 Clouds 23 1009 88 10000 2.6 40 11:18 22.01.2020
4221 Clouds 21 1009 88 10000 2.1 360 10:44 22.01.2020
4222 Clouds 21 1009 88 10000 3.1 360 10:21 22.01.2020
4223 Clouds 22 1008 88 10000 2.6 20 09:44 22.01.2020
4224 Clouds 22 1008 88 10000 2.6 20 09:26 22.01.2020
4225 Clear 21 1008 88 10000 2.6 360 08:59 22.01.2020
4226 Clear 21 1008 88 10000 2.6 360 08:40 22.01.2020
4227 Clouds 21 1008 88 10000 2.6 360 08:21 22.01.2020
4228 Clouds 22 1008 78 10000 2.1 360 07:58 22.01.2020
4229 Clouds 22 1008 78 10000 2.1 360 07:40 22.01.2020
4230 Clouds 22 1008 78 10000 2.1 360 07:21 22.01.2020
4231 Clouds 22 1009 78 10000 1 150 06:31 22.01.2020
4232 Clouds 22 1010 83 10000 1.5 80 05:42 22.01.2020
4233 Clouds 23 1011 78 10000 1 40 04:23 22.01.2020
4234 Clouds 23 1011 78 10000 1 40 03:26 22.01.2020
4235 Clouds 24 1011 78 10000 2.1 30 02:32 22.01.2020
4236 Clouds 25 1010 78 10000 3.1 140 00:46 22.01.2020
4237 Clouds 25 1010 78 10000 3.1 140 00:27 22.01.2020
4238 Clouds 25 1010 83 10000 3.6 140 23:55 21.01.2020
4239 Clouds 25 1010 83 10000 3.6 140 23:36 21.01.2020
4240 Clouds 25 1010 83 10000 3.6 140 23:18 21.01.2020
4241 Clouds 26 1009 78 10000 4.1 160 22:40 21.01.2020
4242 Clouds 26 1009 78 10000 4.1 160 22:20 21.01.2020
4243 Clouds 26 1009 78 10000 4.1 160 22:20 21.01.2020
4244 Clouds 26 1009 74 10000 5.7 160 21:57 21.01.2020
4245 Clouds 26 1009 74 10000 5.7 160 21:38 21.01.2020
4246 Clouds 27 1008 78 10000 5.1 160 21:20 21.01.2020
4247 Clouds 27 1008 78 10000 5.1 160 20:56 21.01.2020
4248 Clouds 27 1008 78 10000 5.1 160 20:37 21.01.2020
4249 Clouds 27 1008 78 10000 5.1 160 20:18 21.01.2020
4250 Clouds 27 1008 78 10000 4.6 150 19:56 21.01.2020
4251 Clouds 27 1008 78 10000 4.6 150 19:37 21.01.2020
4252 Clouds 27 1008 78 10000 4.6 150 19:19 21.01.2020
4253 Clouds 28 1009 74 10000 5.1 150 18:55 21.01.2020
4254 Clouds 28 1009 74 10000 5.1 150 18:37 21.01.2020
4255 Clouds 28 1009 65 10000 5.1 160 18:18 21.01.2020
4256 Clouds 28 1009 65 10000 5.1 160 17:44 21.01.2020
4257 Clouds 28 1009 65 10000 5.1 160 17:20 21.01.2020
4258 Clouds 28 1010 74 10000 3.6 160 16:58 21.01.2020
4259 Clouds 28 1010 74 10000 3.6 160 16:37 21.01.2020
4260 Clouds 28 1010 74 10000 3.6 160 16:19 21.01.2020
4261 Clouds 27 1010 78 10000 2.1 360 15:42 21.01.2020
4262 Clouds 27 1010 78 10000 2.1 360 15:21 21.01.2020
4263 Clouds 26 1011 78 10000 1.5 20 14:59 21.01.2020
4264 Clouds 26 1011 78 10000 1.5 20 14:38 21.01.2020
4265 Clouds 26 1011 78 10000 1.5 20 14:19 21.01.2020
4266 Clouds 25 1011 83 10000 2.1 350 13:40 21.01.2020
4267 Clouds 25 1011 83 10000 2.1 350 13:19 21.01.2020
4268 Clouds 24 1011 83 10000 2.6 20 12:44 21.01.2020
4269 Clouds 24 1011 83 10000 2.6 20 12:25 21.01.2020
4270 Clouds 23 1011 83 10000 3.6 10 11:57 21.01.2020
4271 Clouds 23 1011 83 10000 3.6 10 11:39 21.01.2020
4272 Clouds 23 1011 83 10000 3.6 10 11:21 21.01.2020
4273 Clouds 23 1009 73 10000 1.5 260 10:55 21.01.2020
4274 Clouds 23 1009 73 10000 1.5 260 10:37 21.01.2020
4275 Clouds 23 1009 73 10000 1.5 260 10:18 21.01.2020
4276 Clouds 22 1009 83 10000 2.1 50 09:41 21.01.2020
4277 Clouds 22 1009 83 10000 2.1 50 09:22 21.01.2020
4278 Clouds 22 1009 83 10000 2.1 150 08:49 21.01.2020
4279 Clouds 22 1009 83 10000 2.1 150 08:29 21.01.2020
4280 Clouds 22 1009 83 10000 1 160 07:59 21.01.2020
4281 Clouds 22 1009 83 10000 1 160 07:39 21.01.2020
4282 Clouds 22 1009 83 10000 1 160 07:21 21.01.2020
4283 Clouds 23 1010 88 10000 4.1 100 06:48 21.01.2020
4284 Clouds 23 1010 88 10000 4.1 100 06:26 21.01.2020
4285 Clouds 23 1011 83 10000 2.1 140 05:42 21.01.2020
4286 Clouds 23 1011 88 10000 3.6 150 04:39 21.01.2020
4287 Rain 23 1012 78 10000 2.6 160 02:56 21.01.2020
4288 Rain 23 1012 78 10000 2.6 170 01:53 21.01.2020
4289 Rain 23 1012 78 10000 2.6 170 01:18 21.01.2020
4290 Rain 24 1012 78 10000 3.1 170 00:36 21.01.2020
4291 Clouds 25 1011 69 10000 4.1 170 23:59 20.01.2020
4292 Clouds 25 1011 69 10000 4.1 170 23:38 20.01.2020
4293 Clouds 26 1011 73 10000 4.6 160 23:19 20.01.2020
4294 Clouds 26 1011 73 10000 4.6 160 22:56 20.01.2020
4295 Clouds 26 1011 73 10000 4.6 160 22:37 20.01.2020
4296 Clouds 26 1011 73 10000 4.6 160 22:19 20.01.2020
4297 Clouds 26 1011 73 10000 4.6 160 21:57 20.01.2020
4298 Clouds 26 1011 73 10000 4.6 160 21:37 20.01.2020
4299 Clouds 26 1011 73 10000 4.6 160 21:19 20.01.2020
4300 Clouds 26 1011 69 10000 5.7 160 20:55 20.01.2020
4301 Clouds 26 1011 69 10000 5.7 160 20:36 20.01.2020
4302 Clouds 26 1011 69 10000 5.7 160 20:18 20.01.2020
4303 Clouds 27 1011 69 10000 5.1 160 19:56 20.01.2020
4304 Clouds 27 1011 69 10000 5.1 160 19:37 20.01.2020
4305 Clouds 27 1011 69 10000 5.1 160 19:18 20.01.2020
4306 Clouds 27 1012 69 10000 5.1 160 18:43 20.01.2020
4307 Clouds 27 1012 69 10000 5.1 160 18:22 20.01.2020
4308 Clouds 27 1012 69 10000 4.1 160 17:41 20.01.2020
4309 Clouds 27 1012 69 10000 4.1 160 17:20 20.01.2020
4310 Clouds 27 1013 57 10000 5.1 160 17:20 20.01.2020
4311 Clouds 27 1013 57 10000 5.1 160 16:59 20.01.2020
4312 Clouds 27 1013 57 10000 5.1 160 16:37 20.01.2020
4313 Clouds 27 1013 57 10000 5.1 160 16:18 20.01.2020
4314 Clouds 27 1013 57 10000 5.1 160 16:18 20.01.2020
4315 Clouds 27 1014 69 10000 5.1 150 15:56 20.01.2020
4316 Clouds 27 1014 69 10000 5.1 150 15:38 20.01.2020
4317 Clouds 26 1014 78 10000 3.6 140 15:20 20.01.2020
4318 Clouds 26 1014 78 10000 3.6 140 14:41 20.01.2020
4319 Clouds 26 1014 78 10000 3.6 140 14:22 20.01.2020
4320 Clouds 26 1014 73 10000 2.1 140 13:58 20.01.2020
4321 Clouds 26 1014 73 10000 2.1 140 13:40 20.01.2020
4322 Clouds 26 1014 73 10000 2.1 140 13:21 20.01.2020
4323 Clouds 25 1014 73 10000 1 100 12:46 20.01.2020
4324 Clouds 25 1014 73 10000 1 100 12:28 20.01.2020
4325 Clouds 24 1014 83 10000 1 130 11:58 20.01.2020
4326 Clouds 24 1014 83 10000 1 130 11:39 20.01.2020
4327 Clouds 24 1014 83 10000 1 130 11:20 20.01.2020
4328 Clouds 23 1013 78 10000 1.38 39 10:48 20.01.2020
4329 Clouds 23 1013 78 10000 1.38 39 10:22 20.01.2020
4330 Clouds 22 1013 83 10000 6.2 170 09:57 20.01.2020
4331 Clouds 22 1013 83 10000 6.2 170 09:39 20.01.2020
4332 Clouds 22 1013 83 10000 6.2 170 09:20 20.01.2020
4333 Clouds 23 1013 78 10000 1 160 08:44 20.01.2020
4334 Clouds 23 1013 78 10000 1 160 08:26 20.01.2020
4335 Clouds 23 1013 78 10000 1.5 100 07:45 20.01.2020
4336 Clouds 23 1013 78 10000 1.5 100 07:25 20.01.2020
4337 Clouds 23 1013 78 10000 2.1 150 06:54 20.01.2020
4338 Clouds 23 1013 78 10000 2.1 150 06:28 20.01.2020
4339 Clouds 23 1014 78 10000 2.1 50 05:43 20.01.2020
4340 Clouds 23 1014 78 10000 2.1 50 05:22 20.01.2020
4341 Clouds 24 1015 78 10000 2.1 100 04:47 20.01.2020
4342 Clouds 24 1016 83 10000 3.1 110 02:58 20.01.2020
4343 Clouds 25 1015 73 10000 3.1 120 01:55 20.01.2020
4344 Clouds 25 1015 73 10000 3.1 120 01:37 20.01.2020
4345 Clouds 25 1015 73 10000 4.1 140 00:45 20.01.2020
4346 Clouds 25 1015 73 10000 4.1 140 00:24 20.01.2020
4347 Clouds 25 1015 73 10000 5.7 150 23:39 19.01.2020
4348 Clouds 25 1015 73 10000 5.7 150 23:20 19.01.2020
4349 Clouds 25 1015 73 10000 5.7 150 23:20 19.01.2020
4350 Clouds 26 1014 73 10000 5.1 170 22:57 19.01.2020
4351 Clouds 26 1014 73 10000 5.1 170 22:39 19.01.2020
4352 Clouds 26 1014 73 10000 5.1 170 22:39 19.01.2020
4353 Clouds 26 1014 73 10000 5.1 170 22:20 19.01.2020
4354 Clouds 26 1014 73 10000 5.1 170 22:20 19.01.2020
4355 Clouds 27 1014 78 10000 5.1 160 21:57 19.01.2020
4356 Clouds 27 1014 78 10000 5.1 160 21:39 19.01.2020
4357 Clouds 27 1014 78 10000 5.1 160 21:20 19.01.2020
4358 Clouds 27 1014 78 10000 5.7 160 20:57 19.01.2020
4359 Clouds 27 1014 78 10000 5.7 160 20:39 19.01.2020
4360 Clouds 27 1014 78 10000 5.7 160 20:21 19.01.2020
4361 Clouds 28 1015 74 10000 6.2 160 19:57 19.01.2020
4362 Clouds 28 1015 74 10000 6.2 160 19:39 19.01.2020
4363 Clouds 28 1015 74 10000 6.2 160 19:21 19.01.2020
4364 Clouds 28 1015 74 10000 6.2 160 18:59 19.01.2020
4365 Clouds 28 1015 74 10000 6.2 160 18:41 19.01.2020
4366 Clouds 28 1015 74 10000 6.2 160 18:21 19.01.2020
4367 Clouds 28 1016 69 10000 5.1 170 17:58 19.01.2020
4368 Clouds 28 1016 69 10000 5.1 170 17:40 19.01.2020
4369 Clouds 28 1016 69 10000 5.1 170 17:21 19.01.2020
4370 Clouds 28 1016 69 10000 5.7 160 16:59 19.01.2020
4371 Clouds 28 1016 69 10000 5.7 160 16:40 19.01.2020
4372 Clouds 28 1016 69 10000 5.7 160 16:40 19.01.2020
4373 Clouds 28 1016 69 10000 5.7 160 16:22 19.01.2020
4374 Clouds 27 1017 69 10000 4.1 160 15:59 19.01.2020
4375 Clouds 27 1017 69 10000 4.1 160 15:40 19.01.2020
4376 Clouds 27 1017 69 10000 4.1 160 15:21 19.01.2020
4377 Clouds 27 1017 65 10000 3.6 160 14:59 19.01.2020
4378 Clouds 27 1017 65 10000 3.6 160 14:40 19.01.2020
4379 Clouds 27 1017 65 10000 3.6 160 14:19 19.01.2020
4380 Clouds 26 1017 73 10000 1 130 13:58 19.01.2020
4381 Clouds 26 1017 73 10000 1 130 13:38 19.01.2020
4382 Clouds 26 1017 73 10000 1 130 13:20 19.01.2020
4383 Clouds 24 1017 78 10000 1 40 12:58 19.01.2020
4384 Clouds 24 1017 78 10000 1 40 12:40 19.01.2020
4385 Clouds 24 1017 78 10000 1 40 12:21 19.01.2020
4386 Clouds 23 1017 73 10000 1 40 11:56 19.01.2020
4387 Clouds 23 1017 73 10000 1 40 11:37 19.01.2020
4388 Clouds 23 1017 73 10000 1 40 11:18 19.01.2020
4389 Clouds 23 1016 73 10000 1.5 80 10:39 19.01.2020
4390 Clouds 23 1016 73 10000 1.5 80 10:39 19.01.2020
4391 Clouds 23 1016 73 10000 1.5 80 10:20 19.01.2020
4392 Clouds 23 1016 73 10000 1.5 100 09:57 19.01.2020
4393 Clouds 23 1016 73 10000 1.5 100 09:57 19.01.2020
4394 Clouds 23 1016 73 10000 1.5 100 09:38 19.01.2020
4395 Clouds 23 1016 73 10000 1.5 100 09:19 19.01.2020
4396 Clouds 23 1016 73 10000 1.5 80 08:55 19.01.2020
4397 Clouds 23 1016 73 10000 1.5 80 08:32 19.01.2020
4398 Clouds 23 1016 73 10000 1.5 60 07:55 19.01.2020
4399 Clouds 23 1016 73 10000 1.5 60 07:29 19.01.2020
4400 Clouds 23 1016 78 10000 1 90 06:55 19.01.2020
4401 Clouds 23 1016 78 10000 1 90 06:22 19.01.2020
4402 Clouds 23 1018 83 10000 2.6 30 03:58 19.01.2020
4403 Clouds 24 1018 78 10000 2.1 50 02:34 19.01.2020
4404 Clouds 24 1018 78 10000 1 60 01:42 19.01.2020
4405 Clouds 24 1018 78 10000 1 60 01:20 19.01.2020
4406 Clouds 24 1018 69 10000 3.6 110 00:44 19.01.2020
4407 Clouds 25 1018 69 10000 3.6 120 00:21 19.01.2020
4408 Clouds 25 1018 69 10000 3.6 120 23:54 18.01.2020
4409 Clouds 25 1018 69 10000 3.6 120 23:36 18.01.2020
4410 Clouds 25 1018 69 10000 3.6 120 23:18 18.01.2020
4411 Clouds 25 1017 73 10000 3.1 140 22:41 18.01.2020
4412 Clouds 25 1017 73 10000 3.1 140 22:23 18.01.2020
4413 Clouds 25 1018 73 10000 4.6 160 21:58 18.01.2020
4414 Clouds 25 1018 73 10000 4.6 160 21:39 18.01.2020
4415 Clouds 25 1018 73 10000 5.1 170 21:20 18.01.2020
4416 Clouds 25 1018 73 10000 5.1 170 20:57 18.01.2020
4417 Clouds 25 1018 73 10000 5.1 170 20:39 18.01.2020
4418 Clouds 25 1018 73 10000 5.1 170 20:19 18.01.2020
4419 Clouds 25 1018 73 10000 4.1 170 19:43 18.01.2020
4420 Clouds 25 1018 73 10000 4.1 170 19:24 18.01.2020
4421 Clouds 25 1018 83 10000 2.1 20 18:54 18.01.2020
4422 Clouds 25 1018 83 10000 2.1 20 18:36 18.01.2020
4423 Clouds 25 1018 83 10000 2.1 20 18:18 18.01.2020
4424 Clouds 25 1019 78 7000 1 20 17:41 18.01.2020
4425 Clouds 25 1019 78 7000 1 20 17:21 18.01.2020
4426 Clouds 24 1019 88 10000 2.6 340 16:57 18.01.2020
4427 Clouds 24 1019 88 10000 2.6 340 16:38 18.01.2020
4428 Clouds 24 1019 83 10000 1.5 30 16:20 18.01.2020
4429 Clouds 24 1019 83 10000 1.5 30 15:56 18.01.2020
4430 Clouds 24 1019 83 10000 1.5 30 15:38 18.01.2020
4431 Clouds 24 1019 83 10000 1.5 30 15:20 18.01.2020
4432 Clouds 24 1020 83 10000 1.5 90 14:41 18.01.2020
4433 Clouds 24 1020 83 10000 1.5 90 14:19 18.01.2020
4434 Clouds 23 1020 88 10000 2.1 20 13:57 18.01.2020
4435 Clouds 23 1020 88 10000 2.1 20 13:37 18.01.2020
4436 Clouds 23 1020 88 10000 2.1 20 13:18 18.01.2020
4437 Clouds 23 1020 83 10000 1.5 360 12:43 18.01.2020
4438 Clouds 23 1020 83 10000 1.5 360 12:22 18.01.2020
4439 Clouds 22 1020 88 10000 1.5 10 11:58 18.01.2020
4440 Clouds 22 1020 88 10000 1.5 10 11:40 18.01.2020
4441 Clouds 22 1020 88 10000 1.5 10 11:20 18.01.2020
4442 Clouds 21 1019 94 10000 1 300 10:43 18.01.2020
4443 Clouds 21 1019 94 10000 1 300 10:22 18.01.2020
4444 Mist 22 1019 94 5000 2.1 320 09:57 18.01.2020
4445 Drizzle 22 1018 83 4000 1 0 09:39 18.01.2020
4446 Drizzle 22 1018 83 4000 1 0 09:19 18.01.2020
4447 Clouds 21 1018 94 10000 1 230 08:42 18.01.2020
4448 Clouds 21 1018 94 10000 1 230 08:20 18.01.2020
4449 Clouds 21 1018 94 10000 1 190 07:58 18.01.2020
4450 Clouds 21 1018 94 10000 1 190 07:37 18.01.2020
4451 Drizzle 21 1019 94 3500 4.6 150 06:52 18.01.2020
4452 Drizzle 21 1019 94 3500 4.6 150 06:33 18.01.2020
4453 Drizzle 22 1019 94 4000 1.5 130 05:49 18.01.2020
4454 Drizzle 22 1020 88 7000 3.1 160 04:25 18.01.2020
4455 Drizzle 22 1020 88 5000 3.6 170 02:34 18.01.2020
4456 Rain 23 1019 78 7000 4.1 210 01:40 18.01.2020
4457 Rain 24 1019 78 8000 3.6 210 00:39 18.01.2020
4458 Rain 24 1019 78 8000 3.6 210 00:20 18.01.2020
4459 Clouds 24 1018 73 8000 4.1 150 23:58 17.01.2020
4460 Clouds 24 1018 73 8000 4.1 150 23:39 17.01.2020
4461 Clouds 24 1018 73 8000 4.1 150 23:18 17.01.2020
4462 Clouds 25 1018 73 6000 5.7 190 22:41 17.01.2020
4463 Clouds 25 1018 73 6000 5.7 190 22:20 17.01.2020
4464 Rain 25 1017 83 6000 7.2 200 21:56 17.01.2020
4465 Rain 25 1017 83 6000 7.2 200 21:37 17.01.2020
4466 Rain 25 1017 83 6000 7.2 200 21:19 17.01.2020
4467 Rain 25 1017 69 8000 4.1 190 20:43 17.01.2020
4468 Rain 25 1017 69 8000 4.1 190 20:21 17.01.2020
4469 Rain 24 1017 94 4000 5.7 190 19:58 17.01.2020
4470 Rain 24 1017 94 4000 5.7 190 19:39 17.01.2020
4471 Rain 24 1017 94 4000 5.7 190 19:20 17.01.2020
4472 Rain 24 1017 88 3000 7.7 200 18:58 17.01.2020
4473 Rain 24 1017 88 3000 7.7 200 18:40 17.01.2020
4474 Rain 24 1017 88 3000 7.7 200 18:21 17.01.2020
4475 Rain 24 1016 94 4000 7.2 190 17:40 17.01.2020
4476 Rain 24 1016 94 4000 7.2 190 17:22 17.01.2020
4477 Drizzle 25 1016 94 2000 5.7 190 16:57 17.01.2020
4478 Drizzle 25 1016 94 2000 5.7 190 16:39 17.01.2020
4479 Drizzle 25 1016 94 2000 5.7 190 16:19 17.01.2020
4480 Rain 24 1017 94 2000 2.6 200 15:45 17.01.2020
4481 Rain 24 1017 94 2000 2.6 200 15:26 17.01.2020
4482 Rain 25 1016 88 4000 4.1 210 14:54 17.01.2020
4483 Rain 25 1016 88 4000 4.1 210 14:36 17.01.2020
4484 Rain 25 1016 88 4000 4.1 210 14:18 17.01.2020
4485 Drizzle 25 1016 94 4500 3.6 190 13:38 17.01.2020
4486 Drizzle 25 1016 94 4500 3.6 190 13:19 17.01.2020
4487 Rain 25 1015 88 9000 4.1 160 12:44 17.01.2020
4488 Rain 25 1015 88 9000 4.1 160 12:22 17.01.2020
4489 Rain 24 1015 88 3500 6.7 180 11:40 17.01.2020
4490 Rain 24 1015 88 3500 6.7 180 11:19 17.01.2020
4491 Rain 25 1014 94 4000 5.7 150 10:45 17.01.2020
4492 Rain 25 1014 94 4000 5.7 150 10:23 17.01.2020
4493 Drizzle 26 1013 88 4000 7.7 170 09:59 17.01.2020
4494 Clouds 26 1013 88 10000 3.6 190 09:41 17.01.2020
4495 Clouds 26 1013 88 10000 3.6 190 09:20 17.01.2020
4496 Clouds 26 1012 88 10000 3.6 170 08:46 17.01.2020
4497 Clouds 26 1012 88 10000 3.6 170 08:26 17.01.2020
4498 Clouds 27 1012 78 10000 5.1 200 07:56 17.01.2020
4499 Clouds 27 1012 78 10000 5.1 200 07:36 17.01.2020
4500 Clouds 27 1012 78 10000 5.1 200 07:18 17.01.2020
4501 Clouds 28 1012 78 10000 7.2 200 06:43 17.01.2020
4502 Clouds 28 1013 83 10000 6.2 210 05:59 17.01.2020
4503 Rain 27 1014 83 0 4.26 244 04:25 17.01.2020
4504 Rain 27 1014 83 0 4.26 244 02:55 17.01.2020
4505 Rain 27 1014 83 0 4.26 244 02:28 17.01.2020
4506 Clouds 28 1013 80 0 2.4 227 01:32 17.01.2020
4507 Clouds 28 1013 81 0 2.58 234 00:58 17.01.2020
4508 Clouds 31 1010 66 10000 3.1 150 00:29 17.01.2020
4509 Clouds 30 1010 66 10000 3.1 150 23:54 16.01.2020
4510 Clouds 30 1010 66 10000 3.1 150 23:36 16.01.2020
4511 Clouds 30 1010 66 10000 3.1 150 23:18 16.01.2020
4512 Clouds 32 1009 78 10000 5.1 140 22:40 16.01.2020
4513 Clouds 32 1009 78 10000 5.1 140 22:21 16.01.2020
4514 Rain 33 1008 66 10000 5.1 150 21:56 16.01.2020
4515 Rain 33 1008 66 10000 5.1 150 21:37 16.01.2020
4516 Rain 34 1008 66 10000 5.1 150 21:18 16.01.2020
4517 Rain 35 1008 66 10000 5.7 140 20:56 16.01.2020
4518 Rain 35 1008 66 10000 5.7 140 20:37 16.01.2020
4519 Rain 35 1008 66 10000 5.7 140 20:18 16.01.2020
4520 Clouds 35 1008 66 10000 6.2 150 19:55 16.01.2020
4521 Clouds 35 1008 66 10000 6.2 150 19:36 16.01.2020
4522 Clouds 35 1008 66 10000 6.2 150 19:18 16.01.2020
4523 Clouds 34 1009 70 10000 5.7 150 18:55 16.01.2020
4524 Clouds 34 1009 70 10000 5.7 150 18:36 16.01.2020
4525 Clouds 34 1009 70 10000 5.7 150 18:18 16.01.2020
4526 Clouds 34 1009 70 10000 6.2 150 17:41 16.01.2020
4527 Clouds 34 1009 70 10000 6.2 150 17:41 16.01.2020
4528 Clouds 35 1009 70 10000 6.2 150 17:22 16.01.2020
4529 Clouds 35 1009 66 10000 2.6 120 16:57 16.01.2020
4530 Clouds 36 1009 63 10000 2.1 10 16:38 16.01.2020
4531 Clouds 36 1009 63 10000 2.1 10 16:19 16.01.2020
4532 Clouds 34 1010 70 10000 3.1 350 15:44 16.01.2020
4533 Clouds 35 1010 70 10000 3.1 350 15:22 16.01.2020
4534 Clouds 32 1011 78 10000 4.1 360 14:57 16.01.2020
4535 Clouds 32 1011 78 10000 4.1 360 14:38 16.01.2020
4536 Clouds 32 1011 78 10000 4.1 360 14:20 16.01.2020
4537 Clouds 30 1011 74 10000 3.6 330 13:44 16.01.2020
4538 Clouds 30 1011 74 10000 3.6 330 13:25 16.01.2020
4539 Clouds 29 1011 83 10000 3.6 350 12:47 16.01.2020
4540 Clouds 29 1011 83 10000 3.6 350 12:28 16.01.2020
4541 Clouds 27 1011 74 10000 3.6 340 11:59 16.01.2020
4542 Clouds 27 1011 74 10000 3.6 340 11:40 16.01.2020
4543 Clouds 27 1011 74 10000 3.6 340 11:22 16.01.2020
4544 Clouds 25 1010 88 10000 3.1 360 10:40 16.01.2020
4545 Clouds 25 1010 88 10000 3.1 360 10:22 16.01.2020
4546 Clouds 25 1010 88 10000 2.6 340 09:59 16.01.2020
4547 Clouds 25 1010 88 10000 2.6 340 09:41 16.01.2020
4548 Clouds 25 1010 88 10000 2.6 340 09:23 16.01.2020
4549 Clouds 25 1009 83 10000 1 350 08:55 16.01.2020
4550 Clouds 25 1009 83 10000 1 350 08:36 16.01.2020
4551 Clear 25 1009 83 10000 1 350 08:18 16.01.2020
4552 Clear 24 1010 83 10000 0.5 200 07:42 16.01.2020
4553 Clear 24 1010 83 10000 0.5 200 07:23 16.01.2020
4554 Clear 25 1010 83 10000 1.5 360 06:48 16.01.2020
4555 Clear 25 1010 83 10000 1.5 360 06:28 16.01.2020
4556 Clear 25 1010 83 10000 2.1 360 05:46 16.01.2020
4557 Clear 25 1011 83 10000 1 10 04:46 16.01.2020
4558 Clear 26 1011 78 10000 0.5 20 03:29 16.01.2020
4559 Clear 26 1011 78 10000 1 10 02:46 16.01.2020
4560 Clear 26 1011 74 10000 1 60 01:32 16.01.2020
4561 Clear 26 1011 74 10000 2.1 100 00:43 16.01.2020
4562 Clear 27 1011 74 10000 2.1 100 00:23 16.01.2020
4563 Clear 28 1010 78 10000 2.6 180 23:44 15.01.2020
4564 Clear 28 1010 78 10000 2.6 180 23:22 15.01.2020
4565 Clear 28 1010 78 10000 2.6 180 23:22 15.01.2020
4566 Clear 28 1010 78 10000 2.6 180 23:21 15.01.2020
4567 Clear 30 1010 74 10000 4.1 170 22:56 15.01.2020
4568 Clear 30 1010 74 10000 4.1 170 22:38 15.01.2020
4569 Clear 30 1010 74 10000 4.1 170 22:18 15.01.2020
4570 Clouds 31 1010 70 10000 3.6 160 21:56 15.01.2020
4571 Clouds 31 1010 70 10000 3.6 160 21:36 15.01.2020
4572 Clouds 31 1010 70 10000 3.6 160 21:18 15.01.2020
4573 Clouds 31 1010 66 10000 4.6 160 20:55 15.01.2020
4574 Clouds 31 1010 66 10000 4.6 160 20:37 15.01.2020
4575 Clouds 31 1010 66 10000 4.6 160 20:18 15.01.2020
4576 Clouds 31 1010 66 10000 4.6 150 19:54 15.01.2020
4577 Clouds 31 1010 66 10000 4.6 150 19:36 15.01.2020
4578 Clouds 31 1010 66 10000 4.6 150 19:18 15.01.2020
4579 Clouds 31 1011 66 10000 6.2 160 18:55 15.01.2020
4580 Clouds 32 1011 66 10000 6.2 160 18:37 15.01.2020
4581 Clouds 32 1011 66 10000 6.2 160 18:19 15.01.2020
4582 Clear 31 1011 65 10000 5.1 150 17:41 15.01.2020
4583 Clear 31 1011 65 10000 5.1 150 17:22 15.01.2020
4584 Clear 31 1012 65 10000 5.1 150 16:59 15.01.2020
4585 Clear 31 1012 65 10000 5.1 150 16:38 15.01.2020
4586 Clear 31 1012 65 10000 5.1 150 16:20 15.01.2020
4587 Clear 30 1013 58 10000 1 60 15:43 15.01.2020
4588 Clear 30 1013 58 10000 1 60 15:21 15.01.2020
4589 Clear 29 1013 61 10000 2.6 340 14:58 15.01.2020
4590 Clear 29 1013 61 10000 2.6 340 14:39 15.01.2020
4591 Clear 29 1013 61 10000 2.6 340 14:18 15.01.2020
4592 Clear 28 1014 61 10000 3.1 350 13:45 15.01.2020
4593 Clear 28 1014 61 10000 3.1 350 13:26 15.01.2020
4594 Clear 27 1014 61 10000 0.5 90 12:58 15.01.2020
4595 Clear 27 1014 61 10000 0.5 90 12:39 15.01.2020
4596 Clear 27 1014 61 10000 0.5 90 12:19 15.01.2020
4597 Clouds 26 1014 69 10000 2.1 120 11:56 15.01.2020
4598 Clouds 26 1014 69 10000 2.1 120 11:36 15.01.2020
4599 Clouds 26 1014 69 10000 2.1 120 11:18 15.01.2020
4600 Clouds 24 1013 73 10000 1.5 90 10:41 15.01.2020
4601 Clouds 24 1013 73 10000 1.5 90 10:23 15.01.2020
4602 Clouds 24 1013 73 10000 2.1 50 09:42 15.01.2020
4603 Clouds 24 1013 73 10000 2.1 50 09:22 15.01.2020
4604 Clear 24 1012 78 10000 2.6 110 08:56 15.01.2020
4605 Clear 24 1012 78 10000 2.6 110 08:37 15.01.2020
4606 Clouds 24 1012 78 10000 2.6 110 08:19 15.01.2020
4607 Clouds 24 1012 69 10000 2.1 40 07:50 15.01.2020
4608 Clouds 24 1012 69 10000 2.1 40 07:29 15.01.2020
4609 Clouds 25 1013 69 10000 3.1 360 06:44 15.01.2020
4610 Clouds 25 1013 69 10000 3.1 360 06:18 15.01.2020
4611 Clouds 25 1013 65 10000 4.58 61 04:34 15.01.2020
4612 Clouds 26 1015 65 10000 1.5 60 02:32 15.01.2020
4613 Clouds 26 1015 73 10000 3.1 110 01:27 15.01.2020
4614 Clouds 26 1015 74 10000 5.1 110 00:45 15.01.2020
4615 Clouds 26 1015 74 10000 5.1 110 00:26 15.01.2020
4616 Clouds 26 1014 69 10000 4.6 130 23:55 14.01.2020
4617 Clouds 26 1014 69 10000 4.6 130 23:36 14.01.2020
4618 Clouds 26 1014 69 10000 4.6 130 23:18 14.01.2020
4619 Clouds 27 1014 69 10000 4.6 140 22:41 14.01.2020
4620 Clouds 27 1014 69 10000 5.1 160 22:19 14.01.2020
4621 Clouds 27 1014 69 10000 5.1 160 21:58 14.01.2020
4622 Clouds 27 1014 69 10000 5.1 160 21:39 14.01.2020
4623 Clouds 27 1014 69 10000 5.1 160 21:21 14.01.2020
4624 Clouds 27 1014 69 10000 5.1 160 21:21 14.01.2020
4625 Clouds 28 1013 69 10000 5.7 160 20:58 14.01.2020
4626 Clouds 25 1014 74 0 5.72 99 20:40 14.01.2020
4627 Clouds 28 1014 65 10000 5.1 160 20:19 14.01.2020
4628 Clouds 28 1014 65 10000 5.1 160 19:56 14.01.2020
4629 Clouds 28 1014 65 10000 5.1 160 19:37 14.01.2020
4630 Clouds 28 1014 65 10000 5.1 160 19:18 14.01.2020
4631 Clouds 29 1014 69 10000 5.1 170 18:55 14.01.2020
4632 Clouds 25 1015 70 0 5.74 119 18:37 14.01.2020
4633 Clouds 29 1014 69 10000 5.1 160 18:18 14.01.2020
4634 Clouds 29 1014 69 10000 5.1 160 17:38 14.01.2020
4635 Clouds 29 1014 69 10000 5.1 160 17:19 14.01.2020
4636 Clouds 29 1015 65 10000 4.6 160 16:55 14.01.2020
4637 Clouds 29 1015 65 10000 4.6 160 16:37 14.01.2020
4638 Clouds 29 1015 65 10000 4.6 160 16:19 14.01.2020
4639 Clouds 28 1015 69 10000 2.6 150 15:42 14.01.2020
4640 Clouds 28 1015 69 10000 2.6 150 15:19 14.01.2020
4641 Clouds 27 1016 78 10000 1.5 10 14:47 14.01.2020
4642 Clouds 27 1016 78 10000 1.5 10 14:23 14.01.2020
4643 Clouds 27 1016 83 10000 2.1 360 13:59 14.01.2020
4644 Clouds 27 1016 83 10000 2.1 360 13:41 14.01.2020
4645 Clouds 27 1016 83 10000 2.1 360 13:19 14.01.2020
4646 Clouds 25 1016 83 8000 2.1 20 12:43 14.01.2020
4647 Clouds 25 1016 83 8000 2.1 20 12:24 14.01.2020
4648 Clouds 24 1015 88 7000 1.5 20 11:59 14.01.2020
4649 Clouds 24 1015 88 7000 1.5 20 11:40 14.01.2020
4650 Clouds 24 1015 88 7000 1.5 20 11:22 14.01.2020
4651 Clouds 24 1016 88 10000 1 0 10:56 14.01.2020
4652 Clouds 24 1015 83 10000 1.5 150 10:37 14.01.2020
4653 Clouds 24 1015 83 10000 1.5 150 10:19 14.01.2020
4654 Clouds 23 1014 88 10000 2.1 100 09:55 14.01.2020
4655 Clouds 23 1014 88 10000 2.1 100 09:37 14.01.2020
4656 Clouds 23 1014 88 10000 2.1 100 09:19 14.01.2020
4657 Clouds 23 1014 88 10000 1.5 90 08:41 14.01.2020
4658 Clouds 23 1014 88 10000 1.5 90 08:41 14.01.2020
4659 Clouds 23 1014 88 10000 1.5 90 08:22 14.01.2020
4660 Clouds 24 1014 83 10000 1.5 140 07:51 14.01.2020
4661 Clouds 24 1014 83 10000 1.5 140 07:25 14.01.2020
4662 Clouds 24 1014 88 10000 1.5 180 06:44 14.01.2020
4663 Clouds 24 1014 88 10000 1.5 180 06:18 14.01.2020
4664 Clouds 24 1015 88 10000 2.1 170 04:56 14.01.2020
4665 Clouds 24 1015 83 10000 2.1 160 03:48 14.01.2020
4666 Clouds 25 1015 83 9000 2.6 180 02:40 14.01.2020
4667 Rain 25 1015 88 7000 2.6 140 01:31 14.01.2020
4668 Rain 25 1015 88 5000 3.6 200 00:49 14.01.2020
4669 Rain 25 1015 88 5000 3.6 200 00:26 14.01.2020
4670 Rain 25 1014 88 4000 3.6 170 23:47 13.01.2020
4671 Rain 25 1014 88 4000 3.6 170 23:19 13.01.2020
4672 Clouds 25 1013 78 10000 2.6 150 22:59 13.01.2020
4673 Clouds 25 1013 78 10000 2.6 150 22:40 13.01.2020
4674 Clouds 25 1013 78 10000 2.6 150 22:20 13.01.2020
4675 Clouds 26 1013 78 10000 2.1 150 21:56 13.01.2020
4676 Clouds 26 1013 78 10000 2.1 150 21:37 13.01.2020
4677 Clouds 26 1013 78 10000 2.1 150 21:37 13.01.2020
4678 Clouds 26 1013 78 10000 2.1 150 21:18 13.01.2020
4679 Clouds 27 1013 83 10000 1.5 140 20:56 13.01.2020
4680 Clouds 27 1013 83 10000 1.5 140 20:38 13.01.2020
4681 Clouds 27 1013 83 10000 1.5 140 20:20 13.01.2020
4682 Clouds 27 1013 78 10000 1.5 140 19:56 13.01.2020
4683 Clouds 27 1013 78 10000 1.5 140 19:38 13.01.2020
4684 Clouds 27 1013 78 10000 1.5 140 19:18 13.01.2020
4685 Clouds 27 1014 83 10000 1.5 110 18:56 13.01.2020
4686 Clouds 27 1014 83 10000 1.5 110 18:37 13.01.2020
4687 Clouds 27 1014 83 10000 1.5 110 18:18 13.01.2020
4688 Clouds 26 1014 88 10000 1.5 100 17:40 13.01.2020
4689 Clouds 26 1014 88 10000 1.5 100 17:40 13.01.2020
4690 Clouds 26 1014 88 10000 1.5 100 17:22 13.01.2020
4691 Clouds 26 1014 88 10000 1.5 100 16:56 13.01.2020
4692 Rain 25 1015 88 0 1.59 212 16:38 13.01.2020
4693 Rain 25 1015 88 0 1.59 212 16:19 13.01.2020
4694 Rain 25 1015 88 0 1.59 212 15:44 13.01.2020
4695 Rain 25 1015 88 0 1.59 212 15:23 13.01.2020
4696 Rain 25 1015 88 0 1.59 212 14:58 13.01.2020
4697 Rain 25 1015 88 0 1.59 212 14:38 13.01.2020
4698 Rain 25 1015 90 0 3.68 202 14:19 13.01.2020
4699 Rain 25 1015 90 0 3.68 202 13:42 13.01.2020
4700 Rain 25 1015 90 0 3.68 202 13:24 13.01.2020
4701 Rain 25 1015 90 0 4.02 200 12:59 13.01.2020
4702 Rain 25 1014 94 4500 2.1 170 12:41 13.01.2020
4703 Rain 25 1014 94 4500 2.1 170 12:23 13.01.2020
4704 Rain 25 1014 94 4500 2.1 170 11:57 13.01.2020
4705 Rain 25 1014 94 4500 2.1 170 11:37 13.01.2020
4706 Rain 25 1013 94 2000 4.6 260 11:19 13.01.2020
4707 Rain 25 1013 94 2000 4.6 260 10:56 13.01.2020
4708 Rain 25 1012 94 3500 0.5 270 10:37 13.01.2020
4709 Rain 25 1012 94 3500 0.5 270 10:19 13.01.2020
4710 Rain 25 1012 88 4000 3.6 310 09:43 13.01.2020
4711 Rain 25 1012 88 4000 3.6 310 09:24 13.01.2020
4712 Clouds 25 1011 100 10000 1.5 360 08:57 13.01.2020
4713 Clouds 25 1011 100 10000 1.5 360 08:37 13.01.2020
4714 Rain 25 1012 88 4000 3.6 270 08:18 13.01.2020
4715 Rain 25 1011 88 4000 2.1 230 07:43 13.01.2020
4716 Rain 25 1011 88 4000 2.1 230 07:24 13.01.2020
4717 Rain 25 1012 94 3000 6.7 230 06:37 13.01.2020
4718 Rain 25 1012 94 3000 6.7 230 06:37 13.01.2020
4719 Rain 26 1012 94 6000 1 360 05:42 13.01.2020
4720 Rain 26 1012 94 6000 1 360 05:19 13.01.2020
4721 Clouds 27 1013 83 10000 2.1 80 03:44 13.01.2020
4722 Clouds 27 1013 78 10000 2.6 330 02:51 13.01.2020
4723 Clouds 27 1013 78 10000 2.6 330 02:30 13.01.2020
4724 Clouds 28 1012 70 10000 1.5 310 01:33 13.01.2020
4725 Clouds 28 1011 78 10000 2.6 50 00:55 13.01.2020
4726 Clouds 28 1011 78 10000 2.6 50 00:36 13.01.2020
4727 Clouds 28 1011 78 10000 2.6 50 00:18 13.01.2020
4728 Clouds 28 1011 83 10000 2.6 40 23:40 12.01.2020
4729 Clouds 28 1011 83 10000 2.6 40 23:22 12.01.2020
4730 Clouds 29 1011 66 10000 5.1 200 22:57 12.01.2020
4731 Clouds 29 1011 66 10000 5.1 200 22:39 12.01.2020
4732 Clouds 29 1011 66 10000 5.1 200 22:19 12.01.2020
4733 Clouds 30 1011 62 10000 4.1 200 21:54 12.01.2020
4734 Clouds 30 1011 62 10000 4.1 200 21:54 12.01.2020
4735 Clouds 30 1011 62 10000 4.1 200 21:36 12.01.2020
4736 Clouds 30 1011 62 10000 4.1 200 21:18 12.01.2020
4737 Clouds 30 1010 59 10000 6.7 210 20:54 12.01.2020
4738 Clouds 30 1010 59 10000 6.7 210 20:36 12.01.2020
4739 Clouds 30 1010 59 10000 6.7 210 20:18 12.01.2020
4740 Clouds 31 1010 66 10000 5.7 200 19:54 12.01.2020
4741 Clouds 31 1010 66 10000 5.7 200 19:36 12.01.2020
4742 Clouds 31 1010 66 10000 5.7 200 19:18 12.01.2020
4743 Clouds 31 1011 62 10000 6.7 200 18:54 12.01.2020
4744 Clouds 31 1011 62 10000 6.7 200 18:36 12.01.2020
4745 Clouds 31 1011 62 10000 6.7 200 18:18 12.01.2020
4746 Clouds 31 1011 70 10000 6.7 210 17:42 12.01.2020
4747 Clouds 31 1011 70 10000 6.7 210 17:20 12.01.2020
4748 Clouds 31 1012 66 10000 6.7 200 16:57 12.01.2020
4749 Clouds 31 1012 66 10000 6.7 200 16:38 12.01.2020
4750 Clouds 31 1012 66 10000 6.7 200 16:19 12.01.2020
4751 Clouds 31 1011 62 10000 6.2 200 15:55 12.01.2020
4752 Clouds 31 1011 62 10000 6.2 200 15:36 12.01.2020
4753 Clouds 31 1011 62 10000 6.2 200 15:18 12.01.2020
4754 Clouds 31 1011 70 10000 3.1 360 14:42 12.01.2020
4755 Clouds 31 1011 70 10000 3.1 360 14:22 12.01.2020
4756 Rain 31 1011 79 10000 3.1 20 13:56 12.01.2020
4757 Rain 31 1011 79 10000 3.1 20 13:38 12.01.2020
4758 Rain 31 1011 79 10000 3.1 20 13:20 12.01.2020
4759 Rain 31 1011 83 10000 3.1 10 12:44 12.01.2020
4760 Rain 31 1011 83 10000 3.1 10 12:21 12.01.2020
4761 Rain 29 1010 79 10000 0.5 200 11:59 12.01.2020
4762 Rain 29 1010 79 10000 0.5 200 11:59 12.01.2020
4763 Rain 29 1010 79 10000 0.5 200 11:40 12.01.2020
4764 Rain 29 1010 79 10000 0.5 200 11:22 12.01.2020
4765 Rain 27 1009 88 10000 1.5 150 10:56 12.01.2020
4766 Rain 27 1009 88 10000 1.5 150 10:37 12.01.2020
4767 Rain 27 1009 88 10000 1.5 150 10:18 12.01.2020
4768 Rain 26 1008 88 10000 1 120 09:41 12.01.2020
4769 Rain 26 1008 88 10000 1 120 09:22 12.01.2020
4770 Rain 26 1008 94 10000 1.5 60 08:48 12.01.2020
4771 Rain 26 1008 94 10000 1.5 60 08:24 12.01.2020
4772 Rain 26 1008 94 10000 2.6 20 07:47 12.01.2020
4773 Rain 26 1008 94 10000 2.6 20 07:26 12.01.2020
4774 Rain 26 1008 94 10000 2.6 20 07:26 12.01.2020
4775 Rain 27 1008 74 10000 3.1 330 06:59 12.01.2020
4776 Rain 27 1008 74 10000 3.1 330 06:59 12.01.2020
4777 Rain 27 1008 74 10000 3.1 330 06:59 12.01.2020
4778 Rain 27 1008 74 10000 3.1 330 06:36 12.01.2020
4779 Clouds 27 1008 83 10000 4.1 330 05:55 12.01.2020
4780 Clouds 27 1009 78 10000 3.1 50 04:56 12.01.2020
4781 Clouds 28 1010 70 10000 3.1 200 03:43 12.01.2020
4782 Clouds 28 1010 74 10000 7.2 200 02:48 12.01.2020
4783 Clouds 28 1010 74 10000 7.2 200 02:24 12.01.2020
4784 Clouds 28 1010 66 10000 6.2 240 01:34 12.01.2020
4785 Rain 29 1009 83 10000 5.1 190 00:46 12.01.2020
4786 Thunderstorm 30 1008 74 10000 2.1 80 00:22 12.01.2020
4787 Clouds 31 1007 70 10000 4.1 180 23:59 11.01.2020
4788 Clouds 31 1007 70 10000 4.1 180 23:41 11.01.2020
4789 Clouds 30 1007 70 10000 4.1 180 23:18 11.01.2020
4790 Clouds 31 1006 66 10000 4.6 190 22:56 11.01.2020
4791 Clouds 31 1006 66 10000 4.6 190 22:38 11.01.2020
4792 Clouds 31 1006 66 10000 4.6 190 22:19 11.01.2020
4793 Clouds 33 1005 66 10000 6.2 180 21:44 11.01.2020
4794 Clouds 33 1005 66 10000 6.2 180 21:20 11.01.2020
4795 Clouds 33 1006 74 10000 7.2 180 20:59 11.01.2020
4796 Clouds 33 1006 74 10000 7.2 180 20:39 11.01.2020
4797 Clouds 33 1006 74 10000 7.2 180 20:19 11.01.2020
4798 Clouds 35 1006 66 10000 6.2 160 19:57 11.01.2020
4799 Clouds 35 1006 66 10000 6.2 160 19:38 11.01.2020
4800 Clouds 35 1006 66 10000 6.2 160 19:38 11.01.2020
4801 Clouds 35 1006 66 10000 6.2 160 19:20 11.01.2020
4802 Clouds 36 1006 66 10000 4.6 160 18:55 11.01.2020
4803 Clouds 36 1006 66 10000 4.6 160 18:37 11.01.2020
4804 Clouds 36 1006 66 10000 4.6 160 18:19 11.01.2020
4805 Clouds 36 1007 70 10000 4.1 20 17:57 11.01.2020
4806 Clouds 36 1007 70 10000 4.1 20 17:39 11.01.2020
4807 Clouds 36 1007 70 10000 4.1 20 17:18 11.01.2020
4808 Clouds 36 1008 66 10000 4.1 10 16:44 11.01.2020
4809 Clouds 36 1008 66 10000 4.1 10 16:25 11.01.2020
4810 Clouds 35 1008 70 10000 4.1 20 15:57 11.01.2020
4811 Clouds 35 1008 70 10000 4.1 20 15:39 11.01.2020
4812 Clouds 35 1008 70 10000 4.1 20 15:20 11.01.2020
4813 Clouds 34 1009 74 10000 3.1 30 14:47 11.01.2020
4814 Clouds 34 1009 74 10000 3.1 30 14:25 11.01.2020
4815 Clouds 32 1009 79 10000 2.6 20 13:58 11.01.2020
4816 Clouds 32 1009 79 10000 2.6 20 13:38 11.01.2020
4817 Clouds 32 1009 79 10000 2.6 20 13:20 11.01.2020
4818 Clouds 30 1008 83 10000 3.1 350 12:56 11.01.2020
4819 Clouds 30 1008 83 10000 3.1 350 12:37 11.01.2020
4820 Clouds 30 1008 83 10000 3.1 350 12:19 11.01.2020
4821 Clouds 28 1008 94 10000 2.6 360 11:45 11.01.2020
4822 Clouds 28 1008 94 10000 2.6 360 11:24 11.01.2020
4823 Clouds 27 1008 88 10000 3.1 340 10:50 11.01.2020
4824 Clouds 27 1008 88 10000 3.1 340 10:30 11.01.2020
4825 Clouds 27 1008 94 10000 2.6 10 09:55 11.01.2020
4826 Clouds 27 1008 94 10000 2.6 10 09:37 11.01.2020
4827 Clouds 27 1008 94 10000 2.6 10 09:18 11.01.2020
4828 Clouds 26 1007 94 10000 0.5 20 08:41 11.01.2020
4829 Clouds 26 1007 94 10000 0.5 20 08:21 11.01.2020
4830 Clouds 26 1007 94 10000 1.5 40 07:43 11.01.2020
4831 Clouds 26 1007 94 10000 1.5 40 07:25 11.01.2020
4832 Clouds 27 1007 88 10000 2.1 330 06:45 11.01.2020
4833 Clouds 27 1008 88 10000 1 170 05:33 11.01.2020
4834 Clouds 27 1009 94 10000 1.5 180 04:45 11.01.2020
4835 Clouds 27 1009 94 10000 1.5 180 04:27 11.01.2020
4836 Clouds 27 1009 88 10000 3.6 140 02:48 11.01.2020
4837 Clouds 27 1008 78 10000 2.1 170 01:57 11.01.2020
4838 Clouds 27 1008 78 10000 2.1 170 01:38 11.01.2020
4839 Clouds 27 1008 78 10000 2.1 170 01:18 11.01.2020
4840 Clouds 28 1008 83 10000 2.6 140 00:38 11.01.2020
4841 Clouds 29 1008 78 10000 4.6 160 23:59 10.01.2020
4842 Clouds 29 1008 78 10000 4.6 160 23:40 10.01.2020
4843 Clouds 29 1008 78 10000 4.6 160 23:40 10.01.2020
4844 Clouds 29 1008 78 10000 4.6 160 23:21 10.01.2020
4845 Clouds 30 1007 78 10000 4.1 170 22:56 10.01.2020
4846 Clouds 30 1007 78 10000 4.1 170 22:38 10.01.2020
4847 Clouds 30 1007 78 10000 4.1 170 22:19 10.01.2020
4848 Clouds 31 1008 74 10000 4.1 170 21:55 10.01.2020
4849 Clouds 31 1008 74 10000 4.1 170 21:36 10.01.2020
4850 Clouds 31 1008 74 10000 4.1 170 21:18 10.01.2020
4851 Clouds 32 1008 74 10000 2.1 130 20:42 10.01.2020
4852 Clouds 32 1008 74 10000 2.1 130 20:24 10.01.2020
4853 Rain 32 1009 79 10000 7.7 180 19:56 10.01.2020
4854 Rain 32 1009 79 10000 7.7 180 19:37 10.01.2020
4855 Rain 32 1009 79 10000 7.7 180 19:19 10.01.2020
4856 Rain 32 1009 79 10000 7.7 180 19:19 10.01.2020
4857 Clouds 33 1009 70 10000 6.7 160 18:42 10.01.2020
4858 Clouds 33 1009 70 10000 6.7 160 18:19 10.01.2020
4859 Clouds 32 1010 79 10000 6.7 170 17:57 10.01.2020
4860 Clouds 32 1010 79 10000 6.7 170 17:39 10.01.2020
4861 Clouds 32 1010 79 10000 6.7 170 17:20 10.01.2020
4862 Clouds 32 1010 79 10000 7.2 170 16:57 10.01.2020
4863 Clouds 32 1010 79 10000 7.2 170 16:38 10.01.2020
4864 Clouds 32 1010 79 10000 7.2 170 16:19 10.01.2020
4865 Clouds 32 1010 83 10000 6.7 160 15:56 10.01.2020
4866 Clouds 32 1010 83 10000 6.7 160 15:36 10.01.2020
4867 Clouds 32 1010 83 10000 6.7 160 15:18 10.01.2020
4868 Clouds 32 1011 74 10000 4.1 150 14:55 10.01.2020
4869 Clouds 32 1011 74 10000 4.1 150 14:37 10.01.2020
4870 Clouds 32 1011 74 10000 4.1 150 14:18 10.01.2020
4871 Clouds 31 1011 79 10000 3.6 130 13:43 10.01.2020
4872 Clouds 31 1011 79 10000 3.6 130 13:25 10.01.2020
4873 Clouds 29 1010 83 10000 2.6 340 12:58 10.01.2020
4874 Clouds 29 1010 83 10000 2.6 340 12:39 10.01.2020
4875 Clouds 29 1010 83 10000 2.6 340 12:19 10.01.2020
4876 Clouds 29 1010 83 10000 2.6 340 12:19 10.01.2020
4877 Clouds 27 1010 88 10000 1 360 11:56 10.01.2020
4878 Clouds 27 1010 88 10000 1 360 11:38 10.01.2020
4879 Clouds 27 1010 88 10000 1 360 11:38 10.01.2020
4880 Clouds 27 1010 88 10000 1 360 11:38 10.01.2020
4881 Clouds 27 1010 88 10000 1 360 11:18 10.01.2020
4882 Clouds 26 1010 94 10000 2.1 40 10:58 10.01.2020
4883 Clouds 26 1010 94 10000 2.1 40 10:36 10.01.2020
4884 Clouds 26 1010 94 10000 2.1 40 10:18 10.01.2020
4885 Clouds 25 1010 94 10000 1 70 09:43 10.01.2020
4886 Clouds 25 1010 94 10000 1 70 09:24 10.01.2020
4887 Clouds 25 1009 100 10000 1.5 180 08:44 10.01.2020
4888 Clouds 25 1009 100 10000 1.5 180 08:24 10.01.2020
4889 Clouds 25 1009 100 10000 1.5 180 08:24 10.01.2020
4890 Clouds 25 1009 94 10000 2.1 150 07:58 10.01.2020
4891 Clouds 25 1009 94 10000 2.1 150 07:39 10.01.2020
4892 Clouds 25 1009 94 10000 2.1 150 07:19 10.01.2020
4893 Clouds 25 1010 94 10000 2.1 160 06:27 10.01.2020
4894 Clouds 26 1010 94 10000 2.1 170 06:00 10.01.2020
4895 Clouds 26 1011 94 10000 2.1 170 04:44 10.01.2020
4896 Clouds 27 1011 88 10000 3.1 140 03:31 10.01.2020
4897 Clouds 27 1011 88 10000 3.1 140 03:31 10.01.2020
4898 Clouds 27 1011 88 10000 3.1 150 02:52 10.01.2020
4899 Clouds 27 1011 88 10000 3.1 150 02:20 10.01.2020
4900 Clouds 27 1011 83 10000 3.6 160 01:32 10.01.2020
4901 Clouds 27 1010 88 10000 4.1 160 00:51 10.01.2020
4902 Clouds 27 1010 88 10000 4.1 160 00:33 10.01.2020
4903 Clouds 28 1010 78 10000 5.1 150 23:57 09.01.2020
4904 Clouds 28 1010 78 10000 5.1 150 23:37 09.01.2020
4905 Clouds 28 1010 78 10000 5.1 150 23:19 09.01.2020
4906 Clouds 29 1009 78 10000 6.7 160 22:56 09.01.2020
4907 Clouds 29 1009 78 10000 6.7 160 22:37 09.01.2020
4908 Clouds 29 1009 78 10000 6.7 160 22:18 09.01.2020
4909 Clouds 30 1009 78 10000 6.7 150 21:55 09.01.2020
4910 Clouds 30 1009 78 10000 6.7 150 21:37 09.01.2020
4911 Clouds 30 1009 78 10000 6.7 150 21:18 09.01.2020
4912 Clouds 31 1009 79 10000 7.2 160 20:55 09.01.2020
4913 Clouds 31 1009 79 10000 7.2 160 20:37 09.01.2020
4914 Clouds 31 1009 79 10000 7.2 160 20:18 09.01.2020
4915 Clouds 31 1009 79 10000 7.2 160 20:18 09.01.2020
4916 Clouds 31 1009 79 10000 6.2 150 19:39 09.01.2020
4917 Clouds 32 1009 79 10000 6.2 150 19:21 09.01.2020
4918 Clouds 32 1009 74 10000 6.7 140 18:57 09.01.2020
4919 Clouds 32 1009 74 10000 6.7 140 18:39 09.01.2020
4920 Clouds 32 1009 74 10000 6.7 140 18:21 09.01.2020
4921 Clouds 32 1010 74 10000 4.6 140 17:57 09.01.2020
4922 Clouds 32 1010 74 10000 4.6 140 17:39 09.01.2020
4923 Clouds 32 1010 74 10000 4.6 140 17:18 09.01.2020
4924 Clouds 32 1011 70 10000 4.1 150 16:42 09.01.2020
4925 Clouds 32 1011 70 10000 4.1 150 16:21 09.01.2020
4926 Clouds 31 1011 70 10000 1.5 90 15:43 09.01.2020
4927 Clouds 32 1011 70 10000 1.5 90 15:23 09.01.2020
4928 Clouds 31 1011 79 10000 3.1 10 14:59 09.01.2020
4929 Clouds 31 1011 79 10000 3.1 10 14:41 09.01.2020
4930 Clouds 30 1011 79 10000 3.1 10 14:19 09.01.2020
4931 Clouds 30 1011 78 10000 3.1 360 13:56 09.01.2020
4932 Clouds 28 1011 78 10000 3.1 360 13:38 09.01.2020
4933 Clouds 28 1011 78 10000 3.1 360 13:19 09.01.2020
4934 Clouds 28 1011 83 10000 2.6 360 12:56 09.01.2020
4935 Clouds 27 1011 83 10000 2.6 360 12:38 09.01.2020
4936 Clouds 27 1011 83 10000 2.6 360 12:18 09.01.2020
4937 Clouds 27 1011 83 10000 1 330 11:42 09.01.2020
4938 Clouds 25 1011 83 10000 1 330 11:24 09.01.2020
4939 Clouds 25 1011 83 10000 1 330 11:24 09.01.2020
4940 Clouds 25 1010 94 10000 2.1 350 10:58 09.01.2020
4941 Clouds 25 1010 94 10000 2.1 350 10:40 09.01.2020
4942 Clouds 24 1010 94 10000 2.1 350 10:21 09.01.2020
4943 Clouds 24 1009 94 10000 2.1 360 09:47 09.01.2020
4944 Clouds 24 1009 94 10000 2.1 360 09:25 09.01.2020
4945 Clouds 24 1009 88 10000 1.5 350 08:59 09.01.2020
4946 Clouds 24 1009 88 10000 1.5 350 08:39 09.01.2020
4947 Clouds 25 1009 88 10000 1.5 350 08:21 09.01.2020
4948 Clouds 25 1008 88 10000 1.5 340 07:53 09.01.2020
4949 Clouds 25 1008 88 10000 1.5 340 07:33 09.01.2020
4950 Clouds 25 1008 94 10000 4.6 40 06:52 09.01.2020
4951 Clouds 25 1008 94 10000 4.6 40 06:32 09.01.2020
4952 Clouds 25 1009 94 10000 3.6 20 05:52 09.01.2020
4953 Clouds 25 1009 94 10000 3.6 20 05:28 09.01.2020
4954 Clouds 25 1010 88 10000 3.1 360 04:41 09.01.2020
4955 Clouds 26 1010 88 10000 3.1 340 03:28 09.01.2020
4956 Clouds 26 1010 83 10000 4.1 340 02:47 09.01.2020
4957 Clouds 25 1010 88 10000 3.1 10 01:53 09.01.2020
4958 Clouds 25 1010 88 10000 3.1 10 01:33 09.01.2020
4959 Clouds 26 1010 83 10000 1 20 00:39 09.01.2020
4960 Clouds 26 1010 83 10000 1 20 00:19 09.01.2020
4961 Rain 25 1011 88 10000 2.6 300 23:41 08.01.2020
4962 Rain 25 1011 88 10000 2.6 300 23:23 08.01.2020
4963 Clouds 25 1011 83 10000 3.1 340 22:56 08.01.2020
4964 Clouds 25 1011 83 10000 3.1 340 22:38 08.01.2020
4965 Clouds 26 1011 83 10000 3.1 340 22:19 08.01.2020
4966 Thunderstorm 26 1009 78 9000 3.1 350 21:55 08.01.2020
4967 Thunderstorm 26 1009 78 9000 3.1 350 21:37 08.01.2020
4968 Thunderstorm 27 1009 78 9000 3.1 350 21:18 08.01.2020
4969 Thunderstorm 27 1010 83 9000 10.3 40 20:56 08.01.2020
4970 Thunderstorm 26 1010 83 9000 10.3 40 20:37 08.01.2020
4971 Thunderstorm 29 1010 83 9000 10.3 40 20:19 08.01.2020
4972 Clouds 28 1009 74 10000 3.6 150 19:39 08.01.2020
4973 Clouds 30 1009 74 10000 3.6 150 19:20 08.01.2020
4974 Clouds 30 1008 70 10000 6.7 180 18:59 08.01.2020
4975 Clouds 30 1008 70 10000 6.7 180 18:40 08.01.2020
4976 Clouds 31 1008 70 10000 6.7 180 18:19 08.01.2020
4977 Clouds 31 1008 70 10000 6.7 180 18:19 08.01.2020
4978 Clouds 31 1008 70 10000 6.7 180 18:19 08.01.2020
4979 Clouds 31 1009 66 10000 6.2 170 17:59 08.01.2020
4980 Clouds 31 1009 66 10000 6.2 170 17:40 08.01.2020
4981 Clouds 32 1009 66 10000 6.2 170 17:22 08.01.2020
4982 Clouds 31 1010 79 10000 5.1 140 16:57 08.01.2020
4983 Clouds 31 1010 79 10000 5.1 140 16:57 08.01.2020
4984 Clouds 31 1010 79 10000 5.1 140 16:38 08.01.2020
4985 Clouds 31 1010 79 10000 5.1 140 16:19 08.01.2020
4986 Clouds 31 1010 74 10000 4.1 150 15:56 08.01.2020
4987 Clouds 31 1010 74 10000 4.1 150 15:38 08.01.2020
4988 Clouds 31 1010 74 10000 4.1 150 15:18 08.01.2020
4989 Clouds 31 1010 79 10000 1.5 100 14:41 08.01.2020
4990 Clouds 31 1010 79 10000 1.5 100 14:21 08.01.2020
4991 Clouds 30 1010 88 10000 2.1 340 13:56 08.01.2020
4992 Clouds 30 1010 88 10000 2.1 340 13:37 08.01.2020
4993 Clouds 28 1010 88 10000 2.1 340 13:18 08.01.2020
4994 Clouds 28 1010 83 10000 1 130 12:40 08.01.2020
4995 Clouds 27 1010 83 10000 1 130 12:18 08.01.2020
4996 Clouds 27 1009 83 10000 1 40 11:55 08.01.2020
4997 Clouds 27 1009 83 10000 1 40 11:36 08.01.2020
4998 Clouds 26 1009 83 10000 1 40 11:18 08.01.2020
4999 Clouds 26 1009 88 10000 2.1 10 10:41 08.01.2020
5000 Clouds 25 1009 88 10000 2.1 10 10:22 08.01.2020
5001 Clouds 25 1008 88 10000 3.6 20 09:58 08.01.2020
5002 Clouds 26 1008 88 10000 3.6 20 09:38 08.01.2020
5003 Clouds 25 1008 88 10000 3.6 20 09:18 08.01.2020
5004 Rain 25 1008 88 10000 2.6 40 08:42 08.01.2020
5005 Clouds 25 1008 88 10000 2.6 40 08:24 08.01.2020
5006 Clouds 25 1008 88 10000 3.1 20 07:59 08.01.2020
5007 Clouds 25 1008 88 10000 3.1 20 07:41 08.01.2020
5008 Clouds 26 1008 88 10000 3.1 20 07:23 08.01.2020
5009 Clouds 26 1008 88 10000 3.1 30 06:44 08.01.2020
5010 Clouds 25 1008 88 10000 3.1 10 05:59 08.01.2020
5011 Clouds 25 1008 88 10000 3.1 10 05:28 08.01.2020
5012 Clouds 26 1009 83 10000 3.1 320 04:46 08.01.2020
5013 Clouds 26 1009 78 10000 2.6 300 03:33 08.01.2020
5014 Clouds 26 1009 78 10000 4.1 330 02:44 08.01.2020
5015 Clouds 27 1009 78 10000 4.1 330 02:19 08.01.2020
5016 Clouds 27 1009 78 9000 4.6 350 01:40 08.01.2020
5017 Thunderstorm 27 1009 83 8000 4.6 360 00:54 08.01.2020
5018 Thunderstorm 29 1009 83 8000 4.6 360 00:26 08.01.2020
5019 Thunderstorm 30 1009 78 8000 2.1 300 23:47 07.01.2020
5020 Thunderstorm 31 1009 78 8000 2.1 300 23:22 07.01.2020
5021 Clouds 31 1007 62 10000 6.2 180 22:58 07.01.2020
5022 Clouds 31 1007 62 10000 6.2 180 22:39 07.01.2020
5023 Clouds 32 1007 62 10000 6.2 180 22:19 07.01.2020
5024 Clouds 32 1006 66 10000 6.2 170 21:55 07.01.2020
5025 Clouds 31 1006 66 10000 6.2 170 21:37 07.01.2020
5026 Clouds 33 1006 66 10000 6.2 170 21:19 07.01.2020
5027 Clouds 33 1006 74 10000 8.2 180 20:42 07.01.2020
5028 Clouds 33 1006 74 10000 8.2 180 20:24 07.01.2020
5029 Clouds 33 1006 74 10000 8.2 160 19:59 07.01.2020
5030 Clouds 33 1006 74 10000 8.2 160 19:38 07.01.2020
5031 Clouds 33 1006 74 10000 8.2 160 19:19 07.01.2020
5032 Clouds 33 1007 74 10000 7.7 160 18:58 07.01.2020
5033 Clouds 31 1007 74 10000 7.7 160 18:39 07.01.2020
5034 Clouds 33 1007 74 10000 7.7 160 18:18 07.01.2020
5035 Clouds 33 1007 74 10000 7.7 160 18:18 07.01.2020
5036 Clouds 33 1007 74 10000 6.7 150 17:58 07.01.2020
5037 Clouds 32 1007 74 10000 6.7 150 17:38 07.01.2020
5038 Clouds 34 1007 74 10000 6.7 150 17:20 07.01.2020
5039 Clouds 33 1008 74 10000 5.7 150 16:56 07.01.2020
5040 Clouds 32 1008 74 10000 5.7 150 16:37 07.01.2020
5041 Clouds 32 1008 74 10000 5.7 150 16:37 07.01.2020
5042 Clouds 34 1008 74 10000 5.7 150 16:18 07.01.2020
5043 Clear 33 1008 70 10000 2.1 140 15:55 07.01.2020
5044 Clear 31 1008 70 10000 2.1 140 15:36 07.01.2020
5045 Clear 33 1008 52 10000 2.1 350 15:18 07.01.2020
5046 Clear 32 1009 79 10000 2.1 20 14:42 07.01.2020
5047 Clear 31 1009 79 10000 2.1 20 14:23 07.01.2020
5048 Clear 31 1009 79 10000 2.1 20 14:23 07.01.2020
5049 Clear 31 1009 83 10000 3.1 340 13:56 07.01.2020
5050 Clear 31 1009 83 10000 3.1 340 13:56 07.01.2020
5051 Clear 31 1009 83 10000 3.1 340 13:37 07.01.2020
5052 Clear 29 1009 83 10000 3.1 340 13:18 07.01.2020
5053 Clear 29 1009 83 10000 3.1 340 12:40 07.01.2020
5054 Clear 28 1009 83 10000 3.1 340 12:19 07.01.2020
5055 Clouds 27 1009 88 10000 3.1 360 11:44 07.01.2020
5056 Clouds 25 1009 88 10000 3.1 360 11:23 07.01.2020
5057 Clouds 25 1009 88 10000 3.1 360 11:23 07.01.2020
5058 Clouds 25 1008 88 10000 3.1 10 10:59 07.01.2020
5059 Clouds 25 1008 88 10000 3.1 10 10:40 07.01.2020
5060 Clouds 25 1008 88 10000 3.1 10 10:22 07.01.2020
5061 Clouds 24 1008 94 10000 3.1 360 09:56 07.01.2020
5062 Clouds 24 1008 94 10000 3.1 360 09:37 07.01.2020
5063 Clouds 24 1008 94 10000 3.1 360 09:19 07.01.2020
5064 Clear 24 1007 94 10000 2.1 350 08:41 07.01.2020
5065 Clear 24 1007 94 10000 2.1 350 08:41 07.01.2020
5066 Clear 24 1007 94 10000 2.1 350 08:21 07.01.2020
5067 Clear 24 1007 94 10000 1.5 150 07:51 07.01.2020
5068 Clear 24 1007 94 10000 1.5 150 07:26 07.01.2020
5069 Clear 24 1008 94 10000 1 130 06:52 07.01.2020
5070 Clear 24 1008 94 10000 1 130 06:32 07.01.2020
5071 Clear 25 1008 88 10000 2.1 300 05:46 07.01.2020
5072 Clouds 25 1009 88 10000 2.6 350 04:31 07.01.2020
5073 Clouds 25 1009 83 10000 4.1 330 03:25 07.01.2020
5074 Clouds 25 1009 83 10000 2.6 340 02:21 07.01.2020
5075 Clouds 25 1009 83 10000 1.5 340 01:51 07.01.2020
5076 Clouds 26 1009 83 10000 1.5 340 01:26 07.01.2020
5077 Clouds 26 1008 83 10000 2.1 340 00:22 07.01.2020
5078 Rain 26 1008 83 10000 6.7 40 23:59 06.01.2020
5079 Rain 26 1008 83 10000 6.7 40 23:39 06.01.2020
5080 Rain 27 1008 83 10000 6.7 40 23:21 06.01.2020
5081 Clouds 27 1008 83 10000 5.7 350 22:56 06.01.2020
5082 Clouds 26 1008 83 10000 5.7 350 22:37 06.01.2020
5083 Clouds 27 1008 83 10000 5.7 350 22:19 06.01.2020
5084 Clouds 27 1007 78 10000 3.1 10 21:55 06.01.2020
5085 Clouds 28 1006 70 10000 3.1 160 21:37 06.01.2020
5086 Clouds 29 1006 70 10000 3.1 160 21:18 06.01.2020
5087 Clouds 29 1006 78 10000 4.1 180 20:55 06.01.2020
5088 Clouds 27 1006 78 10000 4.1 180 20:37 06.01.2020
5089 Clouds 29 1006 78 10000 4.1 180 20:19 06.01.2020
5090 Clouds 29 1005 83 10000 7.2 170 19:55 06.01.2020
5091 Clouds 28 1005 83 10000 7.2 170 19:37 06.01.2020
5092 Clouds 29 1005 83 10000 7.2 170 19:18 06.01.2020
5093 Clouds 30 1006 78 10000 6.2 160 18:44 06.01.2020
5094 Clouds 31 1006 78 10000 6.2 160 18:21 06.01.2020
5095 Clouds 31 1007 74 10000 6.2 150 17:40 06.01.2020
5096 Clouds 31 1007 74 10000 6.2 150 17:20 06.01.2020
5097 Clouds 31 1007 78 10000 2.6 120 16:58 06.01.2020
5098 Clouds 31 1007 78 10000 2.6 120 16:40 06.01.2020
5099 Clouds 30 1007 78 10000 2.6 120 16:22 06.01.2020
5100 Clouds 30 1007 78 10000 2.1 130 15:59 06.01.2020
5101 Clouds 31 1007 78 10000 1.5 40 15:37 06.01.2020
5102 Clouds 30 1007 78 10000 1.5 40 15:18 06.01.2020
5103 Clouds 29 1008 83 10000 1.5 300 14:42 06.01.2020
5104 Clouds 27 1008 83 10000 1.5 300 14:22 06.01.2020
5105 Clouds 27 1008 83 10000 1.5 300 14:22 06.01.2020
5106 Clouds 26 1008 83 10000 2.6 310 13:59 06.01.2020
5107 Clouds 26 1008 83 10000 2.6 310 13:39 06.01.2020
5108 Clouds 26 1008 83 10000 2.6 310 13:21 06.01.2020
5109 Clouds 26 1008 83 10000 2.6 310 13:21 06.01.2020
5110 Clouds 26 1008 78 10000 2.1 300 12:58 06.01.2020
5111 Clouds 26 1008 78 10000 2.1 300 12:39 06.01.2020
5112 Clouds 26 1008 78 10000 2.1 300 12:39 06.01.2020
5113 Clouds 25 1008 78 10000 2.1 300 12:19 06.01.2020
5114 Clouds 25 1007 83 10000 3.1 330 11:43 06.01.2020
5115 Clouds 23 1007 83 10000 3.1 330 11:24 06.01.2020
5116 Clouds 23 1007 94 10000 4.1 360 11:00 06.01.2020
5117 Clouds 23 1007 94 10000 4.1 360 10:41 06.01.2020
5118 Clouds 21 1007 94 10000 4.1 360 10:21 06.01.2020
5119 Clouds 22 1007 88 10000 2.6 340 09:42 06.01.2020
5120 Clouds 22 1007 88 10000 2.6 340 09:24 06.01.2020
5121 Clouds 22 1007 94 10000 2.6 360 08:57 06.01.2020
5122 Clouds 22 1007 94 10000 2.6 360 08:38 06.01.2020
5123 Clouds 22 1007 94 10000 2.6 360 08:38 06.01.2020
5124 Clouds 22 1007 94 10000 2.6 360 08:19 06.01.2020
5125 Thunderstorm 23 1007 88 4000 3.1 270 07:44 06.01.2020
5126 Thunderstorm 24 1007 88 8000 2.1 310 06:55 06.01.2020
5127 Thunderstorm 25 1007 88 8000 2.1 310 06:35 06.01.2020
5128 Clouds 24 1007 94 10000 1 80 05:48 06.01.2020
5129 Clouds 24 1007 94 10000 1 80 05:24 06.01.2020
5130 Clouds 25 1008 88 10000 2.1 320 04:24 06.01.2020
5131 Clouds 25 1009 88 10000 2.6 20 03:51 06.01.2020
5132 Clouds 25 1009 94 10000 2.1 80 02:29 06.01.2020
5133 Clouds 25 1008 88 10000 1 120 01:54 06.01.2020
5134 Clouds 25 1008 88 10000 1 120 01:31 06.01.2020
5135 Clouds 25 1009 88 10000 1.5 140 00:48 06.01.2020
5136 Clouds 25 1009 88 10000 1.5 140 00:29 06.01.2020
5137 Clouds 25 1007 88 10000 4.1 140 23:58 05.01.2020
5138 Clouds 25 1007 88 10000 4.1 140 23:39 05.01.2020
5139 Clouds 25 1007 88 10000 4.1 140 23:21 05.01.2020
5140 Clouds 26 1007 88 10000 4.1 140 22:40 05.01.2020
5141 Clouds 26 1007 78 9000 2.6 110 22:21 05.01.2020
5142 Clouds 26 1007 83 10000 5.7 180 21:58 05.01.2020
5143 Clouds 26 1007 83 10000 5.7 180 21:40 05.01.2020
5144 Clouds 26 1007 83 10000 5.7 180 21:20 05.01.2020
5145 Clouds 27 1006 83 10000 6.7 170 20:58 05.01.2020
5146 Clouds 27 1006 83 10000 6.7 170 20:39 05.01.2020
5147 Clouds 27 1006 83 10000 6.7 170 20:19 05.01.2020
5148 Clouds 28 1006 74 10000 6.7 160 19:58 05.01.2020
5149 Clouds 27 1006 74 10000 6.7 160 19:39 05.01.2020
5150 Clouds 27 1006 74 10000 6.7 160 19:39 05.01.2020
5151 Clouds 28 1006 74 10000 6.7 160 19:20 05.01.2020
5152 Clouds 28 1007 74 10000 6.7 160 18:56 05.01.2020
5153 Clouds 28 1007 74 10000 6.7 160 18:38 05.01.2020
5154 Clouds 28 1007 74 10000 6.7 160 18:19 05.01.2020
5155 Clouds 28 1007 74 10000 6.7 160 18:19 05.01.2020
5156 Clouds 28 1007 74 10000 6.2 170 17:58 05.01.2020
5157 Clouds 28 1007 74 10000 6.2 170 17:39 05.01.2020
5158 Clouds 28 1007 74 10000 6.2 170 17:20 05.01.2020
5159 Clouds 27 1007 78 10000 7.2 180 16:57 05.01.2020
5160 Clouds 27 1007 78 10000 7.2 180 16:39 05.01.2020
5161 Clouds 27 1007 78 10000 7.2 180 16:39 05.01.2020
5162 Clouds 27 1007 78 10000 7.2 180 16:20 05.01.2020
5163 Clouds 27 1008 78 10000 6.2 170 15:40 05.01.2020
5164 Clouds 27 1008 78 10000 6.2 170 15:21 05.01.2020
5165 Clouds 27 1008 83 10000 4.6 150 14:57 05.01.2020
5166 Clouds 27 1008 83 10000 4.6 150 14:38 05.01.2020
5167 Clouds 27 1008 83 10000 4.6 150 14:20 05.01.2020
5168 Clouds 27 1008 83 10000 3.6 140 13:57 05.01.2020
5169 Clouds 27 1008 83 10000 3.6 140 13:38 05.01.2020
5170 Clouds 25 1008 83 10000 3.6 140 13:20 05.01.2020
5171 Clouds 25 1008 83 10000 3.6 140 13:20 05.01.2020
5172 Mist 25 1007 88 5000 4.6 160 12:56 05.01.2020
5173 Mist 25 1007 88 5000 4.6 160 12:37 05.01.2020
5174 Mist 26 1007 88 5000 4.6 160 12:19 05.01.2020
5175 Mist 26 1007 88 5000 4.6 160 12:19 05.01.2020
5176 Clouds 25 1007 88 8000 2.6 150 11:54 05.01.2020
5177 Clouds 24 1007 88 8000 2.1 50 11:36 05.01.2020
5178 Clouds 23 1007 88 8000 2.1 50 11:18 05.01.2020
5179 Clouds 24 1006 88 10000 2.1 270 10:40 05.01.2020
5180 Clouds 22 1006 88 10000 2.1 270 10:20 05.01.2020
5181 Clouds 23 1005 94 10000 3.1 320 09:43 05.01.2020
5182 Clouds 23 1005 94 10000 3.1 320 09:22 05.01.2020
5183 Clouds 23 1005 94 10000 2.6 310 08:56 05.01.2020
5184 Clouds 23 1005 94 10000 2.6 310 08:38 05.01.2020
5185 Clouds 24 1005 94 10000 2.6 310 08:20 05.01.2020
5186 Rain 24 1005 94 10000 0.5 10 07:44 05.01.2020
5187 Rain 24 1005 94 10000 0.5 10 07:26 05.01.2020
5188 Rain 24 1006 88 10000 1.5 320 06:54 05.01.2020
5189 Rain 24 1007 94 9000 1 90 05:41 05.01.2020
5190 Rain 24 1008 94 10000 0.82 260 04:56 05.01.2020
5191 Rain 24 1008 94 10000 0.82 260 04:19 05.01.2020
5192 Rain 24 1008 94 10000 0.82 260 04:19 05.01.2020
5193 Rain 24 1008 88 10000 1 140 03:38 05.01.2020
5194 Rain 24 1008 94 10000 1.5 80 02:35 05.01.2020
5195 Rain 24 1008 94 10000 4.1 120 01:52 05.01.2020
5196 Rain 25 1008 94 10000 4.1 120 01:20 05.01.2020
5197 Clouds 25 1007 88 10000 4.1 150 00:57 05.01.2020
5198 Clouds 25 1007 88 10000 4.1 150 00:39 05.01.2020
5199 Clouds 25 1007 88 10000 4.1 150 00:20 05.01.2020
5200 Clouds 26 1007 83 10000 4.6 180 23:57 04.01.2020
5201 Clouds 24 1007 83 10000 4.6 180 23:38 04.01.2020
5202 Clouds 26 1007 83 10000 4.6 180 23:18 04.01.2020
5203 Clouds 26 1006 78 10000 5.7 180 22:39 04.01.2020
5204 Clouds 27 1006 78 10000 5.7 180 22:20 04.01.2020
5205 Clouds 27 1006 78 10000 6.2 160 21:56 04.01.2020
5206 Clouds 27 1006 78 10000 6.2 160 21:37 04.01.2020
5207 Clouds 27 1006 78 10000 6.2 160 21:19 04.01.2020
5208 Clouds 27 1006 74 10000 6.7 180 20:56 04.01.2020
5209 Clouds 26 1006 74 10000 6.7 180 20:37 04.01.2020
5210 Clouds 28 1006 74 10000 6.7 180 20:18 04.01.2020
5211 Clouds 29 1006 74 10000 4.6 160 19:41 04.01.2020
5212 Clouds 28 1006 74 10000 4.6 160 19:41 04.01.2020
5213 Clouds 28 1006 74 10000 4.6 160 19:23 04.01.2020
5214 Clouds 27 1007 78 10000 4.6 160 18:58 04.01.2020
5215 Clouds 27 1007 78 10000 4.6 160 18:39 04.01.2020
5216 Clouds 27 1007 78 10000 4.6 160 18:20 04.01.2020
5217 Clouds 26 1008 78 10000 4.1 160 17:58 04.01.2020
5218 Clouds 26 1008 78 10000 4.1 160 17:40 04.01.2020
5219 Clouds 27 1008 78 10000 4.1 160 17:21 04.01.2020
5220 Clouds 27 1008 74 10000 4.1 160 16:42 04.01.2020
5221 Clouds 28 1008 74 10000 4.1 160 16:24 04.01.2020
5222 Clouds 28 1008 74 10000 4.1 160 16:24 04.01.2020
5223 Clouds 28 1008 74 10000 3.1 140 15:58 04.01.2020
5224 Clouds 28 1008 74 10000 3.1 140 15:39 04.01.2020
5225 Clouds 28 1008 74 10000 3.1 140 15:19 04.01.2020
5226 Clouds 28 1008 74 10000 1.5 140 14:57 04.01.2020
5227 Clouds 28 1008 74 10000 1.5 140 14:57 04.01.2020
5228 Clouds 28 1008 74 10000 1.5 140 14:39 04.01.2020
5229 Clouds 28 1008 78 10000 2.1 30 14:19 04.01.2020
5230 Clouds 26 1008 83 10000 3.1 20 13:56 04.01.2020
5231 Clouds 27 1008 83 10000 3.1 20 13:37 04.01.2020
5232 Clouds 27 1008 83 10000 3.1 20 13:18 04.01.2020
5233 Clouds 26 1008 83 10000 2.6 340 12:42 04.01.2020
5234 Clouds 25 1008 83 10000 2.6 340 12:20 04.01.2020
5235 Clouds 24 1008 83 10000 2.6 330 11:59 04.01.2020
5236 Clouds 24 1008 83 10000 2.6 330 11:40 04.01.2020
5237 Clouds 23 1008 83 10000 2.6 330 11:20 04.01.2020
5238 Clouds 23 1008 94 10000 2.1 320 10:58 04.01.2020
5239 Clouds 24 1008 94 10000 2.1 320 10:38 04.01.2020
5240 Clouds 22 1008 94 10000 2.1 320 10:19 04.01.2020
5241 Clouds 23 1008 94 10000 2.1 360 09:42 04.01.2020
5242 Clouds 23 1008 94 10000 2.1 360 09:24 04.01.2020
5243 Clouds 23 1007 94 10000 0.5 200 08:47 04.01.2020
5244 Clouds 23 1007 94 10000 0.5 200 08:28 04.01.2020
5245 Clouds 24 1008 83 10000 2.1 320 07:51 04.01.2020
5246 Clouds 24 1008 83 10000 2.1 320 07:33 04.01.2020
5247 Clouds 24 1008 83 10000 1 310 06:43 04.01.2020
5248 Clouds 24 1008 88 10000 2.6 310 05:52 04.01.2020
5249 Clouds 24 1009 94 10000 3.1 330 04:50 04.01.2020
5250 Clouds 24 1009 94 10000 3.1 330 04:29 04.01.2020
5251 Clouds 24 1010 94 10000 3.1 350 03:20 04.01.2020
5252 Clouds 24 1010 88 10000 2.1 330 02:46 04.01.2020
5253 Clouds 24 1010 88 10000 2.1 330 02:18 04.01.2020
5254 Clouds 24 1010 94 10000 2.6 320 01:37 04.01.2020
5255 Clouds 24 1010 94 10000 2.6 320 01:19 04.01.2020
5256 Rain 24 1010 94 8000 3.1 330 00:29 04.01.2020
5257 Rain 24 1010 94 6000 2.6 330 23:57 03.01.2020
5258 Rain 24 1010 94 6000 2.6 330 23:29 03.01.2020
5259 Rain 24 1009 88 4000 3.1 310 22:59 03.01.2020
5260 Rain 24 1009 88 4000 3.1 310 22:40 03.01.2020
5261 Rain 25 1009 83 5000 3.6 250 22:19 03.01.2020
5262 Clouds 25 1009 78 10000 1.5 360 21:57 03.01.2020
5263 Clouds 25 1009 78 10000 1.5 360 21:38 03.01.2020
5264 Clouds 25 1009 78 10000 1.5 360 21:19 03.01.2020
5265 Clouds 25 1008 83 10000 1.5 180 20:55 03.01.2020
5266 Rain 23 1008 78 10000 2.6 300 20:37 03.01.2020
5267 Rain 25 1008 78 10000 2.6 300 20:18 03.01.2020
5268 Rain 25 1009 83 10000 3.1 210 19:54 03.01.2020
5269 Rain 24 1009 83 10000 3.1 210 19:36 03.01.2020
5270 Rain 25 1009 83 10000 3.1 210 19:18 03.01.2020
5271 Clouds 24 1009 83 10000 2.6 50 18:39 03.01.2020
5272 Clouds 24 1009 83 10000 2.6 50 18:39 03.01.2020
5273 Clouds 25 1009 83 10000 2.6 50 18:20 03.01.2020
5274 Clouds 25 1009 83 10000 2.6 230 17:54 03.01.2020
5275 Clouds 25 1009 83 10000 2.6 230 17:36 03.01.2020
5276 Clouds 25 1009 83 10000 2.6 230 17:18 03.01.2020
5277 Rain 24 1010 88 6000 4.1 190 16:42 03.01.2020
5278 Thunderstorm 24 1010 88 5000 4.1 210 16:22 03.01.2020
5279 Thunderstorm 24 1010 83 5000 6.7 210 15:43 03.01.2020
5280 Clouds 26 1010 83 8000 7.7 190 15:19 03.01.2020
5281 Clouds 26 1010 83 8000 7.7 190 15:19 03.01.2020
5282 Clouds 26 1010 83 10000 2.1 50 14:57 03.01.2020
5283 Clouds 26 1010 83 10000 2.1 50 14:37 03.01.2020
5284 Clouds 27 1010 83 10000 2.1 50 14:19 03.01.2020
5285 Clouds 26 1009 88 10000 2.6 200 13:43 03.01.2020
5286 Clouds 27 1009 88 10000 2.6 200 13:23 03.01.2020
5287 Clouds 27 1009 88 10000 2.1 360 12:57 03.01.2020
5288 Clouds 27 1009 88 10000 2.1 360 12:38 03.01.2020
5289 Clouds 25 1009 88 10000 2.1 360 12:20 03.01.2020
5290 Clouds 23 1009 88 10000 2.6 300 11:44 03.01.2020
5291 Clouds 23 1009 88 10000 2.6 300 11:20 03.01.2020
5292 Clouds 23 1008 94 10000 2.1 30 10:44 03.01.2020
5293 Clouds 23 1008 94 10000 2.1 30 10:25 03.01.2020
5294 Clouds 23 1008 94 10000 3.1 30 09:58 03.01.2020
5295 Clouds 24 1008 94 10000 3.1 30 09:39 03.01.2020
5296 Clouds 23 1008 94 10000 3.1 30 09:21 03.01.2020
5297 Clouds 23 1007 94 10000 3.1 10 08:56 03.01.2020
5298 Clouds 23 1007 94 10000 3.1 10 08:37 03.01.2020
5299 Clouds 23 1007 94 10000 3.1 10 08:19 03.01.2020
5300 Clouds 24 1008 94 10000 3.1 30 07:39 03.01.2020
5301 Clouds 23 1008 94 10000 3.1 30 07:18 03.01.2020
5302 Clouds 24 1007 88 10000 2.6 340 06:47 03.01.2020
5303 Clouds 24 1007 88 10000 2.6 340 06:29 03.01.2020
5304 Clouds 24 1007 94 10000 3.6 30 05:30 03.01.2020
5305 Clouds 23 1007 88 10000 2.6 50 04:21 03.01.2020
5306 Clouds 24 1009 88 10000 2.1 320 02:56 03.01.2020
5307 Clouds 24 1009 88 10000 2.1 320 02:56 03.01.2020
5308 Clouds 24 1009 88 10000 2.1 320 02:28 03.01.2020
5309 Clouds 24 1009 88 10000 1 360 01:42 03.01.2020
5310 Clouds 24 1009 88 10000 1 360 01:42 03.01.2020
5311 Rain 24 1009 94 6000 2.6 30 00:50 03.01.2020
5312 Rain 25 1009 94 6000 2.6 30 00:30 03.01.2020
5313 Rain 25 1009 94 5000 3.1 20 23:55 02.01.2020
5314 Rain 24 1009 94 6000 5.1 20 23:37 02.01.2020
5315 Rain 25 1009 94 6000 5.1 20 23:18 02.01.2020
5316 Rain 25 1009 88 10000 8.2 40 22:45 02.01.2020
5317 Rain 25 1009 88 10000 8.2 40 22:45 02.01.2020
5318 Thunderstorm 27 1008 88 7000 3.6 120 22:21 02.01.2020
5319 Rain 27 1008 74 10000 4.1 240 22:00 02.01.2020
5320 Rain 27 1008 74 10000 4.1 240 21:41 02.01.2020
5321 Clouds 28 1007 74 10000 4.1 180 21:23 02.01.2020
5322 Clouds 29 1005 62 10000 7.7 190 20:59 02.01.2020
5323 Clouds 29 1005 62 10000 7.7 190 20:39 02.01.2020
5324 Clouds 30 1005 62 10000 7.7 190 20:21 02.01.2020
5325 Clouds 30 1005 66 10000 7.7 190 19:55 02.01.2020
5326 Clouds 30 1005 66 10000 7.7 190 19:55 02.01.2020
5327 Clouds 30 1005 66 10000 7.7 190 19:37 02.01.2020
5328 Clouds 30 1005 66 10000 7.7 190 19:19 02.01.2020
5329 Clouds 29 1006 66 10000 7.7 190 18:58 02.01.2020
5330 Clouds 28 1006 66 10000 7.7 190 18:39 02.01.2020
5331 Clouds 30 1006 66 10000 7.7 190 18:21 02.01.2020
5332 Clouds 30 1006 69 10000 4.1 160 17:56 02.01.2020
5333 Clouds 29 1006 69 10000 4.1 160 17:37 02.01.2020
5334 Clouds 29 1006 69 10000 4.1 160 17:19 02.01.2020
5335 Clouds 29 1006 74 10000 4.6 150 16:56 02.01.2020
5336 Clouds 29 1006 74 10000 4.6 150 16:38 02.01.2020
5337 Clouds 29 1006 74 10000 4.6 150 16:20 02.01.2020
5338 Clouds 29 1006 78 10000 4.6 150 15:45 02.01.2020
5339 Clouds 29 1006 78 10000 4.6 150 15:24 02.01.2020
5340 Clouds 29 1006 74 10000 5.1 150 14:58 02.01.2020
5341 Clouds 29 1006 74 10000 5.1 150 14:39 02.01.2020
5342 Clouds 28 1006 74 10000 5.1 150 14:21 02.01.2020
5343 Clouds 28 1006 78 10000 2.6 140 13:58 02.01.2020
5344 Clouds 28 1006 78 10000 2.6 140 13:40 02.01.2020
5345 Clouds 28 1006 78 10000 2.6 140 13:19 02.01.2020
5346 Clouds 25 1008 82 0 1.32 177 12:43 02.01.2020
5347 Clouds 28 1005 78 10000 1.5 90 12:23 02.01.2020
5348 Clouds 26 1005 78 10000 1.5 90 11:42 02.01.2020
5349 Clouds 27 1005 78 10000 1.5 90 11:24 02.01.2020
5350 Clouds 26 1005 83 10000 3.1 10 10:56 02.01.2020
5351 Clouds 25 1005 83 10000 3.1 10 10:37 02.01.2020
5352 Clouds 25 1005 83 10000 3.1 10 10:18 02.01.2020
5353 Clouds 27 1004 83 10000 3.6 200 09:41 02.01.2020
5354 Clouds 27 1004 83 10000 3.6 200 09:22 02.01.2020
5355 Clouds 27 1004 78 10000 4.1 350 08:43 02.01.2020
5356 Clouds 27 1004 78 10000 4.1 350 08:25 02.01.2020
5357 Clouds 27 1003 78 10000 3.6 330 07:48 02.01.2020
5358 Clouds 27 1003 78 10000 3.6 330 07:28 02.01.2020
5359 Clouds 27 1004 83 10000 4.6 350 06:43 02.01.2020
5360 Clouds 27 1004 78 10000 3.6 340 05:54 02.01.2020
5361 Clouds 27 1005 74 10000 3.1 100 04:38 02.01.2020
5362 Clouds 27 1005 74 10000 3.1 100 04:19 02.01.2020
5363 Clouds 28 1005 66 10000 4.1 330 02:25 02.01.2020
5364 Clouds 28 1005 79 10000 4.6 300 01:57 02.01.2020
5365 Clouds 28 1005 79 10000 4.6 300 01:32 02.01.2020
5366 Clouds 29 1004 62 10000 2.6 320 00:52 02.01.2020
5367 Clouds 29 1004 62 10000 2.6 320 00:32 02.01.2020
5368 Clouds 29 1003 62 10000 2.1 320 23:48 01.01.2020
5369 Rain 31 1003 62 10000 2.1 320 23:25 01.01.2020
5370 Clouds 31 1003 58 10000 4.1 180 22:55 01.01.2020
5371 Clouds 26 1003 58 10000 4.1 180 22:37 01.01.2020
5372 Clouds 34 1003 58 10000 4.1 180 22:18 01.01.2020
5373 Clouds 34 1003 58 10000 5.7 200 21:42 01.01.2020
5374 Clouds 35 1003 58 10000 5.7 200 21:21 01.01.2020
5375 Clouds 33 1003 66 10000 5.1 180 20:59 01.01.2020
5376 Clouds 30 1003 66 10000 5.1 180 20:39 01.01.2020
5377 Clouds 33 1003 66 10000 5.1 180 20:21 01.01.2020
5378 Clouds 34 1004 62 10000 6.2 170 19:58 01.01.2020
5379 Clouds 34 1004 62 10000 6.2 170 19:39 01.01.2020
5380 Clouds 34 1004 62 10000 6.2 170 19:21 01.01.2020
5381 Clouds 34 1004 62 10000 4.6 160 18:59 01.01.2020
5382 Clouds 34 1004 62 10000 4.6 160 18:39 01.01.2020
5383 Clouds 34 1004 62 10000 4.6 160 18:20 01.01.2020
5384 Clouds 34 1005 59 10000 3.1 150 17:59 01.01.2020
5385 Clouds 34 1005 59 10000 3.1 150 17:40 01.01.2020
5386 Clouds 34 1005 59 10000 3.1 150 17:20 01.01.2020
5387 Clouds 35 1006 52 10000 2.6 60 16:59 01.01.2020
5388 Clouds 35 1006 52 10000 2.6 60 16:39 01.01.2020
5389 Clouds 35 1006 52 10000 2.6 60 16:20 01.01.2020
5390 Clouds 33 1006 62 10000 2.1 70 15:57 01.01.2020
5391 Clouds 33 1006 62 10000 2.1 70 15:38 01.01.2020
5392 Clouds 33 1006 62 10000 2.1 70 15:20 01.01.2020
5393 Clouds 32 1007 58 10000 2.6 330 14:56 01.01.2020
5394 Clouds 31 1007 58 10000 2.6 330 14:38 01.01.2020
5395 Clouds 32 1007 58 10000 2.6 330 14:20 01.01.2020
5396 Clouds 30 1007 62 10000 3.1 360 13:55 01.01.2020
5397 Clouds 27 1007 62 10000 3.1 360 13:37 01.01.2020
5398 Clouds 30 1007 62 10000 3.1 360 13:18 01.01.2020
5399 Clouds 29 1007 74 10000 2.6 360 12:55 01.01.2020
5400 Clouds 26 1007 74 10000 2.6 360 12:37 01.01.2020
5401 Clouds 28 1007 74 10000 2.6 360 12:18 01.01.2020
5402 Clouds 28 1007 78 10000 2.6 350 11:43 01.01.2020
5403 Clouds 25 1007 78 10000 2.6 350 11:21 01.01.2020
5404 Clouds 25 1007 78 10000 2.6 330 10:58 01.01.2020
5405 Clouds 24 1007 78 10000 2.6 330 10:39 01.01.2020
5406 Clouds 24 1007 78 10000 2.6 330 10:20 01.01.2020
5407 Clouds 24 1007 83 10000 2.1 10 09:55 01.01.2020
5408 Clouds 24 1007 83 10000 2.1 10 09:36 01.01.2020
5409 Clouds 24 1007 83 10000 2.1 10 09:18 01.01.2020
5410 Clouds 24 1007 83 10000 2.1 330 08:54 01.01.2020
5411 Clouds 24 1007 83 10000 2.1 330 08:36 01.01.2020
5412 Clouds 24 1007 83 10000 2.1 330 08:18 01.01.2020
5413 Clouds 24 1007 78 10000 2.1 330 07:42 01.01.2020
5414 Clouds 24 1007 78 10000 2.1 330 07:24 01.01.2020
5415 Clouds 25 1007 83 10000 1 360 06:44 01.01.2020
5416 Clouds 25 1007 83 10000 1 360 06:19 01.01.2020
5417 Clear 25 1008 83 10000 2.6 350 04:36 01.01.2020
5418 Clear 26 1008 78 10000 1 360 03:41 01.01.2020
5419 Clear 26 1008 78 10000 1 360 03:22 01.01.2020
5420 Clear 26 1008 78 10000 2.6 90 02:54 01.01.2020
5421 Clear 27 1008 78 10000 2.6 90 02:30 01.01.2020
5422 Clear 27 1007 83 10000 2.6 60 01:45 01.01.2020
5423 Clear 26 1007 83 10000 2.6 60 01:24 01.01.2020
5424 Clear 27 1007 74 10000 2.6 50 00:56 01.01.2020
5425 Clear 28 1007 74 10000 2.6 50 00:37 01.01.2020
5426 Clear 27 1007 74 10000 2.6 50 00:18 01.01.2020
5427 Clouds 27 1006 62 10000 1 70 23:39 31.12.2019
5428 Clouds 29 1006 62 10000 1 70 23:19 31.12.2019
5429 Clouds 29 1006 69 10000 2.6 180 22:57 31.12.2019
5430 Clouds 29 1006 69 10000 2.6 180 22:38 31.12.2019
5431 Clouds 30 1006 69 10000 2.6 180 22:18 31.12.2019
5432 Clouds 31 1006 66 10000 4.6 180 21:54 31.12.2019
5433 Clouds 30 1006 66 10000 4.6 180 21:36 31.12.2019
5434 Clouds 32 1006 66 10000 4.6 180 21:18 31.12.2019
5435 Clouds 32 1007 70 10000 6.2 180 20:40 31.12.2019
5436 Clouds 32 1007 70 10000 6.2 180 20:21 31.12.2019
5437 Clouds 31 1007 69 10000 7.2 160 19:59 31.12.2019
5438 Clouds 31 1007 69 10000 7.2 160 19:40 31.12.2019
5439 Clouds 32 1007 69 10000 7.2 160 19:22 31.12.2019
5440 Clouds 32 1008 74 10000 7.2 160 18:58 31.12.2019
5441 Clouds 32 1008 74 10000 7.2 160 18:40 31.12.2019
5442 Clouds 31 1008 74 10000 7.2 160 18:19 31.12.2019
5443 Clouds 31 1009 74 10000 6.7 160 17:56 31.12.2019
5444 Clouds 31 1009 74 10000 6.7 160 17:37 31.12.2019
5445 Clouds 31 1009 74 10000 6.7 160 17:19 31.12.2019
5446 Clear 31 1009 65 10000 5.1 150 16:57 31.12.2019
5447 Clear 31 1009 65 10000 5.1 150 16:38 31.12.2019
5448 Clear 31 1009 65 10000 5.1 150 16:19 31.12.2019
5449 Clear 31 1010 69 10000 3.1 150 15:56 31.12.2019
5450 Clear 30 1010 69 10000 3.1 150 15:38 31.12.2019
5451 Clear 31 1010 69 10000 3.1 150 15:38 31.12.2019
5452 Clear 31 1010 69 10000 3.1 150 15:20 31.12.2019
5453 Clear 30 1010 83 10000 2.6 140 14:57 31.12.2019
5454 Clear 30 1010 83 10000 2.6 140 14:38 31.12.2019
5455 Clear 28 1010 83 10000 2.6 140 14:19 31.12.2019
5456 Clear 28 1010 83 10000 2.6 140 14:19 31.12.2019
5457 Clear 28 1010 78 10000 2.1 120 13:57 31.12.2019
5458 Clear 26 1010 74 10000 1.5 360 13:39 31.12.2019
5459 Clear 28 1010 74 10000 1.5 360 13:20 31.12.2019
5460 Clear 27 1011 78 10000 2.1 320 12:56 31.12.2019
5461 Clear 25 1011 78 10000 2.1 320 12:38 31.12.2019
5462 Clear 26 1011 78 10000 2.1 320 12:20 31.12.2019
5463 Clear 26 1011 78 10000 1 40 11:56 31.12.2019
5464 Clear 25 1011 78 10000 1 40 11:38 31.12.2019
5465 Clear 23 1011 78 10000 1 40 11:20 31.12.2019
5466 Clouds 23 1010 83 10000 2.19 28 10:57 31.12.2019
5467 Clouds 23 1010 83 10000 2.19 28 10:57 31.12.2019
5468 Clouds 22 1010 83 10000 2.19 28 10:38 31.12.2019
5469 Clouds 22 1010 83 10000 2.19 28 10:38 31.12.2019
5470 Clouds 22 1010 83 10000 2.19 28 10:20 31.12.2019
5471 Clouds 24 1009 88 10000 2.1 70 09:58 31.12.2019
5472 Clouds 23 1009 88 10000 2.1 70 09:39 31.12.2019
5473 Clouds 23 1009 88 10000 2.1 70 09:39 31.12.2019
5474 Clouds 23 1009 88 10000 2.1 70 09:20 31.12.2019
5475 Clear 23 1009 88 10000 1.5 100 08:57 31.12.2019
5476 Clear 23 1009 88 10000 1.5 100 08:37 31.12.2019
5477 Clear 23 1009 88 10000 1.5 100 08:19 31.12.2019
5478 Clouds 24 1009 83 10000 2.6 50 07:42 31.12.2019
5479 Clouds 24 1009 83 10000 2.6 50 07:20 31.12.2019
5480 Clouds 24 1009 83 10000 1.5 50 06:49 31.12.2019
5481 Clouds 24 1009 83 10000 2.6 40 05:57 31.12.2019
5482 Clear 24 1010 88 10000 1 160 04:28 31.12.2019
5483 Clouds 24 1010 88 10000 1.5 150 03:27 31.12.2019
5484 Clouds 24 1011 88 10000 2.1 160 02:54 31.12.2019
5485 Clouds 24 1011 88 10000 2.1 160 02:54 31.12.2019
5486 Clouds 24 1011 88 10000 2.1 160 02:54 31.12.2019
5487 Clouds 25 1010 78 10000 3.1 150 01:58 31.12.2019
5488 Clouds 25 1010 78 10000 3.1 150 01:40 31.12.2019
5489 Clouds 26 1010 78 10000 3.1 150 01:22 31.12.2019
5490 Clouds 26 1010 83 10000 4.1 160 00:45 31.12.2019
5491 Clouds 27 1010 83 10000 4.1 160 00:22 31.12.2019
5492 Clouds 25 1010 83 10000 2.1 300 23:56 30.12.2019
5493 Clouds 25 1010 83 10000 2.1 300 23:38 30.12.2019
5494 Clouds 25 1010 83 10000 2.1 300 23:20 30.12.2019
5495 Clouds 26 1009 74 10000 4.6 160 22:57 30.12.2019
5496 Clouds 26 1009 74 10000 4.6 160 22:38 30.12.2019
5497 Clouds 29 1009 74 10000 4.6 160 22:20 30.12.2019
5498 Clouds 29 1009 74 10000 6.2 140 21:56 30.12.2019
5499 Clouds 26 1009 74 10000 6.2 140 21:38 30.12.2019
5500 Clouds 29 1009 74 10000 6.2 140 21:18 30.12.2019
5501 Clouds 29 1009 78 10000 7.7 160 20:56 30.12.2019
5502 Clouds 29 1009 78 10000 7.7 160 20:56 30.12.2019
5503 Clouds 27 1009 78 10000 7.7 160 20:38 30.12.2019
5504 Clouds 29 1009 78 10000 7.7 160 20:20 30.12.2019
5505 Clouds 29 1009 83 10000 7.7 160 19:57 30.12.2019
5506 Clouds 29 1009 83 10000 7.7 160 19:37 30.12.2019
5507 Clouds 29 1009 83 10000 7.7 160 19:19 30.12.2019
5508 Clouds 29 1009 83 10000 7.7 160 19:19 30.12.2019
5509 Clouds 29 1010 83 10000 7.2 160 18:56 30.12.2019
5510 Clouds 27 1010 83 10000 7.2 160 18:38 30.12.2019
5511 Clouds 29 1010 83 10000 7.2 160 18:20 30.12.2019
5512 Clouds 29 1010 83 10000 7.2 160 17:55 30.12.2019
5513 Clouds 29 1010 83 10000 7.2 160 17:37 30.12.2019
5514 Clouds 29 1010 83 10000 7.2 160 17:18 30.12.2019
5515 Clouds 29 1011 78 10000 6.7 160 16:57 30.12.2019
5516 Clouds 27 1011 78 10000 6.7 160 16:36 30.12.2019
5517 Clouds 29 1011 78 10000 6.7 160 16:18 30.12.2019
5518 Clouds 28 1012 78 10000 5.1 160 15:55 30.12.2019
5519 Clouds 27 1012 78 10000 5.1 160 15:36 30.12.2019
5520 Clouds 28 1012 78 10000 5.1 160 15:18 30.12.2019
5521 Clouds 27 1012 78 10000 4.6 150 14:42 30.12.2019
5522 Clouds 27 1012 78 10000 4.6 150 14:20 30.12.2019
5523 Clouds 27 1012 83 10000 3.1 140 13:56 30.12.2019
5524 Clouds 24 1012 83 10000 3.1 140 13:37 30.12.2019
5525 Clouds 26 1012 83 10000 3.1 140 13:19 30.12.2019
5526 Clouds 27 1012 74 10000 2.1 320 12:56 30.12.2019
5527 Clouds 27 1012 74 10000 2.1 320 12:36 30.12.2019
5528 Clouds 26 1012 74 10000 2.1 320 12:18 30.12.2019
5529 Clouds 25 1012 78 10000 1.5 60 11:40 30.12.2019
5530 Clouds 22 1012 78 10000 1.5 60 11:19 30.12.2019
5531 Clouds 22 1011 83 10000 2.13 25 10:57 30.12.2019
5532 Clouds 21 1011 83 10000 2.13 25 10:38 30.12.2019
5533 Clouds 24 1011 83 10000 2.13 25 10:18 30.12.2019
5534 Clouds 24 1011 83 10000 1 40 09:41 30.12.2019
5535 Clouds 24 1011 83 10000 1 40 09:20 30.12.2019
5536 Clouds 24 1011 88 10000 3.1 30 08:55 30.12.2019
5537 Clouds 23 1011 88 10000 3.1 30 08:36 30.12.2019
5538 Clouds 24 1011 88 10000 3.1 30 08:18 30.12.2019
5539 Clouds 24 1011 78 10000 2.1 40 07:41 30.12.2019
5540 Clouds 25 1011 78 10000 3.1 70 06:58 30.12.2019
5541 Clouds 25 1011 78 10000 3.1 70 06:24 30.12.2019
5542 Clouds 25 1012 73 10000 3.1 80 04:23 30.12.2019
5543 Clouds 25 1013 78 10000 2.6 120 03:42 30.12.2019
5544 Clouds 25 1013 83 10000 2.6 150 02:41 30.12.2019
5545 Clear 25 1013 83 10000 2.6 150 02:20 30.12.2019
5546 Clear 26 1013 83 10000 2.6 120 01:26 30.12.2019
5547 Clouds 26 1012 83 10000 3.6 180 00:47 30.12.2019
5548 Clouds 26 1012 83 10000 3.6 180 00:28 30.12.2019
5549 Clouds 25 1012 83 10000 5.1 180 23:40 29.12.2019
5550 Clouds 25 1012 83 10000 5.1 180 23:22 29.12.2019
5551 Clouds 26 1012 74 10000 6.2 150 22:57 29.12.2019
5552 Clouds 25 1012 74 10000 6.2 150 22:38 29.12.2019
5553 Clouds 27 1012 74 10000 6.2 150 22:20 29.12.2019
5554 Rain 29 1011 78 10000 7.2 170 21:55 29.12.2019
5555 Rain 25 1011 78 10000 7.2 170 21:37 29.12.2019
5556 Rain 29 1011 78 10000 7.2 170 21:18 29.12.2019
5557 Clouds 29 1011 78 10000 6.7 170 20:55 29.12.2019
5558 Clouds 29 1011 78 10000 6.7 170 20:55 29.12.2019
5559 Clouds 29 1011 78 10000 6.7 170 20:37 29.12.2019
5560 Clouds 29 1011 78 10000 6.7 170 20:18 29.12.2019
5561 Clouds 29 1012 78 10000 7.7 160 19:55 29.12.2019
5562 Clouds 26 1012 78 10000 7.7 160 19:37 29.12.2019
5563 Clouds 29 1012 78 10000 7.7 160 19:18 29.12.2019
5564 Clouds 31 1012 66 10000 5.1 160 18:54 29.12.2019
5565 Clouds 27 1012 66 10000 5.1 160 18:36 29.12.2019
5566 Clouds 31 1012 66 10000 5.1 160 18:18 29.12.2019
5567 Clouds 31 1013 66 10000 5.7 160 17:55 29.12.2019
5568 Clouds 30 1013 66 10000 5.7 160 17:36 29.12.2019
5569 Clouds 30 1013 66 10000 5.7 160 17:18 29.12.2019
5570 Clouds 30 1013 74 10000 5.7 160 16:54 29.12.2019
5571 Clouds 29 1013 74 10000 5.7 160 16:36 29.12.2019
5572 Clouds 29 1013 74 10000 5.7 160 16:18 29.12.2019
5573 Clouds 29 1014 78 10000 6.2 160 15:55 29.12.2019
5574 Clouds 27 1014 78 10000 6.2 160 15:37 29.12.2019
5575 Clouds 29 1014 78 10000 6.2 160 15:18 29.12.2019
5576 Clouds 29 1014 74 10000 4.1 140 14:55 29.12.2019
5577 Clouds 28 1014 74 10000 4.1 140 14:37 29.12.2019
5578 Clouds 28 1014 74 10000 4.1 140 14:18 29.12.2019
5579 Clouds 28 1014 78 10000 3.6 160 13:40 29.12.2019
5580 Clouds 28 1014 78 10000 3.6 160 13:40 29.12.2019
5581 Clouds 28 1014 78 10000 3.6 160 13:22 29.12.2019
5582 Clear 28 1014 78 10000 2.1 130 12:59 29.12.2019
5583 Clear 28 1014 78 10000 2.1 130 12:41 29.12.2019
5584 Clear 26 1014 78 10000 2.1 130 12:22 29.12.2019
5585 Clear 26 1014 74 10000 2.1 130 11:54 29.12.2019
5586 Clear 24 1013 78 10000 1 10 11:36 29.12.2019
5587 Clear 24 1013 78 10000 1 10 11:18 29.12.2019
5588 Clouds 23 1013 83 10000 2.1 60 10:41 29.12.2019
5589 Clouds 23 1013 83 10000 2.1 60 10:20 29.12.2019
5590 Clouds 23 1013 88 10000 1 120 09:54 29.12.2019
5591 Clouds 24 1013 88 10000 1 120 09:36 29.12.2019
5592 Clouds 24 1013 88 10000 1 120 09:18 29.12.2019
5593 Clouds 24 1012 88 10000 2.6 30 08:44 29.12.2019
5594 Clouds 24 1012 88 10000 2.6 30 08:24 29.12.2019
5595 Clouds 25 1013 83 10000 4.1 30 07:54 29.12.2019
5596 Clouds 25 1013 83 10000 4.1 30 07:27 29.12.2019
5597 Clouds 24 1013 78 10000 4.1 80 06:53 29.12.2019
5598 Clouds 25 1013 78 10000 4.1 80 06:23 29.12.2019
5599 Clouds 25 1014 83 10000 3.1 80 05:48 29.12.2019
5600 Clouds 25 1014 83 10000 5.1 70 04:34 29.12.2019
5601 Clear 25 1015 83 10000 1.5 180 03:40 29.12.2019
5602 Clear 25 1015 83 10000 3.6 180 02:49 29.12.2019
5603 Clear 24 1015 83 10000 3.6 180 02:19 29.12.2019
5604 Clear 25 1014 78 10000 5.1 130 01:31 29.12.2019
5605 Clear 26 1013 78 10000 2.1 120 00:51 29.12.2019
5606 Clear 26 1013 78 10000 2.1 120 00:27 29.12.2019
5607 Clouds 26 1013 78 10000 5.1 190 23:57 28.12.2019
5608 Clouds 26 1013 78 10000 5.1 190 23:39 28.12.2019
5609 Clouds 27 1013 78 10000 5.1 190 23:18 28.12.2019
5610 Clouds 27 1012 74 10000 5.1 200 22:39 28.12.2019
5611 Clouds 29 1012 74 10000 5.1 200 22:19 28.12.2019
5612 Clouds 29 1012 69 10000 6.7 200 21:57 28.12.2019
5613 Clouds 29 1012 69 10000 6.7 200 21:39 28.12.2019
5614 Clouds 30 1012 69 10000 6.7 200 21:20 28.12.2019
5615 Clouds 29 1012 78 10000 5.1 170 20:56 28.12.2019
5616 Clouds 29 1012 78 10000 5.1 170 20:37 28.12.2019
5617 Clouds 30 1012 78 10000 5.1 170 20:19 28.12.2019
5618 Clouds 30 1013 69 10000 6.7 160 19:55 28.12.2019
5619 Clouds 30 1013 69 10000 6.7 160 19:37 28.12.2019
5620 Clouds 30 1013 69 10000 6.7 160 19:18 28.12.2019
5621 Clouds 29 1014 69 10000 5.7 160 18:56 28.12.2019
5622 Clouds 28 1014 69 10000 5.7 160 18:38 28.12.2019
5623 Clouds 30 1014 69 10000 5.7 160 18:18 28.12.2019
5624 Clouds 30 1014 78 10000 6.2 170 17:42 28.12.2019
5625 Clouds 30 1014 78 10000 6.2 170 17:21 28.12.2019
5626 Clouds 30 1015 78 10000 5.7 150 16:59 28.12.2019
5627 Clouds 30 1015 78 10000 5.7 150 16:41 28.12.2019
5628 Clouds 30 1015 78 10000 5.7 150 16:23 28.12.2019
5629 Clouds 30 1016 78 10000 4.1 150 15:43 28.12.2019
5630 Clouds 29 1016 78 10000 4.1 150 15:23 28.12.2019
5631 Clouds 29 1016 78 10000 3.1 130 14:57 28.12.2019
5632 Clouds 27 1016 78 10000 3.1 130 14:38 28.12.2019
5633 Clouds 28 1016 78 10000 3.1 130 14:20 28.12.2019
5634 Clouds 28 1016 78 10000 1.5 60 13:43 28.12.2019
5635 Clouds 28 1016 78 10000 1.5 60 13:23 28.12.2019
5636 Clouds 27 1016 78 10000 1 120 12:59 28.12.2019
5637 Clouds 27 1016 78 10000 1 120 12:41 28.12.2019
5638 Clouds 26 1016 78 10000 1 120 12:22 28.12.2019
5639 Clouds 26 1015 78 10000 1 30 11:55 28.12.2019
5640 Clouds 24 1015 83 10000 0.5 100 11:37 28.12.2019
5641 Clouds 24 1015 83 10000 0.5 100 11:18 28.12.2019
5642 Clouds 23 1015 88 10000 2.1 140 10:43 28.12.2019
5643 Clouds 25 1015 88 10000 2.1 140 10:20 28.12.2019
5644 Clouds 24 1014 88 10000 1.5 120 09:57 28.12.2019
5645 Clouds 24 1014 88 10000 1.5 120 09:39 28.12.2019
5646 Clouds 24 1014 88 10000 1.5 120 09:19 28.12.2019
5647 Clouds 24 1014 83 10000 1 180 08:44 28.12.2019
5648 Clouds 24 1014 83 10000 1 180 08:26 28.12.2019
5649 Clouds 24 1013 83 10000 1.5 70 07:49 28.12.2019
5650 Clouds 25 1013 83 10000 1.5 70 07:27 28.12.2019
5651 Clouds 25 1014 83 10000 2.1 60 06:21 28.12.2019
5652 Clouds 25 1015 83 10000 2.6 70 04:36 28.12.2019
5653 Clear 25 1015 83 10000 2.1 70 03:39 28.12.2019
5654 Clouds 25 1015 83 10000 2.1 140 02:48 28.12.2019
5655 Clouds 25 1015 78 10000 4.1 110 01:59 28.12.2019
5656 Clouds 26 1015 78 10000 4.1 110 01:30 28.12.2019
5657 Clouds 26 1014 78 10000 2.1 140 00:55 28.12.2019
5658 Clouds 26 1014 78 10000 2.1 140 00:37 28.12.2019
5659 Clouds 26 1014 78 10000 2.1 140 00:19 28.12.2019
5660 Clouds 26 1014 74 10000 5.7 190 23:43 27.12.2019
5661 Clouds 27 1014 74 10000 5.7 190 23:20 27.12.2019
5662 Clouds 27 1014 74 10000 6.7 190 22:57 27.12.2019
5663 Clouds 27 1014 74 10000 6.7 190 22:38 27.12.2019
5664 Clouds 28 1014 74 10000 6.7 190 22:20 27.12.2019
5665 Clouds 28 1014 78 10000 7.7 180 21:55 27.12.2019
5666 Clouds 27 1014 78 10000 7.7 180 21:37 27.12.2019
5667 Clouds 29 1014 78 10000 7.7 180 21:18 27.12.2019
5668 Clouds 28 1014 83 10000 7.7 170 20:41 27.12.2019
5669 Clouds 29 1014 83 10000 7.7 170 20:22 27.12.2019
5670 Clouds 29 1015 78 10000 6.7 160 19:43 27.12.2019
5671 Clouds 29 1015 78 10000 6.7 160 19:21 27.12.2019
5672 Clouds 29 1015 78 10000 6.7 160 18:59 27.12.2019
5673 Clouds 29 1015 78 10000 6.7 160 18:39 27.12.2019
5674 Clouds 29 1015 78 10000 6.7 160 18:21 27.12.2019
5675 Clouds 29 1016 74 10000 6.2 160 17:58 27.12.2019
5676 Clouds 28 1016 74 10000 6.2 160 17:39 27.12.2019
5677 Clouds 30 1016 74 10000 6.2 160 17:19 27.12.2019
5678 Clouds 29 1016 78 10000 5.1 150 16:58 27.12.2019
5679 Clouds 28 1016 78 10000 5.1 150 16:38 27.12.2019
5680 Clouds 29 1016 78 10000 5.1 150 16:19 27.12.2019
5681 Clouds 29 1016 78 10000 5.1 160 15:45 27.12.2019
5682 Clouds 28 1016 78 10000 5.1 160 15:22 27.12.2019
5683 Clouds 28 1016 83 10000 4.6 160 14:58 27.12.2019
5684 Clouds 28 1016 83 10000 4.6 160 14:39 27.12.2019
5685 Clouds 27 1016 83 10000 4.6 160 14:20 27.12.2019
5686 Clouds 27 1016 83 10000 2.6 140 13:57 27.12.2019
5687 Clouds 27 1016 83 10000 2.6 140 13:38 27.12.2019
5688 Clouds 26 1016 83 10000 2.6 140 13:38 27.12.2019
5689 Clouds 27 1016 83 10000 2.6 140 13:20 27.12.2019
5690 Clouds 26 1016 83 8000 2.1 130 12:42 27.12.2019
5691 Clouds 25 1016 88 8000 1.5 130 12:23 27.12.2019
5692 Clouds 25 1015 88 8000 1.5 150 11:46 27.12.2019
5693 Clouds 24 1015 88 8000 1.5 150 11:27 27.12.2019
5694 Clouds 22 1016 83 10000 1.5 30 10:59 27.12.2019
5695 Clouds 22 1016 83 10000 1.5 30 10:41 27.12.2019
5696 Clouds 22 1015 94 7000 1.5 140 10:22 27.12.2019
5697 Clouds 24 1014 94 10000 1 130 09:49 27.12.2019
5698 Clouds 24 1014 94 10000 1 130 09:22 27.12.2019
5699 Clouds 24 1014 94 10000 2.1 140 08:59 27.12.2019
5700 Clouds 25 1014 94 10000 2.1 140 08:38 27.12.2019
5701 Clouds 24 1014 94 10000 2.1 140 08:18 27.12.2019
5702 Clouds 24 1014 94 10000 2.1 150 07:38 27.12.2019
5703 Clouds 24 1014 94 10000 3.1 150 06:43 27.12.2019
5704 Clouds 25 1014 94 10000 3.1 150 06:22 27.12.2019
5705 Clouds 25 1015 88 10000 2.6 130 04:37 27.12.2019
5706 Clouds 25 1015 88 10000 1 140 02:28 27.12.2019
5707 Clouds 25 1014 88 10000 2.1 120 01:44 27.12.2019
5708 Clouds 25 1014 88 10000 2.1 120 01:21 27.12.2019
5709 Clouds 25 1014 88 10000 3.6 180 00:46 27.12.2019
5710 Clouds 25 1014 88 10000 3.6 180 00:25 27.12.2019
5711 Clouds 25 1013 88 10000 6.2 200 23:56 26.12.2019
5712 Clouds 25 1013 88 10000 6.2 200 23:37 26.12.2019
5713 Clouds 26 1013 88 10000 6.2 200 23:19 26.12.2019
5714 Clouds 26 1014 88 10000 6.2 190 22:40 26.12.2019
5715 Clouds 27 1014 88 10000 6.2 190 22:18 26.12.2019
5716 Clouds 27 1013 88 10000 7.7 170 21:40 26.12.2019
5717 Clouds 28 1013 88 10000 7.7 170 21:21 26.12.2019
5718 Clouds 28 1013 83 10000 7.7 170 20:58 26.12.2019
5719 Clouds 27 1013 83 10000 7.7 170 20:39 26.12.2019
5720 Clouds 29 1013 83 10000 7.7 170 20:21 26.12.2019
5721 Clouds 29 1013 83 10000 7.2 170 19:56 26.12.2019
5722 Clouds 29 1013 83 10000 7.2 170 19:38 26.12.2019
5723 Clouds 29 1013 83 10000 7.2 170 19:19 26.12.2019
5724 Clouds 29 1013 83 10000 7.2 170 18:57 26.12.2019
5725 Clouds 29 1013 83 10000 7.2 170 18:36 26.12.2019
5726 Clouds 29 1013 83 10000 7.2 170 18:18 26.12.2019
5727 Clouds 29 1014 78 10000 7.7 160 17:42 26.12.2019
5728 Clouds 29 1014 78 10000 7.7 160 17:22 26.12.2019
5729 Clouds 30 1014 83 10000 7.7 160 16:50 26.12.2019
5730 Clouds 29 1014 83 10000 7.7 160 16:28 26.12.2019
5731 Clear 29 1014 83 10000 7.7 160 15:59 26.12.2019
5732 Clear 29 1014 83 10000 7.7 160 15:40 26.12.2019
5733 Clear 29 1014 83 10000 7.7 160 15:19 26.12.2019
5734 Clear 29 1015 83 10000 5.1 140 14:42 26.12.2019
5735 Clear 28 1015 83 10000 5.1 140 14:23 26.12.2019
5736 Clouds 28 1015 83 10000 1 50 13:58 26.12.2019
5737 Clouds 27 1015 83 10000 1 50 13:39 26.12.2019
5738 Clouds 27 1015 83 10000 1 50 13:18 26.12.2019
5739 Clouds 26 1015 88 10000 1.5 40 12:56 26.12.2019
5740 Clouds 24 1015 88 10000 1.5 40 12:36 26.12.2019
5741 Clouds 25 1015 88 10000 1.5 40 12:18 26.12.2019
5742 Clouds 25 1014 88 10000 2.1 40 11:42 26.12.2019
5743 Clouds 23 1014 88 10000 2.1 40 11:23 26.12.2019
5744 Clouds 22 1014 88 10000 3.1 30 10:54 26.12.2019
5745 Clouds 22 1014 88 10000 3.1 30 10:36 26.12.2019
5746 Clouds 22 1014 88 10000 3.1 30 10:18 26.12.2019
5747 Clouds 22 1014 94 10000 2.1 20 09:42 26.12.2019
5748 Clouds 23 1014 94 10000 2.1 20 09:24 26.12.2019
5749 Clouds 23 1013 94 10000 1.5 20 08:40 26.12.2019
5750 Clouds 23 1013 94 10000 1.5 20 08:40 26.12.2019
5751 Clouds 23 1013 94 10000 1.5 20 08:22 26.12.2019
5752 Clear 23 1013 88 10000 1 20 07:50 26.12.2019
5753 Clear 23 1013 88 10000 1 20 07:26 26.12.2019
5754 Clear 23 1013 88 10000 2.1 320 06:48 26.12.2019
5755 Clear 23 1013 88 10000 2.1 320 06:30 26.12.2019
5756 Clear 24 1014 83 10000 1.24 3 05:45 26.12.2019
5757 Clear 24 1014 88 10000 1 70 04:38 26.12.2019
5758 Clouds 24 1015 83 10000 2.1 170 03:47 26.12.2019
5759 Clouds 25 1015 83 10000 2.1 170 02:54 26.12.2019
5760 Clouds 26 1015 83 10000 2.1 170 02:32 26.12.2019
5761 Clouds 26 1015 83 10000 3.1 160 01:46 26.12.2019
5762 Clouds 25 1015 83 10000 3.1 160 01:27 26.12.2019
5763 Clouds 25 1014 83 10000 3.6 150 00:48 26.12.2019
5764 Clouds 26 1014 83 10000 3.6 150 00:25 26.12.2019
5765 Clouds 25 1013 83 10000 3.6 140 23:58 25.12.2019
5766 Clouds 25 1013 83 10000 3.6 140 23:38 25.12.2019
5767 Clouds 25 1013 83 10000 3.6 140 23:20 25.12.2019
5768 Clouds 25 1013 88 10000 6.7 170 22:58 25.12.2019
5769 Clouds 25 1013 88 10000 6.7 170 22:38 25.12.2019
5770 Clouds 27 1013 88 10000 6.7 170 22:20 25.12.2019
5771 Clouds 27 1012 83 10000 7.2 170 21:57 25.12.2019
5772 Clouds 27 1012 83 10000 7.2 170 21:39 25.12.2019
5773 Clouds 26 1012 83 10000 7.2 170 21:39 25.12.2019
5774 Clouds 28 1012 83 10000 7.2 170 21:19 25.12.2019
5775 Clouds 28 1013 78 10000 6.7 170 20:54 25.12.2019
5776 Clouds 27 1013 78 10000 6.7 170 20:36 25.12.2019
5777 Clouds 27 1013 78 10000 6.7 170 20:36 25.12.2019
5778 Clouds 28 1013 78 10000 6.7 170 20:18 25.12.2019
5779 Clouds 29 1013 78 10000 6.7 170 19:42 25.12.2019
5780 Clouds 29 1013 78 10000 6.7 170 19:23 25.12.2019
5781 Clouds 29 1013 78 10000 7.2 170 18:58 25.12.2019
5782 Clouds 29 1013 78 10000 7.2 170 18:36 25.12.2019
5783 Clouds 29 1013 78 10000 7.2 170 18:18 25.12.2019
5784 Clouds 29 1013 78 10000 6.2 170 17:41 25.12.2019
5785 Clouds 29 1013 78 10000 6.2 170 17:19 25.12.2019
5786 Clouds 28 1014 78 10000 6.7 160 16:57 25.12.2019
5787 Clouds 27 1014 78 10000 6.7 160 16:37 25.12.2019
5788 Clouds 28 1014 78 10000 6.7 160 16:18 25.12.2019
5789 Clouds 28 1014 74 10000 4.1 140 15:56 25.12.2019
5790 Clouds 28 1014 74 10000 4.1 140 15:38 25.12.2019
5791 Clouds 28 1014 74 10000 4.1 140 15:38 25.12.2019
5792 Clouds 28 1014 74 10000 4.1 140 15:19 25.12.2019
5793 Clouds 28 1014 74 10000 4.1 140 15:19 25.12.2019
5794 Clouds 27 1014 74 10000 2.6 130 14:56 25.12.2019
5795 Clouds 26 1014 74 10000 1.5 360 14:37 25.12.2019
5796 Clouds 27 1014 74 10000 1.5 360 14:19 25.12.2019
5797 Clouds 26 1014 88 10000 2.1 20 13:44 25.12.2019
5798 Clouds 25 1014 88 10000 2.1 20 13:21 25.12.2019
5799 Clouds 24 1014 88 10000 2.6 360 12:56 25.12.2019
5800 Clouds 24 1014 88 10000 2.6 360 12:38 25.12.2019
5801 Clouds 22 1014 94 8000 3.1 20 12:19 25.12.2019
5802 Clouds 22 1014 94 7000 2.6 20 11:43 25.12.2019
5803 Clouds 21 1014 94 7000 2.6 20 11:22 25.12.2019
5804 Clouds 21 1013 88 8000 3.1 30 10:59 25.12.2019
5805 Clouds 21 1013 88 8000 3.1 30 10:36 25.12.2019
5806 Clouds 20 1013 88 8000 3.1 30 10:18 25.12.2019
5807 Clouds 21 1013 88 9000 2.6 360 09:44 25.12.2019
5808 Clouds 22 1013 88 9000 2.6 360 09:26 25.12.2019
5809 Clouds 22 1013 88 10000 2.1 30 08:46 25.12.2019
5810 Clouds 22 1013 88 10000 2.1 30 08:26 25.12.2019
5811 Clouds 22 1013 88 10000 2.1 60 07:48 25.12.2019
5812 Clouds 22 1013 88 10000 2.1 60 07:29 25.12.2019
5813 Clouds 22 1013 94 10000 1.5 40 06:49 25.12.2019
5814 Clouds 22 1013 94 10000 1.5 40 06:22 25.12.2019
5815 Clouds 22 1014 88 10000 1.5 360 04:50 25.12.2019
5816 Clouds 22 1014 88 10000 1.5 360 04:26 25.12.2019
5817 Clouds 23 1015 83 10000 1 10 03:58 25.12.2019
5818 Clouds 23 1015 83 10000 1 10 03:40 25.12.2019
5819 Clouds 23 1015 88 10000 3.23 89 02:39 25.12.2019
5820 Clouds 23 1014 83 10000 1.5 40 01:58 25.12.2019
5821 Clouds 23 1014 83 10000 1.5 40 01:25 25.12.2019
5822 Clouds 23 1014 88 10000 3.6 40 00:50 25.12.2019
5823 Clouds 24 1014 88 10000 3.6 40 00:29 25.12.2019
5824 Clouds 24 1013 88 10000 1.5 170 23:56 24.12.2019
5825 Clouds 24 1013 88 10000 1.5 170 23:37 24.12.2019
5826 Clouds 24 1013 88 10000 1.5 170 23:19 24.12.2019
5827 Clouds 24 1013 88 10000 3.1 170 22:40 24.12.2019
5828 Clouds 24 1013 88 10000 3.1 170 22:21 24.12.2019
5829 Rain 23 1013 88 10000 3.6 160 21:43 24.12.2019
5830 Rain 25 1013 88 10000 3.6 160 21:22 24.12.2019
5831 Clouds 25 1013 88 10000 3.6 170 20:54 24.12.2019
5832 Clouds 25 1013 88 10000 3.6 170 20:36 24.12.2019
5833 Clouds 25 1013 88 10000 3.6 170 20:18 24.12.2019
5834 Clouds 25 1013 88 10000 3.6 170 20:18 24.12.2019
5835 Rain 24 1013 88 10000 4.1 160 19:43 24.12.2019
5836 Rain 25 1013 88 10000 4.1 160 19:19 24.12.2019
5837 Clouds 26 1013 78 10000 5.7 170 18:43 24.12.2019
5838 Clouds 27 1013 78 10000 5.7 170 18:23 24.12.2019
5839 Clouds 27 1013 78 10000 5.7 160 17:58 24.12.2019
5840 Clouds 27 1013 78 10000 5.7 160 17:37 24.12.2019
5841 Clouds 27 1013 78 10000 5.7 160 17:19 24.12.2019
5842 Rain 26 1014 88 10000 5.1 140 16:55 24.12.2019
5843 Rain 26 1014 88 10000 5.1 140 16:36 24.12.2019
5844 Rain 26 1014 88 10000 5.1 140 16:18 24.12.2019
5845 Clouds 27 1014 88 10000 4.6 130 15:54 24.12.2019
5846 Clouds 26 1014 88 10000 4.6 130 15:36 24.12.2019
5847 Clouds 26 1014 88 10000 4.6 130 15:18 24.12.2019
5848 Clouds 26 1014 88 10000 2.6 150 14:54 24.12.2019
5849 Clouds 24 1014 88 10000 2.6 150 14:36 24.12.2019
5850 Clouds 24 1014 88 10000 2.6 150 14:36 24.12.2019
5851 Clouds 26 1014 88 10000 2.6 150 14:18 24.12.2019
5852 Clouds 26 1014 83 10000 1.5 140 13:54 24.12.2019
5853 Clouds 24 1014 88 10000 2.1 20 13:36 24.12.2019
5854 Clouds 25 1014 88 10000 2.1 20 13:18 24.12.2019
5855 Clouds 25 1013 94 10000 2.6 350 12:54 24.12.2019
5856 Clouds 23 1013 94 10000 2.6 350 12:36 24.12.2019
5857 Clouds 24 1013 94 10000 2.6 350 12:18 24.12.2019
5858 Clouds 24 1012 94 10000 3.6 40 11:54 24.12.2019
5859 Clouds 22 1012 94 10000 3.6 40 11:36 24.12.2019
5860 Clouds 22 1012 94 10000 3.6 40 11:18 24.12.2019
5861 Clouds 22 1012 88 10000 1 190 10:54 24.12.2019
5862 Clouds 22 1012 88 10000 1 190 10:54 24.12.2019
5863 Clouds 23 1012 88 10000 1 190 10:36 24.12.2019
5864 Clouds 23 1012 88 10000 1 190 10:18 24.12.2019
5865 Clouds 23 1012 94 10000 1.5 210 09:54 24.12.2019
5866 Clouds 23 1012 94 10000 1.5 210 09:36 24.12.2019
5867 Clouds 23 1012 94 10000 1.5 210 09:18 24.12.2019
5868 Clouds 23 1011 94 10000 2.1 160 08:42 24.12.2019
5869 Clouds 23 1011 94 10000 2.1 160 08:19 24.12.2019
5870 Clouds 23 1012 94 10000 2.6 150 07:45 24.12.2019
5871 Clouds 23 1012 94 10000 2.6 150 07:23 24.12.2019
5872 Clouds 23 1012 94 10000 3.6 190 06:41 24.12.2019
5873 Clouds 23 1012 94 10000 3.6 190 06:22 24.12.2019
5874 Clouds 23 1012 94 9000 3.6 120 05:56 24.12.2019
5875 Clouds 23 1012 94 9000 3.6 120 05:20 24.12.2019
5876 Rain 23 1013 94 7000 1.5 330 04:33 24.12.2019
5877 Clouds 24 1014 94 7000 2.6 40 03:50 24.12.2019
5878 Rain 24 1014 94 6000 4.6 40 02:59 24.12.2019
5879 Rain 24 1014 94 6000 4.6 40 02:19 24.12.2019
5880 Clouds 24 1013 94 6000 2.6 10 01:42 24.12.2019
5881 Clouds 24 1013 94 6000 2.6 10 01:20 24.12.2019
5882 Rain 24 1012 88 5000 3.1 10 00:43 24.12.2019
5883 Rain 24 1012 88 5000 3.1 10 00:23 24.12.2019
5884 Rain 24 1012 94 5000 3.1 350 23:55 23.12.2019
5885 Rain 24 1012 88 5000 4.1 350 23:37 23.12.2019
5886 Rain 24 1012 88 5000 4.1 350 23:37 23.12.2019
5887 Rain 25 1012 88 5000 4.1 350 23:19 23.12.2019
5888 Rain 25 1013 88 4000 2.1 50 22:54 23.12.2019
5889 Rain 25 1011 88 10000 0.5 50 22:36 23.12.2019
5890 Rain 25 1011 88 10000 0.5 50 22:18 23.12.2019
5891 Rain 25 1012 88 8000 1.5 110 21:55 23.12.2019
5892 Rain 24 1011 83 10000 2.89 212 21:36 23.12.2019
5893 Rain 24 1011 83 10000 2.89 212 21:18 23.12.2019
5894 Rain 24 1011 94 8000 2.6 70 20:56 23.12.2019
5895 Rain 22 1011 94 8000 2.6 70 20:38 23.12.2019
5896 Rain 23 1011 94 8000 2.6 70 20:18 23.12.2019
5897 Rain 22 1012 94 5000 1.5 340 19:54 23.12.2019
5898 Thunderstorm 21 1011 94 4000 3.1 330 19:36 23.12.2019
5899 Thunderstorm 23 1011 94 4000 3.1 330 19:18 23.12.2019
5900 Thunderstorm 24 1013 94 1000 10.8 320 18:55 23.12.2019
5901 Rain 25 1010 88 10000 5.1 150 18:36 23.12.2019
5902 Rain 25 1010 88 10000 5.1 150 18:18 23.12.2019
5903 Clouds 27 1010 83 10000 4.6 150 17:55 23.12.2019
5904 Clouds 26 1010 83 10000 4.6 150 17:37 23.12.2019
5905 Clouds 28 1010 83 10000 4.6 150 17:18 23.12.2019
5906 Clouds 28 1010 83 10000 4.1 150 16:42 23.12.2019
5907 Clouds 28 1010 83 10000 4.1 150 16:19 23.12.2019
5908 Clouds 28 1011 88 10000 4.1 140 15:58 23.12.2019
5909 Clouds 28 1011 88 10000 4.1 140 15:38 23.12.2019
5910 Clouds 27 1011 88 10000 4.1 140 15:20 23.12.2019
5911 Clouds 27 1011 83 10000 2.1 140 14:59 23.12.2019
5912 Clouds 27 1011 83 10000 2.1 140 14:41 23.12.2019
5913 Clouds 27 1011 83 10000 2.1 140 14:22 23.12.2019
5914 Clouds 27 1011 83 10000 2.1 140 13:58 23.12.2019
5915 Clouds 27 1011 83 10000 2.1 140 13:40 23.12.2019
5916 Clouds 26 1011 83 10000 2.1 140 13:22 23.12.2019
5917 Clouds 26 1011 83 10000 1.5 110 12:57 23.12.2019
5918 Clouds 26 1011 83 10000 1.5 110 12:39 23.12.2019
5919 Clouds 25 1011 83 10000 1.5 110 12:19 23.12.2019
5920 Clouds 25 1011 83 10000 0.5 140 11:44 23.12.2019
5921 Clouds 23 1011 83 10000 0.5 140 11:26 23.12.2019
5922 Clouds 23 1010 88 10000 1 320 10:59 23.12.2019
5923 Clouds 23 1010 88 10000 1 320 10:40 23.12.2019
5924 Clouds 23 1010 88 10000 1 320 10:21 23.12.2019
5925 Clouds 23 1010 88 10000 1 350 09:59 23.12.2019
5926 Clouds 23 1010 88 10000 1 350 09:40 23.12.2019
5927 Clouds 23 1010 88 10000 1 350 09:21 23.12.2019
5928 Clouds 23 1010 88 6000 1.5 360 08:58 23.12.2019
5929 Clouds 23 1010 88 6000 1.5 360 08:40 23.12.2019
5930 Clouds 23 1010 88 6000 1.5 360 08:22 23.12.2019
5931 Clouds 23 1010 94 6000 4.6 10 07:47 23.12.2019
5932 Clouds 23 1010 94 6000 4.6 10 07:20 23.12.2019
5933 Rain 23 1010 94 4000 3.6 340 06:53 23.12.2019
5934 Rain 23 1010 94 4000 3.6 340 06:26 23.12.2019
5935 Rain 23 1011 94 4000 3.1 320 05:56 23.12.2019
5936 Rain 23 1011 94 4000 3.1 320 05:29 23.12.2019
5937 Rain 23 1012 94 4000 3.6 310 04:31 23.12.2019
5938 Rain 23 1013 94 6000 4.6 320 03:26 23.12.2019
5939 Rain 23 1014 88 7000 2.1 350 02:42 23.12.2019
5940 Rain 23 1014 88 7000 2.1 350 02:19 23.12.2019
5941 Rain 23 1013 88 4000 2.1 170 01:43 23.12.2019
5942 Rain 24 1013 88 4000 2.1 170 01:25 23.12.2019
5943 Thunderstorm 24 1012 83 4000 3.6 230 00:44 23.12.2019
5944 Thunderstorm 24 1012 83 4000 3.6 230 00:44 23.12.2019
5945 Thunderstorm 24 1012 83 4000 3.6 230 00:23 23.12.2019
5946 Clouds 25 1010 69 10000 2.6 220 23:40 22.12.2019
5947 Clouds 26 1010 69 10000 2.6 220 23:22 22.12.2019
5948 Clouds 26 1010 83 10000 4.6 360 22:58 22.12.2019
5949 Clouds 26 1010 83 10000 4.6 360 22:40 22.12.2019
5950 Clouds 28 1010 83 10000 4.6 360 22:22 22.12.2019
5951 Clouds 28 1009 83 10000 5.1 40 21:59 22.12.2019
5952 Clouds 28 1009 83 10000 5.1 40 21:40 22.12.2019
5953 Clouds 28 1009 83 10000 5.1 40 21:21 22.12.2019
5954 Thunderstorm 28 1009 78 10000 5.1 40 20:59 22.12.2019
5955 Thunderstorm 28 1009 78 10000 5.1 40 20:39 22.12.2019
5956 Thunderstorm 30 1009 66 10000 4.1 130 20:19 22.12.2019
5957 Thunderstorm 31 1009 62 10000 6.2 160 19:57 22.12.2019
5958 Thunderstorm 31 1009 62 10000 6.2 160 19:39 22.12.2019
5959 Clouds 32 1008 74 10000 8.2 160 19:20 22.12.2019
5960 Clouds 32 1008 70 10000 7.2 160 18:42 22.12.2019
5961 Clouds 33 1008 70 10000 7.2 160 18:24 22.12.2019
5962 Clouds 32 1009 74 10000 6.7 150 17:57 22.12.2019
5963 Clouds 31 1009 74 10000 6.7 150 17:39 22.12.2019
5964 Clouds 32 1009 74 10000 6.7 150 17:19 22.12.2019
5965 Clouds 32 1010 78 10000 7.2 150 16:58 22.12.2019
5966 Clouds 32 1010 78 10000 7.2 150 16:40 22.12.2019
5967 Clouds 32 1010 78 10000 7.2 150 16:40 22.12.2019
5968 Clouds 33 1010 78 10000 7.2 150 16:22 22.12.2019
5969 Clouds 33 1010 70 10000 6.2 140 15:57 22.12.2019
5970 Clouds 33 1010 70 10000 6.2 140 15:38 22.12.2019
5971 Clouds 33 1010 70 10000 6.2 140 15:20 22.12.2019
5972 Clouds 33 1009 59 10000 4.1 350 14:56 22.12.2019
5973 Clouds 33 1009 59 10000 4.1 350 14:38 22.12.2019
5974 Clouds 34 1009 59 10000 4.1 350 14:18 22.12.2019
5975 Clouds 34 1009 55 10000 4.6 330 13:55 22.12.2019
5976 Clouds 31 1009 55 10000 4.6 330 13:37 22.12.2019
5977 Clouds 31 1009 55 10000 4.6 330 13:19 22.12.2019
5978 Clouds 31 1009 52 10000 4.6 290 12:56 22.12.2019
5979 Clouds 32 1009 52 10000 4.6 290 12:37 22.12.2019
5980 Clouds 30 1009 52 10000 4.6 290 12:19 22.12.2019
5981 Clouds 29 1009 55 10000 4.1 300 11:56 22.12.2019
5982 Clouds 29 1009 55 10000 4.1 300 11:56 22.12.2019
5983 Clouds 28 1009 55 10000 4.1 300 11:38 22.12.2019
5984 Clouds 28 1009 55 10000 4.1 300 11:19 22.12.2019
5985 Clouds 27 1009 70 10000 3.1 310 10:55 22.12.2019
5986 Clouds 26 1009 70 10000 3.1 310 10:37 22.12.2019
5987 Clouds 26 1009 70 10000 3.1 310 10:18 22.12.2019
5988 Clouds 27 1007 70 10000 3.1 320 09:57 22.12.2019
5989 Clouds 28 1007 70 10000 3.1 320 09:39 22.12.2019
5990 Clouds 27 1007 70 10000 3.1 320 09:20 22.12.2019
5991 Clouds 27 1007 66 10000 3.1 300 08:42 22.12.2019
5992 Clouds 28 1007 66 10000 3.1 300 08:22 22.12.2019
5993 Clouds 27 1007 78 10000 3.1 320 07:43 22.12.2019
5994 Clouds 27 1007 78 10000 3.1 320 07:21 22.12.2019
5995 Clouds 28 1007 74 10000 2.6 320 06:52 22.12.2019
5996 Clouds 28 1007 74 10000 2.6 320 06:25 22.12.2019
5997 Clouds 28 1007 83 10000 2.6 350 05:32 22.12.2019
5998 Clouds 28 1008 74 10000 2.6 340 04:46 22.12.2019
5999 Clouds 28 1008 74 10000 2.6 340 04:25 22.12.2019
6000 Clouds 29 1008 70 10000 3.1 360 02:45 22.12.2019
6001 Clouds 28 1008 70 10000 3.1 360 02:21 22.12.2019
6002 Clouds 29 1008 62 10000 3.1 310 01:31 22.12.2019
6003 Clouds 29 1008 58 10000 4.1 340 00:56 22.12.2019
6004 Clouds 30 1008 58 10000 4.1 340 00:36 22.12.2019
6005 Clouds 29 1008 58 10000 4.1 340 00:18 22.12.2019
6006 Thunderstorm 28 1007 79 10000 4.1 350 23:40 21.12.2019
6007 Thunderstorm 29 1007 79 10000 4.1 350 23:21 21.12.2019
6008 Clouds 30 1007 62 10000 2.6 360 22:56 21.12.2019
6009 Clouds 30 1007 62 10000 2.6 360 22:37 21.12.2019
6010 Clouds 32 1007 62 10000 2.6 360 22:18 21.12.2019
6011 Clouds 32 1007 74 10000 3.6 20 21:54 21.12.2019
6012 Clouds 32 1007 74 10000 3.6 20 21:36 21.12.2019
6013 Clouds 32 1007 74 10000 3.6 20 21:18 21.12.2019
6014 Clouds 32 1007 70 10000 4.6 30 20:55 21.12.2019
6015 Clouds 31 1007 70 10000 4.6 30 20:37 21.12.2019
6016 Clouds 33 1007 70 10000 4.6 30 20:18 21.12.2019
6017 Clouds 33 1008 62 10000 5.1 30 19:54 21.12.2019
6018 Clouds 30 1008 62 10000 5.1 30 19:36 21.12.2019
6019 Clouds 33 1008 62 10000 5.1 30 19:18 21.12.2019
6020 Clouds 30 1009 66 10000 5.1 30 18:40 21.12.2019
6021 Clouds 32 1009 66 10000 5.1 30 18:22 21.12.2019
6022 Clouds 32 1010 74 10000 2.1 200 17:56 21.12.2019
6023 Clouds 29 1010 74 10000 2.1 200 17:37 21.12.2019
6024 Clouds 31 1010 74 10000 2.1 200 17:19 21.12.2019
6025 Clouds 31 1010 79 10000 2.1 360 16:56 21.12.2019
6026 Clouds 31 1010 79 10000 2.1 360 16:38 21.12.2019
6027 Clouds 31 1010 79 10000 2.1 360 16:18 21.12.2019
6028 Clouds 30 1011 78 10000 2.1 340 15:55 21.12.2019
6029 Clouds 27 1011 78 10000 2.1 340 15:37 21.12.2019
6030 Clouds 29 1011 78 10000 2.1 340 15:18 21.12.2019
6031 Clouds 28 1011 88 8000 2.6 340 14:41 21.12.2019
6032 Clouds 27 1011 88 8000 2.6 340 14:23 21.12.2019
6033 Clouds 28 1011 83 8000 2.1 350 13:58 21.12.2019
6034 Clouds 28 1011 83 8000 2.1 350 13:58 21.12.2019
6035 Clouds 28 1011 83 8000 2.1 350 13:39 21.12.2019
6036 Clouds 28 1011 83 8000 2.1 350 13:19 21.12.2019
6037 Clouds 26 1011 94 8000 3.1 100 12:56 21.12.2019
6038 Clouds 25 1011 94 8000 3.1 100 12:38 21.12.2019
6039 Clouds 26 1011 94 8000 3.1 100 12:20 21.12.2019
6040 Clouds 26 1011 88 10000 2.6 340 11:46 21.12.2019
6041 Clouds 25 1011 88 10000 2.6 340 11:27 21.12.2019
6042 Clouds 24 1010 88 10000 2.1 30 10:59 21.12.2019
6043 Clouds 25 1010 88 10000 2.1 30 10:40 21.12.2019
6044 Clouds 24 1010 88 10000 2.1 30 10:21 21.12.2019
6045 Clouds 24 1010 94 10000 2.1 40 09:58 21.12.2019
6046 Clouds 24 1010 94 10000 2.1 40 09:39 21.12.2019
6047 Clouds 23 1010 94 10000 2.1 40 09:19 21.12.2019
6048 Clouds 24 1009 94 10000 2.1 50 08:51 21.12.2019
6049 Clouds 23 1009 94 10000 2.1 50 08:27 21.12.2019
6050 Clouds 24 1009 88 10000 1.5 310 07:58 21.12.2019
6051 Clouds 24 1009 88 10000 1.5 310 07:40 21.12.2019
6052 Clouds 24 1009 88 10000 1.5 310 07:21 21.12.2019
6053 Clouds 24 1009 88 10000 1 200 06:41 21.12.2019
6054 Clouds 24 1009 88 10000 1 200 06:23 21.12.2019
6055 Clouds 25 1010 94 10000 1 210 05:37 21.12.2019
6056 Clouds 25 1011 94 10000 2.1 150 04:55 21.12.2019
6057 Clouds 25 1012 94 10000 2.6 150 03:56 21.12.2019
6058 Clouds 25 1013 94 10000 2.1 140 02:26 21.12.2019
6059 Clouds 26 1013 94 10000 3.1 150 01:53 21.12.2019
6060 Clouds 26 1012 88 10000 3.6 170 01:26 21.12.2019
6061 Clouds 26 1012 88 10000 3.6 170 00:49 21.12.2019
6062 Clouds 26 1012 94 10000 5.1 170 00:28 21.12.2019
6063 Clouds 26 1012 94 10000 5.1 170 23:40 20.12.2019
6064 Clouds 27 1012 94 10000 5.1 170 23:21 20.12.2019
6065 Clouds 27 1011 83 10000 5.7 180 22:59 20.12.2019
6066 Clouds 26 1011 83 10000 5.7 180 22:40 20.12.2019
6067 Clouds 28 1011 83 10000 6.2 190 22:20 20.12.2019
6068 Clouds 28 1011 83 10000 6.2 190 21:56 20.12.2019
6069 Clouds 26 1011 83 10000 6.2 190 21:38 20.12.2019
6070 Clouds 28 1011 83 10000 6.2 190 21:18 20.12.2019
6071 Clouds 28 1011 83 10000 7.2 170 20:39 20.12.2019
6072 Clouds 28 1011 83 10000 7.2 170 20:19 20.12.2019
6073 Clouds 28 1012 83 10000 7.2 170 19:57 20.12.2019
6074 Clouds 28 1012 83 10000 7.2 170 19:39 20.12.2019
6075 Clouds 29 1012 83 10000 7.2 170 19:19 20.12.2019
6076 Clouds 29 1013 78 10000 7.2 170 18:42 20.12.2019
6077 Clouds 29 1013 78 10000 7.2 170 18:42 20.12.2019
6078 Clouds 29 1013 78 10000 7.2 170 18:23 20.12.2019
6079 Clouds 29 1013 83 10000 6.7 160 17:58 20.12.2019
6080 Clouds 28 1013 83 10000 6.7 160 17:40 20.12.2019
6081 Clouds 28 1013 83 10000 6.7 160 17:21 20.12.2019
6082 Clouds 28 1014 83 10000 5.7 170 16:59 20.12.2019
6083 Clouds 28 1014 83 10000 5.7 170 16:38 20.12.2019
6084 Clouds 28 1014 83 10000 5.7 170 16:20 20.12.2019
6085 Clouds 27 1015 88 10000 5.1 160 15:56 20.12.2019
6086 Clouds 27 1015 88 10000 5.1 160 15:38 20.12.2019
6087 Clouds 27 1015 88 10000 5.1 160 15:19 20.12.2019
6088 Clouds 27 1015 88 10000 4.6 160 14:43 20.12.2019
6089 Clouds 27 1015 88 10000 4.6 160 14:25 20.12.2019
6090 Clouds 27 1015 88 10000 4.1 140 13:59 20.12.2019
6091 Clouds 27 1015 88 10000 4.1 140 13:41 20.12.2019
6092 Clouds 27 1015 88 10000 4.1 140 13:20 20.12.2019
6093 Clouds 25 1015 88 10000 3.6 150 12:57 20.12.2019
6094 Clouds 25 1015 88 10000 3.6 150 12:37 20.12.2019
6095 Clouds 25 1015 88 10000 3.6 150 12:19 20.12.2019
6096 Clouds 24 1014 94 10000 3.1 160 11:58 20.12.2019
6097 Clouds 24 1014 94 10000 3.1 160 11:39 20.12.2019
6098 Clouds 24 1014 94 10000 3.1 160 11:19 20.12.2019
6099 Clouds 23 1014 88 10000 2.6 150 10:57 20.12.2019
6100 Clouds 23 1014 88 10000 2.6 150 10:57 20.12.2019
6101 Clouds 23 1014 88 10000 2.6 150 10:38 20.12.2019
6102 Clouds 23 1014 88 10000 2.6 150 10:20 20.12.2019
6103 Clouds 24 1014 88 10000 2.6 160 09:44 20.12.2019
6104 Clouds 24 1014 88 10000 2.6 160 09:44 20.12.2019
6105 Clouds 24 1014 88 10000 2.6 160 09:22 20.12.2019
6106 Clouds 23 1013 94 10000 2.1 160 08:59 20.12.2019
6107 Clouds 23 1013 94 10000 2.1 160 08:41 20.12.2019
6108 Clouds 23 1013 94 10000 2.1 160 08:22 20.12.2019
6109 Clouds 23 1013 88 10000 2.6 180 07:58 20.12.2019
6110 Clouds 23 1013 88 10000 2.6 180 07:39 20.12.2019
6111 Clouds 23 1013 88 10000 2.6 180 07:18 20.12.2019
6112 Clouds 23 1013 88 10000 1.5 180 06:48 20.12.2019
6113 Clouds 23 1013 88 10000 1.5 180 06:48 20.12.2019
6114 Clouds 23 1013 88 10000 1.5 180 06:30 20.12.2019
6115 Clouds 24 1013 88 10000 2.6 20 05:49 20.12.2019
6116 Clouds 24 1014 83 10000 2.6 150 05:25 20.12.2019
6117 Clouds 23 1016 88 10000 3.1 160 03:50 20.12.2019
6118 Clouds 24 1016 88 10000 3.1 160 03:29 20.12.2019
6119 Rain 24 1016 88 8000 3.6 150 02:38 20.12.2019
6120 Clouds 25 1016 83 10000 3.1 160 01:36 20.12.2019
6121 Clouds 25 1016 83 10000 3.6 150 00:59 20.12.2019
6122 Clouds 25 1016 83 10000 3.6 150 00:40 20.12.2019
6123 Clouds 25 1015 88 10000 3.6 160 23:59 19.12.2019
6124 Clouds 25 1015 88 10000 3.6 160 23:40 19.12.2019
6125 Clouds 25 1015 88 10000 3.6 160 23:22 19.12.2019
6126 Clouds 25 1014 83 10000 4.6 150 22:56 19.12.2019
6127 Clouds 25 1014 83 10000 4.6 150 22:36 19.12.2019
6128 Clouds 25 1014 83 10000 4.6 150 22:18 19.12.2019
6129 Clouds 25 1014 83 10000 4.6 150 22:18 19.12.2019
6130 Clouds 25 1014 83 10000 5.1 160 21:42 19.12.2019
6131 Clouds 25 1014 83 10000 5.1 160 21:20 19.12.2019
6132 Clouds 26 1014 83 10000 7.2 160 20:59 19.12.2019
6133 Clouds 26 1014 83 10000 7.2 160 20:39 19.12.2019
6134 Clouds 26 1014 83 10000 7.2 160 20:21 19.12.2019
6135 Clouds 26 1014 83 10000 6.2 160 19:59 19.12.2019
6136 Clouds 26 1014 83 10000 6.2 160 19:40 19.12.2019
6137 Clouds 26 1014 83 10000 6.2 160 19:20 19.12.2019
6138 Clouds 26 1014 88 10000 6.2 150 19:00 19.12.2019
6139 Clouds 26 1014 88 10000 6.2 150 18:41 19.12.2019
6140 Clouds 26 1014 88 10000 6.2 150 18:20 19.12.2019
6141 Clouds 26 1015 83 10000 6.2 160 17:57 19.12.2019
6142 Clouds 26 1015 83 10000 6.2 160 17:38 19.12.2019
6143 Clouds 26 1015 83 10000 6.2 160 17:38 19.12.2019
6144 Clouds 27 1015 83 10000 6.2 160 17:19 19.12.2019
6145 Clouds 26 1015 83 10000 5.1 160 16:57 19.12.2019
6146 Clouds 26 1015 83 10000 5.1 160 16:38 19.12.2019
6147 Clouds 26 1015 83 10000 5.1 160 16:20 19.12.2019
6148 Clouds 26 1016 88 10000 5.7 160 15:58 19.12.2019
6149 Clouds 26 1016 88 10000 5.7 160 15:39 19.12.2019
6150 Clouds 26 1016 88 10000 5.7 160 15:19 19.12.2019
6151 Clouds 26 1016 88 10000 4.1 150 14:58 19.12.2019
6152 Clouds 26 1016 88 10000 4.1 150 14:40 19.12.2019
6153 Clouds 26 1016 88 10000 4.1 150 14:18 19.12.2019
6154 Clouds 25 1016 94 10000 4.6 150 13:54 19.12.2019
6155 Clouds 25 1016 94 10000 4.6 150 13:36 19.12.2019
6156 Clouds 25 1016 94 10000 4.6 150 13:18 19.12.2019
6157 Clouds 26 1015 88 10000 4.1 150 12:54 19.12.2019
6158 Clouds 26 1015 88 10000 4.1 150 12:36 19.12.2019
6159 Clouds 26 1015 88 10000 4.1 150 12:18 19.12.2019
6160 Clouds 26 1015 88 10000 4.1 150 12:18 19.12.2019
6161 Clouds 26 1015 88 10000 4.1 150 12:18 19.12.2019
6162 Clouds 26 1015 88 10000 4.1 150 12:18 19.12.2019
6163 Clouds 25 1015 94 10000 3.6 150 11:42 19.12.2019
6164 Clouds 25 1015 94 10000 3.6 150 11:20 19.12.2019
6165 Clouds 23 1014 94 10000 3.1 140 10:59 19.12.2019
6166 Clouds 23 1014 94 10000 3.1 140 10:38 19.12.2019
6167 Clouds 23 1014 94 10000 3.1 140 10:20 19.12.2019
6168 Clouds 24 1014 94 10000 3.1 140 09:57 19.12.2019
6169 Clouds 24 1014 94 10000 3.1 140 09:38 19.12.2019
6170 Clouds 24 1014 94 10000 3.1 140 09:20 19.12.2019
6171 Clouds 24 1013 94 6000 2.6 140 08:56 19.12.2019
6172 Clouds 24 1013 94 6000 2.6 140 08:37 19.12.2019
6173 Clouds 24 1013 94 6000 2.6 140 08:18 19.12.2019
6174 Clouds 24 1013 94 6000 3.6 180 07:55 19.12.2019
6175 Clouds 24 1013 94 6000 3.6 180 07:37 19.12.2019
6176 Clouds 24 1013 94 6000 3.6 180 07:19 19.12.2019
6177 Clouds 25 1013 88 6000 2.1 30 06:45 19.12.2019
6178 Clouds 25 1013 88 6000 2.1 30 06:26 19.12.2019
6179 Clouds 25 1013 88 6000 1.5 30 05:49 19.12.2019
6180 Clouds 25 1013 88 6000 1.5 30 05:28 19.12.2019
6181 Clouds 25 1014 88 10000 0.5 110 04:41 19.12.2019
6182 Clouds 24 1015 94 10000 2.6 110 02:48 19.12.2019
6183 Clouds 24 1014 94 10000 2.1 140 01:46 19.12.2019
6184 Clouds 24 1014 94 10000 3.6 140 01:21 19.12.2019
6185 Clouds 24 1014 94 10000 3.6 140 00:39 19.12.2019
6186 Clouds 24 1014 94 10000 3.6 140 00:39 19.12.2019
6187 Clouds 24 1014 94 10000 3.6 140 00:39 19.12.2019
6188 Clouds 24 1014 94 10000 3.6 140 00:39 19.12.2019
6189 Clouds 24 1014 94 10000 3.6 140 00:39 19.12.2019
6190 Clouds 24 1014 94 10000 3.6 140 00:20 19.12.2019
6191 Clouds 24 1014 88 10000 3.6 170 23:55 18.12.2019
6192 Clouds 25 1014 88 10000 3.6 170 23:36 18.12.2019
6193 Clouds 25 1014 88 10000 3.6 170 23:18 18.12.2019
6194 Clouds 25 1013 88 10000 4.6 170 22:55 18.12.2019
6195 Clouds 24 1013 88 10000 4.6 170 22:36 18.12.2019
6196 Rain 25 1012 88 10000 6.7 180 22:18 18.12.2019
6197 Rain 25 1012 88 10000 6.7 180 21:55 18.12.2019
6198 Rain 25 1012 88 10000 6.7 180 21:36 18.12.2019
6199 Rain 25 1012 88 10000 6.7 180 21:18 18.12.2019
6200 Rain 27 1012 83 8000 7.7 170 20:54 18.12.2019
6201 Rain 27 1012 83 8000 7.7 170 20:36 18.12.2019
6202 Clouds 28 1012 78 10000 7.2 180 20:18 18.12.2019
6203 Clouds 28 1012 78 10000 7.2 180 19:54 18.12.2019
6204 Clouds 28 1012 78 10000 7.2 180 19:36 18.12.2019
6205 Clouds 28 1012 78 10000 7.2 180 19:18 18.12.2019
6206 Clouds 29 1011 74 10000 9.8 180 18:43 18.12.2019
6207 Clouds 29 1011 74 10000 9.8 180 18:25 18.12.2019
6208 Clouds 29 1011 74 10000 8.7 200 17:56 18.12.2019
6209 Clouds 29 1011 74 10000 8.7 200 17:38 18.12.2019
6210 Clouds 29 1011 74 10000 8.7 200 17:19 18.12.2019
6211 Clouds 29 1012 74 10000 10.3 190 16:43 18.12.2019
6212 Clouds 29 1012 74 10000 10.3 190 16:43 18.12.2019
6213 Clouds 29 1012 74 10000 10.3 190 16:24 18.12.2019
6214 Clouds 28 1012 83 10000 7.2 170 15:59 18.12.2019
6215 Clouds 28 1012 83 10000 7.2 170 15:40 18.12.2019
6216 Clouds 28 1012 83 10000 7.2 170 15:21 18.12.2019
6217 Clouds 29 1012 78 10000 5.7 170 14:59 18.12.2019
6218 Clouds 28 1012 78 10000 5.7 170 14:40 18.12.2019
6219 Clouds 29 1012 78 10000 5.7 170 14:20 18.12.2019
6220 Clouds 28 1011 78 10000 3.1 150 13:56 18.12.2019
6221 Clouds 28 1011 78 10000 3.1 150 13:37 18.12.2019
6222 Clouds 28 1011 78 10000 3.1 150 13:19 18.12.2019
6223 Clouds 27 1011 83 10000 1.5 40 12:57 18.12.2019
6224 Clouds 27 1011 83 10000 1.5 40 12:37 18.12.2019
6225 Clouds 27 1011 83 10000 1.5 40 12:19 18.12.2019
6226 Clouds 27 1011 83 10000 1.5 110 11:55 18.12.2019
6227 Clouds 27 1011 83 10000 1.5 110 11:37 18.12.2019
6228 Clouds 27 1011 83 10000 1.5 110 11:18 18.12.2019
6229 Clouds 25 1011 88 10000 2.6 80 10:55 18.12.2019
6230 Clouds 23 1011 88 10000 2.6 80 10:37 18.12.2019
6231 Clouds 23 1011 88 10000 2.6 80 10:37 18.12.2019
6232 Clouds 23 1011 88 10000 2.6 80 10:18 18.12.2019
6233 Clouds 24 1011 94 10000 2.1 90 09:43 18.12.2019
6234 Clouds 24 1011 94 10000 2.1 90 09:18 18.12.2019
6235 Clouds 25 1010 94 10000 1.5 110 08:40 18.12.2019
6236 Clouds 24 1010 94 10000 1.5 110 08:21 18.12.2019
6237 Clouds 25 1010 94 10000 1 100 07:43 18.12.2019
6238 Clouds 25 1010 94 10000 1 100 07:23 18.12.2019
6239 Clouds 25 1010 88 10000 1.5 130 06:55 18.12.2019
6240 Clouds 25 1010 88 10000 1.5 130 06:27 18.12.2019
6241 Clouds 25 1011 88 10000 1 70 05:47 18.12.2019
6242 Clear 25 1011 83 10000 1 170 04:52 18.12.2019
6243 Clear 25 1010 88 10000 2.6 150 02:55 18.12.2019
6244 Clear 25 1010 88 10000 2.6 150 02:36 18.12.2019
6245 Clouds 25 1010 88 10000 2.6 150 02:18 18.12.2019
6246 Clouds 26 1010 74 10000 2.6 160 01:40 18.12.2019
6247 Clouds 25 1010 74 10000 2.6 160 01:21 18.12.2019
6248 Clouds 26 1009 69 10000 5.1 180 00:41 18.12.2019
6249 Clouds 26 1009 69 10000 5.1 180 00:22 18.12.2019
6250 Clouds 26 1009 74 10000 5.7 190 23:56 17.12.2019
6251 Clouds 26 1009 74 10000 5.7 190 23:38 17.12.2019
6252 Clouds 26 1009 74 10000 5.7 190 23:18 17.12.2019
6253 Clouds 26 1008 83 10000 8.2 180 22:56 17.12.2019
6254 Clouds 27 1008 83 10000 8.2 180 22:37 17.12.2019
6255 Clouds 27 1008 83 10000 8.2 180 22:18 17.12.2019
6256 Clouds 27 1008 83 10000 7.2 160 21:55 17.12.2019
6257 Clouds 27 1008 83 10000 7.2 160 21:37 17.12.2019
6258 Clouds 27 1008 83 10000 7.2 160 21:37 17.12.2019
6259 Clouds 28 1008 83 10000 7.2 160 21:19 17.12.2019
6260 Clouds 28 1008 83 10000 8.7 160 20:56 17.12.2019
6261 Clouds 28 1008 83 10000 8.7 160 20:38 17.12.2019
6262 Clouds 30 1008 66 10000 7.2 130 20:18 17.12.2019
6263 Clouds 30 1008 62 10000 7.7 130 19:55 17.12.2019
6264 Clouds 29 1008 74 10000 7.7 170 19:37 17.12.2019
6265 Clouds 30 1008 74 10000 7.7 170 19:18 17.12.2019
6266 Clouds 29 1008 78 10000 7.2 150 18:43 17.12.2019
6267 Clouds 29 1008 78 10000 7.2 150 18:43 17.12.2019
6268 Clouds 29 1008 78 10000 7.2 150 18:23 17.12.2019
6269 Clouds 30 1009 78 10000 6.7 150 17:59 17.12.2019
6270 Clouds 30 1009 78 10000 6.7 150 17:41 17.12.2019
6271 Clouds 30 1009 78 10000 6.7 150 17:20 17.12.2019
6272 Clouds 30 1010 78 10000 6.2 150 16:56 17.12.2019
6273 Clouds 29 1010 78 10000 6.2 150 16:38 17.12.2019
6274 Clouds 30 1010 78 10000 6.2 150 16:19 17.12.2019
6275 Clouds 30 1010 78 10000 5.7 150 15:58 17.12.2019
6276 Clouds 29 1010 78 10000 5.7 150 15:37 17.12.2019
6277 Clouds 29 1010 78 10000 5.7 150 15:37 17.12.2019
6278 Clouds 30 1010 78 10000 5.7 150 15:19 17.12.2019
6279 Clouds 29 1011 78 10000 5.7 150 14:56 17.12.2019
6280 Clouds 29 1011 78 10000 5.7 150 14:37 17.12.2019
6281 Clouds 29 1011 78 10000 5.7 150 14:18 17.12.2019
6282 Clouds 29 1011 78 10000 5.7 150 14:18 17.12.2019
6283 Clouds 29 1011 78 10000 5.7 150 14:18 17.12.2019
6284 Clouds 29 1011 83 10000 4.1 140 13:56 17.12.2019
6285 Clouds 28 1011 83 10000 4.1 140 13:37 17.12.2019
6286 Clouds 29 1011 83 10000 4.1 140 13:18 17.12.2019
6287 Clouds 28 1011 83 10000 3.1 130 12:55 17.12.2019
6288 Clouds 28 1011 83 10000 3.1 130 12:37 17.12.2019
6289 Clouds 28 1011 83 10000 3.1 130 12:18 17.12.2019
6290 Clouds 27 1010 78 10000 2.6 130 11:55 17.12.2019
6291 Clouds 27 1010 78 10000 2.6 130 11:36 17.12.2019
6292 Clear 25 1010 83 10000 3.1 140 11:18 17.12.2019
6293 Clear 24 1010 83 10000 3.1 140 10:55 17.12.2019
6294 Clear 24 1010 83 10000 3.1 140 10:36 17.12.2019
6295 Clear 25 1010 83 10000 3.1 140 10:18 17.12.2019
6296 Clear 24 1009 88 10000 4.6 140 09:42 17.12.2019
6297 Clear 24 1009 88 10000 4.6 140 09:21 17.12.2019
6298 Clear 25 1008 78 10000 2.1 140 08:58 17.12.2019
6299 Clear 25 1008 78 10000 2.1 140 08:39 17.12.2019
6300 Clear 25 1008 78 10000 2.1 140 08:21 17.12.2019
6301 Clear 25 1008 74 10000 2.1 200 07:57 17.12.2019
6302 Clear 25 1008 74 10000 2.1 200 07:39 17.12.2019
6303 Clear 25 1008 74 10000 2.1 200 07:19 17.12.2019
6304 Clear 25 1008 88 10000 5.1 140 06:41 17.12.2019
6305 Clear 25 1008 88 10000 5.1 140 06:22 17.12.2019
6306 Clear 26 1008 65 10000 2.1 290 05:40 17.12.2019
6307 Clear 24 1008 58 10000 2.1 310 04:48 17.12.2019
6308 Clear 26 1009 62 10000 3.6 320 03:40 17.12.2019
6309 Clouds 27 1009 55 10000 1.5 330 02:22 17.12.2019
6310 Clouds 28 1008 55 10000 1 80 01:21 17.12.2019
6311 Clear 28 1008 55 10000 1.5 150 00:45 17.12.2019
6312 Clear 29 1008 55 10000 1.5 150 00:21 17.12.2019
6313 Clear 31 1008 58 10000 2.1 180 23:44 16.12.2019
6314 Clear 30 1008 58 10000 2.1 180 23:20 16.12.2019
6315 Clear 33 1007 55 10000 3.6 190 22:58 16.12.2019
6316 Clear 30 1007 55 10000 3.6 190 22:39 16.12.2019
6317 Clear 33 1007 55 10000 3.6 190 22:21 16.12.2019
6318 Clear 33 1007 55 10000 4.6 180 21:57 16.12.2019
6319 Clear 33 1007 55 10000 4.6 180 21:57 16.12.2019
6320 Clear 35 1007 55 10000 4.6 180 21:39 16.12.2019
6321 Clear 34 1007 55 10000 4.6 180 21:20 16.12.2019
6322 Clear 34 1008 55 10000 4.6 190 20:58 16.12.2019
6323 Clear 34 1008 55 10000 4.6 190 20:39 16.12.2019
6324 Clear 34 1008 55 10000 4.6 190 20:19 16.12.2019
6325 Clear 36 1008 49 10000 1.5 130 19:57 16.12.2019
6326 Clear 34 1008 49 10000 1.5 130 19:37 16.12.2019
6327 Clear 34 1008 49 10000 1.5 130 19:19 16.12.2019
6328 Clear 36 1008 46 10000 3.6 20 18:59 16.12.2019
6329 Clear 36 1008 46 10000 3.6 20 18:41 16.12.2019
6330 Clear 36 1008 46 10000 3.6 20 18:20 16.12.2019
6331 Clear 36 1009 46 10000 4.6 20 17:59 16.12.2019
6332 Clear 36 1009 46 10000 4.6 20 17:40 16.12.2019
6333 Clear 36 1009 46 10000 4.6 20 17:40 16.12.2019
6334 Clear 36 1009 46 10000 4.6 20 17:21 16.12.2019
6335 Clear 35 1010 41 10000 2.6 20 16:57 16.12.2019
6336 Clear 31 1010 41 10000 2.6 20 16:39 16.12.2019
6337 Clear 35 1010 41 10000 2.6 20 16:20 16.12.2019
6338 Clear 33 1011 58 10000 1.5 20 15:59 16.12.2019
6339 Clear 30 1011 58 10000 1.5 20 15:39 16.12.2019
6340 Clear 33 1011 58 10000 1.5 20 15:21 16.12.2019
6341 Clear 31 1011 62 10000 2.1 30 14:57 16.12.2019
6342 Clear 29 1011 62 10000 2.1 30 14:37 16.12.2019
6343 Clouds 32 1011 62 10000 2.1 30 14:19 16.12.2019
6344 Clouds 30 1012 66 10000 2.6 40 13:57 16.12.2019
6345 Clouds 30 1012 66 10000 2.6 40 13:38 16.12.2019
6346 Clouds 32 1012 66 10000 2.6 40 13:20 16.12.2019
6347 Clear 28 1012 74 10000 3.1 360 12:58 16.12.2019
6348 Clear 28 1012 74 10000 3.1 360 12:39 16.12.2019
6349 Clear 28 1012 74 10000 3.1 360 12:19 16.12.2019
6350 Clear 27 1012 78 10000 2.6 350 11:59 16.12.2019
6351 Clear 27 1012 78 10000 2.6 350 11:40 16.12.2019
6352 Clouds 27 1012 78 10000 2.6 350 11:20 16.12.2019
6353 Clouds 23 1012 83 10000 2.1 320 10:58 16.12.2019
6354 Clouds 23 1012 83 10000 2.1 320 10:40 16.12.2019
6355 Clouds 23 1012 83 10000 2.1 320 10:20 16.12.2019
6356 Clear 22 1011 83 10000 2.6 350 09:46 16.12.2019
6357 Clouds 22 1011 83 10000 2.6 350 09:28 16.12.2019
6358 Clear 23 1011 78 10000 3.6 330 08:58 16.12.2019
6359 Clouds 23 1011 78 10000 3.6 330 08:38 16.12.2019
6360 Clear 23 1011 78 10000 3.6 330 08:18 16.12.2019
6361 Clouds 23 1011 78 10000 2.1 310 07:47 16.12.2019
6362 Clouds 23 1011 78 10000 2.1 310 07:29 16.12.2019
6363 Clouds 23 1011 78 10000 3.1 310 06:46 16.12.2019
6364 Clouds 23 1011 78 10000 3.1 310 06:26 16.12.2019
6365 Clouds 23 1011 74 10000 2.1 320 05:54 16.12.2019
6366 Clouds 23 1011 74 10000 2.1 320 05:35 16.12.2019
6367 Clear 24 1012 74 10000 3.1 320 04:27 16.12.2019
6368 Clear 25 1013 69 10000 3.1 38 02:49 16.12.2019
6369 Clouds 27 1013 74 10000 1 140 01:45 16.12.2019
6370 Clouds 28 1013 69 10000 1 10 00:54 16.12.2019
6371 Clouds 28 1013 69 10000 1 10 00:36 16.12.2019
6372 Clouds 28 1013 62 10000 2.6 120 00:18 16.12.2019
6373 Clouds 30 1012 66 10000 4.1 70 23:40 15.12.2019
6374 Clouds 30 1012 66 10000 4.1 70 23:21 15.12.2019
6375 Clouds 31 1012 70 10000 2.1 140 22:56 15.12.2019
6376 Clouds 28 1012 70 10000 2.1 140 22:38 15.12.2019
6377 Clouds 32 1012 70 10000 2.1 140 22:19 15.12.2019
6378 Clouds 32 1012 66 10000 5.1 190 21:57 15.12.2019
6379 Clouds 29 1012 66 10000 5.1 190 21:38 15.12.2019
6380 Clouds 33 1012 66 10000 5.1 190 21:19 15.12.2019
6381 Clouds 33 1012 66 10000 5.1 190 21:19 15.12.2019
6382 Clouds 32 1012 66 10000 4.6 170 20:57 15.12.2019
6383 Clouds 30 1012 66 10000 4.6 170 20:38 15.12.2019
6384 Clouds 33 1012 66 10000 4.6 170 20:20 15.12.2019
6385 Clouds 33 1013 70 10000 5.7 160 19:58 15.12.2019
6386 Clouds 33 1013 70 10000 5.7 160 19:39 15.12.2019
6387 Clouds 32 1013 70 10000 5.7 160 19:19 15.12.2019
6388 Clouds 33 1014 74 10000 5.1 160 18:57 15.12.2019
6389 Clouds 33 1014 74 10000 5.1 160 18:38 15.12.2019
6390 Clouds 32 1013 49 10000 3.1 130 18:18 15.12.2019
6391 Clouds 32 1014 74 10000 5.7 150 17:56 15.12.2019
6392 Clouds 32 1014 74 10000 5.7 150 17:56 15.12.2019
6393 Clouds 32 1014 74 10000 5.7 150 17:37 15.12.2019
6394 Clouds 32 1014 74 10000 5.7 150 17:37 15.12.2019
6395 Clouds 32 1014 74 10000 5.7 150 17:19 15.12.2019
6396 Clouds 31 1015 70 10000 4.1 150 16:57 15.12.2019
6397 Clouds 29 1015 70 10000 4.1 150 16:39 15.12.2019
6398 Clouds 31 1015 70 10000 4.1 150 16:20 15.12.2019
6399 Clouds 31 1015 74 10000 2.1 120 15:55 15.12.2019
6400 Clouds 30 1015 74 10000 2.1 120 15:37 15.12.2019
6401 Clouds 30 1015 74 10000 2.1 120 15:18 15.12.2019
6402 Clouds 29 1016 83 10000 2.6 350 14:55 15.12.2019
6403 Clouds 27 1016 83 10000 2.6 350 14:36 15.12.2019
6404 Clouds 28 1016 83 10000 2.6 350 14:18 15.12.2019
6405 Clouds 28 1016 83 10000 2.6 340 13:56 15.12.2019
6406 Clouds 28 1016 83 10000 2.6 340 13:37 15.12.2019
6407 Clouds 28 1016 83 10000 2.6 340 13:19 15.12.2019
6408 Clouds 27 1016 83 10000 2.6 340 12:56 15.12.2019
6409 Clouds 27 1016 83 10000 2.6 340 12:38 15.12.2019
6410 Clouds 26 1016 83 10000 2.6 340 12:20 15.12.2019
6411 Clouds 26 1016 83 10000 2.1 40 11:55 15.12.2019
6412 Clouds 26 1016 83 10000 2.1 40 11:36 15.12.2019
6413 Clouds 26 1016 83 10000 2.1 40 11:18 15.12.2019
6414 Clouds 24 1016 88 8000 1 90 10:54 15.12.2019
6415 Clouds 23 1016 88 8000 1 90 10:36 15.12.2019
6416 Clouds 23 1016 88 8000 1 90 10:18 15.12.2019
6417 Clouds 22 1015 94 10000 1 160 09:39 15.12.2019
6418 Clouds 22 1015 94 10000 1 160 09:20 15.12.2019
6419 Clouds 22 1015 100 10000 1.5 140 08:58 15.12.2019
6420 Clouds 22 1015 100 10000 1.5 140 08:39 15.12.2019
6421 Clouds 22 1015 100 10000 1.5 140 08:20 15.12.2019
6422 Clouds 22 1015 100 10000 2.6 150 07:56 15.12.2019
6423 Clouds 22 1015 100 10000 2.6 150 07:34 15.12.2019
6424 Clouds 23 1016 94 10000 2.1 130 06:44 15.12.2019
6425 Clouds 23 1016 94 10000 2.1 130 06:19 15.12.2019
6426 Clouds 23 1016 94 8000 2.6 170 05:26 15.12.2019
6427 Clouds 23 1017 94 8000 3.1 140 04:47 15.12.2019
6428 Clouds 24 1017 94 9000 1.5 180 03:29 15.12.2019
6429 Clouds 24 1017 94 9000 2.6 170 02:34 15.12.2019
6430 Clouds 25 1017 88 8000 1.5 170 01:47 15.12.2019
6431 Clouds 25 1017 88 8000 1.5 170 01:28 15.12.2019
6432 Clouds 25 1017 94 8000 3.1 160 00:58 15.12.2019
6433 Clouds 25 1017 94 8000 3.1 160 00:40 15.12.2019
6434 Clouds 25 1017 94 8000 3.1 160 00:21 15.12.2019
6435 Clouds 25 1017 94 8000 4.6 160 23:40 14.12.2019
6436 Clouds 26 1017 94 10000 5.1 160 23:21 14.12.2019
6437 Clouds 26 1017 94 10000 5.1 160 22:58 14.12.2019
6438 Clouds 24 1017 94 10000 5.1 160 22:40 14.12.2019
6439 Clouds 25 1017 94 10000 5.1 160 22:21 14.12.2019
6440 Clouds 26 1017 88 10000 6.2 160 21:56 14.12.2019
6441 Clouds 26 1017 88 10000 6.2 160 21:56 14.12.2019
6442 Clouds 25 1017 88 10000 6.2 160 21:37 14.12.2019
6443 Clouds 26 1017 88 10000 6.2 160 21:19 14.12.2019
6444 Clouds 26 1017 88 10000 6.2 160 21:19 14.12.2019
6445 Clouds 27 1017 83 10000 6.7 160 20:56 14.12.2019
6446 Clouds 26 1017 83 10000 6.7 160 20:38 14.12.2019
6447 Clouds 27 1017 83 10000 6.7 160 20:19 14.12.2019
6448 Clouds 27 1017 88 10000 6.2 160 19:55 14.12.2019
6449 Clouds 26 1017 88 10000 6.2 160 19:36 14.12.2019
6450 Clouds 26 1017 88 10000 6.2 160 19:18 14.12.2019
6451 Clouds 27 1017 83 10000 6.7 160 18:55 14.12.2019
6452 Clouds 27 1017 83 10000 6.7 160 18:36 14.12.2019
6453 Clouds 27 1017 83 10000 6.7 160 18:18 14.12.2019
6454 Clouds 27 1018 83 10000 5.1 160 17:42 14.12.2019
6455 Clouds 26 1018 83 10000 5.1 160 17:22 14.12.2019
6456 Clouds 26 1018 83 10000 4.6 160 16:55 14.12.2019
6457 Clouds 26 1018 83 10000 4.6 160 16:37 14.12.2019
6458 Clouds 26 1018 83 10000 4.6 160 16:18 14.12.2019
6459 Clouds 26 1018 83 10000 3.6 150 15:41 14.12.2019
6460 Clouds 26 1018 83 10000 3.6 150 15:21 14.12.2019
6461 Clouds 27 1018 83 10000 3.1 140 14:58 14.12.2019
6462 Clouds 26 1018 83 10000 3.1 140 14:38 14.12.2019
6463 Clouds 26 1018 83 10000 3.1 140 14:19 14.12.2019
6464 Clouds 26 1018 83 10000 3.1 140 14:19 14.12.2019
6465 Clouds 26 1018 83 10000 3.6 160 13:45 14.12.2019
6466 Clouds 26 1018 83 10000 3.6 160 13:45 14.12.2019
6467 Clouds 26 1018 83 10000 3.6 160 13:20 14.12.2019
6468 Clouds 26 1018 88 9000 4.1 170 12:59 14.12.2019
6469 Clouds 26 1018 88 9000 4.1 170 12:41 14.12.2019
6470 Clouds 26 1018 88 9000 4.1 170 12:21 14.12.2019
6471 Clouds 26 1018 88 9000 4.1 170 12:21 14.12.2019
6472 Clouds 26 1017 88 9000 3.1 170 11:59 14.12.2019
6473 Clouds 26 1017 88 9000 3.1 170 11:40 14.12.2019
6474 Clouds 26 1017 88 9000 3.1 170 11:20 14.12.2019
6475 Clouds 24 1017 88 9000 4.1 190 10:59 14.12.2019
6476 Clouds 23 1017 88 9000 4.1 190 10:40 14.12.2019
6477 Clouds 23 1017 88 9000 4.1 190 10:22 14.12.2019
6478 Clouds 23 1016 94 9000 3.6 180 09:59 14.12.2019
6479 Clouds 22 1016 94 9000 3.6 180 09:40 14.12.2019
6480 Clouds 23 1016 94 9000 3.6 180 09:20 14.12.2019
6481 Clouds 23 1015 94 10000 4.6 170 08:43 14.12.2019
6482 Clouds 23 1015 94 10000 4.6 170 08:20 14.12.2019
6483 Clouds 23 1015 94 10000 3.1 180 07:55 14.12.2019
6484 Clouds 23 1015 94 10000 3.1 180 07:36 14.12.2019
6485 Clouds 23 1015 94 10000 3.1 180 07:18 14.12.2019
6486 Clouds 23 1015 94 10000 3.6 180 06:39 14.12.2019
6487 Clouds 23 1015 94 10000 3.6 180 06:18 14.12.2019
6488 Clouds 24 1015 94 10000 3.6 180 05:20 14.12.2019
6489 Clouds 25 1016 83 10000 3.1 200 02:49 14.12.2019
6490 Clouds 26 1016 83 10000 3.1 200 02:22 14.12.2019
6491 Clouds 26 1016 78 10000 2.6 230 01:43 14.12.2019
6492 Clouds 26 1014 83 10000 6.2 190 00:50 14.12.2019
6493 Clouds 26 1014 83 10000 6.2 190 00:29 14.12.2019
6494 Clouds 26 1013 83 10000 5.7 180 23:58 13.12.2019
6495 Clouds 26 1013 83 10000 5.7 180 23:39 13.12.2019
6496 Clouds 26 1013 83 10000 5.7 180 23:19 13.12.2019
6497 Clouds 27 1011 83 10000 5.7 150 22:55 13.12.2019
6498 Clouds 26 1011 83 10000 5.7 150 22:36 13.12.2019
6499 Clouds 27 1011 83 10000 5.7 150 22:36 13.12.2019
6500 Clouds 27 1011 83 10000 5.7 150 22:18 13.12.2019
6501 Clouds 26 1011 78 10000 6.2 160 21:39 13.12.2019
6502 Clouds 28 1011 78 10000 6.2 160 21:21 13.12.2019
6503 Clouds 28 1010 83 10000 7.2 140 20:57 13.12.2019
6504 Clouds 26 1005 76 0 2.24 275 20:38 13.12.2019
6505 Clouds 30 1010 78 10000 7.2 150 20:19 13.12.2019
6506 Clouds 30 1010 78 10000 7.2 150 19:56 13.12.2019
6507 Clouds 30 1010 78 10000 7.2 150 19:36 13.12.2019
6508 Clouds 30 1010 88 10000 7.2 140 19:18 13.12.2019
6509 Clouds 30 1010 88 10000 7.2 140 18:41 13.12.2019
6510 Clouds 30 1010 88 10000 7.2 140 18:19 13.12.2019
6511 Clouds 30 1010 88 10000 6.2 140 17:58 13.12.2019
6512 Clouds 30 1010 88 10000 6.2 140 17:39 13.12.2019
6513 Clouds 30 1011 74 10000 5.1 160 17:18 13.12.2019
6514 Clouds 30 1010 88 10000 6.2 140 17:18 13.12.2019
6515 Clouds 30 1011 74 10000 5.1 160 16:56 13.12.2019
6516 Clouds 30 1011 74 10000 5.1 160 16:38 13.12.2019
6517 Clouds 30 1011 74 10000 5.1 160 16:19 13.12.2019
6518 Clouds 30 1011 78 9000 4.1 150 15:42 13.12.2019
6519 Clouds 30 1011 78 9000 4.1 150 15:21 13.12.2019
6520 Clouds 30 1011 83 6000 1.5 90 14:57 13.12.2019
6521 Clouds 30 1011 83 6000 1.5 90 14:37 13.12.2019
6522 Clouds 29 1011 83 6000 1.5 90 14:18 13.12.2019
6523 Mist 27 1010 88 4500 1.5 30 13:43 13.12.2019
6524 Mist 28 1010 88 4500 1.5 30 13:24 13.12.2019
6525 Mist 26 1010 88 4500 2.1 360 12:57 13.12.2019
6526 Mist 26 1009 94 2000 2.6 350 12:39 13.12.2019
6527 Mist 26 1009 94 2000 2.6 350 12:18 13.12.2019
6528 Fog 25 1009 100 300 3.1 340 11:43 13.12.2019
6529 Fog 24 1008 100 300 2.6 20 11:25 13.12.2019
6530 Fog 24 1008 100 300 2.6 20 10:57 13.12.2019
6531 Fog 24 1008 94 800 3.1 20 10:39 13.12.2019
6532 Fog 24 1008 94 800 3.1 20 10:21 13.12.2019
6533 Mist 23 1007 94 1500 3.1 350 09:42 13.12.2019
6534 Mist 22 1007 100 1500 3.1 360 09:21 13.12.2019
6535 Mist 22 1007 100 1500 3.1 360 08:55 13.12.2019
6536 Mist 22 1007 100 1500 3.1 360 08:36 13.12.2019
6537 Mist 22 1007 100 1500 3.1 360 08:18 13.12.2019
6538 Mist 23 1006 94 2000 3.1 340 07:42 13.12.2019
6539 Mist 23 1006 100 3000 3.6 340 07:19 13.12.2019
6540 Mist 23 1006 100 3000 3.6 340 06:45 13.12.2019
6541 Clouds 23 1007 100 8000 3.1 360 06:25 13.12.2019
6542 Clouds 23 1008 94 8000 2.1 330 05:38 13.12.2019
6543 Clouds 23 1008 94 8000 2.1 330 05:20 13.12.2019
6544 Clouds 24 1009 94 10000 2.1 330 04:29 13.12.2019
6545 Clouds 23 1010 88 10000 2.6 300 02:56 13.12.2019
6546 Clouds 24 1010 88 10000 2.6 300 02:30 13.12.2019
6547 Clouds 24 1009 88 10000 2.6 310 01:38 13.12.2019
6548 Rain 24 1009 94 8000 1.5 20 00:51 13.12.2019
6549 Rain 24 1009 94 8000 1.5 20 00:28 13.12.2019
6550 Rain 24 1008 94 8000 1 280 23:44 12.12.2019
6551 Rain 24 1008 94 8000 1 280 23:26 12.12.2019
6552 Rain 24 1008 100 6000 1 350 22:57 12.12.2019
6553 Rain 23 1008 100 6000 1 350 22:39 12.12.2019
6554 Rain 23 1008 100 6000 1 350 22:39 12.12.2019
6555 Rain 23 1008 100 6000 1 350 22:21 12.12.2019
6556 Rain 23 1008 100 6000 1 350 22:21 12.12.2019
6557 Rain 24 1008 100 4000 2.1 350 21:56 12.12.2019
6558 Thunderstorm 24 1008 88 3000 1.5 280 21:37 12.12.2019
6559 Thunderstorm 24 1008 88 3000 1.5 280 21:19 12.12.2019
6560 Thunderstorm 24 1008 88 3000 1.5 280 21:19 12.12.2019
6561 Thunderstorm 24 1008 94 1500 3.6 230 20:59 12.12.2019
6562 Rain 24 1007 88 10000 3.1 170 20:40 12.12.2019
6563 Rain 24 1007 88 10000 3.1 170 20:22 12.12.2019
6564 Rain 25 1007 94 8000 4.1 190 19:56 12.12.2019
6565 Rain 25 1007 94 8000 4.1 190 19:38 12.12.2019
6566 Rain 25 1007 94 8000 4.1 190 19:20 12.12.2019
6567 Rain 26 1008 88 6000 3.6 160 18:56 12.12.2019
6568 Rain 26 1008 88 6000 3.6 160 18:38 12.12.2019
6569 Clouds 26 1008 94 6000 4.1 150 18:19 12.12.2019
6570 Clouds 26 1008 94 6000 4.1 150 17:57 12.12.2019
6571 Clouds 25 1008 94 6000 4.1 150 17:38 12.12.2019
6572 Clouds 26 1008 94 6000 4.1 150 17:19 12.12.2019
6573 Rain 25 1009 94 5000 3.6 160 16:55 12.12.2019
6574 Rain 25 1009 94 5000 3.6 160 16:37 12.12.2019
6575 Rain 25 1009 94 5000 3.6 160 16:18 12.12.2019
6576 Rain 25 1009 94 6000 4.1 150 15:54 12.12.2019
6577 Rain 25 1009 94 6000 4.1 150 15:36 12.12.2019
6578 Rain 25 1009 94 6000 4.1 150 15:18 12.12.2019
6579 Rain 25 1009 94 6000 4.1 150 15:18 12.12.2019
6580 Clouds 26 1009 88 10000 2.1 160 14:38 12.12.2019
6581 Clouds 26 1009 88 10000 2.1 160 14:19 12.12.2019
6582 Clouds 24 1009 88 10000 2.1 140 13:57 12.12.2019
6583 Clouds 24 1009 88 8000 1.5 350 13:38 12.12.2019
6584 Clouds 26 1009 88 8000 1.5 350 13:20 12.12.2019
6585 Clouds 25 1008 94 6000 2.1 330 12:57 12.12.2019
6586 Clouds 25 1008 94 6000 2.1 330 12:38 12.12.2019
6587 Clouds 25 1008 94 6000 2.1 330 12:38 12.12.2019
6588 Clouds 25 1008 94 6000 2.1 330 12:19 12.12.2019
6589 Clouds 24 1008 94 7000 2.1 340 11:55 12.12.2019
6590 Clouds 23 1008 94 7000 2.1 340 11:37 12.12.2019
6591 Clouds 23 1008 94 7000 2.1 340 11:19 12.12.2019
6592 Clouds 23 1007 94 7000 1 310 10:54 12.12.2019
6593 Clouds 23 1007 94 7000 1 310 10:36 12.12.2019
6594 Clouds 22 1007 94 6000 0.5 60 10:18 12.12.2019
6595 Clouds 22 1007 94 6000 0.5 60 09:41 12.12.2019
6596 Clouds 22 1007 94 6000 0.5 60 09:23 12.12.2019
6597 Clouds 22 1007 94 6000 1.5 340 08:56 12.12.2019
6598 Clouds 22 1007 94 6000 1.5 340 08:38 12.12.2019
6599 Clouds 22 1007 94 6000 1.5 340 08:38 12.12.2019
6600 Clouds 22 1007 94 6000 1.5 340 08:19 12.12.2019
6601 Rain 22 1007 94 6000 0.5 150 07:42 12.12.2019
6602 Rain 22 1007 94 6000 0.5 150 07:24 12.12.2019
6603 Drizzle 22 1008 94 6000 1 10 06:48 12.12.2019
6604 Drizzle 22 1008 94 6000 1 10 06:48 12.12.2019
6605 Drizzle 22 1008 94 6000 1 10 06:30 12.12.2019
6606 Clouds 22 1008 94 7000 2.1 20 05:36 12.12.2019
6607 Rain 22 1009 100 8000 3.1 10 04:51 12.12.2019
6608 Rain 23 1010 100 9000 2.1 350 03:24 12.12.2019
6609 Rain 23 1010 94 9000 2.1 340 02:38 12.12.2019
6610 Rain 24 1010 94 9000 2.1 340 02:19 12.12.2019
6611 Clouds 24 1010 94 9000 0.5 90 01:37 12.12.2019
6612 Clouds 24 1010 94 9000 0.5 90 01:19 12.12.2019
6613 Clouds 24 1010 94 9000 2.6 110 00:46 12.12.2019
6614 Clouds 24 1010 94 9000 2.6 110 00:19 12.12.2019
6615 Clouds 24 1009 94 10000 3.6 130 23:44 11.12.2019
6616 Clouds 24 1009 94 10000 3.6 130 23:21 11.12.2019
6617 Clouds 24 1008 94 10000 3.6 150 22:57 11.12.2019
6618 Clouds 24 1008 94 10000 3.6 150 22:38 11.12.2019
6619 Clouds 24 1008 94 10000 3.6 150 22:20 11.12.2019
6620 Clouds 24 1008 94 10000 4.6 150 21:57 11.12.2019
6621 Clouds 24 1008 94 10000 4.6 150 21:38 11.12.2019
6622 Clouds 24 1008 94 10000 4.6 150 21:19 11.12.2019
6623 Clouds 24 1008 94 10000 4.6 150 21:19 11.12.2019
6624 Clouds 25 1008 88 10000 5.7 160 20:56 11.12.2019
6625 Clouds 25 1008 88 10000 5.7 160 20:37 11.12.2019
6626 Clouds 25 1008 88 10000 5.7 160 20:19 11.12.2019
6627 Clouds 25 1008 88 7000 5.7 160 19:57 11.12.2019
6628 Clouds 25 1008 88 7000 5.7 160 19:39 11.12.2019
6629 Clouds 25 1008 88 7000 5.7 160 19:19 11.12.2019
6630 Clouds 25 1009 83 6000 6.2 170 18:41 11.12.2019
6631 Clouds 25 1009 83 6000 6.2 170 18:21 11.12.2019
6632 Clouds 26 1010 78 6000 5.1 180 17:57 11.12.2019
6633 Clouds 26 1010 78 6000 5.1 180 17:57 11.12.2019
6634 Clouds 26 1010 78 6000 5.1 180 17:39 11.12.2019
6635 Clouds 26 1010 78 6000 5.1 180 17:19 11.12.2019
6636 Clouds 26 1010 78 7000 2.6 150 16:57 11.12.2019
6637 Clouds 26 1010 78 7000 2.6 150 16:39 11.12.2019
6638 Clouds 26 1010 78 7000 2.6 150 16:21 11.12.2019
6639 Clouds 26 1010 83 6000 2.1 130 15:59 11.12.2019
6640 Clouds 27 1010 83 6000 2.1 130 15:40 11.12.2019
6641 Clouds 27 1010 83 6000 2.1 130 15:22 11.12.2019
6642 Clouds 25 1010 83 8000 2.6 350 15:22 11.12.2019
6643 Clouds 25 1010 83 8000 2.6 350 14:56 11.12.2019
6644 Clouds 25 1010 83 8000 2.6 350 14:38 11.12.2019
6645 Clouds 25 1010 83 8000 2.6 350 14:19 11.12.2019
6646 Clouds 25 1010 88 7000 1.5 30 13:55 11.12.2019
6647 Clouds 25 1011 88 6000 1.5 130 13:36 11.12.2019
6648 Clouds 24 1011 88 6000 1.5 130 13:18 11.12.2019
6649 Mist 24 1011 94 5000 3.6 130 12:55 11.12.2019
6650 Mist 24 1011 94 5000 3.6 130 12:37 11.12.2019
6651 Mist 23 1011 94 4500 3.6 150 12:18 11.12.2019
6652 Mist 24 1011 94 5000 3.6 130 12:18 11.12.2019
6653 Mist 23 1011 94 4500 3.6 150 11:57 11.12.2019
6654 Mist 23 1011 94 4500 3.6 150 11:57 11.12.2019
6655 Mist 23 1011 94 4500 3.6 150 11:38 11.12.2019
6656 Mist 23 1011 94 4500 3.6 150 11:38 11.12.2019
6657 Mist 23 1011 94 4500 3.6 150 11:18 11.12.2019
6658 Mist 23 1011 94 4000 0.5 320 11:18 11.12.2019
6659 Mist 22 1010 100 4500 4.6 190 10:45 11.12.2019
6660 Mist 22 1010 100 4500 4.6 190 10:27 11.12.2019
6661 Mist 21 1009 100 4000 1 190 09:59 11.12.2019
6662 Mist 21 1009 100 4000 1 190 09:39 11.12.2019
6663 Mist 21 1009 100 4000 1 190 09:39 11.12.2019
6664 Mist 21 1009 100 4000 1 190 09:39 11.12.2019
6665 Mist